GFSGBSN_prec_precacc12_015.txt.gz
Total_Precipitation_Accumulation
0.09 0.06 0.08 0.08 0.07 0.07 0.06 0.07 0.08 0.08 0.07 0.08 0.09 0.07 0.06 0.04 0.02 0.00 0.00 0.00 0.00 0.00 0.00 0.00 0.00 0.00 0.00 0.01 0.00 0.00 0.00 0.00 0.00 0.07 0.02 0.00 0.00 0.00 0.00 0.00 0.00 0.00 0.00 0.00 0.00 0.00 0.00
0.05 0.05 0.04 0.05 0.06 0.07 0.08 0.09 0.09 0.09 0.08 0.09 0.10 0.10 0.08 0.08 0.05 0.01 0.00 0.00 0.00 0.00 0.01 0.00 0.00 0.00 0.00 0.00 0.00 0.00 0.00 0.00 0.00 0.00 0.02 0.01 0.00 0.00 0.00 0.00 0.00 0.00 0.00 0.00 0.00 0.00 0.00
0.01 0.02 0.04 0.06 0.07 0.08 0.09 0.10 0.11 0.11 0.11 0.11 0.13 0.12 0.08 0.08 0.08 0.03 0.00 0.01 0.01 0.01 0.00 0.00 0.00 0.00 0.00 0.00 0.00 0.00 0.00 0.00 0.00 0.00 0.00 0.02 0.01 0.03 0.03 0.00 0.00 0.00 0.00 0.00 0.00 0.00 0.00
0.00 0.00 0.02 0.06 0.07 0.08 0.08 0.08 0.08 0.09 0.12 0.13 0.14 0.16 0.13 0.11 0.09 0.06 0.01 0.01 0.02 0.04 0.04 0.01 0.01 0.00 0.00 0.00 0.00 0.00 0.00 0.00 0.00 0.00 0.00 0.00 0.01 0.04 0.04 0.02 0.00 0.01 0.00 0.00 0.00 0.00 0.00
0.00 0.00 0.00 0.03 0.05 0.04 0.04 0.05 0.05 0.07 0.10 0.13 0.14 0.13 0.14 0.13 0.11 0.06 0.03 0.01 0.01 0.01 0.05 0.08 0.01 0.00 0.00 0.00 0.00 0.00 0.00 0.00 0.00 0.00 0.00 0.00 0.00 0.00 0.01 0.03 0.02 0.01 0.00 0.00 0.00 0.00 0.00
0.00 0.00 0.00 0.01 0.01 0.03 0.04 0.05 0.07 0.08 0.10 0.12 0.13 0.15 0.16 0.17 0.14 0.08 0.06 0.06 0.04 0.04 0.05 0.03 0.02 0.01 0.00 0.00 0.00 0.00 0.00 0.00 0.00 0.00 0.00 0.00 0.00 0.00 0.00 0.01 0.01 0.01 0.01 0.00 0.00 0.00 0.00
0.00 0.00 0.00 0.00 0.01 0.04 0.08 0.08 0.09 0.08 0.10 0.12 0.15 0.16 0.17 0.22 0.20 0.16 0.08 0.02 0.01 0.01 0.03 0.00 0.00 0.00 0.00 0.00 0.00 0.00 0.00 0.00 0.00 0.00 0.00 0.00 0.00 0.00 0.00 0.00 0.00 0.00 0.00 0.00 0.00 0.00 0.01
0.01 0.01 0.01 0.02 0.01 0.03 0.07 0.08 0.09 0.09 0.09 0.13 0.16 0.19 0.18 0.19 0.24 0.37 0.09 0.00 0.00 0.00 0.00 0.00 0.00 0.00 0.00 0.00 0.00 0.00 0.00 0.00 0.00 0.00 0.00 0.00 0.00 0.00 0.00 0.00 0.00 0.00 0.00 0.00 0.00 0.00 0.02
0.01 0.01 0.03 0.03 0.01 0.02 0.03 0.12 0.14 0.17 0.19 0.19 0.19 0.20 0.23 0.23 0.39 0.62 0.13 0.00 0.00 0.00 0.00 0.00 0.00 0.00 0.00 0.00 0.00 0.00 0.00 0.00 0.00 0.00 0.00 0.00 0.00 0.00 0.00 0.00 0.00 0.00 0.00 0.00 0.00 0.00 0.00
0.01 0.02 0.03 0.02 0.01 0.02 0.03 0.13 0.27 0.32 0.34 0.41 0.31 0.30 0.28 0.40 0.90 0.50 0.22 0.02 0.00 0.00 0.00 0.00 0.00 0.00 0.00 0.01 0.01 0.00 0.00 0.00 0.01 0.00 0.00 0.01 0.00 0.00 0.00 0.00 0.00 0.00 0.00 0.00 0.00 0.01 0.00
0.01 0.02 0.03 0.03 0.03 0.05 0.08 0.14 0.28 0.41 0.45 0.46 0.47 0.38 0.38 0.64 0.87 0.59 0.22 0.03 0.00 0.00 0.00 0.00 0.00 0.00 0.01 0.01 0.00 0.00 0.00 0.01 0.01 0.00 0.01 0.02 0.00 0.00 0.00 0.00 0.00 0.00 0.00 0.00 0.00 0.02 0.05
0.02 0.03 0.03 0.04 0.07 0.10 0.13 0.16 0.20 0.25 0.33 0.52 0.68 0.65 0.77 0.72 0.72 0.47 0.19 0.07 0.01 0.00 0.00 0.00 0.00 0.02 0.03 0.02 0.01 0.00 0.01 0.04 0.04 0.11 0.11 0.01 0.00 0.00 0.00 0.00 0.00 0.01 0.02 0.02 0.03 0.08 0.10
0.03 0.05 0.05 0.07 0.09 0.12 0.17 0.18 0.15 0.22 0.40 0.66 0.79 0.90 0.89 0.76 0.69 0.57 0.37 0.15 0.02 0.00 0.00 0.00 0.00 0.01 0.01 0.01 0.01 0.01 0.04 0.11 0.22 0.22 0.26 0.14 0.02 0.00 0.00 0.00 0.00 0.01 0.07 0.18 0.14 0.12 0.04
0.03 0.06 0.07 0.08 0.11 0.20 0.22 0.19 0.28 0.38 0.48 0.47 0.85 0.89 0.90 0.73 0.62 0.84 0.46 0.13 0.02 0.00 0.00 0.00 0.00 0.01 0.01 0.01 0.02 0.02 0.05 0.07 0.07 0.18 0.24 0.14 0.07 0.01 0.00 0.00 0.00 0.00 0.02 0.11 0.07 0.02 0.01
0.04 0.07 0.09 0.09 0.12 0.14 0.11 0.14 0.20 0.28 0.49 0.74 1.03 1.16 0.96 0.86 0.82 0.88 0.41 0.13 0.01 0.00 0.00 0.00 0.00 0.03 0.02 0.01 0.01 0.04 0.04 0.02 0.01 0.03 0.10 0.07 0.01 0.00 0.00 0.00 0.03 0.12 0.16 0.04 0.10 0.10 0.17
0.05 0.09 0.09 0.09 0.10 0.08 0.15 0.14 0.23 0.51 0.75 0.79 1.12 1.53 0.90 0.66 0.94 0.94 0.38 0.07 0.00 0.00 0.00 0.00 0.02 0.03 0.00 0.00 0.01 0.02 0.01 0.00 0.00 0.00 0.00 0.01 0.03 0.01 0.04 0.05 0.03 0.06 0.06 0.19 0.46 0.24 0.11
0.06 0.10 0.09 0.10 0.10 0.11 0.19 0.28 0.40 0.57 0.71 1.23 0.98 1.43 0.83 0.74 1.08 1.01 0.44 0.05 0.00 0.00 0.00 0.00 0.01 0.03 0.00 0.00 0.00 0.00 0.00 0.00 0.00 0.00 0.00 0.00 0.03 0.03 0.19 0.07 0.02 0.02 0.12 0.11 0.14 0.15 0.20
0.07 0.10 0.07 0.10 0.08 0.15 0.27 0.36 0.51 0.57 0.72 1.49 1.59 0.80 0.90 0.99 1.31 0.71 0.13 0.01 0.00 0.00 0.00 0.01 0.05 0.04 0.00 0.00 0.00 0.00 0.00 0.00 0.00 0.00 0.01 0.00 0.09 0.12 0.07 0.03 0.05 0.06 0.04 0.04 0.08 0.02 0.08
0.08 0.09 0.06 0.09 0.08 0.13 0.25 0.32 0.45 0.49 0.87 1.40 1.47 0.91 0.98 0.60 0.46 0.20 0.03 0.00 0.00 0.01 0.01 0.03 0.04 0.03 0.00 0.00 0.00 0.00 0.00 0.00 0.00 0.00 0.00 0.01 0.15 0.26 0.20 0.18 0.20 0.14 0.05 0.05 0.03 0.12 0.26
0.08 0.07 0.07 0.08 0.07 0.10 0.19 0.20 0.33 0.50 0.95 1.43 1.25 1.39 1.70 1.19 0.24 0.03 0.00 0.01 0.01 0.01 0.00 0.08 0.11 0.07 0.04 0.02 0.00 0.00 0.00 0.00 0.00 0.00 0.01 0.07 0.21 0.26 0.32 0.36 0.60 0.31 0.11 0.12 0.23 0.36 0.22
0.08 0.06 0.08 0.09 0.05 0.06 0.07 0.13 0.26 0.54 1.14 1.28 0.89 0.60 0.50 0.65 0.25 0.01 0.00 0.01 0.01 0.02 0.02 0.13 0.11 0.09 0.05 0.03 0.01 0.00 0.00 0.00 0.00 0.02 0.12 0.28 0.32 0.29 0.22 0.26 0.59 0.53 0.17 0.17 0.46 0.32 0.16
0.07 0.06 0.08 0.08 0.04 0.03 0.04 0.07 0.17 0.75 1.28 1.01 0.72 0.30 0.02 0.01 0.03 0.00 0.01 0.01 0.01 0.01 0.05 0.10 0.07 0.04 0.04 0.04 0.01 0.00 0.00 0.00 0.00 0.02 0.11 0.29 0.49 0.55 0.40 0.32 0.30 0.25 0.10 0.16 0.45 0.33 0.20
0.08 0.06 0.09 0.07 0.02 0.02 0.03 0.09 0.19 0.73 1.34 1.08 0.62 0.28 0.02 0.01 0.01 0.01 0.00 0.00 0.01 0.03 0.02 0.02 0.05 0.08 0.03 0.02 0.02 0.01 0.00 0.02 0.01 0.01 0.11 0.30 0.44 0.70 0.61 0.40 0.33 0.24 0.06 0.15 0.37 0.32 0.15
0.08 0.08 0.09 0.05 0.01 0.02 0.03 0.08 0.23 0.60 0.92 1.08 0.64 0.36 0.13 0.04 0.01 0.00 0.00 0.00 0.00 0.01 0.01 0.00 0.01 0.05 0.02 0.02 0.02 0.05 0.01 0.01 0.01 0.00 0.02 0.15 0.34 0.56 0.81 0.69 0.63 0.32 0.09 0.15 0.16 0.16 0.10
0.08 0.09 0.08 0.04 0.01 0.02 0.03 0.05 0.18 0.50 0.49 0.67 0.49 0.32 0.11 0.03 0.01 0.02 0.02 0.01 0.02 0.02 0.01 0.01 0.02 0.01 0.02 0.06 0.10 0.13 0.13 0.03 0.00 0.00 0.00 0.03 0.16 0.21 0.24 0.19 0.11 0.08 0.11 0.08 0.08 0.10 0.03
0.07 0.08 0.06 0.02 0.01 0.02 0.02 0.04 0.15 0.39 0.40 0.53 0.51 0.45 0.10 0.03 0.01 0.00 0.02 0.02 0.06 0.06 0.02 0.03 0.03 0.04 0.09 0.18 0.24 0.18 0.05 0.01 0.00 0.00 0.00 0.00 0.00 0.05 0.03 0.02 0.01 0.01 0.01 0.02 0.02 0.01 0.00
0.06 0.07 0.04 0.02 0.01 0.01 0.02 0.02 0.15 0.27 0.32 0.45 0.52 0.38 0.11 0.03 0.00 0.00 0.01 0.01 0.00 0.01 0.03 0.07 0.10 0.15 0.16 0.23 0.23 0.12 0.01 0.00 0.00 0.00 0.00 0.00 0.00 0.00 0.00 0.01 0.00 0.00 0.00 0.00 0.00 0.00 0.00
0.06 0.04 0.03 0.02 0.01 0.01 0.01 0.02 0.10 0.17 0.25 0.35 0.37 0.35 0.17 0.03 0.01 0.00 0.00 0.00 0.00 0.00 0.05 0.10 0.19 0.23 0.23 0.27 0.20 0.10 0.00 0.00 0.00 0.00 0.00 0.00 0.00 0.00 0.00 0.00 0.00 0.00 0.00 0.00 0.00 0.00 0.00
0.05 0.03 0.03 0.02 0.01 0.01 0.01 0.01 0.05 0.12 0.17 0.29 0.29 0.30 0.17 0.02 0.01 0.00 0.00 0.00 0.00 0.01 0.06 0.09 0.16 0.18 0.23 0.19 0.10 0.06 0.01 0.00 0.00 0.00 0.00 0.00 0.00 0.00 0.00 0.00 0.00 0.00 0.00 0.00 0.00 0.00 0.00

GFSGBSN_prec_precacc12_018.txt.gz
Total_Precipitation_Accumulation
0.00 0.01 0.05 0.08 0.07 0.07 0.05 0.06 0.07 0.07 0.06 0.08 0.10 0.09 0.08 0.07 0.08 0.09 0.03 0.00 0.00 0.00 0.00 0.00 0.00 0.00 0.00 0.02 0.00 0.00 0.00 0.00 0.01 0.14 0.03 0.01 0.00 0.00 0.00 0.00 0.00 0.00 0.00 0.00 0.00 0.00 0.00
0.00 0.00 0.00 0.01 0.03 0.06 0.07 0.08 0.08 0.08 0.08 0.08 0.10 0.10 0.11 0.11 0.09 0.08 0.05 0.00 0.00 0.00 0.01 0.00 0.00 0.00 0.00 0.00 0.00 0.00 0.00 0.00 0.00 0.03 0.03 0.01 0.00 0.00 0.00 0.00 0.00 0.00 0.00 0.00 0.00 0.00 0.00
0.00 0.00 0.00 0.00 0.00 0.04 0.08 0.10 0.10 0.10 0.10 0.11 0.12 0.12 0.10 0.10 0.12 0.11 0.08 0.01 0.01 0.01 0.00 0.00 0.00 0.00 0.00 0.00 0.00 0.00 0.00 0.00 0.00 0.02 0.02 0.02 0.01 0.01 0.02 0.00 0.00 0.00 0.00 0.00 0.00 0.00 0.00
0.00 0.00 0.00 0.00 0.00 0.01 0.05 0.07 0.07 0.08 0.10 0.11 0.14 0.15 0.14 0.14 0.13 0.13 0.10 0.04 0.02 0.04 0.04 0.01 0.01 0.00 0.00 0.00 0.00 0.00 0.00 0.00 0.00 0.00 0.01 0.02 0.01 0.03 0.03 0.01 0.00 0.01 0.00 0.00 0.00 0.00 0.00
0.00 0.00 0.00 0.00 0.01 0.01 0.01 0.02 0.04 0.06 0.09 0.11 0.13 0.12 0.13 0.16 0.17 0.15 0.11 0.07 0.02 0.02 0.05 0.12 0.02 0.00 0.00 0.00 0.00 0.00 0.00 0.00 0.00 0.00 0.00 0.00 0.00 0.00 0.01 0.02 0.01 0.01 0.00 0.00 0.00 0.00 0.00
0.01 0.01 0.01 0.01 0.01 0.02 0.01 0.01 0.03 0.06 0.07 0.09 0.11 0.15 0.16 0.18 0.22 0.21 0.20 0.22 0.08 0.05 0.06 0.04 0.01 0.00 0.00 0.00 0.00 0.00 0.00 0.00 0.00 0.00 0.00 0.00 0.00 0.00 0.00 0.01 0.00 0.00 0.00 0.00 0.00 0.00 0.00
0.01 0.01 0.01 0.01 0.02 0.02 0.02 0.02 0.03 0.05 0.07 0.08 0.12 0.15 0.18 0.22 0.25 0.37 0.51 0.35 0.07 0.02 0.03 0.00 0.00 0.00 0.00 0.00 0.00 0.00 0.00 0.00 0.00 0.00 0.00 0.00 0.00 0.00 0.00 0.00 0.00 0.00 0.00 0.00 0.00 0.00 0.00
0.01 0.01 0.02 0.03 0.02 0.01 0.02 0.03 0.04 0.05 0.06 0.10 0.15 0.19 0.18 0.20 0.26 0.58 0.76 0.25 0.01 0.00 0.00 0.00 0.00 0.00 0.00 0.00 0.00 0.00 0.00 0.00 0.00 0.00 0.00 0.00 0.00 0.00 0.00 0.00 0.00 0.00 0.00 0.00 0.00 0.00 0.00
0.02 0.02 0.03 0.03 0.02 0.02 0.03 0.04 0.05 0.10 0.17 0.19 0.21 0.19 0.22 0.23 0.40 0.79 0.65 0.22 0.02 0.00 0.00 0.00 0.00 0.00 0.00 0.00 0.00 0.00 0.00 0.00 0.00 0.00 0.00 0.00 0.00 0.00 0.00 0.00 0.00 0.00 0.00 0.00 0.00 0.00 0.00
0.02 0.02 0.04 0.03 0.02 0.03 0.05 0.06 0.10 0.14 0.28 0.38 0.25 0.22 0.26 0.42 0.91 0.59 0.50 0.20 0.10 0.00 0.00 0.00 0.00 0.00 0.00 0.00 0.00 0.00 0.00 0.00 0.00 0.00 0.00 0.01 0.00 0.00 0.00 0.00 0.00 0.00 0.00 0.00 0.00 0.00 0.00
0.02 0.03 0.04 0.03 0.04 0.06 0.09 0.11 0.16 0.19 0.22 0.34 0.41 0.30 0.38 0.70 0.91 0.65 0.36 0.23 0.19 0.03 0.00 0.00 0.00 0.00 0.01 0.00 0.00 0.00 0.00 0.00 0.00 0.00 0.00 0.01 0.00 0.00 0.00 0.00 0.00 0.00 0.00 0.00 0.00 0.01 0.02
0.03 0.04 0.05 0.05 0.07 0.09 0.14 0.15 0.16 0.09 0.08 0.29 0.60 0.68 0.83 0.75 0.76 0.54 0.38 0.37 0.34 0.09 0.00 0.00 0.00 0.03 0.03 0.02 0.01 0.00 0.01 0.02 0.01 0.02 0.01 0.00 0.00 0.00 0.00 0.00 0.00 0.00 0.02 0.01 0.02 0.05 0.07
0.04 0.05 0.06 0.06 0.08 0.12 0.14 0.14 0.11 0.14 0.25 0.40 0.59 0.92 0.93 0.79 0.71 0.63 0.72 0.71 0.44 0.07 0.00 0.01 0.01 0.03 0.01 0.01 0.02 0.01 0.02 0.04 0.06 0.09 0.08 0.05 0.01 0.00 0.00 0.00 0.00 0.01 0.06 0.14 0.14 0.13 0.04
0.04 0.08 0.08 0.08 0.09 0.13 0.13 0.12 0.20 0.29 0.33 0.26 0.59 0.82 0.91 0.75 0.64 1.02 1.15 0.58 0.17 0.01 0.00 0.00 0.00 0.01 0.01 0.00 0.01 0.01 0.03 0.03 0.03 0.10 0.15 0.08 0.04 0.01 0.00 0.00 0.00 0.01 0.02 0.09 0.06 0.02 0.00
0.05 0.09 0.10 0.09 0.10 0.11 0.08 0.08 0.12 0.16 0.24 0.53 0.48 1.00 0.95 0.92 0.87 1.13 1.12 0.42 0.04 0.00 0.00 0.00 0.00 0.01 0.01 0.00 0.00 0.02 0.02 0.01 0.00 0.01 0.06 0.05 0.01 0.00 0.00 0.00 0.03 0.12 0.15 0.04 0.12 0.09 0.18
0.07 0.10 0.11 0.10 0.09 0.08 0.04 0.03 0.13 0.33 0.39 0.40 0.31 1.10 0.95 0.69 1.01 1.26 0.79 0.21 0.00 0.00 0.00 0.00 0.00 0.00 0.00 0.00 0.01 0.01 0.01 0.00 0.00 0.00 0.00 0.01 0.02 0.00 0.00 0.01 0.00 0.04 0.05 0.20 0.47 0.23 0.11
0.07 0.11 0.11 0.11 0.08 0.05 0.02 0.06 0.24 0.26 0.31 0.46 0.68 0.96 0.86 0.73 1.08 1.19 0.65 0.15 0.00 0.00 0.00 0.00 0.00 0.00 0.00 0.00 0.00 0.00 0.00 0.00 0.00 0.00 0.00 0.01 0.03 0.01 0.01 0.01 0.01 0.02 0.07 0.11 0.17 0.13 0.08
0.09 0.11 0.09 0.10 0.07 0.03 0.03 0.11 0.18 0.27 0.42 0.57 0.86 0.85 0.85 0.92 1.17 0.76 0.23 0.02 0.00 0.00 0.00 0.00 0.00 0.00 0.00 0.00 0.00 0.00 0.00 0.00 0.00 0.00 0.00 0.00 0.07 0.05 0.00 0.00 0.01 0.03 0.00 0.03 0.16 0.04 0.05
0.10 0.10 0.08 0.10 0.08 0.03 0.03 0.07 0.21 0.33 0.59 0.81 0.76 0.97 0.94 0.58 0.45 0.25 0.07 0.00 0.00 0.00 0.00 0.01 0.01 0.00 0.00 0.00 0.00 0.00 0.00 0.00 0.00 0.00 0.00 0.00 0.09 0.12 0.09 0.10 0.09 0.09 0.02 0.04 0.12 0.22 0.16
0.09 0.09 0.09 0.09 0.07 0.03 0.02 0.03 0.16 0.29 0.53 0.94 0.80 1.41 1.52 0.88 0.22 0.03 0.01 0.00 0.00 0.00 0.00 0.03 0.04 0.05 0.03 0.01 0.00 0.00 0.00 0.00 0.00 0.00 0.00 0.06 0.13 0.11 0.13 0.24 0.37 0.32 0.11 0.11 0.31 0.39 0.07
0.08 0.07 0.09 0.11 0.06 0.03 0.01 0.02 0.10 0.24 0.38 0.61 0.66 0.57 0.44 0.53 0.21 0.00 0.00 0.00 0.00 0.01 0.02 0.05 0.05 0.06 0.05 0.03 0.01 0.00 0.00 0.00 0.00 0.01 0.11 0.24 0.21 0.11 0.12 0.20 0.48 0.46 0.20 0.16 0.27 0.09 0.06
0.07 0.06 0.09 0.09 0.04 0.02 0.00 0.01 0.07 0.40 0.57 0.50 0.63 0.30 0.02 0.01 0.03 0.00 0.00 0.00 0.00 0.01 0.04 0.07 0.03 0.03 0.04 0.04 0.01 0.00 0.00 0.00 0.00 0.01 0.09 0.22 0.31 0.28 0.28 0.31 0.31 0.30 0.06 0.08 0.12 0.05 0.02
0.06 0.06 0.10 0.08 0.02 0.02 0.00 0.01 0.09 0.46 0.65 0.58 0.59 0.32 0.03 0.01 0.01 0.00 0.00 0.00 0.00 0.03 0.02 0.01 0.02 0.06 0.03 0.02 0.01 0.01 0.01 0.02 0.01 0.01 0.11 0.30 0.35 0.49 0.39 0.30 0.30 0.22 0.04 0.04 0.06 0.07 0.03
0.06 0.07 0.09 0.07 0.02 0.02 0.01 0.02 0.07 0.27 0.50 0.66 0.62 0.38 0.12 0.03 0.01 0.00 0.00 0.00 0.00 0.01 0.01 0.00 0.01 0.03 0.02 0.02 0.01 0.01 0.01 0.01 0.02 0.01 0.03 0.16 0.34 0.57 0.75 0.63 0.66 0.40 0.12 0.13 0.14 0.11 0.07
0.06 0.09 0.07 0.04 0.02 0.01 0.01 0.01 0.04 0.13 0.23 0.39 0.44 0.37 0.10 0.02 0.01 0.00 0.00 0.01 0.02 0.02 0.00 0.00 0.00 0.00 0.02 0.05 0.08 0.07 0.05 0.02 0.00 0.00 0.00 0.03 0.17 0.26 0.33 0.30 0.15 0.10 0.13 0.09 0.08 0.09 0.03
0.06 0.07 0.06 0.02 0.02 0.02 0.01 0.01 0.03 0.08 0.09 0.37 0.57 0.58 0.13 0.02 0.01 0.00 0.02 0.02 0.06 0.06 0.01 0.00 0.00 0.02 0.06 0.09 0.16 0.14 0.03 0.00 0.00 0.00 0.00 0.00 0.02 0.09 0.05 0.08 0.05 0.02 0.02 0.02 0.02 0.01 0.00
0.05 0.04 0.03 0.02 0.01 0.01 0.01 0.01 0.04 0.09 0.12 0.29 0.56 0.47 0.13 0.02 0.00 0.00 0.01 0.01 0.00 0.01 0.01 0.00 0.03 0.07 0.11 0.14 0.18 0.08 0.01 0.00 0.00 0.00 0.00 0.00 0.01 0.01 0.01 0.02 0.00 0.00 0.00 0.00 0.00 0.01 0.00
0.04 0.03 0.03 0.02 0.01 0.01 0.01 0.01 0.03 0.08 0.14 0.21 0.35 0.39 0.22 0.03 0.01 0.00 0.00 0.00 0.00 0.00 0.00 0.01 0.05 0.11 0.18 0.20 0.17 0.07 0.01 0.00 0.00 0.00 0.00 0.00 0.00 0.00 0.00 0.00 0.00 0.00 0.00 0.00 0.00 0.00 0.00
0.03 0.02 0.02 0.02 0.01 0.01 0.01 0.01 0.02 0.03 0.11 0.22 0.27 0.29 0.18 0.03 0.01 0.00 0.00 0.00 0.00 0.00 0.00 0.00 0.06 0.13 0.22 0.19 0.11 0.06 0.02 0.00 0.00 0.00 0.00 0.00 0.00 0.00 0.00 0.00 0.00 0.00 0.00 0.00 0.00 0.00 0.00

GFSGBSN_prec_precacc12_021.txt.gz
Total_Precipitation_Accumulation
0.00 0.00 0.00 0.00 0.00 0.00 0.02 0.05 0.07 0.06 0.06 0.05 0.08 0.09 0.08 0.08 0.08 0.11 0.12 0.07 0.01 0.00 0.00 0.00 0.00 0.00 0.01 0.04 0.02 0.00 0.00 0.00 0.04 0.22 0.03 0.00 0.00 0.00 0.00 0.00 0.00 0.00 0.00 0.00 0.00 0.00 0.00
0.00 0.00 0.00 0.00 0.00 0.00 0.00 0.02 0.06 0.08 0.07 0.07 0.07 0.09 0.11 0.11 0.09 0.09 0.10 0.07 0.02 0.00 0.01 0.00 0.00 0.00 0.00 0.01 0.00 0.00 0.00 0.00 0.00 0.10 0.06 0.02 0.00 0.00 0.00 0.00 0.00 0.00 0.00 0.00 0.00 0.00 0.00
0.00 0.00 0.00 0.00 0.00 0.00 0.00 0.00 0.02 0.08 0.09 0.10 0.10 0.11 0.10 0.10 0.12 0.12 0.12 0.10 0.03 0.01 0.00 0.00 0.00 0.00 0.00 0.00 0.00 0.00 0.00 0.00 0.00 0.09 0.09 0.03 0.01 0.00 0.00 0.00 0.00 0.00 0.00 0.00 0.00 0.00 0.00
0.00 0.01 0.01 0.00 0.00 0.01 0.01 0.01 0.01 0.03 0.08 0.10 0.11 0.11 0.12 0.13 0.14 0.14 0.14 0.13 0.10 0.04 0.04 0.01 0.01 0.00 0.00 0.00 0.00 0.00 0.00 0.00 0.00 0.02 0.08 0.07 0.01 0.01 0.01 0.00 0.00 0.00 0.00 0.00 0.00 0.00 0.00
0.01 0.01 0.00 0.00 0.00 0.02 0.02 0.01 0.01 0.01 0.03 0.07 0.10 0.09 0.12 0.16 0.18 0.16 0.16 0.21 0.22 0.09 0.07 0.12 0.02 0.00 0.00 0.00 0.00 0.00 0.00 0.00 0.00 0.00 0.00 0.02 0.01 0.00 0.01 0.01 0.00 0.00 0.00 0.00 0.00 0.00 0.00
0.01 0.01 0.01 0.01 0.02 0.03 0.02 0.02 0.02 0.02 0.02 0.04 0.06 0.10 0.12 0.17 0.22 0.22 0.27 0.41 0.45 0.16 0.10 0.08 0.01 0.00 0.00 0.00 0.00 0.00 0.00 0.00 0.00 0.00 0.00 0.00 0.00 0.00 0.00 0.00 0.00 0.00 0.00 0.00 0.00 0.00 0.00
0.01 0.02 0.02 0.03 0.04 0.04 0.04 0.05 0.04 0.04 0.05 0.04 0.06 0.11 0.13 0.20 0.27 0.38 0.61 0.85 0.73 0.32 0.08 0.01 0.01 0.00 0.00 0.00 0.00 0.00 0.00 0.00 0.00 0.00 0.00 0.00 0.01 0.00 0.00 0.00 0.00 0.00 0.00 0.00 0.00 0.00 0.00
0.02 0.02 0.03 0.03 0.04 0.04 0.05 0.04 0.04 0.05 0.05 0.06 0.11 0.17 0.15 0.18 0.27 0.59 0.89 0.85 0.32 0.07 0.01 0.00 0.00 0.00 0.00 0.00 0.00 0.00 0.00 0.00 0.00 0.00 0.00 0.00 0.00 0.00 0.00 0.00 0.00 0.00 0.00 0.00 0.00 0.00 0.00
0.02 0.03 0.04 0.05 0.05 0.05 0.04 0.06 0.06 0.08 0.11 0.14 0.17 0.15 0.14 0.19 0.38 0.77 0.69 0.47 0.16 0.11 0.03 0.00 0.00 0.00 0.00 0.00 0.00 0.00 0.00 0.00 0.00 0.00 0.00 0.00 0.00 0.00 0.00 0.00 0.00 0.00 0.00 0.00 0.00 0.00 0.00
0.02 0.03 0.04 0.04 0.05 0.05 0.05 0.07 0.10 0.16 0.18 0.19 0.13 0.13 0.16 0.32 0.85 0.60 0.53 0.27 0.39 0.23 0.04 0.00 0.00 0.00 0.00 0.00 0.00 0.00 0.00 0.00 0.00 0.00 0.00 0.00 0.00 0.00 0.00 0.00 0.00 0.00 0.00 0.00 0.00 0.00 0.00
0.03 0.03 0.04 0.05 0.05 0.07 0.08 0.10 0.17 0.20 0.16 0.07 0.11 0.19 0.32 0.68 0.96 0.67 0.41 0.36 0.59 0.43 0.11 0.00 0.00 0.00 0.00 0.00 0.00 0.00 0.00 0.00 0.00 0.00 0.00 0.00 0.00 0.00 0.00 0.00 0.00 0.00 0.00 0.00 0.00 0.01 0.02
0.03 0.05 0.06 0.06 0.07 0.09 0.11 0.13 0.16 0.11 0.06 0.12 0.21 0.40 0.58 0.69 0.79 0.54 0.45 0.56 0.89 0.59 0.09 0.01 0.01 0.04 0.03 0.01 0.01 0.00 0.01 0.02 0.00 0.00 0.00 0.00 0.00 0.00 0.00 0.00 0.00 0.00 0.01 0.01 0.01 0.04 0.07
0.04 0.06 0.08 0.07 0.10 0.11 0.12 0.12 0.09 0.12 0.23 0.33 0.24 0.36 0.54 0.75 0.72 0.64 0.90 0.97 0.88 0.34 0.02 0.01 0.01 0.04 0.02 0.01 0.02 0.01 0.02 0.03 0.01 0.02 0.02 0.01 0.00 0.00 0.00 0.00 0.00 0.01 0.05 0.10 0.10 0.13 0.03
0.05 0.08 0.09 0.09 0.11 0.11 0.09 0.05 0.13 0.23 0.29 0.21 0.37 0.25 0.38 0.67 0.65 1.08 1.34 0.88 0.35 0.05 0.00 0.00 0.01 0.01 0.02 0.01 0.01 0.01 0.01 0.03 0.01 0.02 0.04 0.03 0.01 0.00 0.00 0.00 0.00 0.00 0.02 0.07 0.03 0.01 0.00
0.05 0.08 0.10 0.10 0.11 0.12 0.07 0.03 0.04 0.08 0.19 0.49 0.31 0.18 0.39 0.80 0.89 1.17 1.23 0.68 0.13 0.00 0.00 0.00 0.01 0.01 0.02 0.00 0.01 0.01 0.01 0.01 0.00 0.01 0.03 0.03 0.00 0.00 0.00 0.00 0.01 0.08 0.09 0.03 0.09 0.05 0.14
0.06 0.09 0.11 0.11 0.10 0.10 0.04 0.02 0.03 0.13 0.29 0.31 0.12 0.19 0.33 0.63 1.01 1.28 0.86 0.35 0.02 0.00 0.00 0.00 0.00 0.00 0.00 0.00 0.01 0.01 0.01 0.00 0.00 0.00 0.00 0.00 0.02 0.00 0.00 0.00 0.00 0.03 0.03 0.18 0.39 0.14 0.08
0.07 0.10 0.10 0.11 0.10 0.05 0.03 0.01 0.03 0.12 0.18 0.26 0.38 0.38 0.39 0.57 1.07 1.17 0.74 0.26 0.00 0.00 0.00 0.00 0.00 0.00 0.00 0.00 0.00 0.00 0.00 0.00 0.00 0.00 0.00 0.00 0.03 0.01 0.00 0.01 0.00 0.01 0.05 0.10 0.18 0.14 0.08
0.08 0.11 0.08 0.10 0.08 0.03 0.03 0.01 0.03 0.10 0.25 0.44 0.56 0.56 0.42 0.73 1.08 0.70 0.32 0.05 0.00 0.00 0.00 0.00 0.00 0.00 0.00 0.00 0.00 0.00 0.00 0.00 0.00 0.00 0.00 0.00 0.05 0.03 0.00 0.00 0.00 0.00 0.00 0.03 0.19 0.05 0.12
0.09 0.09 0.08 0.10 0.08 0.04 0.03 0.01 0.03 0.09 0.39 0.55 0.46 0.64 0.61 0.52 0.45 0.24 0.15 0.01 0.00 0.00 0.00 0.00 0.00 0.00 0.00 0.00 0.00 0.00 0.00 0.00 0.00 0.00 0.00 0.00 0.05 0.05 0.02 0.05 0.07 0.07 0.02 0.04 0.14 0.32 0.26
0.08 0.07 0.08 0.09 0.08 0.04 0.02 0.01 0.03 0.11 0.30 0.50 0.47 1.01 0.96 0.60 0.20 0.03 0.06 0.02 0.01 0.00 0.00 0.00 0.01 0.02 0.02 0.01 0.00 0.00 0.00 0.00 0.00 0.00 0.00 0.01 0.04 0.04 0.05 0.11 0.30 0.32 0.11 0.12 0.42 0.55 0.10
0.07 0.05 0.07 0.10 0.06 0.04 0.01 0.01 0.04 0.13 0.19 0.27 0.32 0.38 0.26 0.31 0.16 0.01 0.02 0.01 0.01 0.00 0.00 0.01 0.01 0.03 0.03 0.02 0.01 0.00 0.00 0.00 0.00 0.00 0.02 0.08 0.09 0.03 0.05 0.10 0.33 0.36 0.19 0.16 0.35 0.14 0.12
0.06 0.05 0.07 0.09 0.04 0.02 0.01 0.01 0.03 0.26 0.35 0.28 0.38 0.27 0.03 0.02 0.02 0.00 0.00 0.01 0.00 0.00 0.01 0.01 0.01 0.02 0.02 0.02 0.01 0.00 0.00 0.00 0.00 0.00 0.02 0.09 0.17 0.14 0.16 0.20 0.24 0.24 0.05 0.08 0.10 0.04 0.02
0.05 0.04 0.06 0.07 0.03 0.02 0.01 0.01 0.05 0.28 0.38 0.29 0.36 0.31 0.04 0.02 0.01 0.00 0.00 0.00 0.00 0.00 0.00 0.01 0.01 0.05 0.02 0.02 0.01 0.01 0.01 0.01 0.01 0.01 0.06 0.20 0.22 0.29 0.14 0.20 0.28 0.19 0.04 0.04 0.02 0.01 0.01
0.04 0.05 0.05 0.05 0.02 0.02 0.01 0.01 0.03 0.15 0.31 0.41 0.34 0.19 0.08 0.03 0.01 0.00 0.00 0.00 0.00 0.00 0.01 0.00 0.01 0.03 0.02 0.01 0.00 0.00 0.00 0.00 0.01 0.01 0.02 0.12 0.27 0.45 0.32 0.34 0.54 0.31 0.05 0.02 0.00 0.00 0.00
0.04 0.06 0.04 0.03 0.02 0.01 0.01 0.01 0.01 0.06 0.13 0.22 0.27 0.20 0.08 0.01 0.00 0.00 0.00 0.00 0.01 0.01 0.00 0.00 0.00 0.00 0.01 0.04 0.05 0.04 0.02 0.01 0.00 0.00 0.01 0.03 0.17 0.28 0.33 0.32 0.16 0.10 0.09 0.05 0.01 0.00 0.00
0.03 0.04 0.04 0.02 0.02 0.02 0.02 0.00 0.01 0.03 0.04 0.17 0.45 0.52 0.14 0.01 0.00 0.00 0.01 0.00 0.04 0.05 0.01 0.00 0.00 0.00 0.02 0.07 0.11 0.12 0.02 0.00 0.00 0.00 0.00 0.00 0.03 0.12 0.08 0.13 0.07 0.03 0.02 0.02 0.02 0.01 0.00
0.02 0.03 0.02 0.02 0.02 0.02 0.01 0.00 0.01 0.02 0.02 0.13 0.34 0.44 0.13 0.02 0.01 0.00 0.01 0.01 0.00 0.01 0.01 0.00 0.00 0.01 0.03 0.12 0.11 0.07 0.02 0.00 0.00 0.00 0.00 0.00 0.01 0.03 0.03 0.03 0.01 0.00 0.00 0.00 0.01 0.02 0.00
0.02 0.01 0.01 0.01 0.01 0.01 0.01 0.01 0.01 0.01 0.02 0.06 0.21 0.28 0.21 0.03 0.01 0.00 0.00 0.00 0.00 0.00 0.00 0.01 0.01 0.02 0.07 0.13 0.11 0.06 0.02 0.00 0.00 0.00 0.00 0.00 0.00 0.00 0.00 0.00 0.00 0.00 0.00 0.00 0.00 0.00 0.00
0.01 0.01 0.01 0.01 0.01 0.01 0.01 0.01 0.01 0.01 0.02 0.05 0.12 0.18 0.17 0.03 0.01 0.00 0.00 0.00 0.00 0.00 0.00 0.00 0.03 0.07 0.12 0.14 0.10 0.08 0.03 0.00 0.00 0.00 0.00 0.00 0.00 0.00 0.00 0.00 0.00 0.00 0.00 0.00 0.00 0.00 0.00

GFSGBSN_prec_precacc12_024.txt.gz
Total_Precipitation_Accumulation
0.00 0.00 0.00 0.00 0.00 0.00 0.00 0.00 0.00 0.01 0.03 0.04 0.05 0.06 0.07 0.07 0.08 0.11 0.12 0.09 0.11 0.08 0.01 0.00 0.00 0.00 0.01 0.05 0.04 0.00 0.00 0.00 0.07 0.25 0.02 0.00 0.00 0.00 0.00 0.00 0.00 0.00 0.00 0.00 0.00 0.00 0.00
0.00 0.00 0.00 0.00 0.00 0.00 0.00 0.00 0.00 0.00 0.01 0.04 0.05 0.05 0.07 0.09 0.09 0.09 0.10 0.08 0.07 0.09 0.03 0.00 0.00 0.00 0.00 0.01 0.00 0.00 0.00 0.00 0.01 0.15 0.07 0.01 0.00 0.00 0.00 0.00 0.00 0.00 0.00 0.00 0.00 0.00 0.00
0.00 0.01 0.01 0.00 0.00 0.00 0.01 0.01 0.01 0.01 0.01 0.02 0.07 0.07 0.06 0.07 0.12 0.12 0.12 0.10 0.08 0.10 0.04 0.00 0.00 0.00 0.00 0.00 0.00 0.00 0.00 0.00 0.01 0.14 0.13 0.05 0.01 0.00 0.00 0.00 0.00 0.00 0.00 0.00 0.00 0.00 0.00
0.01 0.01 0.01 0.01 0.01 0.01 0.02 0.02 0.02 0.03 0.01 0.01 0.05 0.07 0.06 0.07 0.12 0.14 0.13 0.13 0.11 0.13 0.10 0.01 0.01 0.00 0.00 0.00 0.00 0.00 0.00 0.00 0.00 0.08 0.20 0.12 0.01 0.01 0.00 0.00 0.00 0.00 0.00 0.00 0.00 0.00 0.00
0.01 0.02 0.01 0.02 0.02 0.03 0.04 0.03 0.05 0.03 0.02 0.02 0.03 0.05 0.06 0.09 0.14 0.16 0.16 0.21 0.22 0.25 0.26 0.12 0.02 0.00 0.00 0.00 0.00 0.00 0.00 0.00 0.01 0.03 0.08 0.05 0.02 0.00 0.01 0.00 0.00 0.00 0.00 0.00 0.00 0.00 0.00
0.02 0.02 0.02 0.02 0.03 0.05 0.05 0.06 0.05 0.02 0.04 0.05 0.04 0.04 0.09 0.10 0.18 0.26 0.30 0.39 0.44 0.34 0.38 0.22 0.03 0.00 0.00 0.00 0.00 0.00 0.00 0.00 0.00 0.00 0.02 0.03 0.00 0.00 0.00 0.00 0.00 0.00 0.00 0.00 0.00 0.00 0.00
0.02 0.02 0.02 0.03 0.05 0.06 0.07 0.06 0.05 0.05 0.08 0.06 0.05 0.07 0.14 0.20 0.21 0.39 0.62 0.86 0.85 0.74 0.41 0.15 0.02 0.00 0.00 0.00 0.00 0.00 0.00 0.00 0.00 0.00 0.00 0.00 0.00 0.00 0.00 0.00 0.00 0.00 0.00 0.00 0.00 0.00 0.00
0.02 0.02 0.03 0.04 0.06 0.07 0.07 0.06 0.06 0.07 0.07 0.09 0.11 0.14 0.15 0.13 0.19 0.55 0.90 0.88 0.48 0.39 0.26 0.05 0.00 0.00 0.00 0.00 0.00 0.00 0.00 0.00 0.00 0.00 0.00 0.00 0.00 0.00 0.00 0.00 0.00 0.00 0.00 0.00 0.00 0.00 0.00
0.02 0.02 0.04 0.05 0.07 0.08 0.07 0.07 0.06 0.08 0.11 0.17 0.17 0.12 0.07 0.09 0.22 0.68 0.69 0.48 0.31 0.44 0.30 0.09 0.00 0.00 0.00 0.00 0.00 0.00 0.00 0.00 0.00 0.00 0.00 0.00 0.00 0.00 0.00 0.00 0.00 0.00 0.00 0.00 0.00 0.00 0.00
0.02 0.03 0.05 0.05 0.07 0.08 0.08 0.07 0.10 0.14 0.15 0.21 0.13 0.08 0.09 0.13 0.38 0.56 0.54 0.29 0.61 0.57 0.24 0.10 0.02 0.00 0.00 0.00 0.00 0.00 0.00 0.00 0.00 0.00 0.00 0.00 0.00 0.00 0.00 0.00 0.00 0.00 0.00 0.00 0.00 0.00 0.00
0.02 0.04 0.05 0.06 0.07 0.09 0.09 0.09 0.13 0.15 0.11 0.06 0.09 0.15 0.18 0.36 0.65 0.60 0.46 0.42 0.93 0.79 0.30 0.07 0.01 0.00 0.00 0.00 0.00 0.00 0.00 0.00 0.00 0.00 0.00 0.00 0.00 0.00 0.00 0.00 0.00 0.00 0.00 0.00 0.00 0.00 0.01
0.03 0.06 0.07 0.07 0.08 0.11 0.09 0.09 0.10 0.06 0.03 0.11 0.19 0.22 0.27 0.23 0.47 0.49 0.50 0.66 1.20 0.95 0.35 0.07 0.01 0.04 0.02 0.01 0.01 0.00 0.01 0.01 0.00 0.00 0.00 0.00 0.00 0.00 0.00 0.00 0.00 0.00 0.00 0.00 0.01 0.04 0.05
0.03 0.06 0.07 0.08 0.10 0.11 0.09 0.06 0.03 0.03 0.12 0.27 0.21 0.19 0.21 0.22 0.41 0.59 0.90 1.14 1.13 0.59 0.11 0.02 0.01 0.04 0.01 0.01 0.02 0.01 0.02 0.02 0.01 0.01 0.01 0.00 0.00 0.00 0.00 0.00 0.00 0.01 0.04 0.06 0.06 0.09 0.02
0.03 0.07 0.08 0.10 0.10 0.11 0.09 0.05 0.02 0.04 0.16 0.16 0.32 0.16 0.17 0.12 0.34 1.10 1.38 1.03 0.44 0.12 0.02 0.00 0.01 0.02 0.02 0.01 0.01 0.01 0.01 0.02 0.01 0.01 0.00 0.00 0.00 0.00 0.00 0.00 0.00 0.00 0.02 0.05 0.01 0.00 0.00
0.04 0.08 0.09 0.10 0.10 0.10 0.08 0.04 0.01 0.03 0.11 0.35 0.26 0.11 0.32 0.25 0.36 1.08 1.26 0.73 0.34 0.03 0.00 0.01 0.02 0.02 0.03 0.01 0.01 0.01 0.01 0.00 0.00 0.00 0.00 0.00 0.00 0.00 0.00 0.00 0.00 0.02 0.04 0.02 0.08 0.03 0.06
0.05 0.08 0.09 0.09 0.09 0.09 0.04 0.02 0.00 0.03 0.14 0.20 0.10 0.14 0.29 0.20 0.38 1.10 0.88 0.44 0.20 0.01 0.00 0.00 0.01 0.01 0.01 0.01 0.01 0.01 0.01 0.00 0.00 0.00 0.00 0.00 0.01 0.00 0.00 0.00 0.00 0.00 0.01 0.08 0.18 0.09 0.03
0.05 0.08 0.09 0.08 0.08 0.06 0.03 0.01 0.01 0.03 0.12 0.22 0.27 0.38 0.35 0.10 0.51 0.90 0.72 0.43 0.05 0.00 0.00 0.00 0.00 0.00 0.00 0.00 0.00 0.00 0.00 0.00 0.00 0.00 0.00 0.00 0.01 0.00 0.01 0.01 0.00 0.01 0.04 0.07 0.12 0.10 0.07
0.05 0.08 0.08 0.07 0.08 0.04 0.03 0.00 0.01 0.05 0.16 0.36 0.48 0.64 0.29 0.18 0.59 0.54 0.40 0.19 0.02 0.00 0.00 0.00 0.00 0.00 0.00 0.00 0.00 0.00 0.00 0.00 0.00 0.00 0.00 0.00 0.03 0.02 0.00 0.00 0.00 0.00 0.00 0.02 0.17 0.05 0.12
0.05 0.06 0.07 0.07 0.07 0.04 0.03 0.00 0.01 0.05 0.26 0.33 0.38 0.55 0.49 0.26 0.26 0.20 0.26 0.04 0.01 0.01 0.01 0.00 0.00 0.00 0.00 0.00 0.00 0.00 0.00 0.00 0.00 0.00 0.00 0.00 0.03 0.02 0.00 0.01 0.02 0.03 0.01 0.04 0.14 0.35 0.30
0.04 0.05 0.07 0.07 0.07 0.03 0.02 0.00 0.01 0.05 0.22 0.31 0.37 0.66 0.45 0.20 0.09 0.05 0.14 0.06 0.03 0.02 0.00 0.00 0.00 0.00 0.00 0.00 0.00 0.00 0.00 0.00 0.00 0.00 0.00 0.00 0.01 0.00 0.01 0.02 0.12 0.21 0.07 0.11 0.45 0.65 0.12
0.03 0.04 0.05 0.06 0.06 0.03 0.01 0.00 0.01 0.05 0.12 0.20 0.29 0.27 0.08 0.11 0.08 0.04 0.06 0.03 0.01 0.00 0.00 0.00 0.00 0.00 0.00 0.01 0.00 0.00 0.00 0.00 0.00 0.00 0.00 0.02 0.03 0.01 0.01 0.04 0.19 0.24 0.13 0.15 0.40 0.19 0.21
0.02 0.03 0.05 0.05 0.04 0.02 0.01 0.00 0.01 0.10 0.22 0.26 0.26 0.17 0.03 0.01 0.02 0.00 0.01 0.02 0.01 0.00 0.00 0.00 0.00 0.00 0.00 0.01 0.01 0.00 0.00 0.00 0.00 0.00 0.00 0.02 0.06 0.04 0.05 0.07 0.14 0.18 0.04 0.09 0.10 0.04 0.04
0.02 0.02 0.04 0.05 0.03 0.02 0.01 0.00 0.01 0.12 0.25 0.17 0.12 0.17 0.04 0.02 0.01 0.00 0.00 0.00 0.00 0.00 0.00 0.00 0.00 0.00 0.01 0.01 0.01 0.01 0.01 0.00 0.00 0.00 0.02 0.08 0.09 0.17 0.08 0.08 0.19 0.14 0.04 0.04 0.02 0.01 0.01
0.02 0.02 0.02 0.04 0.02 0.02 0.01 0.01 0.01 0.04 0.15 0.15 0.13 0.11 0.04 0.02 0.00 0.00 0.00 0.00 0.00 0.00 0.01 0.00 0.00 0.01 0.02 0.01 0.00 0.00 0.00 0.00 0.01 0.01 0.00 0.02 0.11 0.31 0.19 0.14 0.29 0.19 0.04 0.02 0.01 0.00 0.00
0.02 0.03 0.02 0.02 0.02 0.01 0.01 0.01 0.01 0.02 0.05 0.09 0.12 0.13 0.05 0.01 0.00 0.00 0.00 0.00 0.00 0.00 0.00 0.00 0.00 0.00 0.01 0.03 0.02 0.02 0.02 0.01 0.00 0.00 0.01 0.01 0.06 0.22 0.25 0.25 0.12 0.08 0.03 0.03 0.00 0.00 0.00
0.01 0.02 0.02 0.01 0.01 0.02 0.01 0.00 0.00 0.01 0.02 0.13 0.33 0.36 0.12 0.01 0.00 0.00 0.00 0.00 0.00 0.00 0.00 0.00 0.00 0.00 0.00 0.03 0.05 0.07 0.02 0.00 0.00 0.00 0.00 0.01 0.04 0.13 0.09 0.14 0.08 0.03 0.01 0.00 0.00 0.00 0.00
0.01 0.01 0.01 0.01 0.01 0.01 0.01 0.00 0.00 0.00 0.01 0.12 0.26 0.24 0.10 0.01 0.00 0.00 0.00 0.00 0.00 0.00 0.02 0.01 0.00 0.01 0.02 0.05 0.07 0.03 0.01 0.00 0.00 0.00 0.00 0.01 0.02 0.03 0.04 0.05 0.01 0.00 0.00 0.00 0.01 0.02 0.00
0.01 0.01 0.01 0.01 0.01 0.01 0.01 0.00 0.00 0.00 0.01 0.04 0.10 0.16 0.17 0.02 0.00 0.00 0.00 0.00 0.00 0.00 0.01 0.01 0.01 0.01 0.03 0.06 0.07 0.03 0.02 0.01 0.00 0.00 0.00 0.00 0.00 0.00 0.00 0.00 0.00 0.00 0.00 0.00 0.00 0.00 0.00
0.01 0.00 0.01 0.00 0.01 0.01 0.00 0.01 0.00 0.00 0.01 0.02 0.06 0.07 0.12 0.04 0.01 0.00 0.00 0.00 0.00 0.00 0.01 0.00 0.02 0.01 0.03 0.06 0.10 0.07 0.04 0.01 0.00 0.01 0.00 0.00 0.00 0.00 0.00 0.00 0.00 0.00 0.00 0.00 0.00 0.00 0.00

GFSGBSN_prec_precacc12_027.txt.gz
Total_Precipitation_Accumulation
0.00 0.00 0.00 0.01 0.00 0.00 0.00 0.01 0.01 0.00 0.01 0.01 0.02 0.03 0.03 0.04 0.06 0.11 0.13 0.10 0.11 0.12 0.08 0.03 0.00 0.00 0.01 0.05 0.04 0.00 0.00 0.04 0.13 0.23 0.02 0.00 0.00 0.00 0.00 0.00 0.00 0.00 0.00 0.00 0.00 0.00 0.00
0.01 0.01 0.01 0.01 0.01 0.01 0.02 0.02 0.02 0.02 0.02 0.02 0.01 0.01 0.03 0.04 0.04 0.08 0.10 0.08 0.08 0.12 0.14 0.09 0.00 0.00 0.00 0.01 0.00 0.00 0.00 0.00 0.03 0.20 0.07 0.00 0.00 0.00 0.00 0.00 0.00 0.00 0.00 0.00 0.00 0.00 0.00
0.02 0.01 0.01 0.01 0.02 0.02 0.02 0.03 0.03 0.03 0.04 0.02 0.01 0.01 0.03 0.03 0.05 0.09 0.12 0.10 0.08 0.11 0.13 0.14 0.02 0.00 0.00 0.00 0.00 0.00 0.00 0.00 0.01 0.16 0.15 0.04 0.01 0.00 0.00 0.00 0.00 0.00 0.00 0.00 0.00 0.00 0.00
0.01 0.02 0.01 0.01 0.02 0.02 0.04 0.04 0.05 0.06 0.04 0.03 0.03 0.02 0.02 0.03 0.05 0.09 0.12 0.14 0.12 0.13 0.19 0.21 0.04 0.01 0.00 0.00 0.00 0.00 0.00 0.00 0.00 0.09 0.26 0.18 0.02 0.00 0.00 0.00 0.00 0.00 0.00 0.00 0.00 0.00 0.00
0.02 0.02 0.01 0.02 0.02 0.04 0.06 0.06 0.07 0.05 0.03 0.05 0.06 0.02 0.01 0.04 0.07 0.11 0.16 0.21 0.22 0.26 0.34 0.31 0.10 0.01 0.00 0.00 0.00 0.00 0.00 0.00 0.01 0.05 0.24 0.14 0.06 0.01 0.00 0.00 0.00 0.00 0.00 0.00 0.00 0.00 0.00
0.03 0.02 0.02 0.03 0.05 0.07 0.07 0.08 0.07 0.04 0.05 0.08 0.06 0.04 0.03 0.05 0.14 0.24 0.31 0.38 0.43 0.34 0.60 0.69 0.12 0.01 0.00 0.00 0.00 0.00 0.00 0.00 0.00 0.02 0.13 0.15 0.09 0.03 0.01 0.01 0.00 0.00 0.00 0.00 0.00 0.00 0.00
0.02 0.02 0.02 0.05 0.06 0.08 0.09 0.09 0.07 0.07 0.08 0.09 0.07 0.08 0.11 0.15 0.14 0.28 0.58 0.85 0.86 0.78 0.64 0.45 0.14 0.00 0.00 0.00 0.00 0.00 0.00 0.00 0.00 0.02 0.01 0.06 0.09 0.04 0.00 0.00 0.00 0.00 0.00 0.00 0.00 0.00 0.00
0.01 0.02 0.04 0.05 0.07 0.08 0.09 0.08 0.08 0.08 0.09 0.10 0.10 0.14 0.15 0.11 0.07 0.24 0.83 0.88 0.49 0.55 0.47 0.18 0.05 0.01 0.00 0.00 0.00 0.00 0.00 0.00 0.00 0.01 0.00 0.00 0.01 0.01 0.00 0.00 0.00 0.00 0.00 0.00 0.00 0.00 0.00
0.02 0.02 0.05 0.05 0.07 0.08 0.08 0.08 0.08 0.09 0.10 0.13 0.14 0.12 0.11 0.09 0.05 0.20 0.57 0.48 0.33 0.57 0.48 0.26 0.10 0.02 0.00 0.00 0.00 0.00 0.00 0.00 0.00 0.00 0.00 0.00 0.00 0.00 0.00 0.00 0.00 0.00 0.00 0.00 0.00 0.00 0.00
0.02 0.03 0.05 0.06 0.07 0.08 0.09 0.08 0.10 0.11 0.09 0.12 0.09 0.10 0.14 0.20 0.16 0.18 0.35 0.29 0.65 0.77 0.43 0.31 0.15 0.03 0.00 0.00 0.00 0.00 0.00 0.00 0.00 0.00 0.00 0.00 0.00 0.00 0.00 0.00 0.00 0.00 0.00 0.00 0.00 0.00 0.00
0.02 0.04 0.06 0.07 0.07 0.09 0.09 0.09 0.11 0.08 0.07 0.03 0.09 0.16 0.21 0.37 0.33 0.11 0.27 0.43 1.03 1.05 0.46 0.23 0.09 0.01 0.00 0.00 0.00 0.00 0.00 0.00 0.00 0.00 0.00 0.00 0.00 0.00 0.00 0.00 0.00 0.00 0.00 0.00 0.00 0.00 0.01
0.01 0.05 0.07 0.07 0.08 0.10 0.08 0.08 0.07 0.05 0.02 0.05 0.13 0.18 0.29 0.20 0.16 0.09 0.36 0.73 1.38 1.22 0.59 0.29 0.07 0.03 0.02 0.02 0.00 0.00 0.01 0.01 0.00 0.00 0.00 0.00 0.00 0.00 0.00 0.00 0.00 0.00 0.00 0.00 0.01 0.02 0.03
0.02 0.05 0.07 0.08 0.09 0.08 0.07 0.06 0.03 0.02 0.02 0.07 0.11 0.16 0.22 0.22 0.09 0.09 0.61 1.10 1.25 0.78 0.28 0.08 0.02 0.04 0.01 0.01 0.02 0.01 0.02 0.02 0.01 0.01 0.01 0.00 0.00 0.00 0.00 0.00 0.00 0.01 0.02 0.01 0.03 0.05 0.01
0.03 0.06 0.08 0.09 0.09 0.07 0.08 0.05 0.02 0.00 0.02 0.06 0.22 0.11 0.14 0.13 0.14 0.32 0.94 0.92 0.50 0.25 0.11 0.02 0.02 0.02 0.01 0.01 0.02 0.01 0.01 0.02 0.01 0.00 0.00 0.00 0.00 0.00 0.00 0.00 0.00 0.00 0.01 0.01 0.00 0.00 0.00
0.04 0.07 0.08 0.09 0.07 0.07 0.07 0.04 0.01 0.01 0.04 0.09 0.10 0.08 0.34 0.26 0.16 0.32 0.86 0.62 0.53 0.14 0.02 0.02 0.04 0.03 0.03 0.01 0.02 0.02 0.01 0.00 0.00 0.00 0.00 0.00 0.00 0.00 0.00 0.00 0.00 0.01 0.01 0.01 0.04 0.01 0.03
0.05 0.06 0.08 0.08 0.06 0.06 0.04 0.03 0.01 0.02 0.07 0.13 0.09 0.10 0.31 0.23 0.13 0.38 0.54 0.44 0.40 0.05 0.00 0.00 0.03 0.01 0.01 0.01 0.01 0.01 0.01 0.00 0.00 0.00 0.00 0.00 0.00 0.00 0.00 0.00 0.00 0.00 0.00 0.04 0.09 0.03 0.02
0.05 0.06 0.07 0.06 0.05 0.04 0.03 0.02 0.00 0.02 0.08 0.17 0.19 0.31 0.33 0.07 0.15 0.31 0.42 0.55 0.19 0.01 0.00 0.00 0.00 0.00 0.00 0.00 0.00 0.00 0.00 0.00 0.00 0.00 0.00 0.00 0.00 0.00 0.00 0.00 0.00 0.01 0.02 0.04 0.07 0.03 0.02
0.04 0.05 0.05 0.05 0.05 0.02 0.03 0.01 0.00 0.03 0.12 0.21 0.22 0.56 0.21 0.05 0.17 0.23 0.36 0.47 0.17 0.03 0.01 0.00 0.00 0.00 0.00 0.00 0.00 0.00 0.00 0.00 0.00 0.00 0.00 0.00 0.01 0.01 0.00 0.00 0.00 0.00 0.00 0.01 0.15 0.05 0.12
0.04 0.04 0.05 0.05 0.04 0.02 0.02 0.00 0.00 0.03 0.14 0.21 0.22 0.41 0.35 0.15 0.13 0.21 0.35 0.13 0.08 0.04 0.01 0.00 0.00 0.00 0.00 0.00 0.00 0.00 0.00 0.00 0.00 0.00 0.00 0.00 0.01 0.00 0.00 0.01 0.01 0.00 0.00 0.02 0.12 0.33 0.29
0.04 0.04 0.04 0.04 0.03 0.02 0.02 0.00 0.00 0.01 0.14 0.23 0.21 0.39 0.20 0.08 0.06 0.14 0.20 0.10 0.04 0.02 0.01 0.00 0.00 0.00 0.00 0.00 0.00 0.00 0.00 0.00 0.00 0.00 0.00 0.00 0.00 0.00 0.00 0.00 0.04 0.09 0.02 0.05 0.33 0.59 0.12
0.03 0.03 0.03 0.03 0.04 0.01 0.01 0.00 0.00 0.01 0.07 0.15 0.19 0.13 0.03 0.04 0.04 0.08 0.13 0.07 0.02 0.00 0.00 0.00 0.00 0.00 0.00 0.00 0.00 0.00 0.00 0.00 0.00 0.00 0.00 0.00 0.01 0.00 0.00 0.00 0.02 0.06 0.05 0.08 0.31 0.17 0.26
0.02 0.03 0.03 0.02 0.02 0.01 0.01 0.00 0.00 0.00 0.07 0.08 0.15 0.09 0.02 0.01 0.01 0.00 0.01 0.02 0.01 0.00 0.00 0.00 0.00 0.00 0.00 0.00 0.00 0.00 0.00 0.00 0.00 0.00 0.00 0.00 0.01 0.01 0.01 0.01 0.02 0.07 0.01 0.07 0.08 0.04 0.05
0.01 0.02 0.02 0.02 0.02 0.01 0.01 0.00 0.00 0.00 0.06 0.07 0.08 0.07 0.04 0.02 0.01 0.00 0.00 0.00 0.00 0.00 0.00 0.00 0.00 0.00 0.01 0.00 0.00 0.00 0.00 0.00 0.00 0.00 0.00 0.01 0.02 0.06 0.04 0.00 0.04 0.08 0.02 0.02 0.02 0.01 0.01
0.01 0.01 0.01 0.02 0.02 0.01 0.01 0.01 0.00 0.00 0.05 0.08 0.07 0.05 0.03 0.02 0.00 0.00 0.00 0.00 0.00 0.00 0.01 0.00 0.00 0.01 0.02 0.01 0.00 0.00 0.00 0.00 0.01 0.01 0.00 0.01 0.03 0.17 0.12 0.06 0.11 0.12 0.04 0.01 0.01 0.00 0.00
0.01 0.01 0.01 0.01 0.01 0.00 0.01 0.01 0.00 0.00 0.01 0.03 0.06 0.07 0.04 0.01 0.00 0.00 0.00 0.00 0.00 0.00 0.00 0.00 0.00 0.00 0.00 0.02 0.01 0.00 0.01 0.01 0.00 0.00 0.01 0.01 0.03 0.16 0.17 0.15 0.06 0.03 0.02 0.03 0.00 0.00 0.00
0.01 0.01 0.00 0.01 0.01 0.01 0.00 0.00 0.00 0.00 0.00 0.03 0.15 0.18 0.06 0.01 0.00 0.00 0.00 0.00 0.00 0.00 0.00 0.00 0.00 0.00 0.00 0.02 0.02 0.01 0.01 0.01 0.00 0.00 0.00 0.01 0.05 0.13 0.09 0.13 0.07 0.03 0.00 0.00 0.00 0.00 0.00
0.01 0.01 0.00 0.01 0.01 0.01 0.01 0.00 0.00 0.00 0.00 0.03 0.11 0.12 0.05 0.01 0.00 0.00 0.00 0.00 0.00 0.00 0.01 0.01 0.00 0.01 0.01 0.03 0.03 0.01 0.01 0.00 0.00 0.00 0.00 0.01 0.03 0.05 0.06 0.06 0.01 0.00 0.00 0.00 0.01 0.02 0.00
0.01 0.01 0.00 0.01 0.01 0.01 0.00 0.00 0.00 0.00 0.00 0.01 0.03 0.05 0.06 0.01 0.00 0.00 0.00 0.00 0.00 0.00 0.01 0.01 0.01 0.01 0.01 0.02 0.01 0.01 0.02 0.01 0.00 0.00 0.00 0.00 0.00 0.01 0.01 0.00 0.00 0.00 0.00 0.00 0.00 0.00 0.00
0.01 0.01 0.00 0.00 0.01 0.00 0.00 0.01 0.01 0.00 0.00 0.00 0.01 0.01 0.04 0.02 0.00 0.00 0.00 0.00 0.00 0.00 0.01 0.00 0.02 0.01 0.01 0.02 0.03 0.05 0.03 0.01 0.00 0.01 0.00 0.00 0.00 0.00 0.00 0.00 0.00 0.00 0.00 0.00 0.00 0.00 0.00

GFSGBSN_prec_precacc12_030.txt.gz
Total_Precipitation_Accumulation
0.01 0.01 0.01 0.01 0.01 0.01 0.02 0.02 0.02 0.03 0.04 0.04 0.03 0.03 0.02 0.02 0.02 0.03 0.10 0.10 0.11 0.12 0.09 0.12 0.21 0.02 0.01 0.05 0.04 0.00 0.00 0.04 0.14 0.17 0.01 0.00 0.00 0.00 0.00 0.00 0.00 0.00 0.00 0.00 0.00 0.00 0.00
0.01 0.01 0.02 0.01 0.01 0.02 0.02 0.03 0.03 0.04 0.04 0.05 0.03 0.05 0.03 0.02 0.02 0.02 0.06 0.08 0.08 0.12 0.15 0.13 0.31 0.12 0.01 0.02 0.00 0.00 0.01 0.02 0.08 0.18 0.06 0.00 0.00 0.00 0.00 0.00 0.00 0.00 0.00 0.00 0.00 0.00 0.00
0.02 0.02 0.02 0.01 0.02 0.03 0.03 0.04 0.05 0.05 0.06 0.05 0.05 0.03 0.01 0.03 0.05 0.04 0.05 0.10 0.09 0.11 0.13 0.21 0.33 0.11 0.00 0.00 0.00 0.00 0.01 0.03 0.04 0.17 0.14 0.04 0.00 0.00 0.00 0.00 0.00 0.00 0.00 0.00 0.00 0.00 0.00
0.02 0.02 0.02 0.01 0.03 0.03 0.05 0.06 0.06 0.07 0.06 0.06 0.07 0.02 0.01 0.03 0.02 0.04 0.04 0.11 0.12 0.13 0.19 0.26 0.43 0.17 0.01 0.00 0.00 0.00 0.00 0.00 0.00 0.10 0.26 0.19 0.02 0.00 0.00 0.00 0.00 0.00 0.00 0.00 0.00 0.00 0.00
0.03 0.02 0.01 0.02 0.04 0.05 0.07 0.07 0.08 0.06 0.05 0.09 0.08 0.04 0.03 0.03 0.01 0.04 0.09 0.16 0.21 0.25 0.34 0.35 0.49 0.12 0.00 0.00 0.00 0.00 0.00 0.00 0.01 0.09 0.38 0.20 0.09 0.02 0.00 0.00 0.00 0.00 0.00 0.00 0.00 0.00 0.00
0.02 0.01 0.01 0.04 0.05 0.07 0.08 0.09 0.08 0.05 0.08 0.10 0.09 0.06 0.06 0.06 0.06 0.13 0.19 0.22 0.38 0.33 0.60 0.88 0.58 0.12 0.00 0.00 0.00 0.00 0.00 0.00 0.01 0.10 0.24 0.22 0.18 0.08 0.02 0.00 0.00 0.00 0.00 0.00 0.00 0.00 0.00
0.01 0.02 0.02 0.06 0.05 0.07 0.09 0.09 0.08 0.07 0.10 0.11 0.08 0.07 0.11 0.16 0.09 0.08 0.17 0.52 0.79 0.77 0.69 0.75 0.41 0.05 0.00 0.00 0.00 0.00 0.00 0.00 0.03 0.08 0.08 0.16 0.18 0.13 0.06 0.00 0.00 0.00 0.00 0.00 0.00 0.00 0.00
0.01 0.02 0.03 0.05 0.07 0.08 0.09 0.08 0.08 0.08 0.10 0.10 0.08 0.10 0.15 0.12 0.07 0.04 0.17 0.63 0.49 0.56 0.55 0.37 0.18 0.02 0.00 0.00 0.00 0.00 0.00 0.01 0.03 0.02 0.02 0.05 0.09 0.05 0.04 0.00 0.00 0.00 0.00 0.00 0.00 0.00 0.00
0.01 0.01 0.04 0.06 0.07 0.08 0.08 0.07 0.08 0.10 0.09 0.09 0.08 0.10 0.13 0.14 0.09 0.06 0.05 0.27 0.32 0.57 0.61 0.42 0.30 0.06 0.00 0.00 0.00 0.00 0.00 0.00 0.00 0.00 0.00 0.01 0.02 0.01 0.00 0.00 0.00 0.00 0.00 0.00 0.00 0.00 0.00
0.01 0.02 0.05 0.07 0.07 0.07 0.07 0.07 0.09 0.10 0.06 0.09 0.07 0.11 0.17 0.25 0.20 0.12 0.07 0.12 0.55 0.80 0.57 0.47 0.40 0.11 0.00 0.00 0.00 0.00 0.00 0.00 0.00 0.01 0.00 0.00 0.00 0.00 0.00 0.00 0.00 0.00 0.00 0.00 0.00 0.00 0.00
0.01 0.03 0.06 0.07 0.06 0.08 0.07 0.08 0.09 0.08 0.05 0.02 0.06 0.15 0.22 0.38 0.37 0.09 0.14 0.23 0.85 1.08 0.59 0.36 0.31 0.06 0.00 0.00 0.00 0.01 0.00 0.00 0.00 0.00 0.00 0.00 0.00 0.00 0.00 0.00 0.00 0.00 0.00 0.00 0.00 0.00 0.00
0.01 0.04 0.07 0.07 0.06 0.08 0.06 0.07 0.06 0.04 0.01 0.03 0.05 0.12 0.27 0.23 0.16 0.03 0.18 0.45 1.05 1.20 0.73 0.54 0.21 0.03 0.03 0.02 0.00 0.01 0.01 0.00 0.00 0.00 0.00 0.00 0.00 0.00 0.00 0.00 0.00 0.00 0.00 0.00 0.00 0.01 0.01
0.01 0.05 0.06 0.07 0.06 0.07 0.06 0.05 0.04 0.01 0.02 0.03 0.03 0.11 0.22 0.24 0.09 0.04 0.28 0.57 0.85 0.78 0.45 0.24 0.08 0.03 0.02 0.02 0.01 0.01 0.02 0.01 0.00 0.01 0.03 0.01 0.00 0.00 0.00 0.00 0.00 0.00 0.01 0.00 0.01 0.02 0.00
0.02 0.05 0.06 0.07 0.05 0.06 0.05 0.05 0.03 0.01 0.02 0.02 0.05 0.07 0.12 0.13 0.12 0.14 0.25 0.47 0.40 0.40 0.22 0.06 0.02 0.02 0.01 0.01 0.02 0.01 0.01 0.01 0.00 0.00 0.00 0.00 0.00 0.00 0.00 0.00 0.00 0.00 0.00 0.00 0.00 0.00 0.00
0.02 0.04 0.06 0.07 0.05 0.05 0.05 0.05 0.01 0.02 0.04 0.04 0.05 0.04 0.27 0.21 0.13 0.07 0.18 0.36 0.66 0.28 0.07 0.04 0.06 0.03 0.04 0.01 0.02 0.02 0.01 0.00 0.00 0.00 0.00 0.00 0.00 0.00 0.00 0.00 0.00 0.00 0.00 0.00 0.01 0.00 0.00
0.02 0.04 0.06 0.06 0.06 0.04 0.03 0.03 0.01 0.03 0.07 0.08 0.05 0.05 0.24 0.20 0.05 0.07 0.17 0.42 0.54 0.10 0.00 0.00 0.06 0.02 0.01 0.01 0.01 0.01 0.01 0.00 0.00 0.00 0.00 0.00 0.00 0.00 0.00 0.00 0.00 0.00 0.00 0.01 0.03 0.01 0.00
0.03 0.04 0.05 0.05 0.04 0.02 0.02 0.02 0.01 0.03 0.07 0.07 0.04 0.23 0.24 0.06 0.03 0.07 0.28 0.60 0.27 0.03 0.00 0.00 0.00 0.00 0.00 0.01 0.00 0.00 0.00 0.00 0.00 0.00 0.00 0.00 0.00 0.00 0.00 0.00 0.00 0.00 0.01 0.01 0.02 0.01 0.01
0.03 0.03 0.04 0.03 0.04 0.01 0.02 0.01 0.00 0.03 0.09 0.07 0.10 0.31 0.16 0.03 0.05 0.07 0.34 0.58 0.29 0.05 0.01 0.00 0.00 0.00 0.00 0.00 0.00 0.00 0.00 0.00 0.00 0.00 0.00 0.00 0.00 0.00 0.00 0.00 0.00 0.00 0.00 0.00 0.06 0.02 0.07
0.02 0.02 0.03 0.03 0.03 0.01 0.02 0.01 0.00 0.02 0.10 0.07 0.07 0.19 0.22 0.11 0.08 0.19 0.45 0.26 0.15 0.06 0.02 0.00 0.00 0.00 0.00 0.00 0.00 0.00 0.00 0.00 0.00 0.00 0.00 0.00 0.01 0.00 0.00 0.01 0.01 0.00 0.00 0.00 0.03 0.18 0.16
0.02 0.02 0.03 0.03 0.02 0.01 0.01 0.01 0.00 0.00 0.11 0.09 0.06 0.13 0.08 0.02 0.06 0.15 0.20 0.10 0.04 0.02 0.01 0.00 0.00 0.00 0.00 0.00 0.00 0.00 0.00 0.00 0.00 0.00 0.00 0.00 0.00 0.00 0.00 0.00 0.02 0.03 0.00 0.01 0.16 0.35 0.08
0.02 0.01 0.02 0.02 0.03 0.01 0.01 0.00 0.00 0.00 0.03 0.05 0.04 0.03 0.02 0.02 0.03 0.08 0.13 0.07 0.02 0.00 0.00 0.00 0.00 0.00 0.00 0.00 0.00 0.00 0.00 0.00 0.00 0.00 0.00 0.00 0.01 0.00 0.00 0.00 0.00 0.00 0.00 0.01 0.17 0.13 0.23
0.01 0.01 0.01 0.01 0.01 0.01 0.01 0.00 0.00 0.00 0.00 0.00 0.02 0.03 0.01 0.01 0.00 0.00 0.01 0.02 0.01 0.00 0.00 0.00 0.00 0.00 0.00 0.00 0.00 0.00 0.00 0.00 0.00 0.00 0.00 0.00 0.01 0.01 0.00 0.00 0.00 0.00 0.00 0.02 0.02 0.02 0.04
0.01 0.01 0.01 0.01 0.01 0.01 0.01 0.00 0.00 0.00 0.00 0.01 0.02 0.02 0.02 0.01 0.00 0.00 0.00 0.00 0.00 0.00 0.00 0.00 0.00 0.00 0.00 0.00 0.00 0.00 0.00 0.00 0.00 0.00 0.00 0.01 0.00 0.03 0.02 0.00 0.00 0.02 0.01 0.01 0.01 0.00 0.01
0.01 0.01 0.00 0.01 0.01 0.00 0.01 0.01 0.00 0.00 0.01 0.01 0.02 0.02 0.01 0.01 0.00 0.00 0.00 0.00 0.00 0.00 0.00 0.00 0.00 0.00 0.01 0.00 0.00 0.00 0.00 0.00 0.00 0.00 0.00 0.00 0.01 0.10 0.05 0.01 0.02 0.02 0.00 0.01 0.00 0.00 0.00
0.01 0.01 0.01 0.00 0.01 0.00 0.01 0.00 0.00 0.00 0.00 0.01 0.01 0.01 0.02 0.01 0.00 0.00 0.00 0.00 0.00 0.00 0.00 0.00 0.00 0.00 0.00 0.00 0.00 0.00 0.01 0.01 0.00 0.00 0.01 0.01 0.02 0.10 0.09 0.05 0.02 0.01 0.00 0.02 0.00 0.00 0.00
0.01 0.01 0.01 0.00 0.00 0.00 0.00 0.00 0.00 0.00 0.00 0.00 0.02 0.01 0.01 0.01 0.00 0.00 0.00 0.00 0.00 0.00 0.00 0.00 0.00 0.00 0.00 0.01 0.01 0.00 0.00 0.01 0.00 0.00 0.00 0.01 0.03 0.12 0.09 0.09 0.02 0.01 0.00 0.00 0.00 0.00 0.00
0.01 0.01 0.01 0.01 0.01 0.01 0.00 0.00 0.00 0.00 0.00 0.00 0.02 0.01 0.00 0.01 0.00 0.00 0.00 0.00 0.00 0.00 0.00 0.00 0.00 0.00 0.01 0.02 0.02 0.01 0.00 0.00 0.00 0.00 0.00 0.01 0.03 0.06 0.07 0.06 0.00 0.00 0.00 0.00 0.00 0.01 0.00
0.01 0.01 0.01 0.00 0.01 0.01 0.01 0.00 0.00 0.00 0.00 0.00 0.00 0.01 0.01 0.01 0.00 0.00 0.00 0.00 0.00 0.00 0.01 0.01 0.01 0.01 0.01 0.01 0.01 0.00 0.01 0.01 0.00 0.00 0.00 0.00 0.00 0.01 0.02 0.02 0.00 0.00 0.00 0.00 0.00 0.00 0.00
0.01 0.01 0.01 0.01 0.00 0.01 0.00 0.00 0.01 0.00 0.00 0.00 0.00 0.00 0.01 0.02 0.00 0.00 0.00 0.00 0.00 0.00 0.01 0.00 0.02 0.01 0.00 0.01 0.01 0.03 0.02 0.01 0.00 0.01 0.00 0.00 0.00 0.00 0.00 0.00 0.00 0.00 0.00 0.00 0.00 0.00 0.00

GFSGBSN_prec_precacc12_033.txt.gz
Total_Precipitation_Accumulation
0.01 0.02 0.02 0.02 0.01 0.01 0.03 0.03 0.03 0.04 0.05 0.05 0.06 0.08 0.06 0.04 0.03 0.03 0.03 0.05 0.11 0.12 0.09 0.12 0.23 0.31 0.19 0.02 0.02 0.00 0.01 0.04 0.12 0.10 0.01 0.00 0.00 0.00 0.00 0.00 0.00 0.00 0.00 0.00 0.00 0.00 0.00
0.02 0.02 0.02 0.01 0.01 0.03 0.05 0.04 0.05 0.05 0.05 0.06 0.07 0.07 0.05 0.03 0.07 0.04 0.02 0.03 0.06 0.12 0.15 0.13 0.32 0.52 0.23 0.01 0.00 0.00 0.05 0.04 0.09 0.12 0.03 0.00 0.00 0.00 0.00 0.00 0.00 0.00 0.00 0.00 0.00 0.00 0.00
0.03 0.02 0.02 0.01 0.03 0.05 0.04 0.06 0.06 0.05 0.07 0.06 0.09 0.05 0.03 0.03 0.07 0.07 0.02 0.01 0.06 0.11 0.13 0.21 0.35 0.49 0.15 0.01 0.00 0.00 0.04 0.12 0.09 0.12 0.07 0.03 0.00 0.00 0.00 0.00 0.00 0.00 0.00 0.00 0.00 0.00 0.00
0.02 0.02 0.01 0.01 0.05 0.05 0.05 0.06 0.06 0.08 0.07 0.08 0.10 0.05 0.04 0.05 0.04 0.06 0.01 0.01 0.04 0.12 0.20 0.26 0.45 0.47 0.13 0.01 0.00 0.00 0.01 0.08 0.08 0.17 0.20 0.14 0.03 0.00 0.00 0.00 0.00 0.00 0.00 0.00 0.00 0.00 0.00
0.02 0.02 0.01 0.03 0.06 0.05 0.07 0.08 0.09 0.07 0.07 0.11 0.10 0.06 0.04 0.05 0.03 0.05 0.03 0.02 0.01 0.18 0.32 0.34 0.52 0.32 0.09 0.01 0.00 0.00 0.00 0.02 0.05 0.18 0.46 0.18 0.10 0.03 0.00 0.00 0.00 0.00 0.00 0.00 0.00 0.00 0.00
0.02 0.02 0.01 0.04 0.06 0.06 0.08 0.09 0.08 0.07 0.08 0.12 0.10 0.06 0.06 0.07 0.08 0.15 0.12 0.01 0.01 0.20 0.54 0.84 0.64 0.41 0.04 0.00 0.00 0.00 0.00 0.01 0.07 0.20 0.35 0.31 0.23 0.10 0.02 0.01 0.00 0.00 0.00 0.00 0.00 0.00 0.00
0.02 0.02 0.01 0.05 0.06 0.07 0.09 0.07 0.08 0.08 0.09 0.11 0.08 0.05 0.10 0.15 0.11 0.23 0.10 0.01 0.15 0.48 0.64 0.75 0.48 0.16 0.00 0.00 0.00 0.01 0.00 0.01 0.11 0.19 0.17 0.25 0.23 0.15 0.06 0.00 0.00 0.00 0.00 0.00 0.00 0.00 0.00
0.01 0.01 0.03 0.06 0.07 0.07 0.07 0.08 0.08 0.07 0.09 0.10 0.06 0.05 0.13 0.13 0.14 0.19 0.05 0.03 0.17 0.50 0.53 0.39 0.26 0.08 0.00 0.00 0.00 0.01 0.00 0.03 0.08 0.05 0.11 0.15 0.17 0.09 0.07 0.02 0.00 0.00 0.00 0.00 0.00 0.00 0.00
0.01 0.01 0.04 0.06 0.07 0.07 0.07 0.07 0.08 0.07 0.09 0.06 0.04 0.07 0.14 0.16 0.16 0.09 0.01 0.01 0.17 0.46 0.58 0.46 0.47 0.18 0.00 0.00 0.00 0.00 0.00 0.01 0.04 0.02 0.04 0.09 0.07 0.04 0.09 0.05 0.01 0.00 0.00 0.00 0.00 0.00 0.00
0.01 0.01 0.05 0.07 0.07 0.06 0.07 0.06 0.07 0.10 0.04 0.03 0.03 0.08 0.18 0.30 0.26 0.12 0.03 0.05 0.26 0.58 0.57 0.60 0.63 0.22 0.01 0.00 0.00 0.00 0.00 0.01 0.02 0.02 0.03 0.05 0.01 0.05 0.03 0.06 0.00 0.00 0.00 0.00 0.00 0.00 0.00
0.01 0.02 0.05 0.07 0.06 0.06 0.06 0.06 0.08 0.07 0.02 0.02 0.05 0.11 0.23 0.48 0.41 0.10 0.09 0.10 0.45 0.70 0.57 0.47 0.48 0.17 0.01 0.00 0.00 0.02 0.02 0.00 0.00 0.00 0.01 0.01 0.00 0.02 0.03 0.00 0.00 0.00 0.00 0.00 0.00 0.00 0.00
0.01 0.03 0.05 0.06 0.05 0.05 0.05 0.05 0.05 0.04 0.03 0.04 0.05 0.10 0.24 0.23 0.15 0.04 0.12 0.27 0.50 0.74 0.79 0.76 0.41 0.09 0.04 0.01 0.00 0.01 0.01 0.00 0.00 0.01 0.00 0.00 0.00 0.00 0.00 0.00 0.00 0.00 0.00 0.00 0.00 0.00 0.00
0.00 0.03 0.04 0.06 0.04 0.05 0.03 0.04 0.04 0.03 0.04 0.03 0.05 0.10 0.19 0.21 0.08 0.03 0.10 0.30 0.43 0.59 0.57 0.40 0.21 0.04 0.02 0.02 0.01 0.02 0.02 0.00 0.00 0.01 0.04 0.01 0.00 0.00 0.00 0.00 0.00 0.00 0.00 0.00 0.00 0.01 0.00
0.00 0.03 0.05 0.06 0.04 0.04 0.03 0.04 0.03 0.03 0.02 0.02 0.03 0.06 0.08 0.11 0.10 0.07 0.06 0.18 0.29 0.46 0.37 0.18 0.03 0.02 0.01 0.02 0.02 0.02 0.01 0.01 0.00 0.00 0.01 0.01 0.00 0.00 0.00 0.00 0.00 0.00 0.00 0.00 0.00 0.00 0.00
0.01 0.03 0.05 0.05 0.04 0.03 0.02 0.03 0.02 0.03 0.03 0.03 0.04 0.04 0.16 0.12 0.11 0.03 0.08 0.13 0.68 0.46 0.22 0.07 0.05 0.03 0.03 0.01 0.02 0.03 0.01 0.00 0.00 0.00 0.00 0.00 0.00 0.00 0.00 0.00 0.00 0.00 0.00 0.00 0.00 0.00 0.00
0.01 0.03 0.05 0.04 0.04 0.02 0.02 0.03 0.01 0.04 0.06 0.05 0.04 0.03 0.14 0.15 0.04 0.05 0.09 0.34 0.57 0.13 0.01 0.00 0.07 0.03 0.02 0.01 0.01 0.01 0.01 0.00 0.00 0.00 0.00 0.00 0.00 0.00 0.00 0.00 0.00 0.00 0.00 0.00 0.00 0.00 0.00
0.01 0.02 0.03 0.03 0.02 0.02 0.01 0.01 0.01 0.03 0.06 0.06 0.02 0.09 0.08 0.04 0.02 0.06 0.17 0.52 0.30 0.03 0.00 0.00 0.00 0.00 0.00 0.01 0.00 0.00 0.00 0.00 0.00 0.00 0.00 0.00 0.00 0.00 0.00 0.00 0.00 0.00 0.00 0.00 0.00 0.00 0.00
0.01 0.01 0.03 0.02 0.02 0.01 0.01 0.01 0.00 0.04 0.08 0.05 0.01 0.11 0.04 0.02 0.02 0.08 0.25 0.55 0.29 0.05 0.01 0.00 0.00 0.00 0.00 0.00 0.00 0.00 0.00 0.00 0.00 0.00 0.00 0.00 0.00 0.00 0.00 0.00 0.00 0.00 0.00 0.00 0.01 0.00 0.00
0.01 0.01 0.02 0.01 0.02 0.01 0.01 0.00 0.00 0.02 0.08 0.02 0.00 0.03 0.13 0.08 0.02 0.18 0.39 0.25 0.15 0.05 0.02 0.00 0.00 0.00 0.00 0.00 0.00 0.00 0.00 0.00 0.00 0.00 0.00 0.00 0.00 0.00 0.00 0.00 0.00 0.00 0.00 0.00 0.00 0.06 0.06
0.01 0.01 0.01 0.01 0.02 0.00 0.01 0.00 0.00 0.00 0.03 0.00 0.01 0.01 0.01 0.01 0.05 0.14 0.16 0.09 0.04 0.02 0.01 0.00 0.00 0.00 0.00 0.00 0.00 0.00 0.00 0.00 0.00 0.00 0.00 0.00 0.00 0.00 0.00 0.00 0.00 0.00 0.00 0.00 0.04 0.19 0.05
0.01 0.01 0.01 0.01 0.02 0.00 0.00 0.00 0.00 0.00 0.00 0.00 0.00 0.01 0.01 0.00 0.03 0.07 0.11 0.06 0.01 0.00 0.00 0.00 0.00 0.00 0.00 0.00 0.00 0.00 0.00 0.00 0.00 0.00 0.00 0.00 0.00 0.00 0.00 0.00 0.00 0.00 0.00 0.00 0.06 0.07 0.16
0.01 0.00 0.00 0.00 0.01 0.00 0.00 0.00 0.00 0.00 0.00 0.00 0.00 0.00 0.00 0.00 0.00 0.00 0.01 0.02 0.00 0.00 0.00 0.00 0.00 0.00 0.00 0.00 0.00 0.00 0.00 0.00 0.00 0.00 0.00 0.00 0.00 0.00 0.00 0.00 0.00 0.00 0.00 0.01 0.01 0.01 0.02
0.01 0.00 0.00 0.00 0.01 0.01 0.00 0.00 0.00 0.00 0.00 0.00 0.00 0.00 0.00 0.00 0.00 0.00 0.00 0.00 0.00 0.00 0.00 0.00 0.00 0.00 0.00 0.00 0.00 0.00 0.00 0.00 0.00 0.00 0.00 0.00 0.00 0.01 0.01 0.00 0.00 0.00 0.00 0.00 0.00 0.00 0.00
0.01 0.01 0.00 0.00 0.00 0.00 0.00 0.00 0.00 0.00 0.01 0.00 0.01 0.01 0.00 0.00 0.00 0.00 0.00 0.00 0.00 0.00 0.00 0.00 0.00 0.00 0.01 0.00 0.00 0.00 0.00 0.00 0.00 0.00 0.00 0.00 0.01 0.05 0.01 0.00 0.00 0.00 0.00 0.00 0.00 0.00 0.00
0.01 0.01 0.01 0.00 0.00 0.00 0.00 0.00 0.00 0.00 0.00 0.00 0.00 0.00 0.01 0.00 0.00 0.00 0.00 0.00 0.00 0.00 0.00 0.00 0.00 0.00 0.00 0.00 0.00 0.00 0.01 0.01 0.00 0.00 0.00 0.00 0.02 0.07 0.04 0.02 0.00 0.00 0.00 0.00 0.00 0.00 0.00
0.01 0.01 0.01 0.00 0.00 0.00 0.00 0.00 0.00 0.00 0.00 0.00 0.01 0.00 0.00 0.01 0.00 0.00 0.00 0.00 0.00 0.00 0.00 0.00 0.00 0.00 0.00 0.00 0.00 0.00 0.00 0.00 0.01 0.00 0.00 0.01 0.02 0.10 0.07 0.05 0.00 0.01 0.00 0.00 0.00 0.00 0.00
0.02 0.01 0.02 0.01 0.00 0.00 0.00 0.00 0.00 0.00 0.00 0.00 0.01 0.00 0.00 0.00 0.00 0.00 0.00 0.00 0.00 0.00 0.00 0.00 0.00 0.00 0.00 0.00 0.01 0.00 0.00 0.00 0.00 0.00 0.01 0.02 0.04 0.06 0.08 0.06 0.00 0.00 0.00 0.00 0.00 0.00 0.00
0.01 0.01 0.01 0.01 0.01 0.01 0.01 0.00 0.00 0.00 0.00 0.00 0.00 0.01 0.00 0.00 0.00 0.00 0.00 0.00 0.00 0.00 0.01 0.00 0.00 0.00 0.00 0.00 0.00 0.00 0.00 0.00 0.00 0.00 0.00 0.00 0.01 0.02 0.02 0.02 0.00 0.00 0.00 0.00 0.00 0.00 0.00
0.02 0.02 0.01 0.02 0.02 0.01 0.01 0.01 0.01 0.01 0.00 0.00 0.00 0.00 0.01 0.02 0.00 0.00 0.00 0.00 0.00 0.00 0.00 0.00 0.01 0.00 0.00 0.00 0.00 0.01 0.01 0.00 0.00 0.00 0.00 0.00 0.00 0.00 0.00 0.00 0.00 0.00 0.00 0.00 0.00 0.00 0.00

GFSGBSN_prec_precacc12_036.txt.gz
Total_Precipitation_Accumulation
0.01 0.03 0.02 0.02 0.01 0.02 0.05 0.05 0.04 0.05 0.06 0.06 0.08 0.09 0.07 0.06 0.08 0.07 0.04 0.04 0.03 0.05 0.08 0.12 0.23 0.31 0.50 0.27 0.02 0.01 0.01 0.04 0.09 0.07 0.01 0.01 0.00 0.00 0.00 0.00 0.00 0.00 0.00 0.00 0.00 0.00 0.00
0.03 0.03 0.02 0.02 0.02 0.04 0.06 0.05 0.06 0.06 0.06 0.09 0.08 0.09 0.06 0.04 0.12 0.07 0.02 0.04 0.03 0.04 0.12 0.13 0.32 0.53 0.36 0.16 0.01 0.00 0.06 0.06 0.08 0.09 0.01 0.00 0.00 0.00 0.00 0.00 0.00 0.00 0.00 0.00 0.00 0.00 0.00
0.04 0.02 0.02 0.02 0.03 0.07 0.06 0.06 0.07 0.06 0.09 0.08 0.10 0.08 0.04 0.04 0.11 0.12 0.04 0.03 0.02 0.02 0.10 0.21 0.36 0.52 0.25 0.06 0.01 0.00 0.05 0.20 0.12 0.07 0.03 0.01 0.00 0.00 0.00 0.00 0.00 0.00 0.00 0.00 0.00 0.00 0.00
0.02 0.02 0.02 0.02 0.04 0.06 0.06 0.08 0.06 0.06 0.08 0.09 0.11 0.07 0.05 0.06 0.06 0.09 0.02 0.03 0.02 0.02 0.12 0.26 0.46 0.54 0.20 0.03 0.01 0.00 0.03 0.16 0.23 0.23 0.11 0.09 0.03 0.00 0.00 0.00 0.00 0.00 0.00 0.00 0.00 0.00 0.00
0.02 0.02 0.02 0.02 0.06 0.07 0.08 0.07 0.06 0.07 0.08 0.11 0.11 0.07 0.05 0.05 0.04 0.06 0.04 0.03 0.02 0.04 0.12 0.33 0.52 0.38 0.13 0.08 0.03 0.00 0.03 0.11 0.14 0.27 0.46 0.18 0.12 0.04 0.00 0.00 0.00 0.00 0.00 0.00 0.00 0.00 0.00
0.02 0.01 0.01 0.03 0.07 0.08 0.08 0.07 0.07 0.07 0.07 0.11 0.11 0.06 0.05 0.06 0.09 0.15 0.13 0.01 0.00 0.00 0.25 0.70 0.63 0.48 0.09 0.02 0.05 0.01 0.02 0.13 0.21 0.31 0.47 0.31 0.25 0.11 0.02 0.00 0.00 0.00 0.00 0.00 0.00 0.00 0.00
0.02 0.02 0.01 0.05 0.08 0.08 0.07 0.07 0.07 0.07 0.06 0.11 0.07 0.04 0.05 0.08 0.16 0.27 0.12 0.00 0.02 0.07 0.32 0.61 0.47 0.19 0.01 0.02 0.06 0.03 0.02 0.06 0.30 0.42 0.53 0.27 0.26 0.16 0.06 0.00 0.00 0.00 0.00 0.00 0.00 0.00 0.00
0.02 0.01 0.03 0.06 0.08 0.07 0.06 0.07 0.06 0.06 0.09 0.08 0.03 0.02 0.06 0.11 0.20 0.29 0.05 0.00 0.01 0.18 0.29 0.34 0.28 0.12 0.01 0.02 0.05 0.05 0.03 0.08 0.14 0.16 0.46 0.21 0.19 0.10 0.07 0.02 0.00 0.00 0.00 0.00 0.00 0.00 0.00
0.01 0.01 0.03 0.05 0.08 0.05 0.05 0.04 0.05 0.07 0.10 0.03 0.02 0.05 0.11 0.16 0.23 0.13 0.01 0.00 0.02 0.13 0.31 0.38 0.51 0.22 0.02 0.04 0.01 0.02 0.02 0.04 0.07 0.07 0.13 0.18 0.11 0.06 0.11 0.06 0.02 0.00 0.00 0.00 0.00 0.00 0.00
0.01 0.01 0.03 0.06 0.06 0.04 0.05 0.04 0.05 0.09 0.07 0.05 0.07 0.09 0.15 0.33 0.49 0.23 0.02 0.02 0.04 0.24 0.38 0.58 0.67 0.32 0.05 0.04 0.01 0.01 0.02 0.04 0.04 0.07 0.07 0.22 0.06 0.09 0.08 0.10 0.02 0.00 0.00 0.00 0.00 0.00 0.00
0.01 0.01 0.03 0.06 0.05 0.05 0.04 0.04 0.06 0.09 0.06 0.05 0.06 0.09 0.19 0.36 0.33 0.11 0.04 0.03 0.11 0.34 0.43 0.49 0.62 0.32 0.06 0.01 0.00 0.03 0.04 0.02 0.02 0.01 0.02 0.04 0.06 0.05 0.08 0.06 0.04 0.01 0.00 0.00 0.00 0.00 0.00
0.00 0.01 0.04 0.05 0.04 0.04 0.03 0.03 0.06 0.06 0.06 0.05 0.05 0.10 0.18 0.16 0.10 0.03 0.05 0.17 0.19 0.38 0.62 0.83 0.60 0.21 0.04 0.01 0.00 0.01 0.03 0.01 0.01 0.02 0.01 0.00 0.03 0.03 0.03 0.03 0.02 0.00 0.00 0.00 0.00 0.00 0.00
0.00 0.01 0.03 0.05 0.03 0.03 0.02 0.03 0.05 0.05 0.06 0.03 0.05 0.09 0.15 0.14 0.05 0.01 0.04 0.13 0.18 0.37 0.58 0.51 0.37 0.05 0.02 0.03 0.02 0.02 0.04 0.01 0.02 0.03 0.06 0.01 0.00 0.00 0.00 0.00 0.00 0.00 0.00 0.00 0.00 0.00 0.00
0.00 0.01 0.03 0.04 0.03 0.03 0.02 0.03 0.03 0.04 0.03 0.03 0.03 0.05 0.05 0.07 0.02 0.01 0.01 0.03 0.22 0.43 0.46 0.30 0.06 0.02 0.01 0.02 0.03 0.03 0.02 0.01 0.00 0.00 0.01 0.01 0.00 0.00 0.00 0.00 0.00 0.00 0.00 0.00 0.00 0.00 0.00
0.00 0.01 0.03 0.03 0.02 0.02 0.01 0.02 0.02 0.03 0.03 0.01 0.03 0.03 0.05 0.04 0.04 0.00 0.04 0.09 0.54 0.54 0.34 0.12 0.05 0.02 0.02 0.01 0.03 0.04 0.01 0.00 0.00 0.00 0.00 0.00 0.00 0.00 0.00 0.00 0.00 0.00 0.00 0.00 0.00 0.00 0.00
0.01 0.01 0.02 0.02 0.02 0.01 0.01 0.02 0.01 0.04 0.04 0.03 0.02 0.02 0.04 0.06 0.01 0.03 0.07 0.27 0.41 0.13 0.01 0.00 0.07 0.02 0.01 0.01 0.01 0.01 0.01 0.00 0.00 0.00 0.00 0.00 0.00 0.00 0.00 0.00 0.00 0.00 0.00 0.00 0.00 0.00 0.00
0.01 0.01 0.01 0.01 0.01 0.01 0.01 0.01 0.01 0.02 0.04 0.03 0.00 0.01 0.01 0.02 0.01 0.04 0.16 0.36 0.25 0.03 0.00 0.00 0.00 0.00 0.00 0.01 0.00 0.00 0.00 0.00 0.00 0.00 0.00 0.00 0.00 0.00 0.00 0.00 0.00 0.00 0.00 0.00 0.00 0.00 0.00
0.01 0.00 0.01 0.01 0.01 0.00 0.01 0.01 0.00 0.02 0.03 0.01 0.00 0.00 0.00 0.00 0.01 0.07 0.16 0.41 0.27 0.04 0.01 0.00 0.00 0.00 0.00 0.00 0.00 0.00 0.00 0.00 0.00 0.00 0.00 0.00 0.00 0.00 0.00 0.00 0.00 0.00 0.00 0.00 0.00 0.00 0.00
0.01 0.00 0.01 0.00 0.01 0.00 0.00 0.00 0.00 0.00 0.02 0.00 0.00 0.01 0.01 0.00 0.01 0.15 0.27 0.22 0.14 0.04 0.01 0.00 0.00 0.00 0.00 0.00 0.00 0.00 0.00 0.00 0.00 0.00 0.00 0.00 0.00 0.00 0.00 0.00 0.00 0.00 0.00 0.00 0.00 0.02 0.01
0.00 0.00 0.00 0.00 0.01 0.00 0.00 0.00 0.00 0.00 0.00 0.00 0.00 0.00 0.00 0.00 0.04 0.11 0.07 0.05 0.01 0.00 0.00 0.00 0.00 0.00 0.00 0.00 0.00 0.00 0.00 0.00 0.00 0.00 0.00 0.00 0.00 0.00 0.00 0.00 0.00 0.00 0.00 0.00 0.01 0.08 0.02
0.00 0.00 0.00 0.00 0.00 0.00 0.00 0.00 0.00 0.00 0.00 0.00 0.00 0.00 0.00 0.00 0.02 0.04 0.06 0.04 0.01 0.00 0.00 0.00 0.00 0.00 0.00 0.00 0.00 0.00 0.00 0.00 0.00 0.00 0.00 0.00 0.00 0.00 0.00 0.00 0.00 0.00 0.00 0.00 0.01 0.01 0.08
0.00 0.00 0.00 0.00 0.00 0.00 0.00 0.00 0.00 0.00 0.00 0.00 0.00 0.00 0.00 0.00 0.00 0.00 0.00 0.00 0.00 0.00 0.00 0.00 0.00 0.00 0.00 0.00 0.00 0.00 0.00 0.00 0.00 0.00 0.00 0.00 0.00 0.00 0.00 0.00 0.00 0.00 0.00 0.00 0.00 0.00 0.00
0.01 0.00 0.01 0.00 0.00 0.00 0.00 0.00 0.00 0.00 0.00 0.00 0.00 0.00 0.00 0.00 0.00 0.00 0.00 0.00 0.00 0.00 0.00 0.00 0.00 0.00 0.00 0.00 0.00 0.00 0.00 0.00 0.00 0.00 0.00 0.00 0.00 0.00 0.00 0.00 0.00 0.00 0.00 0.00 0.00 0.00 0.00
0.01 0.01 0.01 0.01 0.00 0.00 0.00 0.00 0.00 0.00 0.00 0.00 0.01 0.01 0.00 0.00 0.00 0.00 0.00 0.00 0.00 0.00 0.00 0.00 0.00 0.00 0.00 0.00 0.00 0.00 0.00 0.00 0.00 0.00 0.00 0.00 0.00 0.01 0.00 0.00 0.00 0.00 0.00 0.00 0.00 0.00 0.00
0.01 0.01 0.01 0.01 0.00 0.00 0.00 0.00 0.00 0.00 0.00 0.00 0.00 0.00 0.01 0.00 0.00 0.00 0.00 0.00 0.00 0.00 0.00 0.00 0.00 0.00 0.00 0.00 0.00 0.00 0.01 0.01 0.00 0.00 0.00 0.00 0.01 0.03 0.02 0.01 0.00 0.00 0.00 0.00 0.00 0.00 0.00
0.01 0.01 0.01 0.02 0.01 0.00 0.00 0.00 0.00 0.00 0.00 0.00 0.00 0.00 0.00 0.01 0.00 0.00 0.00 0.00 0.00 0.00 0.00 0.00 0.00 0.00 0.00 0.00 0.00 0.00 0.00 0.00 0.00 0.00 0.00 0.00 0.01 0.08 0.07 0.04 0.00 0.00 0.00 0.00 0.00 0.00 0.00
0.01 0.02 0.02 0.02 0.02 0.01 0.01 0.01 0.00 0.00 0.00 0.00 0.00 0.00 0.00 0.00 0.00 0.00 0.00 0.00 0.00 0.00 0.00 0.00 0.00 0.00 0.00 0.00 0.00 0.00 0.00 0.00 0.00 0.00 0.01 0.02 0.04 0.06 0.07 0.07 0.00 0.00 0.00 0.00 0.00 0.00 0.00
0.01 0.02 0.02 0.01 0.02 0.02 0.01 0.00 0.00 0.00 0.00 0.00 0.00 0.00 0.00 0.00 0.00 0.00 0.00 0.00 0.00 0.00 0.00 0.00 0.00 0.00 0.00 0.00 0.00 0.00 0.00 0.00 0.00 0.00 0.00 0.01 0.01 0.02 0.02 0.03 0.00 0.00 0.00 0.00 0.00 0.00 0.00
0.01 0.02 0.01 0.01 0.02 0.03 0.02 0.01 0.01 0.01 0.01 0.00 0.00 0.00 0.00 0.01 0.00 0.00 0.00 0.00 0.00 0.00 0.00 0.00 0.00 0.00 0.00 0.00 0.00 0.00 0.00 0.00 0.00 0.00 0.00 0.00 0.00 0.00 0.00 0.00 0.00 0.00 0.00 0.00 0.00 0.00 0.00

GFSGBSN_prec_precacc12_039.txt.gz
Total_Precipitation_Accumulation
0.02 0.03 0.02 0.02 0.02 0.02 0.06 0.08 0.05 0.06 0.07 0.07 0.09 0.11 0.08 0.07 0.10 0.09 0.04 0.05 0.05 0.03 0.03 0.12 0.24 0.31 0.51 0.31 0.05 0.03 0.03 0.02 0.03 0.04 0.01 0.02 0.00 0.00 0.00 0.00 0.00 0.00 0.00 0.00 0.00 0.00 0.00
0.02 0.02 0.02 0.02 0.02 0.04 0.07 0.07 0.06 0.06 0.06 0.09 0.09 0.10 0.07 0.04 0.13 0.08 0.03 0.05 0.06 0.03 0.03 0.06 0.32 0.53 0.39 0.20 0.03 0.04 0.07 0.09 0.07 0.05 0.01 0.02 0.00 0.00 0.00 0.00 0.00 0.00 0.00 0.00 0.00 0.00 0.00
0.02 0.02 0.02 0.02 0.02 0.06 0.08 0.07 0.05 0.05 0.08 0.08 0.13 0.10 0.05 0.05 0.11 0.12 0.05 0.04 0.03 0.03 0.03 0.10 0.34 0.52 0.28 0.09 0.01 0.08 0.06 0.28 0.13 0.05 0.01 0.01 0.00 0.00 0.00 0.00 0.00 0.00 0.00 0.00 0.00 0.00 0.00
0.02 0.02 0.02 0.02 0.04 0.08 0.07 0.06 0.05 0.05 0.09 0.10 0.13 0.09 0.08 0.07 0.06 0.09 0.03 0.04 0.05 0.02 0.02 0.08 0.44 0.57 0.23 0.03 0.01 0.05 0.05 0.29 0.27 0.27 0.05 0.04 0.01 0.00 0.00 0.00 0.00 0.00 0.00 0.00 0.00 0.00 0.00
0.02 0.02 0.02 0.02 0.06 0.09 0.08 0.07 0.06 0.07 0.07 0.11 0.11 0.09 0.07 0.04 0.05 0.10 0.05 0.07 0.02 0.02 0.02 0.12 0.45 0.39 0.17 0.08 0.03 0.01 0.05 0.25 0.26 0.40 0.44 0.21 0.12 0.04 0.00 0.00 0.00 0.00 0.00 0.00 0.00 0.00 0.00
0.02 0.01 0.02 0.03 0.07 0.09 0.08 0.06 0.06 0.06 0.07 0.10 0.11 0.06 0.05 0.04 0.08 0.16 0.10 0.01 0.00 0.00 0.02 0.22 0.55 0.49 0.10 0.02 0.05 0.01 0.03 0.27 0.36 0.38 0.51 0.30 0.22 0.09 0.01 0.00 0.00 0.00 0.00 0.00 0.00 0.00 0.00
0.02 0.02 0.01 0.04 0.07 0.08 0.07 0.06 0.06 0.06 0.08 0.12 0.08 0.02 0.04 0.05 0.16 0.31 0.12 0.00 0.01 0.02 0.07 0.32 0.35 0.21 0.02 0.02 0.08 0.05 0.05 0.21 0.51 0.52 0.54 0.23 0.19 0.12 0.06 0.00 0.00 0.00 0.00 0.00 0.00 0.00 0.00
0.01 0.01 0.02 0.04 0.08 0.06 0.06 0.05 0.05 0.08 0.12 0.10 0.06 0.06 0.12 0.09 0.21 0.36 0.05 0.00 0.01 0.02 0.08 0.21 0.23 0.14 0.03 0.03 0.11 0.08 0.06 0.21 0.51 0.48 0.60 0.23 0.20 0.09 0.07 0.02 0.00 0.00 0.00 0.00 0.00 0.00 0.00
0.01 0.01 0.02 0.04 0.07 0.06 0.05 0.04 0.05 0.08 0.12 0.07 0.07 0.09 0.13 0.17 0.29 0.21 0.01 0.00 0.00 0.00 0.13 0.21 0.46 0.25 0.06 0.06 0.10 0.04 0.05 0.22 0.48 0.49 0.40 0.26 0.13 0.07 0.11 0.07 0.02 0.00 0.00 0.00 0.00 0.00 0.00
0.00 0.01 0.02 0.04 0.06 0.04 0.04 0.03 0.04 0.10 0.09 0.05 0.08 0.11 0.15 0.28 0.43 0.24 0.01 0.01 0.00 0.04 0.19 0.40 0.65 0.41 0.09 0.09 0.11 0.02 0.06 0.10 0.25 0.32 0.36 0.37 0.10 0.14 0.10 0.11 0.02 0.00 0.00 0.00 0.00 0.00 0.00
0.00 0.01 0.02 0.05 0.04 0.04 0.04 0.03 0.05 0.09 0.07 0.05 0.07 0.11 0.17 0.28 0.25 0.08 0.01 0.00 0.01 0.08 0.30 0.39 0.64 0.39 0.10 0.09 0.08 0.07 0.07 0.05 0.07 0.06 0.11 0.15 0.09 0.16 0.15 0.10 0.05 0.01 0.00 0.00 0.00 0.00 0.00
0.00 0.01 0.02 0.04 0.03 0.03 0.03 0.02 0.05 0.06 0.06 0.05 0.05 0.10 0.14 0.12 0.06 0.02 0.02 0.04 0.01 0.12 0.42 0.69 0.67 0.29 0.04 0.04 0.03 0.10 0.06 0.02 0.04 0.07 0.06 0.03 0.09 0.10 0.09 0.11 0.05 0.01 0.00 0.00 0.00 0.00 0.00
0.00 0.01 0.01 0.03 0.02 0.03 0.02 0.03 0.04 0.05 0.06 0.03 0.04 0.08 0.10 0.08 0.03 0.00 0.02 0.02 0.06 0.20 0.50 0.59 0.49 0.07 0.01 0.04 0.04 0.09 0.06 0.02 0.03 0.06 0.09 0.05 0.12 0.05 0.07 0.10 0.08 0.02 0.00 0.00 0.00 0.00 0.00
0.00 0.00 0.01 0.02 0.01 0.02 0.01 0.03 0.02 0.04 0.03 0.02 0.02 0.03 0.03 0.03 0.01 0.00 0.00 0.03 0.18 0.36 0.44 0.36 0.07 0.02 0.02 0.03 0.04 0.05 0.05 0.01 0.00 0.01 0.03 0.02 0.01 0.00 0.00 0.01 0.01 0.00 0.00 0.00 0.00 0.00 0.00
0.00 0.00 0.01 0.01 0.01 0.01 0.01 0.02 0.02 0.03 0.02 0.01 0.01 0.00 0.00 0.01 0.01 0.00 0.04 0.08 0.40 0.48 0.37 0.14 0.03 0.01 0.02 0.01 0.03 0.04 0.04 0.01 0.00 0.00 0.00 0.00 0.00 0.00 0.00 0.00 0.00 0.00 0.00 0.00 0.00 0.00 0.00
0.00 0.00 0.00 0.01 0.01 0.01 0.01 0.00 0.01 0.03 0.03 0.00 0.00 0.00 0.00 0.01 0.00 0.03 0.06 0.21 0.21 0.09 0.01 0.00 0.05 0.02 0.01 0.01 0.01 0.01 0.01 0.00 0.00 0.00 0.00 0.00 0.00 0.00 0.00 0.00 0.00 0.00 0.00 0.00 0.00 0.00 0.00
0.00 0.01 0.00 0.00 0.01 0.01 0.00 0.00 0.01 0.01 0.01 0.00 0.00 0.00 0.00 0.00 0.00 0.02 0.12 0.18 0.11 0.02 0.00 0.00 0.00 0.00 0.00 0.00 0.00 0.00 0.00 0.00 0.00 0.00 0.00 0.00 0.00 0.00 0.00 0.00 0.00 0.00 0.00 0.00 0.00 0.00 0.00
0.00 0.00 0.00 0.00 0.00 0.00 0.00 0.00 0.00 0.01 0.00 0.00 0.00 0.00 0.00 0.00 0.01 0.05 0.10 0.14 0.11 0.01 0.00 0.00 0.00 0.00 0.00 0.00 0.00 0.00 0.00 0.00 0.00 0.00 0.00 0.00 0.00 0.00 0.00 0.00 0.00 0.00 0.00 0.00 0.00 0.00 0.00
0.00 0.00 0.00 0.00 0.00 0.00 0.00 0.00 0.00 0.00 0.00 0.00 0.00 0.00 0.00 0.00 0.00 0.06 0.16 0.13 0.07 0.02 0.00 0.00 0.00 0.00 0.00 0.00 0.00 0.00 0.00 0.00 0.00 0.00 0.00 0.00 0.00 0.00 0.00 0.00 0.00 0.00 0.00 0.00 0.00 0.00 0.00
0.00 0.00 0.00 0.00 0.00 0.00 0.00 0.00 0.00 0.00 0.00 0.00 0.00 0.00 0.00 0.00 0.01 0.00 0.00 0.00 0.00 0.00 0.00 0.00 0.00 0.00 0.00 0.00 0.00 0.00 0.00 0.00 0.00 0.00 0.00 0.00 0.00 0.00 0.00 0.00 0.00 0.00 0.00 0.00 0.00 0.02 0.00
0.00 0.00 0.00 0.00 0.00 0.00 0.00 0.00 0.00 0.00 0.00 0.00 0.00 0.00 0.00 0.00 0.00 0.00 0.00 0.00 0.00 0.00 0.00 0.00 0.00 0.00 0.00 0.00 0.00 0.00 0.00 0.00 0.00 0.00 0.00 0.00 0.00 0.00 0.00 0.00 0.00 0.00 0.00 0.00 0.00 0.00 0.02
0.00 0.00 0.01 0.00 0.00 0.00 0.00 0.00 0.00 0.00 0.00 0.00 0.00 0.00 0.00 0.00 0.00 0.00 0.00 0.00 0.00 0.00 0.00 0.00 0.00 0.00 0.00 0.00 0.00 0.00 0.00 0.00 0.00 0.00 0.00 0.00 0.00 0.00 0.00 0.00 0.00 0.00 0.00 0.00 0.00 0.00 0.00
0.00 0.00 0.01 0.01 0.00 0.00 0.00 0.00 0.00 0.00 0.00 0.00 0.00 0.00 0.00 0.00 0.00 0.00 0.00 0.00 0.00 0.00 0.00 0.00 0.00 0.00 0.00 0.00 0.00 0.00 0.00 0.00 0.00 0.00 0.00 0.00 0.00 0.00 0.00 0.00 0.00 0.00 0.00 0.00 0.00 0.00 0.00
0.00 0.01 0.01 0.01 0.00 0.00 0.00 0.00 0.00 0.00 0.00 0.00 0.00 0.00 0.00 0.00 0.00 0.00 0.00 0.00 0.00 0.00 0.00 0.00 0.00 0.00 0.00 0.00 0.00 0.00 0.00 0.00 0.00 0.00 0.00 0.00 0.00 0.00 0.00 0.00 0.00 0.00 0.00 0.00 0.00 0.00 0.00
0.01 0.01 0.01 0.01 0.01 0.00 0.00 0.00 0.00 0.00 0.00 0.00 0.00 0.00 0.00 0.00 0.00 0.00 0.00 0.00 0.00 0.00 0.00 0.00 0.00 0.00 0.00 0.00 0.00 0.00 0.01 0.01 0.00 0.00 0.00 0.00 0.00 0.00 0.01 0.00 0.00 0.00 0.00 0.00 0.00 0.00 0.00
0.01 0.01 0.01 0.02 0.02 0.02 0.00 0.00 0.00 0.00 0.00 0.00 0.00 0.00 0.00 0.00 0.00 0.00 0.00 0.00 0.00 0.00 0.00 0.00 0.00 0.00 0.00 0.00 0.00 0.00 0.00 0.00 0.00 0.00 0.00 0.00 0.00 0.05 0.05 0.03 0.00 0.00 0.00 0.00 0.00 0.00 0.00
0.01 0.01 0.02 0.02 0.02 0.03 0.01 0.01 0.00 0.00 0.00 0.00 0.00 0.00 0.00 0.00 0.00 0.00 0.00 0.00 0.00 0.00 0.00 0.00 0.00 0.00 0.00 0.00 0.00 0.00 0.00 0.00 0.00 0.01 0.01 0.02 0.03 0.06 0.05 0.05 0.00 0.00 0.00 0.01 0.02 0.00 0.00
0.00 0.01 0.02 0.01 0.02 0.03 0.04 0.01 0.00 0.00 0.00 0.00 0.00 0.00 0.00 0.00 0.00 0.00 0.00 0.00 0.00 0.00 0.00 0.00 0.00 0.00 0.00 0.00 0.00 0.00 0.00 0.00 0.00 0.00 0.00 0.01 0.01 0.02 0.02 0.03 0.00 0.00 0.00 0.02 0.01 0.00 0.00
0.01 0.01 0.01 0.01 0.02 0.03 0.03 0.06 0.02 0.00 0.01 0.00 0.00 0.00 0.00 0.01 0.00 0.00 0.00 0.00 0.00 0.00 0.00 0.00 0.00 0.00 0.00 0.00 0.00 0.00 0.00 0.00 0.00 0.00 0.00 0.00 0.00 0.00 0.00 0.00 0.00 0.00 0.00 0.00 0.00 0.00 0.00

GFSGBSN_prec_precacc12_045.txt.gz
Total_Precipitation_Accumulation
0.01 0.02 0.01 0.03 0.03 0.02 0.05 0.09 0.05 0.03 0.04 0.08 0.11 0.11 0.09 0.07 0.09 0.08 0.02 0.04 0.05 0.04 0.03 0.09 0.08 0.04 0.32 0.31 0.07 0.11 0.04 0.04 0.06 0.04 0.03 0.03 0.01 0.01 0.00 0.00 0.00 0.00 0.00 0.00 0.00 0.00 0.00
0.02 0.01 0.02 0.03 0.03 0.02 0.08 0.08 0.05 0.03 0.06 0.11 0.11 0.13 0.10 0.06 0.14 0.10 0.02 0.04 0.07 0.04 0.03 0.14 0.07 0.06 0.17 0.21 0.03 0.07 0.04 0.07 0.05 0.05 0.04 0.04 0.00 0.00 0.00 0.00 0.00 0.00 0.00 0.00 0.00 0.00 0.00
0.01 0.02 0.02 0.03 0.02 0.04 0.09 0.07 0.05 0.05 0.09 0.11 0.15 0.15 0.09 0.14 0.17 0.08 0.04 0.06 0.06 0.07 0.04 0.11 0.11 0.08 0.16 0.08 0.02 0.10 0.04 0.17 0.10 0.04 0.02 0.03 0.00 0.01 0.00 0.00 0.00 0.00 0.00 0.00 0.00 0.00 0.00
0.01 0.02 0.02 0.02 0.02 0.06 0.08 0.05 0.05 0.06 0.11 0.12 0.17 0.15 0.12 0.18 0.07 0.04 0.02 0.07 0.06 0.03 0.03 0.06 0.09 0.16 0.11 0.02 0.02 0.07 0.07 0.25 0.25 0.22 0.08 0.07 0.01 0.01 0.00 0.00 0.00 0.00 0.00 0.00 0.00 0.00 0.00
0.02 0.02 0.02 0.02 0.02 0.08 0.08 0.06 0.06 0.08 0.12 0.15 0.17 0.16 0.15 0.07 0.04 0.06 0.04 0.08 0.03 0.04 0.05 0.06 0.05 0.13 0.11 0.10 0.03 0.03 0.06 0.31 0.29 0.36 0.38 0.38 0.18 0.05 0.00 0.00 0.00 0.00 0.00 0.00 0.00 0.00 0.00
0.02 0.01 0.02 0.01 0.03 0.08 0.07 0.06 0.06 0.07 0.12 0.15 0.17 0.15 0.09 0.01 0.06 0.12 0.07 0.01 0.00 0.00 0.03 0.04 0.05 0.15 0.06 0.04 0.07 0.02 0.04 0.50 0.40 0.33 0.57 0.48 0.34 0.15 0.02 0.00 0.00 0.00 0.00 0.00 0.00 0.00 0.00
0.01 0.01 0.02 0.01 0.03 0.06 0.05 0.05 0.05 0.07 0.12 0.13 0.13 0.08 0.08 0.09 0.13 0.14 0.06 0.00 0.02 0.04 0.04 0.01 0.01 0.09 0.11 0.14 0.13 0.07 0.09 0.74 0.70 0.52 0.51 0.24 0.22 0.07 0.01 0.00 0.00 0.00 0.00 0.00 0.00 0.00 0.00
0.00 0.00 0.01 0.01 0.04 0.04 0.04 0.04 0.05 0.08 0.12 0.10 0.08 0.07 0.11 0.15 0.19 0.24 0.03 0.00 0.01 0.03 0.01 0.00 0.02 0.08 0.04 0.10 0.19 0.13 0.23 1.03 0.83 0.58 0.59 0.21 0.14 0.01 0.02 0.00 0.00 0.00 0.00 0.00 0.00 0.00 0.00
0.00 0.00 0.01 0.01 0.03 0.03 0.03 0.03 0.04 0.08 0.09 0.08 0.07 0.08 0.07 0.11 0.21 0.23 0.03 0.00 0.00 0.00 0.03 0.03 0.11 0.13 0.14 0.17 0.16 0.09 0.41 1.23 0.71 0.59 0.44 0.22 0.08 0.04 0.04 0.03 0.01 0.00 0.00 0.00 0.00 0.00 0.00
0.00 0.00 0.01 0.01 0.02 0.02 0.02 0.02 0.04 0.07 0.07 0.05 0.07 0.09 0.10 0.15 0.29 0.20 0.01 0.00 0.00 0.01 0.13 0.24 0.32 0.49 0.18 0.17 0.18 0.11 0.54 0.97 0.74 0.63 0.55 0.45 0.15 0.11 0.10 0.07 0.02 0.01 0.00 0.00 0.00 0.00 0.00
0.00 0.01 0.00 0.01 0.01 0.01 0.01 0.02 0.04 0.06 0.06 0.04 0.05 0.09 0.07 0.04 0.05 0.02 0.00 0.00 0.00 0.03 0.31 0.53 0.64 0.33 0.20 0.15 0.13 0.11 0.57 0.55 0.39 0.38 0.55 0.41 0.23 0.18 0.15 0.10 0.05 0.01 0.00 0.00 0.00 0.00 0.00
0.00 0.01 0.00 0.00 0.01 0.01 0.01 0.01 0.03 0.05 0.04 0.01 0.02 0.03 0.01 0.00 0.00 0.00 0.00 0.00 0.00 0.04 0.31 0.37 0.41 0.25 0.04 0.09 0.06 0.20 0.51 0.30 0.28 0.36 0.31 0.24 0.24 0.31 0.16 0.14 0.06 0.01 0.00 0.00 0.00 0.00 0.00
0.00 0.00 0.00 0.00 0.00 0.00 0.00 0.01 0.02 0.04 0.03 0.01 0.00 0.00 0.00 0.00 0.00 0.00 0.00 0.00 0.02 0.07 0.22 0.31 0.35 0.05 0.02 0.07 0.10 0.20 0.27 0.17 0.18 0.40 0.42 0.37 0.33 0.29 0.16 0.21 0.13 0.02 0.00 0.01 0.00 0.00 0.00
0.00 0.00 0.00 0.00 0.00 0.00 0.00 0.01 0.01 0.01 0.02 0.01 0.00 0.00 0.00 0.00 0.00 0.00 0.00 0.00 0.09 0.16 0.22 0.22 0.06 0.02 0.02 0.04 0.10 0.14 0.07 0.04 0.04 0.08 0.16 0.25 0.31 0.30 0.21 0.11 0.11 0.01 0.01 0.01 0.00 0.00 0.00
0.00 0.00 0.00 0.00 0.00 0.00 0.00 0.00 0.01 0.01 0.00 0.00 0.00 0.00 0.00 0.00 0.00 0.00 0.00 0.02 0.14 0.18 0.19 0.09 0.01 0.01 0.01 0.01 0.05 0.03 0.04 0.01 0.00 0.01 0.03 0.03 0.05 0.10 0.12 0.06 0.09 0.04 0.00 0.00 0.00 0.00 0.00
0.00 0.00 0.00 0.00 0.00 0.00 0.00 0.00 0.01 0.01 0.00 0.00 0.00 0.00 0.00 0.00 0.00 0.00 0.00 0.02 0.02 0.02 0.00 0.00 0.00 0.00 0.00 0.00 0.00 0.00 0.00 0.00 0.00 0.00 0.00 0.00 0.01 0.02 0.02 0.02 0.06 0.04 0.00 0.00 0.00 0.00 0.00
0.00 0.00 0.00 0.00 0.00 0.00 0.00 0.00 0.00 0.00 0.00 0.00 0.00 0.00 0.00 0.00 0.00 0.00 0.00 0.01 0.00 0.00 0.00 0.00 0.00 0.00 0.00 0.00 0.00 0.00 0.00 0.00 0.00 0.00 0.00 0.00 0.00 0.00 0.00 0.00 0.00 0.01 0.00 0.00 0.00 0.00 0.00
0.00 0.00 0.00 0.00 0.00 0.00 0.00 0.00 0.00 0.00 0.00 0.00 0.00 0.00 0.00 0.00 0.00 0.00 0.00 0.00 0.00 0.00 0.00 0.00 0.00 0.00 0.00 0.00 0.00 0.00 0.00 0.00 0.00 0.00 0.00 0.00 0.00 0.00 0.00 0.00 0.00 0.00 0.00 0.00 0.00 0.00 0.00
0.00 0.00 0.00 0.00 0.00 0.00 0.00 0.00 0.00 0.00 0.00 0.00 0.00 0.00 0.00 0.00 0.00 0.00 0.00 0.00 0.00 0.00 0.00 0.00 0.00 0.00 0.00 0.00 0.00 0.00 0.00 0.00 0.00 0.00 0.00 0.00 0.00 0.00 0.00 0.00 0.00 0.00 0.00 0.00 0.00 0.00 0.00
0.00 0.00 0.00 0.00 0.00 0.00 0.00 0.00 0.00 0.00 0.00 0.00 0.00 0.00 0.00 0.00 0.00 0.00 0.00 0.00 0.00 0.00 0.00 0.00 0.00 0.00 0.00 0.00 0.00 0.00 0.00 0.00 0.00 0.00 0.00 0.00 0.00 0.00 0.00 0.00 0.00 0.00 0.00 0.00 0.00 0.00 0.00
0.00 0.00 0.00 0.00 0.00 0.00 0.00 0.00 0.00 0.00 0.00 0.00 0.00 0.00 0.00 0.00 0.00 0.00 0.00 0.00 0.00 0.00 0.00 0.00 0.00 0.00 0.00 0.00 0.00 0.00 0.00 0.00 0.00 0.00 0.00 0.00 0.00 0.00 0.00 0.00 0.00 0.00 0.00 0.00 0.00 0.00 0.00
0.00 0.00 0.01 0.00 0.00 0.00 0.00 0.00 0.00 0.00 0.00 0.00 0.00 0.00 0.00 0.00 0.00 0.00 0.00 0.00 0.00 0.00 0.00 0.00 0.00 0.00 0.00 0.00 0.00 0.00 0.00 0.00 0.00 0.00 0.00 0.00 0.00 0.00 0.00 0.00 0.00 0.00 0.00 0.00 0.00 0.00 0.00
0.00 0.00 0.01 0.01 0.00 0.01 0.00 0.00 0.00 0.00 0.00 0.00 0.00 0.00 0.00 0.00 0.00 0.00 0.00 0.00 0.00 0.00 0.00 0.00 0.00 0.00 0.01 0.00 0.00 0.00 0.00 0.00 0.00 0.00 0.00 0.00 0.00 0.00 0.00 0.00 0.00 0.00 0.00 0.00 0.00 0.00 0.00
0.00 0.00 0.01 0.01 0.01 0.01 0.01 0.00 0.00 0.00 0.00 0.00 0.00 0.01 0.00 0.00 0.00 0.00 0.00 0.00 0.00 0.00 0.00 0.00 0.00 0.00 0.00 0.00 0.00 0.00 0.00 0.00 0.00 0.00 0.00 0.00 0.00 0.00 0.00 0.00 0.00 0.00 0.00 0.00 0.00 0.00 0.00
0.00 0.00 0.00 0.01 0.01 0.02 0.02 0.00 0.00 0.00 0.00 0.00 0.00 0.00 0.00 0.00 0.00 0.00 0.00 0.00 0.00 0.00 0.00 0.00 0.00 0.00 0.00 0.00 0.00 0.00 0.01 0.00 0.00 0.00 0.00 0.00 0.00 0.00 0.00 0.00 0.00 0.00 0.00 0.00 0.00 0.00 0.00
0.00 0.01 0.00 0.01 0.02 0.03 0.02 0.02 0.01 0.00 0.00 0.00 0.00 0.00 0.00 0.00 0.00 0.00 0.00 0.00 0.00 0.00 0.00 0.00 0.00 0.00 0.00 0.00 0.01 0.00 0.00 0.00 0.00 0.00 0.00 0.00 0.00 0.01 0.02 0.01 0.00 0.00 0.00 0.00 0.00 0.01 0.00
0.00 0.01 0.00 0.01 0.02 0.02 0.03 0.03 0.03 0.01 0.00 0.00 0.00 0.00 0.00 0.00 0.00 0.00 0.00 0.00 0.00 0.00 0.00 0.00 0.00 0.00 0.00 0.01 0.01 0.00 0.00 0.00 0.00 0.00 0.01 0.01 0.03 0.03 0.02 0.03 0.00 0.00 0.00 0.01 0.07 0.04 0.00
0.02 0.01 0.01 0.00 0.01 0.02 0.04 0.04 0.05 0.02 0.01 0.00 0.00 0.00 0.00 0.00 0.00 0.00 0.00 0.00 0.00 0.00 0.00 0.00 0.00 0.00 0.00 0.01 0.01 0.00 0.00 0.00 0.00 0.00 0.00 0.01 0.01 0.03 0.02 0.02 0.00 0.00 0.00 0.02 0.02 0.00 0.01
0.04 0.01 0.00 0.00 0.00 0.03 0.03 0.07 0.07 0.04 0.04 0.00 0.00 0.00 0.00 0.00 0.00 0.00 0.00 0.00 0.00 0.00 0.00 0.00 0.00 0.00 0.00 0.00 0.00 0.00 0.00 0.00 0.00 0.00 0.00 0.00 0.00 0.00 0.00 0.00 0.00 0.00 0.00 0.00 0.00 0.00 0.00

GFSGBSN_prec_precacc12_048.txt.gz
Total_Precipitation_Accumulation
0.01 0.01 0.01 0.02 0.03 0.01 0.04 0.08 0.05 0.03 0.04 0.09 0.12 0.14 0.14 0.10 0.06 0.07 0.02 0.03 0.05 0.04 0.04 0.09 0.08 0.07 0.07 0.09 0.05 0.14 0.11 0.10 0.15 0.10 0.03 0.02 0.01 0.01 0.00 0.00 0.00 0.00 0.00 0.00 0.00 0.00 0.00
0.01 0.01 0.02 0.03 0.03 0.01 0.07 0.08 0.04 0.02 0.06 0.12 0.15 0.15 0.15 0.14 0.15 0.12 0.02 0.02 0.05 0.04 0.03 0.14 0.07 0.06 0.08 0.10 0.01 0.07 0.09 0.19 0.16 0.11 0.04 0.03 0.00 0.00 0.00 0.00 0.00 0.00 0.00 0.00 0.00 0.00 0.00
0.00 0.02 0.02 0.02 0.01 0.02 0.08 0.06 0.04 0.04 0.09 0.13 0.18 0.14 0.11 0.19 0.18 0.05 0.03 0.04 0.04 0.06 0.03 0.11 0.11 0.05 0.08 0.03 0.03 0.13 0.08 0.16 0.19 0.10 0.02 0.03 0.00 0.01 0.01 0.00 0.00 0.00 0.00 0.00 0.00 0.00 0.00
0.01 0.01 0.01 0.02 0.01 0.04 0.06 0.03 0.04 0.06 0.12 0.13 0.19 0.15 0.13 0.24 0.11 0.02 0.01 0.05 0.04 0.02 0.04 0.08 0.07 0.09 0.05 0.01 0.02 0.10 0.11 0.18 0.15 0.19 0.05 0.07 0.01 0.01 0.01 0.00 0.00 0.00 0.00 0.00 0.00 0.00 0.00
0.01 0.01 0.01 0.02 0.01 0.05 0.05 0.04 0.05 0.07 0.12 0.16 0.18 0.16 0.16 0.08 0.03 0.05 0.01 0.06 0.01 0.02 0.07 0.07 0.04 0.09 0.07 0.04 0.00 0.03 0.05 0.23 0.25 0.39 0.35 0.36 0.18 0.05 0.01 0.01 0.01 0.00 0.00 0.00 0.00 0.00 0.00
0.01 0.01 0.01 0.01 0.01 0.05 0.05 0.04 0.05 0.07 0.13 0.14 0.16 0.15 0.09 0.01 0.02 0.06 0.02 0.00 0.00 0.01 0.03 0.04 0.05 0.10 0.03 0.02 0.01 0.03 0.05 0.39 0.35 0.36 0.52 0.53 0.38 0.17 0.03 0.01 0.01 0.00 0.00 0.00 0.00 0.00 0.00
0.00 0.00 0.01 0.01 0.01 0.04 0.03 0.03 0.04 0.07 0.13 0.11 0.13 0.08 0.08 0.08 0.05 0.07 0.02 0.01 0.08 0.08 0.04 0.04 0.02 0.11 0.16 0.18 0.12 0.11 0.13 0.72 0.64 0.36 0.19 0.27 0.24 0.08 0.01 0.00 0.00 0.00 0.00 0.00 0.00 0.00 0.00
0.00 0.00 0.01 0.00 0.01 0.02 0.03 0.03 0.04 0.08 0.11 0.09 0.09 0.08 0.11 0.14 0.12 0.14 0.02 0.02 0.02 0.08 0.03 0.00 0.00 0.04 0.03 0.10 0.24 0.26 0.25 1.07 0.96 0.49 0.24 0.17 0.13 0.01 0.02 0.00 0.00 0.00 0.00 0.00 0.00 0.00 0.00
0.00 0.00 0.01 0.00 0.01 0.02 0.02 0.03 0.04 0.06 0.06 0.07 0.06 0.07 0.07 0.10 0.14 0.19 0.03 0.00 0.00 0.00 0.04 0.02 0.07 0.08 0.16 0.25 0.30 0.29 0.40 1.29 0.77 0.55 0.36 0.12 0.05 0.03 0.03 0.02 0.00 0.00 0.00 0.00 0.00 0.00 0.00
0.00 0.00 0.00 0.00 0.00 0.01 0.01 0.02 0.03 0.04 0.03 0.02 0.02 0.04 0.06 0.06 0.02 0.06 0.00 0.00 0.00 0.01 0.14 0.17 0.28 0.40 0.19 0.27 0.40 0.18 0.53 1.02 0.80 0.59 0.53 0.28 0.10 0.08 0.06 0.03 0.00 0.00 0.00 0.00 0.00 0.00 0.00
0.00 0.00 0.00 0.00 0.00 0.00 0.01 0.02 0.03 0.02 0.01 0.01 0.02 0.03 0.02 0.00 0.00 0.00 0.00 0.00 0.00 0.06 0.42 0.62 0.54 0.25 0.22 0.23 0.26 0.17 0.59 0.62 0.44 0.38 0.57 0.42 0.19 0.19 0.13 0.06 0.01 0.01 0.00 0.00 0.00 0.00 0.00
0.00 0.00 0.00 0.00 0.00 0.00 0.00 0.01 0.02 0.02 0.01 0.00 0.01 0.01 0.00 0.00 0.00 0.00 0.00 0.00 0.00 0.08 0.41 0.34 0.28 0.35 0.12 0.13 0.11 0.23 0.59 0.43 0.36 0.36 0.36 0.26 0.23 0.33 0.25 0.16 0.05 0.01 0.00 0.00 0.00 0.00 0.00
0.00 0.00 0.00 0.00 0.00 0.00 0.00 0.00 0.01 0.01 0.01 0.01 0.00 0.00 0.00 0.00 0.00 0.00 0.00 0.00 0.01 0.06 0.15 0.20 0.22 0.06 0.04 0.09 0.12 0.33 0.50 0.39 0.30 0.50 0.55 0.51 0.36 0.32 0.20 0.26 0.16 0.03 0.00 0.01 0.01 0.00 0.00
0.00 0.00 0.00 0.00 0.00 0.00 0.00 0.00 0.00 0.00 0.01 0.00 0.00 0.00 0.00 0.00 0.00 0.00 0.00 0.00 0.06 0.14 0.12 0.10 0.04 0.02 0.02 0.03 0.10 0.23 0.24 0.20 0.13 0.12 0.25 0.47 0.41 0.38 0.26 0.12 0.12 0.01 0.01 0.01 0.00 0.00 0.00
0.00 0.00 0.00 0.00 0.00 0.00 0.00 0.00 0.00 0.00 0.00 0.00 0.00 0.00 0.00 0.00 0.00 0.00 0.00 0.01 0.07 0.07 0.06 0.04 0.01 0.01 0.02 0.01 0.04 0.02 0.13 0.06 0.03 0.07 0.12 0.12 0.10 0.16 0.25 0.07 0.09 0.04 0.01 0.00 0.00 0.00 0.00
0.00 0.00 0.00 0.00 0.00 0.00 0.00 0.00 0.00 0.00 0.00 0.00 0.00 0.00 0.00 0.00 0.00 0.00 0.00 0.01 0.01 0.00 0.00 0.00 0.00 0.00 0.01 0.00 0.00 0.00 0.01 0.00 0.00 0.00 0.00 0.00 0.02 0.06 0.14 0.11 0.11 0.05 0.00 0.00 0.00 0.00 0.00
0.00 0.00 0.00 0.00 0.00 0.00 0.00 0.00 0.00 0.00 0.00 0.00 0.00 0.00 0.00 0.00 0.00 0.00 0.00 0.00 0.00 0.00 0.00 0.00 0.00 0.00 0.00 0.00 0.00 0.00 0.00 0.00 0.00 0.00 0.00 0.00 0.00 0.01 0.05 0.07 0.06 0.06 0.02 0.00 0.00 0.00 0.00
0.00 0.00 0.00 0.00 0.00 0.00 0.00 0.00 0.00 0.00 0.00 0.00 0.00 0.00 0.00 0.00 0.00 0.00 0.00 0.00 0.00 0.00 0.00 0.00 0.00 0.00 0.00 0.00 0.00 0.00 0.00 0.00 0.00 0.00 0.00 0.00 0.00 0.00 0.00 0.00 0.00 0.02 0.02 0.01 0.00 0.00 0.00
0.00 0.00 0.00 0.00 0.00 0.00 0.00 0.00 0.00 0.00 0.00 0.00 0.00 0.00 0.00 0.00 0.00 0.00 0.00 0.00 0.00 0.00 0.00 0.00 0.00 0.00 0.00 0.00 0.00 0.00 0.00 0.00 0.00 0.00 0.00 0.00 0.00 0.00 0.00 0.00 0.00 0.00 0.00 0.01 0.00 0.00 0.00
0.00 0.00 0.00 0.00 0.00 0.00 0.00 0.00 0.00 0.00 0.00 0.00 0.00 0.00 0.00 0.00 0.00 0.00 0.00 0.00 0.00 0.00 0.00 0.00 0.00 0.00 0.00 0.00 0.00 0.00 0.00 0.00 0.00 0.00 0.00 0.00 0.00 0.00 0.00 0.00 0.00 0.00 0.00 0.00 0.00 0.00 0.00
0.00 0.00 0.00 0.00 0.00 0.00 0.00 0.00 0.00 0.00 0.00 0.00 0.00 0.00 0.00 0.00 0.00 0.00 0.00 0.00 0.00 0.00 0.00 0.00 0.00 0.00 0.00 0.00 0.00 0.00 0.00 0.00 0.00 0.00 0.00 0.00 0.00 0.00 0.00 0.00 0.00 0.00 0.00 0.00 0.00 0.00 0.00
0.00 0.00 0.00 0.00 0.00 0.00 0.00 0.00 0.00 0.00 0.00 0.00 0.00 0.00 0.00 0.00 0.00 0.00 0.00 0.00 0.00 0.00 0.00 0.00 0.00 0.00 0.00 0.00 0.00 0.00 0.00 0.00 0.00 0.00 0.00 0.00 0.00 0.00 0.00 0.00 0.00 0.00 0.00 0.00 0.00 0.00 0.00
0.00 0.00 0.00 0.00 0.00 0.01 0.01 0.00 0.00 0.00 0.00 0.00 0.00 0.00 0.00 0.00 0.00 0.00 0.00 0.00 0.00 0.00 0.00 0.00 0.00 0.00 0.00 0.00 0.00 0.00 0.00 0.00 0.00 0.00 0.00 0.00 0.00 0.00 0.00 0.00 0.00 0.00 0.00 0.00 0.00 0.00 0.00
0.00 0.00 0.00 0.00 0.01 0.01 0.01 0.00 0.00 0.00 0.00 0.00 0.00 0.01 0.00 0.00 0.00 0.00 0.00 0.00 0.00 0.00 0.00 0.00 0.00 0.00 0.00 0.00 0.00 0.00 0.00 0.00 0.00 0.00 0.00 0.00 0.00 0.00 0.00 0.00 0.00 0.00 0.00 0.00 0.00 0.00 0.00
0.00 0.00 0.00 0.00 0.01 0.02 0.02 0.00 0.00 0.00 0.00 0.00 0.00 0.00 0.00 0.00 0.00 0.00 0.00 0.00 0.00 0.00 0.00 0.00 0.00 0.00 0.00 0.00 0.00 0.00 0.00 0.00 0.00 0.00 0.00 0.00 0.00 0.01 0.00 0.00 0.00 0.00 0.00 0.00 0.00 0.00 0.00
0.00 0.00 0.00 0.00 0.01 0.03 0.02 0.02 0.01 0.00 0.00 0.00 0.00 0.00 0.00 0.00 0.00 0.00 0.00 0.00 0.00 0.00 0.00 0.00 0.00 0.00 0.00 0.01 0.01 0.01 0.00 0.00 0.00 0.00 0.00 0.00 0.00 0.01 0.01 0.01 0.00 0.00 0.00 0.00 0.00 0.01 0.00
0.00 0.00 0.00 0.00 0.01 0.02 0.03 0.03 0.03 0.01 0.00 0.00 0.00 0.00 0.00 0.00 0.00 0.00 0.00 0.00 0.00 0.00 0.00 0.00 0.00 0.00 0.00 0.01 0.01 0.00 0.00 0.00 0.00 0.00 0.01 0.01 0.03 0.03 0.02 0.01 0.00 0.00 0.00 0.01 0.07 0.04 0.00
0.02 0.01 0.00 0.00 0.00 0.01 0.04 0.04 0.06 0.03 0.01 0.00 0.00 0.00 0.00 0.00 0.00 0.00 0.00 0.00 0.00 0.00 0.00 0.00 0.00 0.00 0.01 0.02 0.01 0.00 0.00 0.00 0.00 0.00 0.00 0.01 0.01 0.02 0.02 0.02 0.00 0.00 0.00 0.03 0.02 0.00 0.01
0.04 0.01 0.00 0.00 0.00 0.00 0.02 0.07 0.08 0.04 0.04 0.00 0.00 0.00 0.00 0.00 0.00 0.00 0.00 0.00 0.00 0.00 0.00 0.00 0.00 0.00 0.01 0.01 0.01 0.01 0.00 0.00 0.00 0.00 0.00 0.00 0.00 0.00 0.00 0.00 0.00 0.00 0.00 0.00 0.00 0.00 0.00

GFSGBSN_prec_precacc12_051.txt.gz
Total_Precipitation_Accumulation
0.00 0.01 0.01 0.02 0.02 0.01 0.03 0.06 0.04 0.02 0.03 0.09 0.12 0.13 0.16 0.14 0.10 0.14 0.08 0.04 0.04 0.04 0.04 0.07 0.08 0.09 0.12 0.15 0.04 0.11 0.10 0.09 0.22 0.19 0.03 0.01 0.01 0.01 0.00 0.00 0.00 0.00 0.00 0.00 0.01 0.00 0.00
0.00 0.01 0.01 0.02 0.02 0.01 0.05 0.05 0.03 0.02 0.06 0.11 0.15 0.14 0.16 0.16 0.19 0.14 0.04 0.01 0.02 0.02 0.01 0.12 0.07 0.06 0.08 0.09 0.00 0.05 0.10 0.22 0.28 0.22 0.03 0.02 0.00 0.00 0.00 0.00 0.00 0.00 0.00 0.00 0.00 0.00 0.00
0.00 0.01 0.01 0.01 0.01 0.02 0.05 0.04 0.03 0.03 0.08 0.12 0.16 0.12 0.11 0.19 0.22 0.07 0.01 0.02 0.03 0.04 0.01 0.09 0.10 0.04 0.06 0.01 0.05 0.13 0.13 0.16 0.38 0.23 0.03 0.02 0.00 0.01 0.01 0.01 0.00 0.00 0.00 0.00 0.00 0.00 0.00
0.00 0.01 0.00 0.01 0.01 0.02 0.03 0.03 0.03 0.04 0.10 0.11 0.15 0.11 0.11 0.22 0.12 0.02 0.00 0.03 0.01 0.01 0.03 0.07 0.06 0.08 0.02 0.00 0.02 0.06 0.10 0.12 0.33 0.32 0.09 0.06 0.01 0.01 0.02 0.01 0.00 0.00 0.00 0.00 0.00 0.00 0.00
0.00 0.00 0.01 0.01 0.00 0.03 0.03 0.03 0.03 0.06 0.11 0.14 0.15 0.12 0.15 0.08 0.02 0.01 0.00 0.01 0.01 0.02 0.06 0.06 0.03 0.08 0.03 0.04 0.00 0.02 0.03 0.13 0.36 0.45 0.33 0.25 0.16 0.05 0.02 0.01 0.02 0.01 0.00 0.00 0.00 0.00 0.00
0.00 0.00 0.00 0.01 0.00 0.03 0.03 0.03 0.04 0.07 0.12 0.13 0.14 0.12 0.09 0.01 0.00 0.01 0.00 0.00 0.00 0.01 0.03 0.03 0.06 0.11 0.03 0.04 0.01 0.03 0.05 0.28 0.39 0.59 0.55 0.51 0.38 0.17 0.03 0.01 0.01 0.00 0.00 0.00 0.00 0.00 0.00
0.00 0.00 0.01 0.00 0.00 0.02 0.02 0.02 0.04 0.06 0.10 0.07 0.10 0.08 0.07 0.08 0.01 0.01 0.01 0.01 0.09 0.11 0.04 0.04 0.03 0.10 0.16 0.18 0.11 0.12 0.14 0.61 0.56 0.76 0.28 0.28 0.23 0.07 0.01 0.00 0.00 0.00 0.00 0.00 0.00 0.00 0.00
0.00 0.00 0.00 0.00 0.00 0.01 0.02 0.03 0.03 0.05 0.05 0.04 0.05 0.03 0.04 0.13 0.09 0.05 0.00 0.02 0.02 0.08 0.03 0.00 0.00 0.01 0.02 0.10 0.23 0.38 0.34 1.00 0.77 0.49 0.16 0.16 0.12 0.01 0.02 0.00 0.00 0.00 0.00 0.00 0.00 0.00 0.00
0.00 0.00 0.00 0.00 0.00 0.01 0.01 0.02 0.03 0.03 0.02 0.02 0.02 0.01 0.01 0.05 0.06 0.10 0.03 0.00 0.00 0.00 0.04 0.02 0.03 0.05 0.16 0.28 0.35 0.67 0.45 1.17 0.52 0.24 0.10 0.05 0.03 0.02 0.03 0.02 0.00 0.00 0.00 0.00 0.00 0.00 0.00
0.00 0.00 0.00 0.00 0.00 0.00 0.01 0.01 0.02 0.02 0.01 0.01 0.01 0.01 0.00 0.00 0.00 0.01 0.00 0.00 0.00 0.01 0.14 0.14 0.17 0.34 0.29 0.44 0.47 0.36 0.50 1.08 0.70 0.36 0.25 0.14 0.06 0.04 0.04 0.03 0.00 0.00 0.00 0.00 0.00 0.00 0.00
0.00 0.00 0.00 0.00 0.00 0.00 0.00 0.01 0.02 0.01 0.01 0.00 0.01 0.01 0.00 0.00 0.00 0.00 0.00 0.00 0.00 0.06 0.41 0.58 0.44 0.22 0.52 0.59 0.33 0.15 0.57 0.70 0.40 0.34 0.49 0.32 0.17 0.09 0.07 0.03 0.01 0.01 0.00 0.00 0.00 0.00 0.00
0.00 0.00 0.00 0.00 0.00 0.00 0.00 0.01 0.01 0.01 0.00 0.00 0.01 0.00 0.00 0.00 0.00 0.00 0.00 0.00 0.00 0.08 0.41 0.26 0.22 0.29 0.39 0.22 0.10 0.16 0.56 0.44 0.34 0.31 0.31 0.24 0.16 0.27 0.19 0.10 0.04 0.01 0.00 0.00 0.00 0.00 0.00
0.00 0.00 0.00 0.00 0.00 0.00 0.00 0.00 0.00 0.01 0.01 0.01 0.00 0.00 0.00 0.00 0.00 0.00 0.00 0.00 0.01 0.04 0.07 0.08 0.14 0.07 0.06 0.08 0.09 0.26 0.47 0.39 0.30 0.48 0.53 0.48 0.25 0.27 0.22 0.27 0.11 0.02 0.00 0.01 0.01 0.00 0.00
0.00 0.00 0.00 0.00 0.00 0.00 0.00 0.00 0.00 0.00 0.01 0.00 0.00 0.00 0.00 0.00 0.00 0.00 0.00 0.00 0.04 0.09 0.04 0.03 0.02 0.02 0.02 0.03 0.09 0.27 0.29 0.24 0.16 0.11 0.24 0.53 0.44 0.39 0.28 0.26 0.20 0.04 0.01 0.01 0.00 0.00 0.00
0.00 0.00 0.00 0.00 0.00 0.00 0.00 0.00 0.00 0.00 0.00 0.00 0.00 0.00 0.00 0.00 0.00 0.00 0.00 0.00 0.03 0.03 0.02 0.01 0.01 0.01 0.02 0.01 0.03 0.19 0.33 0.09 0.05 0.08 0.13 0.19 0.14 0.20 0.26 0.11 0.16 0.08 0.01 0.00 0.00 0.00 0.00
0.00 0.00 0.00 0.00 0.00 0.00 0.00 0.00 0.00 0.00 0.00 0.00 0.00 0.00 0.00 0.00 0.00 0.00 0.00 0.01 0.00 0.00 0.00 0.00 0.00 0.00 0.01 0.01 0.01 0.01 0.05 0.01 0.00 0.01 0.01 0.01 0.03 0.08 0.16 0.16 0.14 0.06 0.01 0.01 0.00 0.00 0.00
0.00 0.00 0.00 0.00 0.00 0.00 0.00 0.00 0.00 0.00 0.00 0.00 0.00 0.00 0.00 0.00 0.00 0.00 0.00 0.00 0.00 0.00 0.00 0.00 0.00 0.00 0.00 0.00 0.00 0.00 0.00 0.00 0.00 0.00 0.00 0.00 0.01 0.03 0.06 0.15 0.11 0.07 0.03 0.00 0.00 0.00 0.00
0.00 0.00 0.00 0.00 0.00 0.00 0.00 0.00 0.00 0.00 0.00 0.00 0.00 0.00 0.00 0.00 0.00 0.00 0.00 0.00 0.00 0.00 0.00 0.00 0.00 0.00 0.00 0.00 0.00 0.00 0.00 0.00 0.00 0.00 0.00 0.00 0.00 0.00 0.01 0.01 0.00 0.04 0.03 0.01 0.00 0.00 0.00
0.00 0.00 0.00 0.00 0.00 0.00 0.00 0.00 0.00 0.00 0.00 0.00 0.00 0.00 0.00 0.00 0.00 0.00 0.00 0.00 0.00 0.00 0.00 0.00 0.00 0.00 0.00 0.00 0.00 0.00 0.00 0.00 0.00 0.00 0.00 0.00 0.00 0.00 0.00 0.00 0.00 0.01 0.02 0.02 0.00 0.00 0.00
0.00 0.00 0.00 0.00 0.00 0.00 0.00 0.00 0.00 0.00 0.00 0.00 0.00 0.00 0.00 0.00 0.00 0.00 0.00 0.00 0.00 0.00 0.00 0.00 0.00 0.00 0.00 0.00 0.00 0.00 0.00 0.00 0.00 0.00 0.00 0.00 0.00 0.00 0.00 0.00 0.00 0.00 0.00 0.01 0.04 0.00 0.00
0.00 0.00 0.00 0.00 0.00 0.00 0.00 0.00 0.00 0.00 0.00 0.00 0.00 0.00 0.00 0.00 0.00 0.00 0.00 0.00 0.00 0.00 0.00 0.00 0.00 0.00 0.00 0.00 0.00 0.00 0.00 0.00 0.00 0.00 0.00 0.00 0.00 0.00 0.00 0.00 0.00 0.00 0.00 0.00 0.00 0.00 0.00
0.00 0.00 0.00 0.00 0.00 0.00 0.00 0.00 0.00 0.00 0.00 0.00 0.00 0.00 0.00 0.00 0.00 0.00 0.00 0.00 0.00 0.00 0.00 0.00 0.00 0.00 0.00 0.00 0.00 0.00 0.00 0.00 0.00 0.00 0.00 0.00 0.00 0.00 0.00 0.00 0.00 0.00 0.00 0.00 0.00 0.00 0.00
0.00 0.00 0.00 0.00 0.00 0.01 0.01 0.00 0.00 0.00 0.00 0.00 0.00 0.00 0.00 0.00 0.00 0.00 0.00 0.00 0.00 0.00 0.00 0.00 0.00 0.00 0.00 0.00 0.00 0.00 0.00 0.00 0.00 0.00 0.00 0.00 0.00 0.00 0.00 0.00 0.00 0.00 0.00 0.00 0.00 0.00 0.00
0.00 0.00 0.00 0.00 0.00 0.01 0.01 0.00 0.00 0.00 0.00 0.00 0.00 0.01 0.00 0.00 0.00 0.00 0.00 0.00 0.00 0.00 0.00 0.00 0.00 0.00 0.00 0.00 0.00 0.00 0.00 0.00 0.00 0.00 0.00 0.00 0.00 0.00 0.00 0.00 0.00 0.00 0.00 0.00 0.00 0.00 0.00
0.00 0.00 0.00 0.00 0.00 0.02 0.02 0.00 0.01 0.00 0.00 0.00 0.00 0.00 0.00 0.00 0.00 0.00 0.00 0.00 0.00 0.00 0.00 0.00 0.00 0.00 0.00 0.00 0.00 0.00 0.00 0.00 0.00 0.00 0.00 0.00 0.00 0.01 0.00 0.00 0.00 0.00 0.00 0.00 0.00 0.00 0.00
0.00 0.00 0.00 0.00 0.00 0.01 0.02 0.02 0.01 0.00 0.00 0.00 0.00 0.00 0.00 0.00 0.00 0.00 0.00 0.00 0.00 0.00 0.00 0.00 0.00 0.00 0.00 0.01 0.02 0.01 0.01 0.00 0.00 0.00 0.00 0.00 0.00 0.01 0.01 0.00 0.00 0.00 0.00 0.00 0.00 0.01 0.00
0.00 0.00 0.00 0.00 0.00 0.00 0.02 0.03 0.04 0.02 0.00 0.00 0.00 0.00 0.00 0.00 0.00 0.00 0.00 0.00 0.00 0.00 0.00 0.00 0.00 0.00 0.00 0.01 0.01 0.00 0.00 0.00 0.00 0.00 0.01 0.01 0.02 0.02 0.02 0.01 0.00 0.00 0.00 0.00 0.05 0.04 0.00
0.02 0.01 0.00 0.00 0.00 0.00 0.01 0.03 0.06 0.03 0.01 0.00 0.00 0.00 0.00 0.00 0.00 0.00 0.00 0.00 0.00 0.00 0.00 0.00 0.00 0.00 0.02 0.02 0.01 0.01 0.00 0.00 0.00 0.00 0.00 0.00 0.01 0.02 0.01 0.02 0.00 0.00 0.00 0.01 0.01 0.00 0.01
0.04 0.01 0.00 0.00 0.00 0.00 0.01 0.02 0.07 0.04 0.05 0.00 0.00 0.00 0.00 0.00 0.00 0.00 0.00 0.00 0.00 0.00 0.00 0.00 0.00 0.00 0.01 0.01 0.01 0.01 0.00 0.00 0.00 0.00 0.00 0.00 0.00 0.00 0.00 0.00 0.00 0.00 0.00 0.00 0.00 0.00 0.00

GFSGBSN_prec_precacc12_057.txt.gz
Total_Precipitation_Accumulation
0.00 0.00 0.00 0.00 0.01 0.01 0.03 0.03 0.02 0.01 0.03 0.07 0.09 0.07 0.12 0.12 0.10 0.14 0.10 0.06 0.04 0.06 0.05 0.01 0.01 0.06 0.14 0.20 0.07 0.06 0.08 0.07 0.17 0.37 0.21 0.01 0.00 0.02 0.01 0.00 0.01 0.00 0.00 0.02 0.06 0.04 0.01
0.00 0.00 0.00 0.00 0.01 0.01 0.03 0.03 0.02 0.01 0.04 0.08 0.09 0.05 0.09 0.13 0.11 0.08 0.03 0.01 0.01 0.01 0.00 0.00 0.00 0.01 0.07 0.08 0.00 0.03 0.08 0.21 0.24 0.37 0.21 0.02 0.00 0.01 0.01 0.00 0.02 0.00 0.02 0.05 0.06 0.03 0.01
0.00 0.00 0.00 0.00 0.00 0.01 0.02 0.03 0.02 0.02 0.05 0.07 0.08 0.03 0.05 0.07 0.09 0.04 0.01 0.00 0.00 0.00 0.00 0.00 0.00 0.01 0.04 0.01 0.04 0.16 0.16 0.20 0.39 0.38 0.21 0.03 0.00 0.02 0.01 0.01 0.02 0.02 0.03 0.03 0.03 0.01 0.00
0.00 0.00 0.00 0.00 0.00 0.00 0.01 0.02 0.02 0.03 0.05 0.05 0.06 0.02 0.04 0.07 0.06 0.01 0.00 0.00 0.00 0.00 0.01 0.04 0.01 0.03 0.01 0.00 0.02 0.14 0.11 0.17 0.36 0.49 0.34 0.12 0.02 0.03 0.02 0.01 0.01 0.01 0.02 0.01 0.00 0.00 0.00
0.00 0.00 0.00 0.00 0.00 0.01 0.01 0.02 0.01 0.03 0.05 0.05 0.05 0.02 0.03 0.01 0.01 0.00 0.00 0.00 0.00 0.00 0.03 0.03 0.00 0.03 0.00 0.01 0.06 0.12 0.04 0.13 0.55 0.58 0.46 0.20 0.08 0.03 0.02 0.01 0.02 0.01 0.00 0.00 0.00 0.00 0.00
0.00 0.00 0.00 0.00 0.00 0.00 0.01 0.01 0.02 0.03 0.04 0.04 0.04 0.01 0.01 0.00 0.00 0.00 0.00 0.00 0.00 0.01 0.00 0.01 0.04 0.05 0.02 0.04 0.03 0.05 0.06 0.11 0.63 0.78 0.64 0.40 0.18 0.06 0.02 0.01 0.02 0.00 0.00 0.00 0.00 0.00 0.00
0.00 0.00 0.00 0.00 0.00 0.00 0.00 0.01 0.01 0.02 0.03 0.03 0.03 0.01 0.01 0.00 0.00 0.00 0.01 0.01 0.07 0.08 0.02 0.03 0.03 0.06 0.06 0.06 0.06 0.09 0.15 0.25 0.66 1.19 0.58 0.16 0.06 0.02 0.00 0.00 0.00 0.00 0.00 0.00 0.00 0.00 0.00
0.00 0.00 0.00 0.00 0.00 0.00 0.00 0.00 0.01 0.01 0.02 0.02 0.03 0.02 0.01 0.01 0.00 0.00 0.00 0.02 0.01 0.05 0.02 0.00 0.00 0.00 0.00 0.03 0.16 0.33 0.33 0.55 0.92 1.22 0.25 0.07 0.02 0.00 0.00 0.00 0.00 0.00 0.00 0.00 0.00 0.00 0.00
0.00 0.00 0.00 0.00 0.00 0.01 0.00 0.00 0.01 0.01 0.01 0.01 0.02 0.02 0.01 0.00 0.00 0.00 0.00 0.00 0.00 0.00 0.01 0.01 0.01 0.02 0.13 0.21 0.31 0.72 0.51 0.60 0.72 0.72 0.13 0.02 0.01 0.00 0.01 0.01 0.00 0.00 0.00 0.00 0.00 0.00 0.00
0.00 0.00 0.00 0.00 0.00 0.01 0.00 0.00 0.00 0.01 0.00 0.01 0.01 0.01 0.01 0.00 0.00 0.00 0.00 0.00 0.00 0.00 0.02 0.02 0.03 0.09 0.23 0.44 0.59 0.66 0.45 0.47 0.68 0.49 0.14 0.04 0.01 0.01 0.03 0.01 0.00 0.00 0.00 0.00 0.00 0.00 0.00
0.00 0.00 0.00 0.00 0.00 0.00 0.01 0.01 0.00 0.00 0.00 0.01 0.01 0.01 0.01 0.00 0.00 0.00 0.00 0.00 0.00 0.04 0.20 0.20 0.07 0.16 0.45 0.59 0.41 0.51 0.35 0.40 0.36 0.41 0.14 0.07 0.02 0.04 0.05 0.02 0.01 0.00 0.00 0.00 0.00 0.00 0.00
0.00 0.00 0.00 0.00 0.00 0.00 0.00 0.00 0.00 0.00 0.00 0.00 0.01 0.01 0.00 0.00 0.00 0.00 0.00 0.00 0.00 0.05 0.22 0.12 0.25 0.56 0.62 0.27 0.13 0.23 0.35 0.39 0.25 0.05 0.06 0.03 0.02 0.06 0.13 0.08 0.03 0.01 0.00 0.00 0.00 0.00 0.00
0.00 0.00 0.00 0.00 0.00 0.00 0.00 0.00 0.00 0.00 0.00 0.00 0.00 0.00 0.00 0.00 0.00 0.00 0.00 0.00 0.00 0.01 0.03 0.05 0.17 0.21 0.12 0.09 0.03 0.18 0.36 0.34 0.27 0.17 0.17 0.15 0.03 0.04 0.12 0.16 0.06 0.01 0.00 0.02 0.02 0.01 0.00
0.00 0.00 0.00 0.00 0.00 0.00 0.00 0.00 0.00 0.00 0.00 0.00 0.00 0.00 0.00 0.00 0.00 0.00 0.00 0.00 0.01 0.03 0.01 0.00 0.01 0.02 0.02 0.01 0.01 0.17 0.27 0.22 0.13 0.05 0.10 0.29 0.15 0.10 0.07 0.16 0.11 0.04 0.00 0.01 0.00 0.00 0.00
0.00 0.00 0.00 0.00 0.00 0.00 0.00 0.00 0.00 0.00 0.00 0.00 0.00 0.00 0.00 0.00 0.00 0.00 0.00 0.00 0.00 0.00 0.01 0.01 0.00 0.01 0.01 0.01 0.00 0.20 0.33 0.10 0.05 0.07 0.11 0.16 0.09 0.11 0.14 0.04 0.13 0.07 0.01 0.00 0.00 0.00 0.00
0.00 0.00 0.00 0.00 0.00 0.00 0.00 0.00 0.00 0.00 0.00 0.00 0.00 0.00 0.00 0.00 0.00 0.00 0.00 0.00 0.00 0.00 0.00 0.00 0.00 0.00 0.01 0.01 0.00 0.02 0.08 0.01 0.00 0.01 0.01 0.01 0.02 0.08 0.16 0.14 0.12 0.11 0.01 0.02 0.00 0.00 0.00
0.00 0.00 0.00 0.00 0.00 0.00 0.00 0.00 0.00 0.00 0.00 0.00 0.00 0.00 0.00 0.00 0.00 0.00 0.00 0.00 0.00 0.00 0.00 0.00 0.00 0.00 0.00 0.00 0.00 0.00 0.00 0.00 0.00 0.00 0.00 0.00 0.01 0.05 0.11 0.17 0.11 0.10 0.12 0.01 0.00 0.00 0.00
0.00 0.00 0.00 0.00 0.00 0.00 0.00 0.00 0.00 0.00 0.00 0.00 0.00 0.00 0.00 0.00 0.00 0.00 0.00 0.00 0.00 0.00 0.00 0.00 0.00 0.00 0.00 0.00 0.00 0.00 0.00 0.00 0.00 0.00 0.00 0.00 0.00 0.01 0.02 0.01 0.01 0.05 0.04 0.02 0.01 0.00 0.00
0.00 0.00 0.00 0.00 0.00 0.00 0.00 0.00 0.00 0.00 0.00 0.00 0.00 0.00 0.00 0.00 0.00 0.00 0.00 0.00 0.00 0.00 0.00 0.00 0.00 0.00 0.00 0.00 0.00 0.00 0.00 0.00 0.00 0.00 0.00 0.00 0.00 0.02 0.03 0.02 0.01 0.04 0.03 0.02 0.01 0.01 0.00
0.00 0.00 0.00 0.00 0.00 0.00 0.00 0.00 0.00 0.00 0.00 0.00 0.00 0.00 0.00 0.00 0.00 0.00 0.00 0.00 0.00 0.00 0.00 0.00 0.00 0.00 0.00 0.00 0.00 0.00 0.00 0.00 0.00 0.00 0.00 0.00 0.00 0.00 0.00 0.00 0.00 0.00 0.00 0.01 0.05 0.03 0.00
0.00 0.00 0.00 0.00 0.00 0.00 0.00 0.00 0.00 0.00 0.00 0.00 0.00 0.00 0.00 0.00 0.00 0.00 0.00 0.00 0.00 0.00 0.00 0.00 0.00 0.00 0.00 0.00 0.00 0.00 0.00 0.00 0.00 0.00 0.00 0.00 0.00 0.00 0.00 0.00 0.00 0.00 0.00 0.00 0.01 0.00 0.00
0.00 0.00 0.00 0.00 0.00 0.00 0.00 0.00 0.00 0.00 0.00 0.00 0.00 0.00 0.00 0.00 0.00 0.00 0.00 0.00 0.00 0.00 0.00 0.00 0.00 0.00 0.00 0.00 0.00 0.00 0.00 0.00 0.00 0.00 0.00 0.00 0.00 0.00 0.00 0.00 0.00 0.00 0.00 0.00 0.00 0.00 0.00
0.00 0.00 0.00 0.00 0.00 0.00 0.00 0.00 0.00 0.00 0.00 0.00 0.00 0.00 0.00 0.00 0.00 0.00 0.00 0.00 0.00 0.00 0.00 0.00 0.00 0.00 0.00 0.00 0.00 0.00 0.00 0.00 0.00 0.00 0.00 0.00 0.00 0.00 0.00 0.00 0.00 0.00 0.00 0.00 0.00 0.00 0.00
0.00 0.00 0.00 0.00 0.00 0.00 0.00 0.00 0.00 0.00 0.00 0.00 0.00 0.00 0.00 0.00 0.00 0.00 0.00 0.00 0.00 0.00 0.00 0.00 0.00 0.00 0.00 0.00 0.00 0.00 0.00 0.00 0.00 0.00 0.00 0.00 0.00 0.00 0.00 0.00 0.00 0.00 0.00 0.00 0.00 0.00 0.00
0.00 0.00 0.00 0.00 0.00 0.00 0.00 0.00 0.00 0.00 0.00 0.00 0.00 0.00 0.00 0.00 0.00 0.00 0.00 0.00 0.00 0.00 0.00 0.00 0.00 0.00 0.00 0.00 0.00 0.00 0.00 0.00 0.00 0.00 0.00 0.00 0.00 0.00 0.00 0.00 0.00 0.00 0.00 0.00 0.00 0.00 0.00
0.00 0.00 0.00 0.00 0.00 0.00 0.00 0.00 0.00 0.00 0.00 0.00 0.00 0.00 0.00 0.00 0.00 0.00 0.00 0.00 0.00 0.00 0.00 0.00 0.00 0.00 0.00 0.01 0.02 0.01 0.00 0.00 0.00 0.00 0.00 0.00 0.00 0.00 0.01 0.00 0.00 0.00 0.00 0.00 0.00 0.00 0.00
0.00 0.00 0.00 0.00 0.00 0.00 0.00 0.00 0.01 0.01 0.00 0.00 0.00 0.00 0.00 0.00 0.00 0.00 0.00 0.00 0.00 0.00 0.00 0.00 0.01 0.00 0.00 0.01 0.00 0.00 0.00 0.00 0.00 0.00 0.00 0.00 0.01 0.01 0.01 0.01 0.00 0.00 0.00 0.00 0.00 0.00 0.00
0.00 0.00 0.00 0.00 0.00 0.00 0.00 0.00 0.02 0.00 0.00 0.00 0.00 0.00 0.00 0.00 0.00 0.00 0.00 0.00 0.00 0.00 0.00 0.01 0.04 0.02 0.02 0.01 0.00 0.00 0.00 0.00 0.00 0.00 0.00 0.00 0.00 0.01 0.01 0.02 0.00 0.00 0.00 0.00 0.00 0.00 0.00
0.00 0.00 0.00 0.00 0.00 0.00 0.00 0.01 0.02 0.00 0.01 0.00 0.00 0.00 0.00 0.00 0.00 0.00 0.00 0.00 0.00 0.00 0.00 0.00 0.06 0.04 0.01 0.02 0.01 0.00 0.00 0.00 0.00 0.00 0.00 0.00 0.00 0.00 0.00 0.00 0.00 0.00 0.00 0.00 0.00 0.00 0.00

GFSGBSN_prec_precacc12_060.txt.gz
Total_Precipitation_Accumulation
0.00 0.00 0.00 0.00 0.00 0.01 0.02 0.02 0.01 0.01 0.03 0.07 0.06 0.03 0.06 0.07 0.08 0.11 0.08 0.05 0.02 0.05 0.03 0.01 0.00 0.04 0.08 0.16 0.07 0.03 0.01 0.05 0.09 0.30 0.23 0.02 0.00 0.02 0.01 0.00 0.01 0.01 0.01 0.03 0.07 0.04 0.01
0.00 0.00 0.00 0.00 0.00 0.01 0.02 0.02 0.02 0.01 0.04 0.06 0.05 0.03 0.04 0.04 0.06 0.04 0.02 0.00 0.00 0.00 0.00 0.00 0.01 0.01 0.03 0.04 0.00 0.03 0.03 0.06 0.13 0.29 0.23 0.03 0.00 0.01 0.01 0.01 0.03 0.01 0.03 0.06 0.09 0.06 0.01
0.00 0.00 0.00 0.00 0.00 0.01 0.01 0.02 0.02 0.01 0.03 0.04 0.04 0.02 0.02 0.01 0.04 0.02 0.00 0.00 0.00 0.00 0.00 0.01 0.02 0.00 0.01 0.00 0.02 0.15 0.12 0.13 0.27 0.31 0.22 0.03 0.00 0.02 0.01 0.02 0.05 0.04 0.06 0.07 0.06 0.05 0.02
0.00 0.00 0.00 0.00 0.00 0.00 0.01 0.02 0.01 0.02 0.03 0.03 0.04 0.02 0.02 0.00 0.01 0.00 0.00 0.00 0.00 0.00 0.00 0.02 0.09 0.01 0.00 0.00 0.01 0.16 0.11 0.16 0.32 0.42 0.36 0.16 0.03 0.05 0.03 0.02 0.04 0.03 0.05 0.03 0.02 0.06 0.06
0.00 0.00 0.00 0.00 0.00 0.00 0.01 0.01 0.01 0.02 0.03 0.03 0.03 0.02 0.02 0.00 0.00 0.00 0.00 0.00 0.00 0.00 0.00 0.02 0.00 0.01 0.00 0.01 0.07 0.37 0.12 0.17 0.52 0.49 0.57 0.29 0.10 0.06 0.01 0.01 0.01 0.01 0.00 0.00 0.00 0.01 0.04
0.00 0.00 0.00 0.00 0.00 0.00 0.00 0.01 0.01 0.02 0.02 0.02 0.03 0.02 0.01 0.00 0.00 0.00 0.00 0.00 0.00 0.00 0.00 0.00 0.03 0.02 0.01 0.05 0.10 0.23 0.06 0.14 0.61 0.81 1.01 0.54 0.17 0.05 0.01 0.00 0.01 0.00 0.00 0.00 0.00 0.00 0.00
0.00 0.00 0.00 0.00 0.00 0.00 0.00 0.00 0.01 0.01 0.02 0.02 0.02 0.02 0.01 0.00 0.00 0.00 0.00 0.00 0.01 0.03 0.01 0.01 0.02 0.01 0.01 0.01 0.07 0.09 0.11 0.24 0.62 1.44 1.17 0.36 0.03 0.01 0.00 0.00 0.00 0.00 0.00 0.00 0.00 0.00 0.00
0.00 0.00 0.00 0.00 0.00 0.00 0.00 0.00 0.00 0.00 0.01 0.02 0.02 0.02 0.01 0.00 0.00 0.00 0.00 0.00 0.00 0.00 0.00 0.00 0.00 0.00 0.00 0.00 0.06 0.17 0.30 0.48 0.91 1.51 0.53 0.12 0.01 0.00 0.00 0.00 0.00 0.00 0.00 0.00 0.00 0.00 0.00
0.00 0.00 0.00 0.00 0.00 0.00 0.01 0.00 0.00 0.01 0.00 0.01 0.02 0.01 0.01 0.00 0.00 0.00 0.00 0.00 0.00 0.00 0.00 0.00 0.01 0.02 0.10 0.09 0.16 0.50 0.51 0.56 0.75 0.90 0.22 0.02 0.01 0.00 0.01 0.00 0.00 0.00 0.00 0.00 0.00 0.00 0.00
0.00 0.00 0.00 0.00 0.00 0.01 0.00 0.00 0.00 0.01 0.00 0.01 0.02 0.01 0.01 0.00 0.00 0.00 0.00 0.00 0.00 0.00 0.00 0.02 0.03 0.07 0.19 0.31 0.36 0.57 0.46 0.50 0.69 0.58 0.18 0.03 0.00 0.00 0.03 0.01 0.00 0.00 0.00 0.00 0.00 0.00 0.00
0.00 0.00 0.00 0.00 0.00 0.00 0.00 0.00 0.00 0.00 0.00 0.00 0.01 0.01 0.01 0.00 0.00 0.00 0.00 0.00 0.00 0.00 0.04 0.03 0.02 0.08 0.37 0.51 0.29 0.47 0.40 0.42 0.37 0.59 0.23 0.05 0.01 0.00 0.01 0.01 0.00 0.00 0.00 0.00 0.00 0.00 0.00
0.00 0.00 0.00 0.00 0.00 0.00 0.00 0.00 0.00 0.00 0.00 0.00 0.00 0.01 0.01 0.00 0.00 0.00 0.00 0.00 0.00 0.00 0.03 0.02 0.17 0.34 0.53 0.23 0.09 0.33 0.43 0.41 0.24 0.17 0.02 0.00 0.00 0.01 0.01 0.02 0.02 0.00 0.00 0.00 0.00 0.00 0.00
0.00 0.00 0.00 0.00 0.00 0.00 0.00 0.00 0.00 0.00 0.00 0.00 0.00 0.00 0.00 0.00 0.00 0.00 0.00 0.00 0.00 0.00 0.01 0.03 0.15 0.17 0.09 0.06 0.06 0.30 0.32 0.30 0.28 0.25 0.07 0.02 0.00 0.00 0.08 0.11 0.02 0.01 0.00 0.02 0.02 0.00 0.00
0.00 0.00 0.00 0.00 0.00 0.00 0.00 0.00 0.00 0.00 0.00 0.00 0.00 0.00 0.00 0.00 0.00 0.00 0.00 0.00 0.00 0.01 0.00 0.00 0.01 0.01 0.01 0.01 0.03 0.14 0.23 0.16 0.05 0.01 0.02 0.08 0.05 0.01 0.03 0.15 0.10 0.03 0.00 0.01 0.01 0.00 0.00
0.00 0.00 0.00 0.00 0.00 0.00 0.00 0.00 0.00 0.00 0.00 0.00 0.00 0.00 0.00 0.00 0.00 0.00 0.00 0.00 0.00 0.00 0.00 0.00 0.00 0.01 0.01 0.00 0.00 0.20 0.29 0.07 0.02 0.01 0.01 0.07 0.04 0.04 0.01 0.03 0.13 0.07 0.01 0.00 0.00 0.00 0.00
0.00 0.00 0.00 0.00 0.00 0.00 0.00 0.00 0.00 0.00 0.00 0.00 0.00 0.00 0.00 0.00 0.00 0.00 0.00 0.00 0.00 0.00 0.00 0.00 0.00 0.00 0.01 0.00 0.00 0.01 0.09 0.02 0.00 0.00 0.00 0.00 0.01 0.04 0.04 0.05 0.07 0.10 0.01 0.02 0.00 0.00 0.00
0.00 0.00 0.00 0.00 0.00 0.00 0.00 0.00 0.00 0.00 0.00 0.00 0.00 0.00 0.00 0.00 0.00 0.00 0.00 0.00 0.00 0.00 0.00 0.00 0.00 0.00 0.00 0.00 0.00 0.00 0.00 0.00 0.00 0.00 0.00 0.00 0.00 0.04 0.07 0.10 0.06 0.04 0.10 0.01 0.01 0.00 0.00
0.00 0.00 0.00 0.00 0.00 0.00 0.00 0.00 0.00 0.00 0.00 0.00 0.00 0.00 0.00 0.00 0.00 0.00 0.00 0.00 0.00 0.00 0.00 0.00 0.00 0.00 0.00 0.00 0.00 0.00 0.00 0.00 0.00 0.00 0.00 0.00 0.00 0.02 0.02 0.01 0.00 0.03 0.02 0.01 0.02 0.01 0.00
0.00 0.00 0.00 0.00 0.00 0.00 0.00 0.00 0.00 0.00 0.00 0.00 0.00 0.00 0.00 0.00 0.00 0.00 0.00 0.00 0.00 0.00 0.00 0.00 0.00 0.00 0.00 0.00 0.00 0.00 0.00 0.00 0.00 0.00 0.00 0.00 0.00 0.03 0.04 0.02 0.01 0.04 0.03 0.02 0.01 0.02 0.01
0.00 0.00 0.00 0.00 0.00 0.00 0.00 0.00 0.00 0.00 0.00 0.00 0.00 0.00 0.00 0.00 0.00 0.00 0.00 0.00 0.00 0.00 0.00 0.00 0.00 0.00 0.00 0.00 0.00 0.00 0.00 0.00 0.00 0.00 0.00 0.00 0.00 0.00 0.00 0.00 0.00 0.00 0.00 0.01 0.05 0.06 0.01
0.00 0.00 0.00 0.00 0.00 0.00 0.00 0.00 0.00 0.00 0.00 0.00 0.00 0.00 0.00 0.00 0.00 0.00 0.00 0.00 0.00 0.00 0.00 0.00 0.00 0.00 0.00 0.00 0.00 0.00 0.00 0.00 0.00 0.00 0.00 0.00 0.00 0.00 0.00 0.00 0.00 0.00 0.00 0.00 0.02 0.01 0.01
0.00 0.00 0.00 0.00 0.00 0.00 0.00 0.00 0.00 0.00 0.00 0.00 0.00 0.00 0.00 0.00 0.00 0.00 0.00 0.00 0.00 0.00 0.00 0.00 0.00 0.00 0.00 0.00 0.00 0.00 0.00 0.00 0.00 0.00 0.00 0.00 0.00 0.00 0.00 0.00 0.00 0.00 0.00 0.00 0.00 0.00 0.00
0.00 0.00 0.00 0.00 0.00 0.00 0.00 0.00 0.00 0.00 0.00 0.00 0.00 0.00 0.00 0.00 0.00 0.00 0.00 0.00 0.00 0.00 0.00 0.00 0.00 0.00 0.00 0.00 0.00 0.00 0.00 0.00 0.00 0.00 0.00 0.00 0.00 0.00 0.00 0.00 0.00 0.00 0.00 0.00 0.00 0.00 0.00
0.00 0.00 0.00 0.00 0.00 0.00 0.00 0.00 0.00 0.00 0.00 0.00 0.00 0.00 0.00 0.00 0.00 0.00 0.00 0.00 0.00 0.00 0.00 0.00 0.00 0.00 0.00 0.00 0.00 0.00 0.00 0.00 0.00 0.00 0.00 0.00 0.00 0.00 0.00 0.00 0.00 0.00 0.00 0.00 0.00 0.00 0.00
0.00 0.00 0.00 0.00 0.00 0.00 0.00 0.00 0.00 0.00 0.00 0.00 0.00 0.00 0.00 0.00 0.00 0.00 0.00 0.00 0.00 0.00 0.00 0.00 0.00 0.00 0.00 0.00 0.00 0.00 0.00 0.00 0.00 0.00 0.00 0.00 0.00 0.00 0.00 0.00 0.00 0.00 0.00 0.00 0.00 0.00 0.00
0.00 0.00 0.00 0.00 0.00 0.00 0.00 0.00 0.00 0.00 0.00 0.00 0.00 0.00 0.00 0.00 0.00 0.00 0.00 0.00 0.00 0.00 0.00 0.00 0.00 0.00 0.00 0.00 0.01 0.00 0.00 0.00 0.00 0.00 0.00 0.00 0.00 0.00 0.00 0.00 0.00 0.00 0.00 0.00 0.00 0.00 0.00
0.00 0.00 0.00 0.00 0.00 0.00 0.00 0.00 0.01 0.00 0.00 0.00 0.00 0.00 0.00 0.00 0.00 0.00 0.00 0.00 0.00 0.00 0.00 0.00 0.01 0.00 0.00 0.00 0.00 0.00 0.00 0.00 0.00 0.00 0.00 0.00 0.01 0.01 0.01 0.01 0.00 0.00 0.00 0.00 0.00 0.00 0.00
0.00 0.00 0.00 0.00 0.00 0.00 0.00 0.00 0.01 0.00 0.00 0.00 0.00 0.00 0.00 0.00 0.00 0.00 0.00 0.00 0.00 0.00 0.00 0.01 0.05 0.02 0.01 0.00 0.00 0.00 0.00 0.00 0.00 0.00 0.00 0.00 0.00 0.01 0.01 0.01 0.00 0.00 0.00 0.00 0.00 0.00 0.00
0.00 0.00 0.00 0.00 0.00 0.00 0.00 0.00 0.01 0.00 0.00 0.00 0.00 0.00 0.00 0.00 0.00 0.00 0.00 0.00 0.00 0.00 0.00 0.00 0.07 0.05 0.01 0.01 0.01 0.00 0.00 0.00 0.00 0.00 0.00 0.00 0.00 0.00 0.00 0.00 0.00 0.00 0.00 0.00 0.00 0.00 0.00

GFSGBSN_prec_precacc12_063.txt.gz
Total_Precipitation_Accumulation
0.00 0.00 0.00 0.00 0.00 0.01 0.01 0.02 0.01 0.01 0.03 0.05 0.05 0.02 0.02 0.02 0.02 0.02 0.02 0.03 0.01 0.03 0.02 0.00 0.00 0.01 0.03 0.06 0.05 0.03 0.01 0.06 0.05 0.27 0.24 0.06 0.01 0.01 0.01 0.01 0.01 0.01 0.02 0.03 0.06 0.04 0.01
0.00 0.00 0.00 0.00 0.00 0.01 0.01 0.02 0.02 0.01 0.03 0.04 0.04 0.02 0.02 0.01 0.01 0.00 0.00 0.00 0.00 0.00 0.00 0.00 0.01 0.01 0.01 0.00 0.00 0.02 0.01 0.00 0.02 0.20 0.24 0.07 0.00 0.01 0.01 0.01 0.03 0.01 0.04 0.09 0.10 0.07 0.02
0.00 0.00 0.00 0.00 0.00 0.00 0.01 0.02 0.01 0.01 0.02 0.03 0.03 0.02 0.02 0.01 0.00 0.00 0.00 0.00 0.00 0.00 0.00 0.01 0.03 0.00 0.00 0.00 0.00 0.07 0.06 0.05 0.07 0.17 0.22 0.05 0.00 0.02 0.01 0.02 0.06 0.04 0.06 0.08 0.06 0.07 0.04
0.00 0.00 0.00 0.00 0.00 0.00 0.00 0.01 0.01 0.01 0.02 0.02 0.03 0.02 0.02 0.01 0.00 0.00 0.00 0.00 0.00 0.00 0.00 0.01 0.10 0.00 0.00 0.00 0.01 0.16 0.09 0.09 0.10 0.24 0.33 0.20 0.03 0.05 0.02 0.02 0.05 0.04 0.06 0.03 0.02 0.06 0.06
0.00 0.00 0.00 0.00 0.00 0.00 0.00 0.01 0.01 0.01 0.02 0.02 0.02 0.02 0.02 0.01 0.01 0.00 0.00 0.00 0.00 0.00 0.00 0.00 0.00 0.00 0.00 0.01 0.07 0.42 0.16 0.13 0.32 0.31 0.46 0.36 0.11 0.06 0.01 0.02 0.01 0.00 0.00 0.00 0.00 0.01 0.05
0.00 0.00 0.00 0.00 0.00 0.00 0.00 0.01 0.01 0.01 0.01 0.02 0.02 0.02 0.01 0.01 0.01 0.00 0.00 0.00 0.00 0.00 0.00 0.00 0.00 0.00 0.00 0.05 0.13 0.52 0.11 0.13 0.47 0.53 0.89 0.79 0.17 0.04 0.01 0.00 0.00 0.00 0.00 0.00 0.00 0.00 0.00
0.00 0.00 0.00 0.00 0.00 0.00 0.01 0.01 0.01 0.00 0.02 0.02 0.02 0.02 0.01 0.01 0.00 0.00 0.00 0.00 0.00 0.00 0.00 0.00 0.00 0.00 0.00 0.01 0.17 0.23 0.11 0.29 0.58 0.95 1.18 0.64 0.07 0.01 0.00 0.00 0.00 0.00 0.00 0.00 0.00 0.00 0.00
0.00 0.00 0.00 0.00 0.00 0.00 0.01 0.01 0.00 0.01 0.01 0.02 0.02 0.02 0.01 0.01 0.00 0.00 0.00 0.00 0.00 0.00 0.00 0.00 0.00 0.00 0.00 0.01 0.04 0.03 0.23 0.48 0.80 1.27 0.67 0.28 0.03 0.00 0.00 0.00 0.00 0.00 0.00 0.00 0.00 0.00 0.00
0.00 0.00 0.00 0.00 0.00 0.00 0.01 0.00 0.00 0.01 0.01 0.02 0.02 0.01 0.01 0.01 0.00 0.00 0.00 0.00 0.00 0.00 0.00 0.00 0.01 0.01 0.05 0.04 0.03 0.10 0.45 0.56 0.75 0.96 0.37 0.06 0.01 0.00 0.02 0.00 0.00 0.00 0.00 0.00 0.00 0.00 0.00
0.00 0.00 0.00 0.00 0.00 0.01 0.00 0.00 0.00 0.01 0.01 0.01 0.01 0.01 0.01 0.01 0.00 0.00 0.00 0.00 0.00 0.00 0.00 0.01 0.01 0.02 0.05 0.09 0.19 0.38 0.46 0.44 0.79 0.89 0.35 0.07 0.00 0.00 0.03 0.01 0.00 0.00 0.00 0.00 0.00 0.00 0.00
0.00 0.00 0.00 0.00 0.00 0.00 0.00 0.00 0.00 0.00 0.00 0.01 0.00 0.01 0.02 0.01 0.00 0.00 0.00 0.00 0.00 0.00 0.01 0.01 0.02 0.04 0.04 0.08 0.14 0.46 0.39 0.32 0.52 0.84 0.29 0.07 0.00 0.00 0.02 0.01 0.00 0.00 0.00 0.00 0.00 0.00 0.00
0.00 0.00 0.00 0.00 0.00 0.00 0.00 0.00 0.00 0.00 0.00 0.00 0.00 0.01 0.01 0.00 0.00 0.00 0.00 0.00 0.00 0.00 0.00 0.01 0.12 0.31 0.26 0.10 0.07 0.33 0.45 0.40 0.28 0.28 0.02 0.00 0.00 0.01 0.01 0.00 0.00 0.00 0.00 0.00 0.00 0.00 0.00
0.00 0.00 0.00 0.00 0.00 0.00 0.00 0.00 0.00 0.00 0.00 0.00 0.00 0.00 0.00 0.00 0.00 0.00 0.00 0.00 0.00 0.00 0.00 0.01 0.10 0.15 0.07 0.05 0.06 0.31 0.34 0.31 0.28 0.39 0.15 0.06 0.00 0.00 0.00 0.00 0.00 0.00 0.00 0.01 0.01 0.00 0.00
0.00 0.00 0.00 0.00 0.00 0.00 0.00 0.00 0.00 0.00 0.00 0.00 0.00 0.00 0.00 0.00 0.00 0.00 0.00 0.00 0.00 0.00 0.00 0.00 0.01 0.01 0.01 0.00 0.03 0.10 0.21 0.13 0.03 0.03 0.03 0.04 0.05 0.00 0.00 0.00 0.01 0.00 0.00 0.00 0.01 0.00 0.00
0.00 0.00 0.00 0.00 0.00 0.00 0.00 0.00 0.00 0.00 0.00 0.00 0.00 0.00 0.00 0.00 0.00 0.00 0.00 0.00 0.00 0.00 0.00 0.00 0.01 0.01 0.01 0.00 0.00 0.04 0.11 0.05 0.01 0.00 0.00 0.00 0.01 0.01 0.00 0.00 0.06 0.04 0.01 0.00 0.00 0.00 0.00
0.00 0.00 0.00 0.00 0.00 0.00 0.00 0.00 0.00 0.00 0.00 0.00 0.00 0.00 0.00 0.00 0.00 0.00 0.00 0.00 0.00 0.00 0.00 0.00 0.00 0.00 0.00 0.00 0.00 0.02 0.07 0.02 0.00 0.00 0.00 0.00 0.00 0.02 0.01 0.00 0.04 0.09 0.01 0.01 0.00 0.00 0.00
0.00 0.00 0.00 0.00 0.00 0.00 0.00 0.00 0.00 0.00 0.00 0.00 0.00 0.00 0.00 0.00 0.00 0.00 0.00 0.00 0.00 0.00 0.00 0.00 0.00 0.00 0.00 0.00 0.00 0.00 0.00 0.02 0.00 0.00 0.00 0.00 0.00 0.03 0.05 0.02 0.00 0.04 0.09 0.01 0.00 0.00 0.00
0.00 0.00 0.00 0.00 0.00 0.00 0.00 0.00 0.00 0.00 0.00 0.00 0.00 0.00 0.00 0.00 0.00 0.01 0.00 0.00 0.00 0.00 0.00 0.00 0.00 0.00 0.00 0.00 0.00 0.00 0.00 0.01 0.00 0.00 0.00 0.00 0.00 0.02 0.01 0.00 0.00 0.00 0.00 0.01 0.02 0.01 0.00
0.00 0.00 0.00 0.00 0.00 0.00 0.00 0.00 0.00 0.00 0.00 0.00 0.00 0.00 0.00 0.00 0.00 0.00 0.00 0.00 0.00 0.00 0.00 0.00 0.00 0.00 0.00 0.00 0.00 0.00 0.00 0.00 0.00 0.00 0.00 0.00 0.00 0.03 0.04 0.03 0.01 0.03 0.01 0.00 0.00 0.02 0.01
0.00 0.00 0.00 0.00 0.00 0.00 0.00 0.00 0.00 0.00 0.00 0.00 0.00 0.00 0.00 0.00 0.00 0.00 0.00 0.00 0.00 0.00 0.00 0.00 0.00 0.00 0.00 0.00 0.00 0.00 0.00 0.00 0.00 0.00 0.00 0.00 0.00 0.00 0.00 0.00 0.00 0.00 0.00 0.00 0.01 0.06 0.01
0.00 0.00 0.00 0.00 0.00 0.00 0.00 0.00 0.00 0.00 0.00 0.00 0.00 0.00 0.00 0.00 0.00 0.00 0.00 0.00 0.00 0.00 0.00 0.00 0.00 0.00 0.00 0.00 0.00 0.00 0.00 0.00 0.00 0.00 0.00 0.00 0.00 0.00 0.00 0.00 0.00 0.00 0.00 0.00 0.01 0.01 0.01
0.00 0.00 0.00 0.00 0.00 0.00 0.00 0.00 0.00 0.00 0.00 0.00 0.00 0.00 0.00 0.00 0.00 0.00 0.00 0.00 0.00 0.00 0.00 0.00 0.00 0.00 0.00 0.00 0.00 0.00 0.00 0.00 0.00 0.00 0.00 0.00 0.00 0.00 0.00 0.00 0.00 0.00 0.00 0.00 0.00 0.00 0.00
0.01 0.00 0.00 0.00 0.00 0.00 0.00 0.00 0.00 0.00 0.00 0.00 0.00 0.00 0.00 0.00 0.00 0.00 0.00 0.00 0.00 0.00 0.00 0.00 0.00 0.00 0.00 0.00 0.00 0.00 0.00 0.00 0.00 0.00 0.00 0.00 0.00 0.00 0.00 0.00 0.00 0.00 0.00 0.00 0.00 0.00 0.00
0.00 0.00 0.00 0.00 0.00 0.00 0.00 0.00 0.00 0.00 0.00 0.00 0.00 0.00 0.00 0.00 0.00 0.00 0.00 0.00 0.00 0.00 0.00 0.00 0.00 0.00 0.00 0.00 0.00 0.00 0.00 0.00 0.00 0.00 0.00 0.00 0.00 0.00 0.00 0.00 0.00 0.00 0.00 0.00 0.00 0.00 0.00
0.00 0.00 0.00 0.00 0.00 0.00 0.00 0.00 0.00 0.00 0.00 0.00 0.00 0.00 0.00 0.00 0.00 0.00 0.00 0.00 0.00 0.00 0.00 0.00 0.01 0.00 0.00 0.00 0.00 0.00 0.00 0.00 0.00 0.00 0.00 0.00 0.00 0.00 0.00 0.00 0.00 0.00 0.00 0.00 0.00 0.00 0.00
0.00 0.00 0.00 0.00 0.00 0.00 0.00 0.00 0.00 0.00 0.00 0.00 0.00 0.00 0.00 0.00 0.00 0.00 0.00 0.00 0.00 0.00 0.00 0.00 0.02 0.02 0.00 0.00 0.00 0.00 0.00 0.00 0.00 0.00 0.00 0.00 0.00 0.00 0.00 0.00 0.00 0.00 0.00 0.00 0.00 0.00 0.00
0.00 0.00 0.00 0.00 0.00 0.00 0.00 0.00 0.00 0.00 0.00 0.00 0.00 0.00 0.00 0.00 0.00 0.00 0.00 0.00 0.00 0.00 0.00 0.00 0.01 0.03 0.00 0.00 0.00 0.00 0.00 0.00 0.00 0.00 0.00 0.01 0.01 0.01 0.01 0.01 0.00 0.00 0.00 0.00 0.00 0.00 0.00
0.00 0.00 0.00 0.00 0.00 0.00 0.00 0.00 0.00 0.00 0.00 0.00 0.00 0.00 0.00 0.00 0.00 0.00 0.00 0.00 0.00 0.00 0.00 0.01 0.05 0.04 0.04 0.00 0.00 0.00 0.00 0.00 0.00 0.00 0.00 0.00 0.01 0.01 0.01 0.01 0.00 0.00 0.00 0.00 0.00 0.00 0.00
0.00 0.00 0.00 0.00 0.00 0.00 0.00 0.00 0.00 0.00 0.00 0.00 0.00 0.00 0.00 0.00 0.00 0.00 0.00 0.00 0.00 0.00 0.00 0.00 0.08 0.07 0.03 0.04 0.02 0.00 0.00 0.00 0.00 0.00 0.00 0.00 0.00 0.00 0.00 0.00 0.00 0.00 0.00 0.00 0.00 0.00 0.00

GFSGBSN_prec_precacc12_066.txt.gz
Total_Precipitation_Accumulation
0.00 0.00 0.00 0.00 0.00 0.00 0.01 0.01 0.01 0.01 0.02 0.04 0.04 0.02 0.02 0.01 0.01 0.00 0.00 0.00 0.00 0.00 0.00 0.00 0.00 0.00 0.00 0.01 0.01 0.02 0.02 0.14 0.15 0.24 0.19 0.11 0.02 0.01 0.02 0.01 0.05 0.17 0.07 0.04 0.03 0.03 0.01
0.00 0.00 0.00 0.00 0.00 0.00 0.01 0.01 0.01 0.01 0.02 0.03 0.03 0.02 0.02 0.01 0.00 0.00 0.00 0.00 0.00 0.00 0.00 0.00 0.01 0.00 0.00 0.00 0.00 0.01 0.01 0.02 0.07 0.24 0.24 0.13 0.03 0.01 0.02 0.02 0.06 0.04 0.11 0.14 0.10 0.07 0.02
0.00 0.00 0.00 0.00 0.00 0.00 0.00 0.01 0.01 0.01 0.02 0.03 0.03 0.02 0.02 0.01 0.00 0.00 0.00 0.00 0.00 0.00 0.00 0.01 0.03 0.00 0.00 0.00 0.00 0.05 0.02 0.01 0.01 0.15 0.31 0.14 0.03 0.02 0.02 0.05 0.06 0.05 0.09 0.21 0.12 0.09 0.05
0.00 0.00 0.00 0.00 0.00 0.00 0.00 0.00 0.01 0.01 0.02 0.02 0.03 0.02 0.02 0.01 0.01 0.00 0.00 0.00 0.00 0.00 0.00 0.01 0.10 0.00 0.00 0.00 0.00 0.15 0.07 0.04 0.03 0.15 0.35 0.28 0.06 0.06 0.03 0.03 0.06 0.07 0.08 0.07 0.07 0.08 0.07
0.00 0.00 0.00 0.00 0.00 0.00 0.00 0.00 0.01 0.01 0.02 0.02 0.02 0.02 0.02 0.01 0.01 0.00 0.00 0.00 0.00 0.00 0.00 0.00 0.00 0.00 0.00 0.02 0.06 0.42 0.15 0.10 0.13 0.22 0.40 0.57 0.13 0.08 0.02 0.04 0.01 0.02 0.00 0.00 0.01 0.01 0.05
0.01 0.00 0.00 0.00 0.00 0.00 0.00 0.01 0.01 0.01 0.02 0.03 0.02 0.02 0.02 0.01 0.01 0.00 0.00 0.00 0.00 0.00 0.00 0.00 0.00 0.00 0.00 0.11 0.19 0.53 0.10 0.06 0.17 0.35 0.73 1.09 0.23 0.05 0.01 0.01 0.00 0.00 0.00 0.00 0.00 0.00 0.00
0.00 0.01 0.00 0.00 0.00 0.00 0.01 0.01 0.01 0.01 0.02 0.03 0.02 0.02 0.01 0.01 0.01 0.00 0.00 0.00 0.00 0.00 0.00 0.00 0.00 0.00 0.00 0.20 0.65 0.42 0.07 0.15 0.33 0.56 0.98 1.00 0.15 0.02 0.00 0.00 0.00 0.00 0.00 0.00 0.00 0.00 0.00
0.03 0.02 0.00 0.00 0.00 0.00 0.01 0.01 0.00 0.01 0.02 0.02 0.03 0.02 0.01 0.01 0.01 0.00 0.00 0.00 0.00 0.00 0.00 0.00 0.00 0.00 0.00 0.04 0.28 0.16 0.18 0.30 0.46 0.70 0.65 0.46 0.07 0.00 0.01 0.00 0.00 0.00 0.00 0.00 0.00 0.00 0.00
0.02 0.00 0.00 0.00 0.00 0.00 0.00 0.00 0.00 0.01 0.01 0.03 0.02 0.01 0.01 0.01 0.01 0.00 0.00 0.00 0.00 0.00 0.00 0.00 0.00 0.00 0.01 0.04 0.04 0.09 0.29 0.44 0.48 0.67 0.39 0.15 0.04 0.01 0.03 0.00 0.00 0.00 0.00 0.00 0.00 0.00 0.00
0.02 0.01 0.00 0.00 0.00 0.00 0.00 0.00 0.00 0.01 0.01 0.02 0.02 0.01 0.01 0.01 0.00 0.00 0.00 0.00 0.00 0.00 0.00 0.00 0.00 0.01 0.02 0.02 0.10 0.15 0.28 0.34 0.50 0.69 0.41 0.11 0.00 0.01 0.05 0.02 0.00 0.00 0.00 0.00 0.00 0.00 0.00
0.02 0.00 0.00 0.00 0.00 0.00 0.00 0.00 0.00 0.01 0.01 0.01 0.00 0.01 0.02 0.01 0.00 0.00 0.00 0.00 0.00 0.00 0.01 0.01 0.00 0.00 0.01 0.04 0.08 0.38 0.38 0.31 0.43 0.77 0.37 0.10 0.00 0.01 0.04 0.01 0.00 0.00 0.00 0.00 0.00 0.00 0.00
0.02 0.00 0.00 0.00 0.00 0.00 0.00 0.00 0.00 0.00 0.00 0.00 0.00 0.01 0.01 0.00 0.00 0.00 0.00 0.00 0.00 0.00 0.00 0.01 0.07 0.02 0.01 0.03 0.04 0.32 0.41 0.37 0.33 0.42 0.10 0.02 0.00 0.02 0.02 0.00 0.00 0.00 0.00 0.00 0.00 0.00 0.00
0.01 0.00 0.00 0.00 0.00 0.00 0.00 0.00 0.00 0.00 0.00 0.00 0.00 0.00 0.00 0.00 0.00 0.00 0.00 0.00 0.00 0.00 0.00 0.01 0.07 0.06 0.02 0.03 0.05 0.32 0.31 0.33 0.32 0.61 0.26 0.12 0.02 0.00 0.01 0.01 0.00 0.00 0.00 0.01 0.01 0.00 0.00
0.01 0.00 0.00 0.00 0.00 0.00 0.00 0.00 0.00 0.00 0.00 0.00 0.00 0.00 0.00 0.00 0.00 0.00 0.00 0.00 0.00 0.00 0.00 0.00 0.01 0.01 0.01 0.01 0.04 0.10 0.21 0.14 0.03 0.05 0.05 0.08 0.08 0.02 0.01 0.00 0.01 0.00 0.00 0.00 0.00 0.00 0.00
0.01 0.00 0.00 0.00 0.00 0.00 0.00 0.00 0.00 0.00 0.00 0.00 0.00 0.00 0.00 0.00 0.00 0.00 0.00 0.00 0.00 0.00 0.00 0.00 0.00 0.01 0.01 0.01 0.00 0.03 0.11 0.04 0.00 0.00 0.00 0.00 0.01 0.00 0.00 0.00 0.00 0.01 0.00 0.00 0.00 0.00 0.00
0.01 0.00 0.00 0.00 0.00 0.00 0.00 0.00 0.00 0.00 0.00 0.00 0.00 0.00 0.00 0.00 0.00 0.00 0.00 0.00 0.00 0.00 0.00 0.00 0.00 0.00 0.00 0.00 0.00 0.01 0.04 0.02 0.00 0.00 0.00 0.00 0.01 0.01 0.00 0.00 0.00 0.00 0.00 0.01 0.00 0.00 0.00
0.06 0.03 0.01 0.00 0.00 0.00 0.00 0.00 0.00 0.00 0.00 0.00 0.00 0.00 0.00 0.00 0.00 0.01 0.00 0.00 0.00 0.00 0.00 0.00 0.00 0.00 0.00 0.00 0.00 0.00 0.01 0.02 0.00 0.00 0.00 0.00 0.00 0.02 0.02 0.01 0.01 0.00 0.03 0.00 0.00 0.00 0.00
0.09 0.06 0.03 0.00 0.00 0.00 0.00 0.00 0.00 0.00 0.00 0.00 0.00 0.00 0.00 0.00 0.00 0.01 0.00 0.00 0.00 0.00 0.00 0.00 0.00 0.00 0.00 0.00 0.00 0.00 0.00 0.01 0.00 0.00 0.00 0.00 0.00 0.02 0.02 0.00 0.00 0.00 0.00 0.00 0.01 0.00 0.00
0.12 0.04 0.03 0.00 0.00 0.00 0.00 0.00 0.00 0.00 0.00 0.00 0.00 0.00 0.00 0.00 0.00 0.00 0.00 0.00 0.00 0.00 0.00 0.00 0.00 0.00 0.00 0.00 0.00 0.00 0.00 0.00 0.00 0.00 0.00 0.00 0.00 0.02 0.04 0.03 0.01 0.02 0.00 0.00 0.00 0.02 0.01
0.18 0.08 0.02 0.00 0.00 0.00 0.00 0.00 0.00 0.00 0.00 0.00 0.00 0.00 0.01 0.01 0.00 0.00 0.00 0.00 0.00 0.00 0.00 0.00 0.00 0.00 0.00 0.00 0.00 0.00 0.00 0.00 0.00 0.00 0.00 0.00 0.00 0.00 0.00 0.00 0.00 0.00 0.00 0.00 0.01 0.05 0.02
0.16 0.09 0.02 0.00 0.00 0.00 0.00 0.00 0.00 0.00 0.00 0.00 0.00 0.00 0.00 0.00 0.00 0.00 0.00 0.00 0.00 0.00 0.00 0.00 0.00 0.00 0.00 0.00 0.00 0.00 0.00 0.00 0.00 0.00 0.00 0.00 0.00 0.00 0.00 0.00 0.00 0.00 0.00 0.00 0.01 0.01 0.00
0.23 0.13 0.03 0.00 0.00 0.00 0.00 0.00 0.00 0.00 0.00 0.00 0.00 0.00 0.00 0.00 0.00 0.00 0.00 0.00 0.00 0.00 0.00 0.00 0.00 0.00 0.00 0.00 0.00 0.00 0.00 0.00 0.00 0.00 0.00 0.00 0.00 0.00 0.00 0.00 0.00 0.00 0.00 0.00 0.00 0.00 0.00
0.22 0.13 0.03 0.00 0.00 0.00 0.00 0.00 0.00 0.00 0.00 0.00 0.00 0.00 0.00 0.00 0.00 0.00 0.00 0.00 0.00 0.00 0.00 0.00 0.00 0.00 0.00 0.00 0.00 0.00 0.00 0.00 0.00 0.00 0.00 0.00 0.00 0.00 0.00 0.00 0.00 0.00 0.00 0.00 0.00 0.00 0.00
0.14 0.08 0.02 0.00 0.00 0.00 0.00 0.00 0.00 0.00 0.00 0.00 0.00 0.00 0.00 0.00 0.00 0.00 0.00 0.00 0.00 0.00 0.00 0.00 0.00 0.00 0.00 0.00 0.00 0.00 0.00 0.00 0.00 0.00 0.00 0.00 0.00 0.00 0.00 0.00 0.00 0.00 0.00 0.00 0.00 0.00 0.00
0.13 0.04 0.01 0.00 0.00 0.00 0.00 0.00 0.00 0.00 0.00 0.00 0.00 0.00 0.00 0.00 0.00 0.00 0.00 0.00 0.00 0.00 0.00 0.01 0.03 0.00 0.00 0.00 0.00 0.00 0.00 0.00 0.00 0.00 0.00 0.00 0.00 0.00 0.00 0.00 0.00 0.00 0.00 0.00 0.00 0.00 0.00
0.14 0.04 0.00 0.00 0.00 0.00 0.00 0.00 0.00 0.00 0.00 0.00 0.00 0.00 0.00 0.00 0.00 0.00 0.00 0.00 0.00 0.00 0.00 0.00 0.02 0.02 0.00 0.00 0.00 0.00 0.00 0.00 0.00 0.00 0.00 0.00 0.00 0.00 0.00 0.00 0.00 0.00 0.00 0.00 0.00 0.00 0.00
0.12 0.06 0.01 0.00 0.00 0.00 0.00 0.00 0.00 0.00 0.00 0.00 0.00 0.00 0.00 0.00 0.00 0.00 0.00 0.00 0.00 0.00 0.00 0.00 0.01 0.04 0.02 0.00 0.01 0.00 0.00 0.00 0.00 0.00 0.00 0.01 0.01 0.01 0.01 0.00 0.00 0.00 0.00 0.00 0.00 0.00 0.00
0.11 0.06 0.02 0.00 0.00 0.00 0.00 0.00 0.00 0.00 0.00 0.00 0.00 0.00 0.00 0.00 0.00 0.00 0.00 0.00 0.00 0.00 0.00 0.00 0.04 0.04 0.13 0.02 0.01 0.00 0.00 0.00 0.00 0.00 0.00 0.00 0.01 0.01 0.01 0.02 0.00 0.00 0.00 0.00 0.00 0.00 0.00
0.09 0.05 0.01 0.00 0.00 0.00 0.00 0.00 0.00 0.00 0.00 0.00 0.00 0.00 0.00 0.00 0.00 0.00 0.00 0.00 0.00 0.00 0.00 0.00 0.07 0.08 0.05 0.12 0.04 0.00 0.00 0.00 0.00 0.00 0.00 0.00 0.00 0.00 0.00 0.00 0.00 0.00 0.00 0.00 0.00 0.00 0.00

GFSGBSN_prec_precacc12_069.txt.gz
Total_Precipitation_Accumulation
0.00 0.00 0.00 0.00 0.00 0.00 0.00 0.01 0.01 0.01 0.01 0.03 0.03 0.02 0.02 0.02 0.01 0.00 0.00 0.00 0.00 0.00 0.00 0.00 0.00 0.00 0.00 0.00 0.00 0.01 0.01 0.16 0.24 0.25 0.19 0.14 0.12 0.02 0.01 0.05 0.23 0.24 0.11 0.05 0.07 0.01 0.00
0.00 0.00 0.00 0.00 0.00 0.00 0.00 0.00 0.01 0.01 0.01 0.03 0.03 0.02 0.02 0.01 0.01 0.00 0.00 0.00 0.00 0.00 0.00 0.01 0.01 0.00 0.00 0.00 0.00 0.00 0.01 0.03 0.17 0.21 0.15 0.17 0.12 0.01 0.02 0.04 0.11 0.14 0.23 0.13 0.18 0.06 0.01
0.00 0.00 0.00 0.00 0.00 0.00 0.00 0.00 0.01 0.01 0.01 0.02 0.03 0.02 0.02 0.01 0.01 0.01 0.00 0.00 0.00 0.00 0.00 0.01 0.04 0.00 0.00 0.00 0.00 0.01 0.01 0.00 0.05 0.13 0.19 0.29 0.10 0.03 0.02 0.06 0.08 0.09 0.18 0.33 0.18 0.19 0.04
0.02 0.00 0.00 0.00 0.00 0.00 0.00 0.00 0.01 0.01 0.01 0.02 0.02 0.02 0.02 0.01 0.01 0.01 0.00 0.00 0.00 0.00 0.00 0.01 0.09 0.00 0.00 0.00 0.00 0.06 0.06 0.01 0.02 0.10 0.22 0.45 0.16 0.08 0.04 0.03 0.08 0.13 0.16 0.25 0.27 0.14 0.08
0.04 0.01 0.00 0.00 0.00 0.00 0.00 0.00 0.01 0.01 0.01 0.02 0.02 0.02 0.02 0.02 0.01 0.00 0.00 0.00 0.00 0.00 0.00 0.00 0.00 0.00 0.00 0.02 0.01 0.31 0.14 0.05 0.08 0.20 0.38 0.55 0.22 0.13 0.04 0.05 0.03 0.06 0.07 0.05 0.10 0.09 0.08
0.08 0.01 0.01 0.00 0.00 0.00 0.00 0.00 0.01 0.01 0.02 0.03 0.03 0.02 0.02 0.02 0.01 0.00 0.00 0.00 0.00 0.00 0.00 0.00 0.00 0.01 0.01 0.26 0.24 0.49 0.10 0.06 0.16 0.40 0.83 1.10 0.31 0.10 0.02 0.01 0.00 0.00 0.00 0.00 0.01 0.04 0.04
0.02 0.02 0.01 0.00 0.00 0.00 0.00 0.00 0.01 0.01 0.01 0.03 0.03 0.02 0.01 0.02 0.01 0.01 0.00 0.00 0.00 0.00 0.00 0.00 0.00 0.00 0.02 0.39 0.81 0.41 0.07 0.11 0.27 0.50 1.01 1.12 0.26 0.05 0.00 0.00 0.00 0.00 0.00 0.00 0.00 0.01 0.02
0.04 0.02 0.01 0.00 0.00 0.00 0.01 0.00 0.00 0.01 0.01 0.02 0.03 0.02 0.01 0.02 0.01 0.00 0.00 0.00 0.00 0.00 0.00 0.00 0.00 0.01 0.02 0.18 0.45 0.16 0.14 0.12 0.31 0.51 0.63 0.60 0.09 0.02 0.01 0.00 0.00 0.00 0.00 0.00 0.00 0.00 0.00
0.06 0.02 0.01 0.01 0.00 0.00 0.00 0.00 0.00 0.01 0.01 0.03 0.02 0.01 0.01 0.02 0.01 0.00 0.00 0.00 0.00 0.00 0.00 0.00 0.00 0.01 0.04 0.10 0.10 0.12 0.14 0.17 0.35 0.42 0.37 0.25 0.06 0.02 0.03 0.00 0.00 0.00 0.00 0.00 0.00 0.00 0.00
0.07 0.04 0.02 0.01 0.00 0.00 0.00 0.00 0.00 0.01 0.01 0.01 0.02 0.01 0.01 0.02 0.00 0.00 0.00 0.00 0.00 0.00 0.00 0.00 0.00 0.01 0.06 0.06 0.12 0.12 0.10 0.21 0.32 0.45 0.37 0.16 0.02 0.03 0.05 0.01 0.00 0.00 0.00 0.00 0.00 0.00 0.00
0.11 0.08 0.01 0.02 0.00 0.00 0.00 0.00 0.00 0.01 0.01 0.01 0.00 0.01 0.02 0.01 0.00 0.00 0.00 0.00 0.00 0.00 0.00 0.00 0.00 0.00 0.01 0.04 0.07 0.07 0.11 0.16 0.26 0.49 0.33 0.12 0.02 0.04 0.05 0.01 0.00 0.00 0.00 0.00 0.00 0.00 0.00
0.14 0.13 0.02 0.01 0.00 0.00 0.00 0.00 0.00 0.00 0.00 0.00 0.00 0.01 0.01 0.00 0.00 0.00 0.00 0.00 0.00 0.00 0.00 0.00 0.00 0.00 0.02 0.02 0.02 0.16 0.23 0.20 0.22 0.38 0.11 0.03 0.02 0.06 0.06 0.00 0.00 0.00 0.00 0.00 0.00 0.00 0.00
0.15 0.16 0.07 0.00 0.00 0.00 0.00 0.00 0.00 0.00 0.00 0.00 0.00 0.01 0.00 0.00 0.00 0.00 0.00 0.00 0.00 0.00 0.00 0.00 0.01 0.00 0.01 0.01 0.05 0.27 0.24 0.22 0.22 0.61 0.30 0.16 0.04 0.01 0.01 0.01 0.00 0.00 0.00 0.00 0.00 0.00 0.00
0.13 0.15 0.11 0.01 0.00 0.00 0.00 0.00 0.00 0.00 0.00 0.00 0.00 0.00 0.00 0.00 0.00 0.00 0.00 0.00 0.00 0.00 0.00 0.00 0.01 0.01 0.01 0.01 0.04 0.10 0.21 0.13 0.03 0.09 0.07 0.14 0.15 0.05 0.02 0.00 0.00 0.00 0.00 0.00 0.00 0.00 0.00
0.16 0.16 0.14 0.01 0.00 0.00 0.00 0.00 0.00 0.00 0.00 0.00 0.00 0.00 0.00 0.00 0.00 0.00 0.00 0.00 0.00 0.00 0.00 0.00 0.00 0.02 0.02 0.01 0.01 0.03 0.11 0.04 0.01 0.01 0.03 0.00 0.02 0.01 0.03 0.00 0.00 0.01 0.00 0.00 0.00 0.00 0.00
0.17 0.17 0.15 0.03 0.00 0.00 0.00 0.00 0.00 0.00 0.00 0.00 0.00 0.00 0.00 0.00 0.00 0.00 0.00 0.00 0.00 0.00 0.00 0.00 0.00 0.00 0.00 0.00 0.01 0.02 0.05 0.02 0.00 0.00 0.00 0.00 0.01 0.01 0.03 0.01 0.01 0.00 0.00 0.00 0.00 0.00 0.00
0.23 0.23 0.19 0.07 0.02 0.00 0.00 0.00 0.00 0.00 0.00 0.00 0.00 0.00 0.00 0.00 0.00 0.01 0.00 0.00 0.00 0.00 0.00 0.00 0.00 0.00 0.00 0.00 0.00 0.00 0.02 0.02 0.00 0.00 0.00 0.00 0.00 0.02 0.02 0.02 0.02 0.00 0.00 0.00 0.00 0.00 0.00
0.30 0.30 0.27 0.19 0.06 0.01 0.00 0.00 0.00 0.00 0.00 0.00 0.00 0.00 0.00 0.00 0.01 0.01 0.00 0.00 0.00 0.00 0.00 0.00 0.00 0.00 0.00 0.00 0.00 0.00 0.01 0.01 0.00 0.00 0.00 0.00 0.00 0.02 0.01 0.00 0.00 0.01 0.00 0.00 0.01 0.00 0.00
0.31 0.32 0.33 0.25 0.07 0.01 0.00 0.00 0.00 0.00 0.00 0.00 0.00 0.00 0.00 0.00 0.00 0.00 0.00 0.00 0.00 0.00 0.00 0.00 0.00 0.00 0.00 0.00 0.00 0.00 0.00 0.00 0.00 0.00 0.00 0.00 0.00 0.01 0.03 0.02 0.00 0.00 0.00 0.00 0.00 0.02 0.01
0.39 0.39 0.39 0.30 0.11 0.03 0.00 0.00 0.00 0.00 0.00 0.00 0.00 0.00 0.02 0.02 0.01 0.00 0.00 0.00 0.00 0.00 0.00 0.00 0.00 0.00 0.00 0.00 0.00 0.00 0.00 0.00 0.00 0.00 0.00 0.00 0.00 0.00 0.00 0.00 0.00 0.00 0.00 0.00 0.01 0.04 0.01
0.31 0.39 0.42 0.32 0.13 0.03 0.00 0.00 0.00 0.00 0.00 0.00 0.00 0.00 0.00 0.00 0.00 0.00 0.00 0.00 0.00 0.00 0.00 0.00 0.00 0.00 0.00 0.00 0.00 0.00 0.00 0.00 0.00 0.00 0.00 0.00 0.00 0.00 0.00 0.00 0.00 0.00 0.00 0.00 0.01 0.01 0.00
0.38 0.37 0.38 0.26 0.13 0.02 0.00 0.00 0.00 0.00 0.00 0.00 0.00 0.00 0.00 0.00 0.00 0.00 0.00 0.00 0.00 0.00 0.00 0.00 0.00 0.00 0.00 0.00 0.00 0.00 0.00 0.00 0.00 0.00 0.00 0.00 0.00 0.00 0.00 0.00 0.00 0.00 0.00 0.00 0.00 0.00 0.00
0.42 0.39 0.31 0.22 0.09 0.01 0.00 0.00 0.00 0.00 0.00 0.00 0.00 0.00 0.00 0.00 0.00 0.00 0.00 0.00 0.00 0.00 0.01 0.00 0.00 0.00 0.00 0.00 0.00 0.00 0.00 0.00 0.00 0.00 0.00 0.00 0.00 0.00 0.01 0.00 0.00 0.00 0.00 0.00 0.00 0.00 0.00
0.53 0.42 0.30 0.16 0.09 0.02 0.00 0.00 0.00 0.00 0.00 0.00 0.00 0.00 0.00 0.00 0.00 0.00 0.00 0.00 0.00 0.00 0.01 0.00 0.00 0.00 0.00 0.00 0.00 0.00 0.00 0.00 0.00 0.00 0.00 0.00 0.00 0.00 0.00 0.00 0.00 0.00 0.00 0.00 0.00 0.00 0.00
0.60 0.49 0.31 0.17 0.08 0.04 0.00 0.00 0.00 0.00 0.00 0.00 0.00 0.00 0.00 0.00 0.00 0.00 0.00 0.00 0.00 0.00 0.00 0.02 0.03 0.00 0.00 0.00 0.00 0.00 0.00 0.00 0.00 0.00 0.00 0.00 0.00 0.00 0.00 0.00 0.00 0.00 0.00 0.00 0.00 0.00 0.00
0.43 0.43 0.31 0.17 0.09 0.04 0.00 0.00 0.00 0.00 0.00 0.00 0.00 0.00 0.00 0.00 0.00 0.00 0.00 0.00 0.00 0.00 0.00 0.00 0.02 0.02 0.00 0.01 0.02 0.01 0.01 0.00 0.00 0.00 0.00 0.00 0.00 0.00 0.00 0.00 0.00 0.00 0.00 0.00 0.00 0.00 0.00
0.35 0.35 0.26 0.14 0.08 0.04 0.00 0.00 0.00 0.00 0.00 0.00 0.00 0.00 0.00 0.00 0.00 0.00 0.00 0.00 0.00 0.00 0.00 0.00 0.00 0.04 0.03 0.02 0.03 0.01 0.00 0.00 0.00 0.00 0.00 0.02 0.02 0.02 0.01 0.00 0.00 0.00 0.00 0.00 0.00 0.00 0.00
0.44 0.32 0.23 0.12 0.07 0.02 0.00 0.00 0.00 0.00 0.00 0.00 0.00 0.00 0.00 0.00 0.00 0.00 0.00 0.00 0.00 0.00 0.00 0.00 0.01 0.02 0.14 0.04 0.03 0.01 0.00 0.00 0.00 0.00 0.00 0.01 0.02 0.02 0.02 0.03 0.00 0.00 0.00 0.00 0.00 0.00 0.00
0.52 0.34 0.19 0.09 0.05 0.01 0.00 0.00 0.00 0.00 0.00 0.00 0.00 0.00 0.00 0.00 0.00 0.00 0.00 0.00 0.00 0.00 0.00 0.00 0.01 0.04 0.05 0.17 0.05 0.00 0.00 0.00 0.00 0.00 0.00 0.00 0.00 0.00 0.00 0.00 0.00 0.00 0.00 0.00 0.00 0.00 0.00

GFSGBSN_prec_precacc12_072.txt.gz
Total_Precipitation_Accumulation
0.02 0.02 0.00 0.00 0.00 0.00 0.00 0.00 0.00 0.01 0.01 0.01 0.02 0.02 0.02 0.02 0.01 0.01 0.01 0.00 0.00 0.00 0.00 0.00 0.00 0.00 0.00 0.00 0.00 0.00 0.01 0.15 0.26 0.27 0.21 0.15 0.20 0.06 0.02 0.05 0.48 0.42 0.16 0.12 0.15 0.04 0.00
0.06 0.06 0.02 0.00 0.00 0.00 0.00 0.00 0.00 0.01 0.01 0.01 0.02 0.02 0.02 0.02 0.01 0.01 0.01 0.00 0.00 0.00 0.00 0.01 0.01 0.00 0.00 0.00 0.00 0.00 0.00 0.04 0.19 0.27 0.28 0.20 0.19 0.05 0.03 0.05 0.26 0.41 0.32 0.23 0.30 0.10 0.02
0.06 0.08 0.06 0.01 0.00 0.00 0.00 0.00 0.00 0.01 0.01 0.01 0.02 0.02 0.02 0.01 0.01 0.01 0.01 0.01 0.00 0.00 0.01 0.01 0.02 0.00 0.00 0.00 0.00 0.00 0.00 0.00 0.07 0.19 0.40 0.36 0.18 0.12 0.05 0.05 0.08 0.28 0.39 0.49 0.39 0.26 0.08
0.10 0.11 0.07 0.03 0.00 0.00 0.00 0.00 0.00 0.01 0.01 0.02 0.02 0.02 0.01 0.01 0.01 0.01 0.00 0.00 0.00 0.00 0.00 0.00 0.02 0.00 0.00 0.00 0.00 0.00 0.00 0.00 0.05 0.16 0.33 0.46 0.24 0.09 0.03 0.03 0.14 0.23 0.49 0.34 0.39 0.28 0.17
0.15 0.11 0.09 0.02 0.00 0.00 0.00 0.00 0.01 0.01 0.01 0.02 0.02 0.02 0.02 0.01 0.01 0.01 0.00 0.00 0.00 0.00 0.00 0.00 0.00 0.00 0.00 0.02 0.01 0.06 0.04 0.00 0.07 0.20 0.25 0.56 0.30 0.14 0.06 0.07 0.10 0.21 0.23 0.13 0.13 0.18 0.21
0.12 0.07 0.02 0.01 0.01 0.00 0.00 0.00 0.01 0.01 0.01 0.02 0.02 0.02 0.01 0.01 0.02 0.01 0.00 0.00 0.00 0.00 0.00 0.00 0.00 0.02 0.02 0.29 0.28 0.32 0.07 0.02 0.15 0.33 0.47 1.08 0.43 0.13 0.07 0.03 0.02 0.15 0.05 0.04 0.03 0.05 0.15
0.04 0.04 0.03 0.01 0.01 0.00 0.00 0.00 0.01 0.01 0.01 0.02 0.03 0.02 0.01 0.02 0.01 0.01 0.00 0.00 0.00 0.00 0.00 0.00 0.00 0.01 0.04 0.46 0.78 0.35 0.06 0.09 0.24 0.33 0.54 1.09 0.39 0.07 0.01 0.00 0.00 0.02 0.03 0.00 0.00 0.01 0.03
0.05 0.04 0.04 0.04 0.05 0.01 0.00 0.00 0.00 0.01 0.01 0.02 0.03 0.01 0.01 0.01 0.01 0.01 0.00 0.00 0.00 0.00 0.00 0.00 0.00 0.03 0.04 0.20 0.45 0.16 0.13 0.12 0.18 0.30 0.45 0.61 0.13 0.02 0.01 0.00 0.00 0.00 0.01 0.01 0.03 0.02 0.01
0.07 0.08 0.10 0.10 0.08 0.03 0.00 0.00 0.00 0.00 0.01 0.02 0.02 0.01 0.01 0.01 0.01 0.00 0.00 0.00 0.00 0.00 0.00 0.00 0.00 0.02 0.07 0.15 0.11 0.12 0.18 0.18 0.28 0.28 0.34 0.29 0.11 0.03 0.04 0.01 0.00 0.00 0.00 0.00 0.02 0.03 0.01
0.07 0.08 0.08 0.07 0.08 0.06 0.01 0.00 0.00 0.00 0.01 0.01 0.01 0.00 0.01 0.01 0.00 0.00 0.00 0.00 0.00 0.00 0.00 0.00 0.00 0.02 0.12 0.14 0.18 0.19 0.16 0.13 0.33 0.46 0.34 0.18 0.04 0.05 0.05 0.01 0.00 0.00 0.00 0.00 0.00 0.00 0.00
0.11 0.13 0.14 0.14 0.12 0.08 0.03 0.00 0.00 0.00 0.00 0.01 0.00 0.00 0.01 0.01 0.00 0.00 0.00 0.00 0.00 0.00 0.01 0.00 0.00 0.00 0.02 0.05 0.10 0.12 0.08 0.08 0.23 0.32 0.23 0.14 0.04 0.07 0.06 0.01 0.00 0.00 0.00 0.00 0.00 0.00 0.00
0.15 0.17 0.20 0.19 0.17 0.12 0.05 0.01 0.00 0.00 0.00 0.00 0.00 0.01 0.01 0.00 0.00 0.00 0.00 0.00 0.00 0.00 0.00 0.00 0.00 0.00 0.02 0.02 0.01 0.04 0.05 0.04 0.14 0.25 0.15 0.05 0.03 0.09 0.10 0.00 0.00 0.00 0.00 0.00 0.00 0.00 0.00
0.18 0.21 0.21 0.18 0.15 0.14 0.10 0.01 0.00 0.00 0.00 0.00 0.00 0.01 0.00 0.00 0.00 0.00 0.00 0.00 0.00 0.00 0.00 0.00 0.00 0.00 0.01 0.01 0.00 0.02 0.03 0.04 0.06 0.41 0.27 0.17 0.06 0.01 0.02 0.01 0.00 0.00 0.00 0.00 0.00 0.00 0.00
0.18 0.19 0.20 0.22 0.19 0.16 0.11 0.01 0.00 0.00 0.00 0.00 0.00 0.00 0.00 0.00 0.00 0.00 0.00 0.00 0.00 0.00 0.00 0.00 0.00 0.01 0.01 0.01 0.02 0.03 0.06 0.02 0.02 0.08 0.06 0.15 0.16 0.06 0.02 0.01 0.00 0.00 0.00 0.00 0.00 0.00 0.00
0.21 0.20 0.22 0.24 0.23 0.20 0.15 0.04 0.00 0.00 0.00 0.00 0.00 0.00 0.00 0.00 0.00 0.00 0.00 0.00 0.00 0.00 0.00 0.00 0.01 0.02 0.02 0.01 0.01 0.03 0.06 0.02 0.00 0.01 0.04 0.02 0.04 0.01 0.03 0.00 0.00 0.01 0.01 0.00 0.00 0.00 0.00
0.23 0.25 0.28 0.29 0.27 0.23 0.19 0.09 0.00 0.00 0.00 0.00 0.00 0.00 0.00 0.00 0.00 0.00 0.00 0.00 0.00 0.00 0.00 0.00 0.01 0.01 0.01 0.01 0.01 0.02 0.04 0.02 0.00 0.00 0.00 0.00 0.01 0.01 0.03 0.01 0.01 0.00 0.00 0.00 0.00 0.00 0.00
0.30 0.33 0.36 0.38 0.34 0.24 0.21 0.12 0.02 0.00 0.00 0.00 0.00 0.00 0.00 0.00 0.00 0.02 0.00 0.00 0.00 0.00 0.00 0.00 0.00 0.00 0.00 0.00 0.00 0.00 0.02 0.03 0.00 0.00 0.00 0.00 0.00 0.02 0.02 0.02 0.03 0.01 0.00 0.00 0.00 0.00 0.00
0.37 0.45 0.50 0.49 0.44 0.32 0.26 0.16 0.04 0.00 0.00 0.00 0.00 0.00 0.00 0.00 0.01 0.01 0.00 0.00 0.00 0.00 0.00 0.00 0.00 0.00 0.00 0.00 0.01 0.01 0.01 0.02 0.00 0.00 0.00 0.00 0.00 0.01 0.01 0.00 0.00 0.01 0.01 0.01 0.00 0.00 0.00
0.38 0.44 0.52 0.49 0.47 0.39 0.34 0.22 0.07 0.01 0.00 0.00 0.00 0.00 0.01 0.00 0.01 0.00 0.00 0.00 0.00 0.00 0.00 0.00 0.00 0.00 0.00 0.01 0.01 0.00 0.00 0.00 0.00 0.00 0.00 0.00 0.00 0.01 0.03 0.02 0.00 0.00 0.00 0.00 0.00 0.01 0.01
0.50 0.53 0.61 0.59 0.50 0.40 0.34 0.21 0.09 0.01 0.00 0.00 0.00 0.00 0.03 0.02 0.00 0.00 0.00 0.00 0.00 0.00 0.00 0.00 0.00 0.00 0.00 0.00 0.00 0.00 0.00 0.00 0.00 0.00 0.00 0.00 0.00 0.00 0.01 0.00 0.00 0.00 0.00 0.00 0.01 0.02 0.01
0.46 0.60 0.69 0.70 0.59 0.39 0.30 0.17 0.06 0.00 0.00 0.00 0.00 0.00 0.00 0.00 0.00 0.00 0.00 0.00 0.00 0.00 0.00 0.00 0.00 0.00 0.00 0.01 0.00 0.00 0.00 0.00 0.00 0.00 0.00 0.00 0.00 0.00 0.00 0.00 0.00 0.00 0.00 0.00 0.00 0.00 0.00
0.50 0.54 0.61 0.58 0.53 0.37 0.27 0.12 0.03 0.00 0.00 0.00 0.00 0.00 0.00 0.00 0.00 0.00 0.00 0.00 0.00 0.01 0.00 0.00 0.00 0.00 0.00 0.00 0.01 0.00 0.00 0.00 0.00 0.00 0.00 0.00 0.00 0.00 0.00 0.00 0.00 0.00 0.00 0.00 0.00 0.00 0.00
0.49 0.51 0.48 0.48 0.43 0.35 0.22 0.10 0.02 0.00 0.00 0.00 0.00 0.00 0.00 0.00 0.00 0.00 0.00 0.00 0.00 0.01 0.01 0.00 0.00 0.00 0.00 0.00 0.00 0.00 0.00 0.00 0.00 0.00 0.00 0.01 0.00 0.00 0.01 0.00 0.00 0.00 0.00 0.00 0.00 0.00 0.00
0.74 0.85 0.92 0.85 0.55 0.35 0.20 0.07 0.00 0.00 0.00 0.00 0.00 0.00 0.00 0.00 0.00 0.00 0.00 0.00 0.00 0.00 0.02 0.00 0.00 0.00 0.00 0.00 0.00 0.00 0.00 0.00 0.00 0.00 0.00 0.01 0.01 0.00 0.01 0.00 0.00 0.00 0.00 0.00 0.00 0.00 0.00
0.76 0.77 0.79 0.78 0.68 0.43 0.22 0.07 0.00 0.00 0.00 0.00 0.00 0.00 0.00 0.00 0.00 0.00 0.00 0.00 0.00 0.00 0.01 0.02 0.03 0.00 0.00 0.00 0.00 0.01 0.00 0.00 0.00 0.00 0.00 0.00 0.01 0.01 0.00 0.00 0.00 0.00 0.00 0.00 0.00 0.00 0.00
0.49 0.49 0.46 0.49 0.50 0.42 0.27 0.08 0.00 0.00 0.00 0.00 0.00 0.00 0.00 0.00 0.00 0.00 0.00 0.00 0.00 0.00 0.00 0.00 0.02 0.02 0.00 0.01 0.03 0.02 0.02 0.01 0.00 0.00 0.00 0.00 0.00 0.00 0.00 0.00 0.00 0.00 0.00 0.00 0.00 0.00 0.00
0.42 0.39 0.36 0.37 0.36 0.36 0.28 0.07 0.00 0.00 0.00 0.00 0.00 0.00 0.00 0.00 0.00 0.00 0.00 0.00 0.00 0.00 0.00 0.00 0.00 0.04 0.03 0.03 0.05 0.03 0.01 0.00 0.00 0.00 0.00 0.02 0.02 0.02 0.02 0.01 0.00 0.00 0.00 0.00 0.00 0.00 0.00
0.93 0.73 0.58 0.43 0.32 0.28 0.19 0.05 0.00 0.00 0.00 0.00 0.00 0.00 0.00 0.00 0.00 0.00 0.00 0.00 0.00 0.00 0.00 0.00 0.00 0.02 0.14 0.05 0.04 0.02 0.01 0.00 0.00 0.00 0.00 0.01 0.02 0.03 0.03 0.05 0.01 0.00 0.00 0.00 0.00 0.00 0.00
0.93 0.90 0.90 0.67 0.40 0.26 0.12 0.02 0.01 0.00 0.00 0.00 0.00 0.00 0.00 0.00 0.00 0.00 0.00 0.00 0.00 0.00 0.00 0.00 0.00 0.02 0.05 0.16 0.05 0.00 0.00 0.00 0.00 0.00 0.00 0.00 0.00 0.01 0.00 0.00 0.00 0.00 0.00 0.00 0.00 0.00 0.00

GFSGBSN_prec_precacc12_075.txt.gz
Total_Precipitation_Accumulation
0.05 0.05 0.02 0.01 0.00 0.00 0.00 0.00 0.00 0.00 0.00 0.00 0.01 0.02 0.02 0.02 0.02 0.01 0.01 0.01 0.00 0.00 0.00 0.00 0.00 0.00 0.00 0.00 0.00 0.00 0.00 0.14 0.30 0.23 0.20 0.12 0.27 0.15 0.08 0.06 0.50 0.46 0.22 0.18 0.24 0.10 0.02
0.08 0.08 0.06 0.05 0.02 0.00 0.00 0.00 0.00 0.01 0.00 0.01 0.01 0.01 0.02 0.02 0.02 0.02 0.01 0.01 0.01 0.01 0.01 0.01 0.01 0.00 0.00 0.00 0.00 0.00 0.00 0.04 0.21 0.26 0.28 0.18 0.26 0.14 0.11 0.06 0.27 0.44 0.33 0.31 0.60 0.21 0.07
0.07 0.09 0.09 0.05 0.03 0.01 0.00 0.00 0.00 0.00 0.01 0.01 0.02 0.01 0.01 0.01 0.02 0.02 0.01 0.01 0.01 0.01 0.01 0.01 0.01 0.00 0.00 0.00 0.00 0.00 0.00 0.00 0.08 0.19 0.42 0.40 0.22 0.16 0.17 0.07 0.09 0.31 0.49 0.65 0.78 0.56 0.14
0.11 0.12 0.09 0.08 0.05 0.01 0.00 0.00 0.00 0.00 0.01 0.01 0.02 0.01 0.01 0.01 0.02 0.01 0.01 0.00 0.00 0.00 0.00 0.00 0.00 0.00 0.00 0.00 0.00 0.00 0.00 0.00 0.07 0.17 0.35 0.45 0.23 0.12 0.08 0.06 0.16 0.25 0.69 0.66 0.86 0.70 0.44
0.17 0.13 0.12 0.05 0.02 0.02 0.01 0.00 0.00 0.01 0.01 0.01 0.02 0.02 0.01 0.01 0.01 0.01 0.00 0.00 0.00 0.00 0.00 0.00 0.00 0.00 0.01 0.01 0.01 0.01 0.00 0.01 0.05 0.20 0.29 0.50 0.28 0.18 0.15 0.11 0.15 0.25 0.40 0.43 0.50 0.51 0.48
0.14 0.09 0.04 0.04 0.04 0.03 0.02 0.02 0.01 0.00 0.01 0.01 0.02 0.02 0.01 0.01 0.01 0.01 0.00 0.00 0.00 0.00 0.00 0.00 0.00 0.02 0.03 0.33 0.29 0.05 0.00 0.01 0.13 0.32 0.46 0.78 0.44 0.18 0.18 0.08 0.04 0.20 0.09 0.10 0.30 0.28 0.26
0.07 0.07 0.06 0.04 0.05 0.04 0.04 0.03 0.02 0.01 0.00 0.01 0.02 0.02 0.01 0.01 0.01 0.01 0.00 0.00 0.00 0.00 0.00 0.00 0.01 0.02 0.09 0.49 0.69 0.20 0.02 0.02 0.19 0.35 0.43 0.80 0.48 0.11 0.03 0.01 0.00 0.03 0.05 0.01 0.04 0.12 0.07
0.08 0.06 0.07 0.07 0.11 0.13 0.06 0.05 0.05 0.02 0.01 0.01 0.02 0.01 0.01 0.01 0.01 0.01 0.00 0.00 0.00 0.00 0.00 0.00 0.00 0.05 0.05 0.20 0.43 0.15 0.08 0.07 0.17 0.28 0.27 0.47 0.16 0.04 0.06 0.03 0.03 0.02 0.08 0.10 0.07 0.07 0.03
0.08 0.09 0.11 0.12 0.12 0.14 0.12 0.08 0.06 0.03 0.01 0.01 0.01 0.01 0.01 0.01 0.01 0.00 0.00 0.00 0.00 0.00 0.00 0.00 0.00 0.03 0.08 0.15 0.10 0.11 0.15 0.15 0.16 0.16 0.22 0.29 0.16 0.05 0.07 0.06 0.01 0.00 0.00 0.02 0.05 0.09 0.05
0.08 0.08 0.09 0.09 0.12 0.14 0.12 0.06 0.07 0.04 0.02 0.01 0.01 0.00 0.01 0.00 0.00 0.00 0.00 0.00 0.00 0.00 0.00 0.01 0.00 0.02 0.13 0.14 0.19 0.20 0.16 0.08 0.19 0.30 0.24 0.30 0.07 0.05 0.05 0.02 0.00 0.00 0.00 0.00 0.01 0.09 0.04
0.12 0.14 0.15 0.16 0.17 0.17 0.16 0.11 0.10 0.07 0.04 0.00 0.00 0.00 0.01 0.00 0.00 0.00 0.00 0.00 0.00 0.00 0.01 0.00 0.00 0.01 0.05 0.06 0.11 0.12 0.09 0.09 0.12 0.08 0.18 0.22 0.08 0.08 0.07 0.03 0.01 0.00 0.00 0.01 0.01 0.02 0.01
0.15 0.18 0.22 0.25 0.27 0.24 0.22 0.19 0.14 0.10 0.05 0.00 0.00 0.00 0.01 0.00 0.00 0.00 0.00 0.00 0.00 0.00 0.00 0.00 0.00 0.00 0.02 0.02 0.01 0.03 0.04 0.03 0.11 0.15 0.17 0.11 0.07 0.10 0.10 0.00 0.00 0.00 0.00 0.01 0.01 0.01 0.00
0.19 0.23 0.24 0.23 0.22 0.22 0.26 0.25 0.19 0.13 0.04 0.00 0.00 0.01 0.00 0.00 0.00 0.00 0.00 0.00 0.00 0.00 0.00 0.00 0.01 0.00 0.01 0.01 0.00 0.01 0.01 0.02 0.05 0.27 0.19 0.14 0.06 0.02 0.02 0.01 0.00 0.00 0.00 0.00 0.00 0.00 0.00
0.21 0.22 0.23 0.28 0.28 0.25 0.27 0.29 0.17 0.08 0.04 0.01 0.00 0.00 0.00 0.00 0.00 0.00 0.00 0.00 0.00 0.00 0.00 0.00 0.00 0.01 0.01 0.01 0.02 0.00 0.01 0.01 0.01 0.06 0.04 0.12 0.14 0.07 0.02 0.01 0.00 0.00 0.00 0.00 0.00 0.00 0.00
0.26 0.27 0.30 0.32 0.36 0.33 0.36 0.37 0.23 0.09 0.05 0.01 0.00 0.00 0.00 0.00 0.00 0.00 0.00 0.00 0.00 0.00 0.00 0.00 0.00 0.01 0.02 0.01 0.01 0.01 0.01 0.00 0.00 0.00 0.04 0.02 0.03 0.01 0.03 0.00 0.00 0.00 0.01 0.00 0.00 0.00 0.00
0.31 0.34 0.36 0.39 0.42 0.42 0.45 0.47 0.31 0.13 0.07 0.02 0.00 0.00 0.00 0.00 0.00 0.00 0.00 0.00 0.00 0.00 0.00 0.00 0.01 0.01 0.01 0.01 0.01 0.01 0.02 0.01 0.00 0.00 0.00 0.00 0.01 0.01 0.03 0.01 0.01 0.00 0.00 0.00 0.00 0.00 0.00
0.32 0.36 0.41 0.45 0.47 0.51 0.57 0.58 0.33 0.18 0.12 0.04 0.00 0.00 0.00 0.00 0.00 0.02 0.00 0.00 0.00 0.00 0.00 0.00 0.00 0.01 0.00 0.00 0.00 0.00 0.01 0.01 0.00 0.00 0.00 0.00 0.00 0.02 0.02 0.02 0.03 0.01 0.00 0.00 0.00 0.00 0.00
0.39 0.47 0.53 0.54 0.56 0.60 0.62 0.62 0.42 0.18 0.09 0.05 0.00 0.01 0.01 0.00 0.01 0.01 0.00 0.00 0.00 0.00 0.00 0.00 0.00 0.00 0.00 0.00 0.01 0.01 0.01 0.01 0.00 0.00 0.00 0.00 0.00 0.01 0.01 0.00 0.01 0.01 0.01 0.01 0.00 0.00 0.00
0.39 0.46 0.56 0.55 0.60 0.57 0.50 0.51 0.45 0.22 0.07 0.03 0.00 0.00 0.01 0.00 0.01 0.00 0.00 0.00 0.00 0.00 0.00 0.00 0.00 0.00 0.00 0.01 0.01 0.00 0.00 0.00 0.00 0.00 0.00 0.00 0.00 0.01 0.03 0.01 0.00 0.00 0.00 0.00 0.00 0.01 0.01
0.51 0.55 0.66 0.67 0.75 0.74 0.60 0.44 0.39 0.20 0.05 0.02 0.00 0.00 0.03 0.02 0.00 0.00 0.00 0.00 0.00 0.00 0.00 0.00 0.00 0.00 0.00 0.00 0.00 0.00 0.00 0.00 0.00 0.00 0.00 0.00 0.00 0.00 0.01 0.00 0.00 0.00 0.00 0.00 0.01 0.01 0.00
0.47 0.61 0.73 0.80 0.85 0.94 0.84 0.51 0.32 0.14 0.03 0.02 0.00 0.00 0.00 0.01 0.00 0.00 0.00 0.00 0.00 0.00 0.00 0.00 0.00 0.00 0.00 0.01 0.00 0.00 0.00 0.00 0.01 0.00 0.00 0.00 0.00 0.00 0.00 0.00 0.00 0.00 0.00 0.00 0.00 0.00 0.00
0.51 0.56 0.66 0.64 0.71 0.68 0.67 0.56 0.31 0.10 0.03 0.02 0.00 0.00 0.00 0.00 0.00 0.00 0.00 0.00 0.00 0.01 0.00 0.00 0.00 0.00 0.00 0.01 0.01 0.01 0.00 0.00 0.01 0.00 0.00 0.00 0.00 0.00 0.00 0.00 0.00 0.00 0.00 0.00 0.00 0.00 0.00
0.50 0.54 0.59 0.65 0.66 0.56 0.53 0.47 0.30 0.08 0.03 0.01 0.00 0.00 0.00 0.00 0.00 0.00 0.00 0.00 0.00 0.01 0.01 0.00 0.00 0.00 0.00 0.00 0.00 0.00 0.00 0.00 0.00 0.00 0.00 0.01 0.00 0.00 0.01 0.00 0.00 0.00 0.00 0.00 0.00 0.00 0.00
0.74 0.90 1.10 1.33 1.32 1.11 0.89 0.55 0.28 0.09 0.02 0.00 0.00 0.00 0.00 0.00 0.00 0.00 0.00 0.00 0.00 0.00 0.01 0.00 0.00 0.00 0.00 0.00 0.00 0.00 0.00 0.00 0.00 0.00 0.00 0.02 0.01 0.00 0.01 0.00 0.00 0.00 0.00 0.00 0.00 0.00 0.00
0.77 0.81 0.94 1.02 1.02 0.92 0.95 0.73 0.35 0.11 0.01 0.00 0.00 0.00 0.00 0.00 0.00 0.00 0.00 0.00 0.00 0.00 0.01 0.02 0.01 0.00 0.00 0.00 0.00 0.01 0.00 0.00 0.00 0.00 0.00 0.01 0.02 0.01 0.01 0.00 0.00 0.00 0.00 0.00 0.00 0.00 0.00
0.50 0.52 0.51 0.55 0.58 0.52 0.48 0.40 0.27 0.10 0.01 0.00 0.00 0.00 0.00 0.00 0.00 0.00 0.00 0.00 0.00 0.00 0.00 0.00 0.00 0.00 0.00 0.01 0.03 0.02 0.02 0.01 0.00 0.00 0.00 0.00 0.01 0.01 0.00 0.00 0.00 0.00 0.00 0.00 0.00 0.00 0.00
0.44 0.41 0.38 0.42 0.47 0.45 0.39 0.24 0.15 0.07 0.01 0.00 0.00 0.00 0.00 0.00 0.00 0.00 0.00 0.00 0.00 0.00 0.00 0.00 0.00 0.02 0.02 0.03 0.04 0.03 0.01 0.00 0.00 0.00 0.00 0.01 0.01 0.01 0.01 0.01 0.00 0.00 0.00 0.00 0.00 0.00 0.00
0.96 0.81 0.84 0.79 0.72 0.59 0.43 0.23 0.09 0.08 0.02 0.00 0.00 0.00 0.00 0.00 0.00 0.00 0.00 0.00 0.00 0.00 0.00 0.00 0.00 0.01 0.10 0.04 0.03 0.02 0.01 0.00 0.00 0.00 0.00 0.01 0.02 0.02 0.02 0.04 0.01 0.00 0.00 0.00 0.00 0.00 0.00
0.96 1.06 1.25 1.29 1.14 0.85 0.49 0.21 0.09 0.13 0.03 0.00 0.00 0.00 0.00 0.00 0.00 0.00 0.00 0.00 0.00 0.00 0.00 0.00 0.00 0.00 0.03 0.14 0.03 0.00 0.00 0.00 0.00 0.00 0.00 0.00 0.00 0.01 0.00 0.00 0.00 0.00 0.00 0.00 0.00 0.00 0.00

GFSGBSN_prec_precacc12_078.txt.gz
Total_Precipitation_Accumulation
0.08 0.08 0.05 0.03 0.04 0.04 0.03 0.03 0.01 0.00 0.00 0.00 0.01 0.01 0.01 0.02 0.02 0.02 0.02 0.01 0.01 0.01 0.01 0.01 0.01 0.00 0.00 0.00 0.00 0.00 0.00 0.07 0.20 0.14 0.17 0.27 0.34 0.25 0.17 0.08 0.48 0.54 0.28 0.22 0.30 0.12 0.06
0.11 0.11 0.09 0.08 0.08 0.06 0.05 0.06 0.02 0.00 0.00 0.01 0.01 0.01 0.01 0.02 0.02 0.02 0.02 0.01 0.01 0.02 0.01 0.01 0.01 0.00 0.00 0.00 0.00 0.00 0.00 0.02 0.15 0.16 0.23 0.20 0.39 0.25 0.21 0.09 0.28 0.53 0.35 0.30 0.71 0.26 0.13
0.11 0.12 0.12 0.09 0.09 0.07 0.07 0.05 0.04 0.01 0.00 0.01 0.01 0.01 0.01 0.01 0.02 0.02 0.01 0.01 0.01 0.01 0.01 0.01 0.02 0.01 0.00 0.00 0.00 0.00 0.00 0.00 0.07 0.14 0.32 0.31 0.24 0.24 0.26 0.10 0.13 0.41 0.52 0.54 0.94 0.78 0.17
0.13 0.14 0.12 0.12 0.10 0.06 0.04 0.05 0.09 0.03 0.01 0.01 0.01 0.01 0.01 0.01 0.01 0.01 0.01 0.00 0.00 0.00 0.00 0.00 0.00 0.00 0.00 0.00 0.00 0.00 0.00 0.00 0.07 0.16 0.26 0.31 0.22 0.16 0.23 0.13 0.21 0.32 0.74 0.71 1.03 1.15 0.53
0.17 0.15 0.14 0.08 0.05 0.05 0.05 0.08 0.06 0.03 0.04 0.01 0.01 0.01 0.01 0.01 0.01 0.01 0.00 0.00 0.00 0.00 0.00 0.00 0.00 0.01 0.01 0.01 0.03 0.01 0.00 0.01 0.05 0.18 0.24 0.25 0.24 0.16 0.30 0.22 0.18 0.27 0.43 0.51 0.64 0.89 0.85
0.14 0.10 0.05 0.04 0.06 0.06 0.08 0.11 0.07 0.08 0.06 0.02 0.01 0.01 0.01 0.01 0.01 0.01 0.00 0.00 0.00 0.00 0.00 0.00 0.00 0.03 0.04 0.31 0.24 0.04 0.00 0.01 0.14 0.30 0.43 0.40 0.36 0.19 0.38 0.30 0.09 0.21 0.09 0.11 0.43 0.55 0.75
0.07 0.06 0.06 0.04 0.06 0.09 0.11 0.13 0.13 0.09 0.07 0.04 0.01 0.01 0.01 0.01 0.01 0.01 0.00 0.00 0.00 0.00 0.00 0.00 0.01 0.03 0.11 0.29 0.20 0.00 0.00 0.02 0.17 0.33 0.40 0.41 0.40 0.12 0.15 0.09 0.02 0.03 0.05 0.01 0.12 0.30 0.41
0.05 0.05 0.07 0.08 0.11 0.15 0.12 0.12 0.15 0.16 0.11 0.06 0.02 0.00 0.01 0.00 0.00 0.01 0.00 0.00 0.00 0.00 0.00 0.00 0.00 0.05 0.05 0.17 0.18 0.01 0.02 0.06 0.17 0.24 0.21 0.27 0.13 0.06 0.14 0.11 0.05 0.03 0.10 0.12 0.12 0.16 0.24
0.06 0.09 0.12 0.13 0.13 0.15 0.17 0.15 0.16 0.18 0.10 0.06 0.02 0.00 0.00 0.00 0.00 0.00 0.00 0.00 0.00 0.00 0.00 0.00 0.00 0.03 0.07 0.13 0.08 0.08 0.17 0.25 0.21 0.15 0.15 0.19 0.22 0.09 0.19 0.23 0.04 0.01 0.02 0.05 0.11 0.13 0.12
0.06 0.08 0.10 0.10 0.12 0.15 0.14 0.14 0.19 0.20 0.16 0.09 0.04 0.00 0.00 0.00 0.00 0.00 0.00 0.00 0.00 0.00 0.00 0.01 0.00 0.01 0.13 0.13 0.13 0.17 0.21 0.15 0.22 0.31 0.15 0.28 0.23 0.08 0.07 0.10 0.01 0.01 0.01 0.02 0.07 0.23 0.09
0.10 0.14 0.16 0.17 0.18 0.18 0.18 0.19 0.21 0.20 0.14 0.08 0.04 0.00 0.00 0.00 0.00 0.00 0.00 0.00 0.00 0.00 0.01 0.00 0.00 0.01 0.05 0.05 0.09 0.11 0.11 0.14 0.14 0.05 0.12 0.31 0.18 0.08 0.09 0.08 0.01 0.01 0.00 0.01 0.01 0.07 0.02
0.14 0.19 0.22 0.26 0.28 0.25 0.23 0.23 0.23 0.21 0.14 0.10 0.04 0.00 0.00 0.00 0.00 0.00 0.00 0.00 0.00 0.00 0.00 0.00 0.00 0.00 0.01 0.01 0.01 0.03 0.02 0.01 0.02 0.05 0.22 0.16 0.08 0.09 0.09 0.00 0.00 0.01 0.01 0.05 0.02 0.01 0.00
0.20 0.25 0.25 0.25 0.22 0.23 0.27 0.29 0.30 0.27 0.19 0.09 0.02 0.00 0.00 0.00 0.00 0.00 0.00 0.00 0.00 0.00 0.00 0.00 0.00 0.00 0.01 0.00 0.00 0.01 0.01 0.00 0.00 0.09 0.18 0.09 0.04 0.01 0.01 0.00 0.01 0.01 0.02 0.11 0.05 0.01 0.00
0.22 0.24 0.26 0.29 0.29 0.28 0.30 0.33 0.29 0.25 0.21 0.11 0.03 0.00 0.00 0.00 0.00 0.00 0.00 0.00 0.00 0.00 0.00 0.00 0.00 0.01 0.01 0.01 0.01 0.00 0.01 0.00 0.01 0.05 0.03 0.09 0.12 0.05 0.01 0.00 0.01 0.01 0.00 0.00 0.00 0.00 0.00
0.26 0.29 0.31 0.34 0.42 0.41 0.41 0.43 0.38 0.31 0.22 0.12 0.04 0.00 0.00 0.00 0.00 0.00 0.00 0.00 0.00 0.00 0.00 0.00 0.01 0.01 0.01 0.01 0.01 0.00 0.00 0.00 0.00 0.00 0.03 0.02 0.03 0.01 0.03 0.00 0.00 0.00 0.00 0.00 0.00 0.00 0.00
0.30 0.35 0.36 0.41 0.47 0.48 0.49 0.54 0.48 0.33 0.21 0.11 0.05 0.02 0.01 0.00 0.00 0.00 0.00 0.00 0.00 0.00 0.00 0.00 0.01 0.01 0.01 0.01 0.01 0.01 0.01 0.00 0.00 0.00 0.00 0.00 0.01 0.01 0.03 0.01 0.01 0.00 0.00 0.00 0.00 0.00 0.00
0.27 0.33 0.41 0.46 0.49 0.52 0.60 0.75 0.93 0.78 0.37 0.17 0.10 0.05 0.03 0.00 0.00 0.02 0.01 0.00 0.00 0.00 0.00 0.00 0.00 0.01 0.01 0.00 0.00 0.00 0.01 0.00 0.00 0.00 0.00 0.00 0.00 0.01 0.02 0.02 0.02 0.00 0.00 0.00 0.00 0.00 0.00
0.30 0.42 0.51 0.55 0.57 0.61 0.65 0.74 0.78 0.76 0.47 0.30 0.13 0.07 0.03 0.00 0.01 0.01 0.00 0.00 0.00 0.00 0.00 0.00 0.00 0.00 0.00 0.00 0.01 0.01 0.00 0.00 0.00 0.00 0.00 0.00 0.00 0.01 0.01 0.00 0.01 0.01 0.00 0.01 0.00 0.00 0.00
0.28 0.42 0.53 0.56 0.61 0.58 0.53 0.53 0.54 0.54 0.28 0.19 0.15 0.11 0.04 0.01 0.01 0.00 0.00 0.00 0.00 0.00 0.00 0.00 0.00 0.00 0.00 0.01 0.01 0.01 0.00 0.00 0.00 0.00 0.00 0.00 0.00 0.01 0.03 0.01 0.00 0.00 0.00 0.00 0.00 0.01 0.01
0.34 0.47 0.63 0.68 0.76 0.76 0.69 0.61 0.47 0.35 0.20 0.16 0.13 0.08 0.07 0.02 0.00 0.00 0.00 0.00 0.00 0.00 0.00 0.00 0.00 0.00 0.00 0.00 0.00 0.00 0.00 0.00 0.00 0.00 0.00 0.00 0.00 0.00 0.01 0.00 0.00 0.00 0.00 0.00 0.00 0.01 0.00
0.32 0.53 0.72 0.82 0.87 0.98 0.99 1.03 0.84 0.49 0.19 0.18 0.09 0.03 0.01 0.01 0.00 0.00 0.00 0.00 0.00 0.00 0.00 0.00 0.00 0.00 0.00 0.01 0.00 0.00 0.00 0.01 0.01 0.00 0.00 0.00 0.00 0.00 0.00 0.00 0.00 0.00 0.00 0.00 0.00 0.00 0.00
0.31 0.44 0.64 0.65 0.74 0.76 0.80 0.83 0.80 0.58 0.29 0.25 0.11 0.02 0.00 0.00 0.00 0.00 0.00 0.00 0.00 0.00 0.00 0.00 0.00 0.00 0.00 0.01 0.01 0.01 0.00 0.00 0.01 0.00 0.00 0.00 0.00 0.00 0.00 0.00 0.00 0.00 0.00 0.00 0.00 0.00 0.00
0.31 0.44 0.58 0.66 0.72 0.76 0.76 0.64 0.55 0.37 0.30 0.23 0.11 0.02 0.00 0.00 0.00 0.00 0.00 0.00 0.00 0.00 0.00 0.00 0.00 0.00 0.00 0.00 0.00 0.00 0.00 0.00 0.00 0.00 0.00 0.01 0.00 0.00 0.01 0.00 0.00 0.00 0.00 0.00 0.00 0.00 0.00
0.63 0.84 1.10 1.36 1.45 1.49 1.64 1.26 0.64 0.26 0.27 0.21 0.09 0.00 0.00 0.00 0.00 0.00 0.00 0.00 0.00 0.00 0.01 0.00 0.00 0.00 0.00 0.00 0.00 0.00 0.00 0.00 0.00 0.00 0.00 0.02 0.01 0.00 0.01 0.00 0.00 0.00 0.00 0.00 0.00 0.00 0.00
0.67 0.80 0.95 1.07 1.13 1.15 1.25 1.24 1.06 0.48 0.30 0.13 0.01 0.00 0.00 0.00 0.00 0.00 0.00 0.00 0.00 0.00 0.01 0.01 0.00 0.00 0.00 0.00 0.00 0.01 0.01 0.00 0.00 0.00 0.00 0.01 0.02 0.02 0.01 0.00 0.00 0.00 0.00 0.00 0.00 0.00 0.00
0.40 0.51 0.53 0.57 0.62 0.62 0.55 0.47 0.53 0.35 0.18 0.04 0.00 0.00 0.00 0.00 0.00 0.00 0.00 0.00 0.00 0.00 0.00 0.00 0.00 0.00 0.00 0.01 0.03 0.02 0.02 0.01 0.00 0.00 0.00 0.00 0.01 0.01 0.01 0.00 0.00 0.00 0.00 0.00 0.00 0.00 0.00
0.34 0.37 0.38 0.45 0.56 0.59 0.49 0.29 0.22 0.16 0.10 0.01 0.00 0.00 0.00 0.00 0.00 0.00 0.00 0.00 0.00 0.00 0.00 0.00 0.00 0.00 0.00 0.03 0.03 0.02 0.01 0.00 0.00 0.00 0.00 0.00 0.01 0.01 0.01 0.01 0.00 0.00 0.00 0.00 0.00 0.00 0.00
0.87 0.77 0.83 0.85 0.96 0.92 0.71 0.43 0.26 0.18 0.08 0.00 0.00 0.00 0.00 0.00 0.00 0.00 0.00 0.00 0.00 0.00 0.00 0.00 0.00 0.00 0.01 0.02 0.02 0.02 0.01 0.00 0.00 0.00 0.00 0.00 0.01 0.01 0.02 0.03 0.01 0.00 0.00 0.00 0.00 0.00 0.00
0.89 1.02 1.26 1.37 1.32 1.30 1.00 0.54 0.33 0.25 0.09 0.01 0.00 0.00 0.00 0.00 0.00 0.00 0.00 0.00 0.00 0.00 0.00 0.00 0.00 0.00 0.01 0.06 0.02 0.00 0.00 0.00 0.00 0.00 0.00 0.00 0.00 0.01 0.00 0.00 0.00 0.00 0.00 0.00 0.00 0.00 0.00

GFSGBSN_prec_precacc12_081.txt.gz
Total_Precipitation_Accumulation
0.08 0.09 0.06 0.06 0.08 0.08 0.08 0.10 0.11 0.07 0.04 0.02 0.00 0.01 0.01 0.02 0.02 0.02 0.02 0.02 0.01 0.01 0.03 0.02 0.01 0.01 0.00 0.00 0.00 0.00 0.00 0.04 0.10 0.07 0.08 0.25 0.36 0.33 0.29 0.07 0.33 0.48 0.32 0.31 0.40 0.18 0.09
0.11 0.11 0.09 0.09 0.09 0.08 0.08 0.13 0.09 0.06 0.10 0.06 0.01 0.01 0.01 0.02 0.02 0.02 0.02 0.01 0.01 0.02 0.02 0.02 0.02 0.01 0.00 0.00 0.00 0.00 0.00 0.01 0.05 0.08 0.17 0.22 0.49 0.35 0.30 0.14 0.23 0.44 0.37 0.38 0.74 0.35 0.20
0.10 0.12 0.12 0.09 0.09 0.08 0.08 0.07 0.07 0.12 0.13 0.08 0.02 0.02 0.01 0.01 0.02 0.01 0.01 0.01 0.01 0.01 0.01 0.01 0.02 0.02 0.00 0.00 0.00 0.00 0.00 0.00 0.03 0.06 0.25 0.19 0.41 0.31 0.39 0.15 0.14 0.40 0.56 0.67 0.97 0.79 0.24
0.11 0.14 0.12 0.12 0.10 0.06 0.04 0.05 0.13 0.14 0.12 0.10 0.09 0.04 0.01 0.01 0.01 0.01 0.00 0.00 0.00 0.01 0.01 0.00 0.01 0.01 0.01 0.00 0.00 0.00 0.00 0.00 0.05 0.08 0.17 0.09 0.23 0.21 0.36 0.19 0.25 0.33 0.92 0.79 1.05 1.26 0.64
0.14 0.14 0.14 0.08 0.05 0.05 0.05 0.10 0.13 0.13 0.15 0.18 0.11 0.05 0.04 0.01 0.01 0.01 0.00 0.00 0.00 0.00 0.00 0.00 0.00 0.01 0.01 0.01 0.04 0.01 0.00 0.01 0.04 0.09 0.08 0.13 0.15 0.23 0.45 0.28 0.21 0.27 0.70 0.70 0.63 0.95 1.10
0.07 0.10 0.05 0.04 0.06 0.06 0.08 0.12 0.16 0.17 0.18 0.14 0.11 0.08 0.06 0.02 0.01 0.00 0.00 0.00 0.00 0.00 0.00 0.00 0.00 0.02 0.03 0.15 0.16 0.04 0.00 0.00 0.10 0.16 0.16 0.25 0.26 0.21 0.39 0.34 0.12 0.22 0.27 0.34 0.43 0.63 1.05
0.05 0.05 0.05 0.05 0.06 0.09 0.11 0.13 0.14 0.14 0.15 0.15 0.14 0.13 0.06 0.01 0.01 0.00 0.00 0.00 0.00 0.00 0.00 0.00 0.00 0.02 0.09 0.11 0.04 0.00 0.00 0.02 0.14 0.23 0.20 0.25 0.30 0.12 0.18 0.24 0.05 0.03 0.06 0.10 0.15 0.38 0.63
0.04 0.04 0.07 0.09 0.12 0.16 0.13 0.13 0.16 0.19 0.21 0.17 0.12 0.10 0.05 0.02 0.00 0.01 0.00 0.00 0.00 0.00 0.00 0.00 0.00 0.04 0.04 0.03 0.01 0.00 0.01 0.08 0.18 0.20 0.13 0.12 0.11 0.05 0.15 0.20 0.13 0.04 0.10 0.14 0.17 0.23 0.35
0.02 0.07 0.12 0.14 0.14 0.16 0.18 0.16 0.16 0.19 0.17 0.16 0.14 0.13 0.09 0.04 0.00 0.00 0.00 0.00 0.00 0.00 0.00 0.00 0.00 0.01 0.04 0.06 0.02 0.06 0.18 0.28 0.19 0.10 0.11 0.08 0.20 0.08 0.20 0.29 0.13 0.02 0.02 0.06 0.13 0.20 0.18
0.01 0.05 0.09 0.10 0.13 0.16 0.15 0.15 0.19 0.21 0.22 0.20 0.17 0.14 0.07 0.02 0.00 0.00 0.00 0.00 0.00 0.00 0.00 0.01 0.00 0.00 0.08 0.08 0.08 0.15 0.18 0.15 0.20 0.30 0.13 0.22 0.26 0.07 0.22 0.21 0.07 0.01 0.01 0.02 0.11 0.31 0.14
0.01 0.06 0.15 0.16 0.18 0.18 0.18 0.20 0.22 0.21 0.16 0.13 0.16 0.12 0.05 0.03 0.00 0.00 0.00 0.00 0.00 0.00 0.01 0.00 0.00 0.01 0.04 0.03 0.05 0.16 0.17 0.18 0.17 0.05 0.09 0.35 0.24 0.07 0.22 0.16 0.01 0.01 0.00 0.02 0.05 0.21 0.07
0.02 0.07 0.20 0.26 0.28 0.25 0.23 0.24 0.23 0.22 0.16 0.15 0.16 0.10 0.05 0.01 0.00 0.00 0.00 0.00 0.00 0.00 0.00 0.00 0.00 0.00 0.00 0.01 0.00 0.02 0.01 0.02 0.02 0.07 0.35 0.25 0.11 0.10 0.09 0.03 0.00 0.01 0.03 0.09 0.07 0.06 0.10
0.07 0.09 0.18 0.25 0.22 0.23 0.27 0.30 0.31 0.27 0.22 0.16 0.13 0.10 0.04 0.01 0.00 0.00 0.00 0.00 0.00 0.00 0.00 0.00 0.00 0.00 0.00 0.00 0.00 0.00 0.00 0.00 0.00 0.10 0.23 0.06 0.04 0.02 0.01 0.01 0.01 0.01 0.03 0.27 0.19 0.05 0.02
0.10 0.09 0.15 0.28 0.29 0.29 0.31 0.34 0.29 0.26 0.27 0.24 0.24 0.12 0.03 0.01 0.00 0.00 0.00 0.00 0.00 0.00 0.00 0.00 0.00 0.00 0.00 0.00 0.00 0.00 0.00 0.00 0.00 0.01 0.01 0.04 0.07 0.03 0.01 0.01 0.04 0.02 0.03 0.04 0.02 0.00 0.00
0.12 0.13 0.17 0.33 0.42 0.42 0.42 0.44 0.38 0.31 0.28 0.26 0.22 0.10 0.06 0.02 0.00 0.00 0.00 0.00 0.00 0.00 0.00 0.00 0.01 0.00 0.00 0.00 0.00 0.00 0.00 0.00 0.00 0.00 0.01 0.02 0.02 0.01 0.01 0.00 0.01 0.03 0.01 0.00 0.00 0.00 0.00
0.15 0.18 0.22 0.38 0.47 0.48 0.49 0.54 0.51 0.49 0.42 0.16 0.12 0.13 0.09 0.01 0.00 0.00 0.00 0.00 0.00 0.00 0.00 0.00 0.01 0.01 0.00 0.00 0.00 0.00 0.00 0.00 0.00 0.00 0.00 0.00 0.01 0.00 0.00 0.01 0.01 0.00 0.00 0.00 0.00 0.00 0.00
0.10 0.14 0.23 0.40 0.47 0.52 0.60 0.76 0.97 1.13 1.06 0.58 0.33 0.25 0.11 0.02 0.00 0.01 0.00 0.00 0.00 0.00 0.00 0.00 0.00 0.01 0.01 0.00 0.00 0.00 0.00 0.00 0.00 0.00 0.00 0.00 0.00 0.01 0.01 0.01 0.01 0.00 0.00 0.00 0.00 0.00 0.00
0.10 0.18 0.28 0.37 0.52 0.60 0.65 0.75 0.82 0.93 0.89 0.83 0.60 0.34 0.13 0.04 0.01 0.01 0.00 0.00 0.00 0.00 0.00 0.00 0.00 0.00 0.00 0.00 0.00 0.00 0.00 0.00 0.00 0.00 0.00 0.00 0.00 0.00 0.00 0.00 0.00 0.00 0.00 0.00 0.00 0.00 0.00
0.09 0.16 0.25 0.34 0.55 0.57 0.53 0.55 0.57 0.63 0.52 0.51 0.47 0.42 0.27 0.10 0.03 0.00 0.00 0.00 0.00 0.00 0.00 0.00 0.00 0.00 0.00 0.01 0.01 0.01 0.00 0.00 0.00 0.00 0.00 0.00 0.00 0.00 0.01 0.00 0.00 0.00 0.00 0.00 0.00 0.00 0.00
0.15 0.20 0.31 0.42 0.68 0.75 0.70 0.63 0.49 0.40 0.40 0.45 0.40 0.33 0.31 0.14 0.02 0.00 0.00 0.00 0.00 0.00 0.00 0.00 0.00 0.00 0.00 0.00 0.00 0.00 0.00 0.00 0.00 0.00 0.00 0.00 0.00 0.00 0.01 0.00 0.00 0.00 0.00 0.00 0.00 0.00 0.00
0.20 0.28 0.37 0.53 0.76 0.97 1.01 1.06 0.89 0.61 0.44 0.53 0.34 0.18 0.09 0.08 0.02 0.00 0.00 0.00 0.00 0.00 0.00 0.00 0.00 0.00 0.00 0.01 0.00 0.00 0.00 0.01 0.01 0.00 0.00 0.00 0.00 0.00 0.00 0.00 0.00 0.00 0.00 0.00 0.00 0.00 0.00
0.19 0.25 0.33 0.42 0.63 0.78 0.84 0.86 0.89 0.82 0.70 0.70 0.31 0.17 0.13 0.04 0.00 0.00 0.00 0.00 0.00 0.00 0.00 0.00 0.00 0.00 0.00 0.00 0.01 0.01 0.00 0.00 0.01 0.00 0.00 0.00 0.00 0.00 0.00 0.00 0.00 0.00 0.00 0.00 0.00 0.00 0.00
0.15 0.21 0.33 0.48 0.66 0.78 0.82 0.71 0.69 0.65 0.74 0.60 0.37 0.26 0.11 0.03 0.00 0.00 0.00 0.00 0.00 0.00 0.00 0.00 0.00 0.00 0.00 0.00 0.00 0.00 0.00 0.00 0.00 0.00 0.00 0.01 0.00 0.00 0.00 0.00 0.00 0.00 0.00 0.00 0.00 0.00 0.00
0.28 0.53 0.86 1.23 1.40 1.51 1.75 1.41 0.90 0.58 0.58 0.39 0.29 0.16 0.03 0.00 0.00 0.00 0.00 0.00 0.00 0.00 0.01 0.00 0.00 0.00 0.00 0.00 0.00 0.00 0.00 0.00 0.00 0.00 0.00 0.02 0.01 0.00 0.01 0.00 0.00 0.00 0.00 0.00 0.00 0.00 0.00
0.24 0.37 0.68 0.92 1.08 1.17 1.32 1.32 1.26 1.00 0.61 0.28 0.17 0.04 0.01 0.00 0.00 0.00 0.00 0.00 0.00 0.00 0.01 0.00 0.00 0.00 0.00 0.00 0.01 0.01 0.01 0.00 0.00 0.00 0.00 0.01 0.01 0.02 0.01 0.00 0.00 0.00 0.00 0.00 0.00 0.00 0.00
0.15 0.15 0.25 0.42 0.56 0.63 0.61 0.53 0.60 0.55 0.50 0.17 0.07 0.01 0.00 0.00 0.00 0.00 0.00 0.00 0.00 0.00 0.00 0.00 0.00 0.00 0.00 0.00 0.01 0.01 0.01 0.01 0.00 0.00 0.00 0.00 0.01 0.00 0.01 0.00 0.00 0.00 0.00 0.00 0.00 0.00 0.00
0.15 0.11 0.16 0.34 0.50 0.58 0.55 0.43 0.34 0.23 0.20 0.09 0.03 0.00 0.00 0.00 0.00 0.00 0.00 0.00 0.00 0.00 0.00 0.00 0.00 0.00 0.00 0.01 0.02 0.01 0.01 0.00 0.00 0.00 0.00 0.00 0.00 0.01 0.00 0.01 0.00 0.00 0.00 0.00 0.00 0.00 0.00
0.56 0.52 0.65 0.76 0.91 0.93 0.74 0.56 0.43 0.28 0.18 0.05 0.01 0.00 0.00 0.00 0.00 0.00 0.00 0.00 0.00 0.00 0.00 0.00 0.00 0.00 0.00 0.01 0.00 0.01 0.00 0.00 0.00 0.00 0.00 0.00 0.00 0.00 0.01 0.02 0.00 0.00 0.00 0.00 0.00 0.00 0.00
0.47 0.74 1.10 1.29 1.29 1.31 1.03 0.67 0.45 0.34 0.15 0.02 0.00 0.00 0.00 0.00 0.00 0.00 0.00 0.00 0.00 0.00 0.00 0.00 0.00 0.00 0.00 0.00 0.00 0.00 0.00 0.00 0.00 0.00 0.00 0.00 0.00 0.01 0.00 0.00 0.00 0.00 0.00 0.00 0.00 0.00 0.00

GFSGBSN_prec_precacc12_087.txt.gz
Total_Precipitation_Accumulation
0.04 0.05 0.05 0.05 0.08 0.09 0.09 0.11 0.13 0.11 0.08 0.08 0.10 0.14 0.11 0.06 0.06 0.05 0.03 0.02 0.02 0.02 0.03 0.04 0.05 0.06 0.00 0.00 0.00 0.00 0.00 0.00 0.00 0.01 0.02 0.23 0.23 0.23 0.26 0.08 0.12 0.32 0.31 0.24 0.30 0.37 0.21
0.04 0.04 0.04 0.05 0.08 0.09 0.10 0.14 0.10 0.07 0.12 0.13 0.16 0.16 0.14 0.11 0.06 0.04 0.03 0.02 0.01 0.02 0.02 0.03 0.05 0.07 0.00 0.00 0.00 0.00 0.00 0.00 0.00 0.01 0.02 0.17 0.37 0.31 0.25 0.16 0.12 0.19 0.28 0.25 0.33 0.41 0.42
0.04 0.04 0.03 0.05 0.07 0.09 0.09 0.08 0.08 0.13 0.16 0.17 0.15 0.12 0.09 0.09 0.09 0.06 0.03 0.01 0.01 0.01 0.02 0.01 0.03 0.07 0.00 0.00 0.00 0.00 0.00 0.00 0.00 0.00 0.01 0.06 0.37 0.56 0.46 0.20 0.12 0.25 0.31 0.40 0.47 0.54 0.52
0.02 0.03 0.04 0.05 0.07 0.07 0.04 0.07 0.14 0.15 0.15 0.19 0.16 0.08 0.07 0.11 0.10 0.07 0.03 0.01 0.01 0.00 0.00 0.01 0.03 0.03 0.01 0.00 0.00 0.00 0.00 0.00 0.00 0.00 0.00 0.01 0.20 0.30 0.68 0.35 0.26 0.29 0.54 0.42 0.55 0.85 0.47
0.01 0.02 0.03 0.05 0.06 0.06 0.06 0.12 0.13 0.14 0.16 0.20 0.14 0.09 0.13 0.13 0.11 0.06 0.01 0.00 0.00 0.00 0.01 0.02 0.02 0.01 0.00 0.01 0.02 0.01 0.01 0.00 0.00 0.00 0.00 0.01 0.11 0.36 0.59 0.46 0.25 0.22 0.51 0.39 0.41 0.73 0.80
0.01 0.02 0.03 0.04 0.06 0.07 0.10 0.13 0.16 0.18 0.19 0.16 0.13 0.12 0.13 0.16 0.09 0.02 0.01 0.00 0.00 0.00 0.01 0.01 0.01 0.01 0.01 0.05 0.02 0.01 0.00 0.00 0.02 0.04 0.03 0.04 0.08 0.41 0.60 0.46 0.23 0.06 0.23 0.34 0.31 0.55 0.94
0.00 0.01 0.03 0.04 0.05 0.08 0.12 0.13 0.14 0.16 0.17 0.17 0.14 0.15 0.14 0.12 0.05 0.03 0.01 0.01 0.00 0.00 0.00 0.00 0.00 0.00 0.02 0.00 0.00 0.00 0.00 0.01 0.03 0.05 0.04 0.03 0.06 0.29 0.56 0.33 0.15 0.03 0.04 0.37 0.34 0.37 0.70
0.00 0.01 0.02 0.04 0.03 0.05 0.09 0.10 0.13 0.20 0.23 0.18 0.12 0.13 0.17 0.24 0.11 0.03 0.02 0.00 0.00 0.00 0.00 0.00 0.00 0.00 0.00 0.00 0.00 0.00 0.01 0.06 0.07 0.05 0.02 0.02 0.03 0.05 0.31 0.34 0.17 0.05 0.03 0.18 0.41 0.30 0.49
0.00 0.01 0.02 0.03 0.02 0.03 0.07 0.09 0.12 0.18 0.18 0.17 0.16 0.23 0.27 0.22 0.09 0.03 0.00 0.00 0.00 0.00 0.00 0.00 0.00 0.00 0.00 0.00 0.01 0.06 0.16 0.23 0.11 0.02 0.01 0.01 0.09 0.06 0.20 0.35 0.17 0.04 0.02 0.05 0.13 0.28 0.32
0.00 0.01 0.02 0.02 0.02 0.03 0.03 0.09 0.15 0.19 0.21 0.20 0.19 0.24 0.22 0.15 0.03 0.00 0.00 0.00 0.00 0.00 0.00 0.00 0.00 0.00 0.00 0.00 0.03 0.07 0.09 0.13 0.06 0.03 0.03 0.05 0.22 0.05 0.21 0.21 0.18 0.06 0.02 0.02 0.10 0.29 0.34
0.00 0.00 0.01 0.02 0.01 0.02 0.03 0.09 0.13 0.15 0.13 0.13 0.17 0.20 0.17 0.09 0.03 0.02 0.01 0.00 0.00 0.00 0.01 0.00 0.00 0.00 0.00 0.00 0.01 0.08 0.15 0.24 0.12 0.03 0.05 0.22 0.19 0.04 0.21 0.16 0.18 0.03 0.00 0.01 0.04 0.21 0.17
0.01 0.02 0.02 0.02 0.02 0.01 0.02 0.06 0.11 0.12 0.11 0.15 0.17 0.16 0.19 0.15 0.03 0.02 0.00 0.00 0.00 0.00 0.01 0.00 0.00 0.00 0.00 0.00 0.00 0.00 0.04 0.08 0.07 0.11 0.42 0.25 0.09 0.14 0.16 0.07 0.04 0.01 0.03 0.09 0.06 0.08 0.18
0.03 0.04 0.03 0.02 0.01 0.01 0.04 0.08 0.14 0.14 0.18 0.16 0.15 0.21 0.26 0.16 0.05 0.05 0.01 0.00 0.01 0.00 0.00 0.00 0.00 0.00 0.00 0.00 0.00 0.00 0.00 0.01 0.12 0.32 0.49 0.34 0.26 0.14 0.04 0.03 0.05 0.02 0.04 0.34 0.25 0.08 0.08
0.04 0.04 0.04 0.02 0.02 0.06 0.08 0.11 0.14 0.19 0.23 0.24 0.26 0.24 0.15 0.05 0.03 0.06 0.04 0.02 0.01 0.00 0.00 0.00 0.00 0.00 0.00 0.00 0.00 0.00 0.00 0.00 0.06 0.13 0.07 0.08 0.12 0.07 0.05 0.03 0.10 0.03 0.03 0.05 0.04 0.01 0.01
0.03 0.03 0.03 0.04 0.08 0.13 0.13 0.11 0.17 0.24 0.27 0.37 0.36 0.22 0.12 0.05 0.04 0.08 0.08 0.05 0.00 0.01 0.00 0.00 0.00 0.00 0.00 0.00 0.00 0.00 0.00 0.00 0.00 0.00 0.00 0.00 0.09 0.05 0.03 0.01 0.03 0.07 0.02 0.00 0.00 0.00 0.00
0.02 0.04 0.04 0.04 0.08 0.13 0.11 0.11 0.23 0.41 0.52 0.63 0.60 0.37 0.20 0.06 0.08 0.16 0.16 0.03 0.00 0.01 0.00 0.00 0.00 0.00 0.00 0.00 0.00 0.00 0.00 0.00 0.00 0.00 0.00 0.00 0.01 0.02 0.01 0.04 0.04 0.01 0.00 0.00 0.00 0.00 0.00
0.03 0.03 0.03 0.05 0.08 0.08 0.11 0.24 0.69 1.00 1.08 0.92 0.83 0.68 0.35 0.20 0.28 0.31 0.14 0.00 0.00 0.00 0.00 0.00 0.00 0.00 0.00 0.00 0.00 0.00 0.00 0.00 0.00 0.00 0.00 0.00 0.00 0.00 0.01 0.06 0.02 0.00 0.00 0.00 0.00 0.00 0.00
0.02 0.02 0.04 0.07 0.09 0.09 0.12 0.19 0.45 0.79 0.94 0.94 0.95 0.68 0.51 0.43 0.41 0.17 0.02 0.00 0.00 0.01 0.00 0.00 0.00 0.00 0.00 0.00 0.00 0.00 0.00 0.00 0.00 0.00 0.00 0.00 0.00 0.00 0.00 0.00 0.00 0.00 0.00 0.00 0.00 0.00 0.00
0.01 0.04 0.06 0.11 0.10 0.11 0.12 0.10 0.17 0.47 0.58 0.72 0.69 0.59 0.82 0.53 0.24 0.05 0.01 0.01 0.00 0.01 0.00 0.00 0.00 0.00 0.00 0.00 0.00 0.00 0.00 0.00 0.00 0.00 0.00 0.00 0.00 0.00 0.00 0.00 0.00 0.00 0.00 0.00 0.00 0.00 0.00
0.04 0.05 0.09 0.13 0.11 0.12 0.18 0.25 0.16 0.26 0.45 0.75 0.62 0.51 0.78 0.61 0.18 0.03 0.07 0.07 0.03 0.00 0.00 0.00 0.00 0.00 0.00 0.00 0.00 0.00 0.00 0.00 0.00 0.00 0.00 0.00 0.00 0.00 0.00 0.00 0.00 0.00 0.00 0.00 0.00 0.00 0.00
0.05 0.08 0.10 0.13 0.11 0.13 0.24 0.61 0.63 0.53 0.60 0.98 0.57 0.33 0.22 0.21 0.12 0.08 0.07 0.03 0.02 0.01 0.00 0.00 0.00 0.00 0.00 0.00 0.00 0.00 0.00 0.00 0.00 0.00 0.00 0.00 0.00 0.00 0.00 0.00 0.00 0.00 0.00 0.00 0.00 0.00 0.00
0.07 0.08 0.11 0.14 0.14 0.18 0.22 0.35 0.63 0.80 0.83 0.90 0.44 0.24 0.22 0.14 0.12 0.11 0.07 0.01 0.01 0.01 0.00 0.00 0.00 0.00 0.00 0.00 0.00 0.00 0.00 0.00 0.00 0.00 0.00 0.00 0.00 0.00 0.00 0.00 0.00 0.00 0.00 0.00 0.00 0.00 0.00
0.08 0.09 0.12 0.14 0.17 0.30 0.35 0.31 0.46 0.63 0.90 0.84 0.55 0.34 0.24 0.21 0.10 0.08 0.03 0.00 0.00 0.00 0.00 0.00 0.00 0.00 0.00 0.00 0.00 0.00 0.00 0.00 0.00 0.00 0.00 0.00 0.00 0.00 0.00 0.00 0.00 0.00 0.00 0.00 0.00 0.00 0.00
0.08 0.10 0.12 0.13 0.22 0.48 0.93 0.92 0.67 0.54 0.81 0.75 0.46 0.27 0.13 0.09 0.03 0.02 0.00 0.00 0.00 0.00 0.00 0.00 0.00 0.00 0.00 0.00 0.00 0.00 0.00 0.00 0.00 0.00 0.00 0.00 0.00 0.00 0.00 0.00 0.00 0.00 0.00 0.00 0.00 0.00 0.00
0.08 0.11 0.11 0.12 0.18 0.34 0.44 0.64 0.96 0.97 0.78 0.49 0.29 0.12 0.06 0.03 0.00 0.00 0.00 0.00 0.00 0.00 0.00 0.00 0.00 0.00 0.00 0.00 0.01 0.01 0.01 0.00 0.00 0.00 0.00 0.00 0.00 0.01 0.00 0.00 0.00 0.00 0.00 0.00 0.00 0.00 0.00
0.09 0.09 0.08 0.08 0.12 0.23 0.23 0.18 0.40 0.57 0.60 0.25 0.11 0.03 0.00 0.00 0.00 0.00 0.00 0.00 0.00 0.01 0.00 0.00 0.00 0.00 0.00 0.00 0.00 0.00 0.01 0.00 0.00 0.00 0.00 0.00 0.00 0.00 0.01 0.00 0.00 0.00 0.00 0.00 0.00 0.00 0.00
0.08 0.06 0.05 0.08 0.15 0.23 0.20 0.23 0.27 0.44 0.30 0.11 0.04 0.00 0.00 0.00 0.00 0.00 0.00 0.00 0.00 0.01 0.00 0.00 0.00 0.00 0.00 0.00 0.00 0.00 0.00 0.00 0.00 0.00 0.00 0.00 0.00 0.00 0.00 0.00 0.00 0.00 0.00 0.00 0.00 0.00 0.00
0.06 0.04 0.04 0.10 0.28 0.37 0.32 0.36 0.42 0.31 0.20 0.06 0.02 0.00 0.00 0.00 0.00 0.00 0.00 0.00 0.00 0.00 0.00 0.00 0.00 0.00 0.00 0.01 0.00 0.00 0.00 0.00 0.00 0.00 0.00 0.00 0.00 0.00 0.00 0.00 0.00 0.00 0.00 0.00 0.00 0.00 0.00
0.05 0.04 0.05 0.12 0.21 0.48 0.55 0.47 0.47 0.27 0.12 0.02 0.01 0.00 0.00 0.00 0.00 0.00 0.00 0.00 0.00 0.00 0.00 0.00 0.00 0.00 0.00 0.00 0.00 0.00 0.00 0.00 0.00 0.00 0.00 0.00 0.00 0.00 0.00 0.00 0.00 0.00 0.00 0.00 0.00 0.00 0.00

GFSGBSN_prec_precacc12_090.txt.gz
Total_Precipitation_Accumulation
0.02 0.02 0.03 0.04 0.05 0.06 0.06 0.09 0.14 0.12 0.09 0.09 0.10 0.15 0.16 0.17 0.22 0.11 0.02 0.02 0.01 0.02 0.03 0.04 0.04 0.07 0.00 0.00 0.00 0.00 0.00 0.00 0.00 0.00 0.01 0.04 0.15 0.13 0.17 0.05 0.10 0.09 0.20 0.20 0.25 0.36 0.22
0.01 0.01 0.01 0.02 0.03 0.05 0.05 0.09 0.09 0.08 0.13 0.14 0.17 0.17 0.15 0.15 0.13 0.08 0.03 0.02 0.01 0.02 0.02 0.03 0.04 0.07 0.00 0.00 0.00 0.00 0.00 0.00 0.00 0.00 0.01 0.08 0.22 0.20 0.17 0.13 0.10 0.07 0.20 0.21 0.23 0.37 0.40
0.01 0.01 0.01 0.01 0.03 0.04 0.03 0.04 0.05 0.13 0.17 0.18 0.15 0.12 0.09 0.09 0.10 0.08 0.05 0.03 0.01 0.01 0.01 0.01 0.02 0.07 0.01 0.00 0.00 0.00 0.00 0.00 0.00 0.00 0.00 0.06 0.32 0.47 0.38 0.18 0.09 0.16 0.29 0.40 0.28 0.34 0.51
0.00 0.01 0.01 0.02 0.03 0.03 0.02 0.03 0.05 0.13 0.15 0.20 0.17 0.09 0.07 0.11 0.11 0.11 0.05 0.02 0.01 0.00 0.01 0.00 0.03 0.04 0.01 0.00 0.00 0.00 0.00 0.00 0.01 0.00 0.00 0.01 0.18 0.26 0.55 0.35 0.24 0.23 0.49 0.42 0.43 0.40 0.42
0.00 0.01 0.01 0.03 0.04 0.03 0.03 0.06 0.08 0.12 0.14 0.21 0.15 0.10 0.13 0.13 0.15 0.11 0.02 0.01 0.01 0.01 0.01 0.02 0.02 0.01 0.00 0.00 0.00 0.00 0.01 0.00 0.00 0.00 0.00 0.01 0.14 0.37 0.51 0.55 0.29 0.28 0.48 0.32 0.33 0.40 0.49
0.00 0.01 0.02 0.04 0.05 0.03 0.04 0.05 0.10 0.11 0.15 0.15 0.13 0.12 0.13 0.16 0.14 0.07 0.02 0.02 0.01 0.01 0.02 0.03 0.01 0.01 0.00 0.01 0.00 0.00 0.00 0.00 0.00 0.02 0.03 0.04 0.11 0.41 0.42 0.29 0.23 0.08 0.28 0.39 0.21 0.34 0.51
0.00 0.01 0.03 0.04 0.04 0.04 0.05 0.04 0.04 0.09 0.12 0.14 0.14 0.15 0.14 0.16 0.20 0.06 0.02 0.02 0.01 0.01 0.00 0.00 0.00 0.00 0.00 0.00 0.00 0.00 0.00 0.00 0.01 0.04 0.04 0.05 0.08 0.32 0.47 0.27 0.15 0.03 0.05 0.39 0.31 0.24 0.39
0.01 0.01 0.03 0.04 0.04 0.05 0.04 0.04 0.04 0.07 0.14 0.14 0.11 0.13 0.17 0.30 0.36 0.18 0.07 0.01 0.00 0.00 0.00 0.00 0.00 0.00 0.00 0.00 0.00 0.00 0.00 0.03 0.05 0.04 0.02 0.03 0.02 0.06 0.36 0.37 0.18 0.05 0.04 0.18 0.41 0.24 0.29
0.00 0.01 0.02 0.03 0.03 0.04 0.03 0.02 0.03 0.04 0.10 0.12 0.14 0.23 0.27 0.22 0.16 0.08 0.06 0.04 0.00 0.00 0.00 0.00 0.00 0.00 0.00 0.00 0.01 0.05 0.08 0.09 0.04 0.01 0.01 0.03 0.01 0.07 0.17 0.31 0.17 0.04 0.02 0.02 0.08 0.24 0.25
0.00 0.01 0.01 0.02 0.02 0.02 0.01 0.01 0.03 0.04 0.07 0.12 0.16 0.24 0.23 0.16 0.05 0.00 0.00 0.00 0.00 0.00 0.00 0.00 0.00 0.00 0.00 0.00 0.03 0.06 0.03 0.05 0.02 0.01 0.02 0.03 0.06 0.04 0.20 0.15 0.18 0.07 0.01 0.01 0.04 0.15 0.30
0.00 0.00 0.02 0.02 0.01 0.02 0.01 0.02 0.05 0.03 0.04 0.05 0.13 0.20 0.18 0.10 0.05 0.03 0.03 0.01 0.00 0.00 0.01 0.00 0.00 0.00 0.00 0.00 0.01 0.09 0.13 0.16 0.07 0.02 0.02 0.10 0.09 0.02 0.18 0.11 0.20 0.04 0.00 0.01 0.04 0.16 0.16
0.01 0.01 0.02 0.01 0.02 0.02 0.02 0.05 0.04 0.03 0.03 0.06 0.13 0.16 0.20 0.15 0.04 0.13 0.09 0.02 0.01 0.01 0.01 0.00 0.00 0.00 0.00 0.00 0.00 0.00 0.04 0.10 0.08 0.11 0.32 0.20 0.12 0.17 0.25 0.16 0.08 0.02 0.03 0.05 0.04 0.08 0.18
0.01 0.02 0.01 0.02 0.02 0.02 0.05 0.06 0.04 0.02 0.06 0.09 0.15 0.22 0.27 0.17 0.05 0.15 0.15 0.04 0.04 0.01 0.00 0.00 0.00 0.00 0.00 0.00 0.00 0.00 0.00 0.02 0.18 0.33 0.50 0.47 0.37 0.23 0.12 0.08 0.05 0.01 0.03 0.24 0.20 0.07 0.09
0.03 0.03 0.02 0.02 0.02 0.05 0.08 0.07 0.04 0.06 0.09 0.17 0.29 0.29 0.18 0.05 0.03 0.12 0.20 0.12 0.03 0.00 0.00 0.00 0.00 0.00 0.00 0.00 0.00 0.00 0.00 0.11 0.21 0.22 0.20 0.22 0.19 0.12 0.06 0.04 0.11 0.02 0.03 0.05 0.04 0.01 0.02
0.08 0.04 0.02 0.03 0.03 0.07 0.11 0.06 0.06 0.07 0.13 0.31 0.40 0.28 0.18 0.06 0.05 0.13 0.26 0.12 0.01 0.01 0.00 0.00 0.00 0.00 0.00 0.00 0.00 0.00 0.00 0.00 0.00 0.00 0.01 0.00 0.13 0.07 0.05 0.02 0.03 0.07 0.02 0.00 0.00 0.00 0.00
0.09 0.06 0.04 0.03 0.04 0.10 0.10 0.07 0.10 0.25 0.41 0.60 0.63 0.49 0.34 0.09 0.09 0.25 0.31 0.05 0.00 0.01 0.00 0.00 0.00 0.00 0.00 0.00 0.00 0.00 0.00 0.00 0.00 0.00 0.00 0.00 0.04 0.03 0.01 0.04 0.04 0.01 0.00 0.00 0.00 0.00 0.00
0.10 0.07 0.03 0.04 0.08 0.09 0.10 0.11 0.13 0.44 0.87 0.84 0.79 0.83 0.58 0.25 0.33 0.46 0.21 0.02 0.00 0.01 0.01 0.00 0.00 0.00 0.00 0.00 0.00 0.00 0.00 0.00 0.00 0.00 0.00 0.00 0.00 0.01 0.02 0.07 0.02 0.00 0.00 0.00 0.00 0.00 0.00
0.12 0.04 0.04 0.07 0.09 0.10 0.12 0.12 0.12 0.24 0.61 0.72 0.90 0.79 0.98 0.62 0.50 0.29 0.04 0.00 0.01 0.05 0.00 0.00 0.00 0.00 0.00 0.00 0.00 0.00 0.00 0.00 0.00 0.00 0.00 0.00 0.00 0.00 0.00 0.00 0.00 0.00 0.00 0.00 0.00 0.00 0.00
0.06 0.04 0.06 0.11 0.10 0.11 0.13 0.12 0.11 0.19 0.44 0.58 0.59 0.66 1.07 0.68 0.29 0.09 0.03 0.01 0.04 0.05 0.02 0.00 0.00 0.00 0.00 0.00 0.00 0.00 0.00 0.00 0.00 0.00 0.00 0.00 0.00 0.00 0.00 0.00 0.00 0.00 0.00 0.00 0.00 0.00 0.00
0.04 0.05 0.09 0.12 0.11 0.14 0.14 0.12 0.10 0.15 0.34 0.61 0.50 0.54 0.92 0.75 0.21 0.04 0.09 0.13 0.11 0.03 0.01 0.00 0.00 0.00 0.00 0.00 0.00 0.00 0.00 0.00 0.00 0.00 0.00 0.00 0.00 0.00 0.00 0.00 0.00 0.00 0.00 0.00 0.00 0.00 0.00
0.04 0.07 0.09 0.12 0.12 0.12 0.14 0.10 0.12 0.20 0.47 0.83 0.48 0.34 0.30 0.25 0.15 0.09 0.09 0.10 0.07 0.02 0.01 0.00 0.01 0.00 0.00 0.00 0.00 0.00 0.00 0.00 0.00 0.00 0.00 0.00 0.00 0.00 0.00 0.00 0.00 0.00 0.00 0.00 0.00 0.00 0.00
0.04 0.06 0.09 0.14 0.14 0.13 0.10 0.09 0.15 0.34 0.60 0.67 0.34 0.23 0.24 0.15 0.12 0.13 0.11 0.07 0.03 0.01 0.01 0.00 0.01 0.00 0.00 0.00 0.00 0.00 0.00 0.00 0.00 0.00 0.00 0.00 0.00 0.00 0.00 0.00 0.00 0.00 0.00 0.00 0.00 0.00 0.00
0.05 0.07 0.11 0.15 0.14 0.12 0.13 0.15 0.22 0.35 0.64 0.63 0.46 0.36 0.28 0.26 0.14 0.12 0.06 0.02 0.00 0.01 0.00 0.00 0.00 0.00 0.00 0.00 0.00 0.00 0.00 0.00 0.00 0.00 0.00 0.00 0.00 0.00 0.00 0.00 0.00 0.00 0.00 0.00 0.00 0.00 0.00
0.06 0.08 0.11 0.11 0.10 0.11 0.18 0.22 0.32 0.39 0.57 0.55 0.38 0.30 0.14 0.09 0.04 0.02 0.00 0.00 0.00 0.01 0.00 0.00 0.00 0.00 0.00 0.00 0.00 0.00 0.00 0.00 0.00 0.00 0.00 0.00 0.00 0.00 0.00 0.00 0.00 0.00 0.00 0.00 0.00 0.00 0.00
0.06 0.09 0.09 0.09 0.08 0.12 0.16 0.15 0.26 0.61 0.50 0.37 0.28 0.13 0.07 0.04 0.01 0.00 0.00 0.00 0.00 0.01 0.00 0.00 0.00 0.00 0.00 0.00 0.00 0.00 0.01 0.00 0.00 0.00 0.00 0.00 0.00 0.00 0.00 0.00 0.00 0.00 0.00 0.00 0.00 0.00 0.00
0.07 0.07 0.06 0.07 0.09 0.15 0.18 0.12 0.15 0.33 0.43 0.21 0.11 0.03 0.00 0.00 0.00 0.00 0.00 0.00 0.01 0.02 0.00 0.00 0.00 0.00 0.00 0.00 0.00 0.00 0.01 0.00 0.00 0.00 0.00 0.00 0.00 0.00 0.00 0.00 0.00 0.00 0.00 0.00 0.00 0.00 0.00
0.05 0.04 0.05 0.06 0.06 0.10 0.10 0.19 0.21 0.35 0.21 0.09 0.04 0.00 0.00 0.00 0.00 0.00 0.00 0.00 0.00 0.02 0.00 0.00 0.00 0.00 0.00 0.00 0.00 0.00 0.00 0.00 0.00 0.00 0.00 0.00 0.00 0.00 0.00 0.00 0.00 0.00 0.00 0.00 0.00 0.00 0.00
0.04 0.03 0.03 0.04 0.05 0.05 0.06 0.17 0.24 0.21 0.14 0.06 0.02 0.00 0.00 0.00 0.00 0.00 0.00 0.00 0.00 0.00 0.00 0.00 0.01 0.01 0.00 0.02 0.00 0.00 0.00 0.00 0.00 0.00 0.00 0.00 0.00 0.00 0.00 0.00 0.00 0.00 0.00 0.00 0.00 0.00 0.00
0.03 0.03 0.04 0.04 0.03 0.03 0.04 0.15 0.22 0.15 0.06 0.02 0.00 0.00 0.00 0.00 0.00 0.00 0.00 0.00 0.00 0.00 0.00 0.00 0.00 0.00 0.00 0.00 0.00 0.00 0.00 0.00 0.00 0.00 0.00 0.00 0.00 0.00 0.00 0.00 0.00 0.00 0.00 0.00 0.00 0.00 0.00

GFSGBSN_prec_precacc12_093.txt.gz
Total_Precipitation_Accumulation
0.01 0.01 0.02 0.02 0.03 0.03 0.02 0.03 0.04 0.04 0.06 0.08 0.11 0.16 0.16 0.17 0.24 0.22 0.18 0.11 0.02 0.01 0.01 0.03 0.04 0.06 0.00 0.00 0.00 0.00 0.00 0.00 0.00 0.00 0.00 0.02 0.02 0.04 0.04 0.02 0.07 0.08 0.12 0.07 0.08 0.30 0.19
0.01 0.01 0.02 0.01 0.03 0.04 0.02 0.03 0.03 0.02 0.03 0.09 0.17 0.18 0.16 0.15 0.13 0.10 0.12 0.13 0.04 0.02 0.01 0.01 0.03 0.07 0.00 0.00 0.00 0.00 0.00 0.00 0.00 0.00 0.00 0.01 0.03 0.10 0.08 0.06 0.09 0.07 0.05 0.10 0.08 0.27 0.33
0.01 0.01 0.01 0.01 0.03 0.04 0.02 0.03 0.02 0.01 0.04 0.11 0.15 0.12 0.10 0.09 0.10 0.08 0.08 0.10 0.04 0.03 0.02 0.00 0.02 0.06 0.01 0.00 0.00 0.00 0.00 0.00 0.00 0.00 0.00 0.01 0.08 0.40 0.26 0.12 0.05 0.12 0.16 0.14 0.15 0.21 0.45
0.01 0.01 0.02 0.02 0.03 0.03 0.02 0.03 0.02 0.02 0.04 0.11 0.09 0.06 0.07 0.11 0.11 0.11 0.08 0.06 0.03 0.01 0.00 0.00 0.02 0.04 0.01 0.00 0.00 0.00 0.00 0.00 0.01 0.00 0.00 0.00 0.06 0.19 0.42 0.30 0.17 0.17 0.26 0.18 0.21 0.23 0.31
0.00 0.01 0.01 0.03 0.04 0.04 0.03 0.04 0.02 0.02 0.03 0.04 0.04 0.05 0.10 0.13 0.15 0.12 0.06 0.06 0.08 0.03 0.02 0.02 0.03 0.01 0.00 0.00 0.00 0.00 0.01 0.00 0.00 0.00 0.01 0.01 0.15 0.28 0.36 0.52 0.31 0.27 0.17 0.09 0.25 0.26 0.21
0.00 0.01 0.02 0.04 0.05 0.04 0.06 0.05 0.03 0.04 0.04 0.03 0.02 0.04 0.07 0.14 0.14 0.16 0.17 0.06 0.06 0.04 0.03 0.04 0.02 0.01 0.00 0.00 0.00 0.00 0.00 0.00 0.00 0.01 0.02 0.05 0.13 0.38 0.41 0.31 0.27 0.11 0.11 0.16 0.20 0.25 0.21
0.01 0.01 0.03 0.04 0.05 0.05 0.07 0.05 0.05 0.04 0.04 0.04 0.01 0.02 0.08 0.16 0.28 0.39 0.13 0.10 0.03 0.04 0.03 0.01 0.00 0.00 0.00 0.00 0.00 0.00 0.00 0.00 0.00 0.03 0.04 0.07 0.12 0.31 0.44 0.13 0.12 0.03 0.05 0.32 0.33 0.23 0.23
0.01 0.01 0.03 0.03 0.04 0.06 0.05 0.04 0.04 0.04 0.05 0.06 0.02 0.03 0.13 0.28 0.37 0.32 0.25 0.12 0.04 0.00 0.00 0.00 0.00 0.00 0.00 0.00 0.00 0.00 0.00 0.02 0.03 0.04 0.03 0.05 0.04 0.06 0.37 0.29 0.12 0.04 0.04 0.20 0.49 0.25 0.23
0.00 0.01 0.02 0.02 0.03 0.03 0.03 0.02 0.03 0.05 0.05 0.03 0.04 0.10 0.18 0.18 0.16 0.10 0.13 0.17 0.09 0.00 0.00 0.00 0.00 0.00 0.00 0.00 0.00 0.01 0.01 0.03 0.02 0.01 0.01 0.04 0.01 0.08 0.21 0.28 0.10 0.03 0.04 0.11 0.12 0.20 0.20
0.01 0.01 0.02 0.03 0.02 0.02 0.02 0.02 0.05 0.05 0.02 0.02 0.05 0.12 0.16 0.13 0.05 0.01 0.02 0.03 0.04 0.00 0.00 0.00 0.00 0.00 0.00 0.00 0.02 0.01 0.00 0.02 0.01 0.00 0.02 0.03 0.02 0.04 0.10 0.07 0.14 0.07 0.02 0.08 0.03 0.13 0.30
0.03 0.04 0.06 0.06 0.03 0.02 0.01 0.04 0.07 0.04 0.04 0.06 0.04 0.08 0.13 0.08 0.05 0.04 0.05 0.02 0.01 0.01 0.03 0.00 0.00 0.00 0.00 0.00 0.01 0.02 0.06 0.12 0.05 0.01 0.03 0.04 0.04 0.02 0.04 0.05 0.20 0.07 0.01 0.08 0.02 0.04 0.20
0.12 0.12 0.14 0.12 0.06 0.03 0.03 0.07 0.06 0.04 0.07 0.09 0.04 0.07 0.16 0.14 0.05 0.13 0.16 0.08 0.04 0.10 0.04 0.00 0.00 0.00 0.00 0.00 0.00 0.01 0.05 0.12 0.09 0.12 0.18 0.11 0.13 0.27 0.31 0.15 0.08 0.05 0.05 0.03 0.01 0.04 0.13
0.19 0.30 0.24 0.15 0.04 0.02 0.07 0.08 0.05 0.06 0.10 0.07 0.06 0.19 0.26 0.17 0.05 0.21 0.29 0.18 0.16 0.07 0.01 0.00 0.00 0.00 0.00 0.00 0.00 0.01 0.03 0.05 0.21 0.31 0.42 0.48 0.47 0.47 0.31 0.13 0.06 0.04 0.08 0.13 0.10 0.07 0.08
0.35 0.37 0.26 0.11 0.03 0.07 0.10 0.08 0.07 0.10 0.08 0.06 0.12 0.23 0.20 0.05 0.04 0.14 0.37 0.26 0.08 0.01 0.00 0.00 0.00 0.00 0.00 0.00 0.00 0.00 0.02 0.21 0.29 0.31 0.31 0.27 0.21 0.20 0.16 0.06 0.10 0.06 0.03 0.06 0.03 0.01 0.02
0.35 0.27 0.17 0.05 0.04 0.09 0.12 0.08 0.09 0.10 0.09 0.20 0.27 0.28 0.25 0.04 0.05 0.16 0.40 0.22 0.05 0.01 0.00 0.00 0.00 0.00 0.00 0.00 0.00 0.00 0.03 0.03 0.02 0.01 0.04 0.02 0.14 0.07 0.06 0.02 0.02 0.04 0.00 0.00 0.00 0.00 0.00
0.24 0.21 0.11 0.03 0.05 0.11 0.11 0.09 0.10 0.12 0.23 0.61 0.70 0.64 0.38 0.08 0.10 0.28 0.43 0.13 0.01 0.01 0.00 0.00 0.00 0.00 0.00 0.00 0.00 0.00 0.01 0.00 0.00 0.00 0.00 0.00 0.05 0.04 0.01 0.05 0.04 0.01 0.00 0.00 0.00 0.00 0.00
0.16 0.18 0.05 0.04 0.08 0.10 0.12 0.13 0.12 0.11 0.22 0.47 0.60 0.76 0.63 0.25 0.35 0.50 0.28 0.06 0.01 0.01 0.01 0.00 0.00 0.00 0.00 0.00 0.00 0.00 0.00 0.00 0.00 0.00 0.00 0.00 0.00 0.01 0.02 0.07 0.02 0.00 0.00 0.00 0.00 0.00 0.00
0.15 0.06 0.03 0.05 0.09 0.11 0.14 0.14 0.10 0.10 0.21 0.21 0.47 0.65 1.01 0.65 0.54 0.35 0.08 0.01 0.02 0.06 0.00 0.00 0.00 0.00 0.00 0.00 0.00 0.00 0.00 0.00 0.00 0.00 0.00 0.00 0.00 0.00 0.00 0.00 0.00 0.00 0.00 0.00 0.00 0.00 0.00
0.06 0.01 0.03 0.08 0.09 0.12 0.15 0.12 0.09 0.12 0.22 0.27 0.32 0.53 0.98 0.65 0.29 0.11 0.04 0.02 0.05 0.07 0.02 0.00 0.01 0.00 0.00 0.00 0.00 0.00 0.00 0.00 0.00 0.00 0.00 0.00 0.00 0.00 0.00 0.00 0.00 0.00 0.00 0.00 0.00 0.00 0.00
0.02 0.01 0.04 0.08 0.09 0.14 0.14 0.10 0.08 0.11 0.15 0.33 0.24 0.38 0.74 0.64 0.20 0.05 0.09 0.14 0.14 0.04 0.02 0.00 0.00 0.00 0.00 0.00 0.00 0.00 0.00 0.00 0.00 0.00 0.00 0.00 0.00 0.00 0.00 0.00 0.00 0.00 0.00 0.00 0.00 0.00 0.00
0.01 0.02 0.04 0.09 0.11 0.11 0.12 0.08 0.08 0.09 0.23 0.49 0.23 0.22 0.24 0.21 0.13 0.09 0.10 0.12 0.09 0.06 0.02 0.00 0.01 0.00 0.00 0.00 0.00 0.00 0.00 0.00 0.00 0.00 0.00 0.00 0.00 0.00 0.00 0.00 0.00 0.00 0.00 0.00 0.00 0.00 0.00
0.01 0.02 0.05 0.12 0.13 0.10 0.07 0.07 0.06 0.10 0.19 0.22 0.14 0.10 0.12 0.11 0.12 0.13 0.12 0.08 0.05 0.03 0.01 0.01 0.02 0.00 0.00 0.00 0.00 0.00 0.00 0.00 0.00 0.00 0.00 0.00 0.00 0.00 0.00 0.00 0.00 0.00 0.00 0.00 0.00 0.00 0.00
0.01 0.03 0.08 0.12 0.11 0.09 0.08 0.09 0.09 0.08 0.20 0.27 0.20 0.12 0.17 0.23 0.14 0.13 0.07 0.02 0.01 0.01 0.01 0.00 0.01 0.01 0.00 0.00 0.00 0.00 0.00 0.00 0.00 0.00 0.00 0.00 0.00 0.00 0.00 0.00 0.00 0.00 0.00 0.00 0.00 0.00 0.00
0.02 0.05 0.08 0.08 0.07 0.07 0.08 0.10 0.06 0.07 0.27 0.38 0.19 0.14 0.11 0.09 0.04 0.02 0.00 0.00 0.00 0.01 0.01 0.00 0.00 0.01 0.00 0.00 0.00 0.00 0.00 0.00 0.00 0.00 0.00 0.00 0.00 0.00 0.00 0.00 0.00 0.00 0.00 0.00 0.00 0.00 0.00
0.03 0.06 0.06 0.06 0.05 0.07 0.10 0.07 0.06 0.10 0.21 0.23 0.13 0.09 0.06 0.04 0.01 0.00 0.00 0.00 0.00 0.01 0.00 0.00 0.00 0.00 0.00 0.00 0.00 0.00 0.00 0.00 0.00 0.00 0.00 0.00 0.00 0.00 0.00 0.00 0.00 0.00 0.00 0.00 0.00 0.00 0.00
0.03 0.04 0.04 0.04 0.06 0.10 0.11 0.06 0.08 0.14 0.12 0.09 0.04 0.02 0.00 0.00 0.00 0.00 0.00 0.00 0.01 0.03 0.01 0.00 0.00 0.00 0.00 0.00 0.00 0.00 0.00 0.00 0.00 0.00 0.00 0.00 0.00 0.00 0.00 0.00 0.00 0.00 0.00 0.00 0.00 0.00 0.00
0.02 0.02 0.02 0.03 0.04 0.08 0.04 0.05 0.09 0.29 0.11 0.02 0.01 0.00 0.00 0.00 0.00 0.00 0.00 0.00 0.00 0.03 0.00 0.00 0.00 0.00 0.00 0.00 0.00 0.00 0.00 0.00 0.00 0.00 0.00 0.00 0.00 0.00 0.00 0.00 0.00 0.00 0.00 0.00 0.00 0.00 0.00
0.02 0.02 0.02 0.02 0.03 0.02 0.03 0.04 0.07 0.11 0.04 0.01 0.01 0.00 0.00 0.00 0.00 0.00 0.00 0.00 0.00 0.00 0.00 0.00 0.01 0.01 0.00 0.02 0.00 0.00 0.00 0.00 0.00 0.00 0.00 0.00 0.00 0.00 0.00 0.00 0.00 0.00 0.00 0.00 0.00 0.00 0.00
0.02 0.02 0.02 0.02 0.01 0.01 0.02 0.01 0.11 0.05 0.00 0.01 0.00 0.00 0.00 0.00 0.00 0.00 0.00 0.00 0.00 0.00 0.00 0.00 0.01 0.00 0.00 0.01 0.00 0.00 0.00 0.00 0.00 0.00 0.00 0.00 0.00 0.00 0.00 0.00 0.00 0.00 0.00 0.00 0.00 0.00 0.00

GFSGBSN_prec_precacc12_096.txt.gz
Total_Precipitation_Accumulation
0.01 0.01 0.02 0.02 0.03 0.04 0.03 0.03 0.04 0.02 0.02 0.03 0.04 0.10 0.14 0.16 0.23 0.22 0.18 0.17 0.20 0.16 0.04 0.00 0.02 0.05 0.00 0.00 0.00 0.00 0.00 0.00 0.00 0.00 0.00 0.00 0.01 0.03 0.02 0.01 0.02 0.02 0.09 0.06 0.06 0.04 0.05
0.01 0.02 0.02 0.01 0.03 0.04 0.02 0.03 0.03 0.02 0.02 0.03 0.07 0.11 0.11 0.10 0.10 0.09 0.12 0.16 0.18 0.18 0.06 0.01 0.02 0.05 0.00 0.00 0.00 0.00 0.00 0.00 0.00 0.00 0.00 0.00 0.01 0.04 0.07 0.05 0.05 0.02 0.03 0.08 0.06 0.05 0.07
0.02 0.02 0.02 0.02 0.03 0.04 0.02 0.03 0.02 0.02 0.02 0.03 0.04 0.04 0.03 0.04 0.05 0.05 0.07 0.11 0.14 0.14 0.11 0.04 0.01 0.04 0.01 0.00 0.00 0.00 0.00 0.00 0.00 0.00 0.00 0.00 0.02 0.12 0.14 0.07 0.03 0.08 0.12 0.12 0.10 0.07 0.09
0.01 0.02 0.02 0.02 0.04 0.04 0.02 0.03 0.02 0.01 0.02 0.03 0.03 0.02 0.02 0.03 0.04 0.06 0.07 0.06 0.09 0.14 0.05 0.01 0.02 0.03 0.01 0.00 0.00 0.00 0.00 0.00 0.01 0.00 0.00 0.00 0.01 0.10 0.30 0.16 0.11 0.11 0.21 0.17 0.13 0.07 0.07
0.01 0.01 0.01 0.02 0.03 0.03 0.04 0.04 0.02 0.02 0.03 0.03 0.02 0.01 0.02 0.05 0.07 0.08 0.08 0.10 0.13 0.08 0.04 0.02 0.03 0.01 0.00 0.00 0.00 0.00 0.00 0.00 0.00 0.01 0.01 0.01 0.07 0.11 0.24 0.43 0.25 0.22 0.16 0.08 0.09 0.11 0.07
0.01 0.01 0.01 0.03 0.03 0.03 0.05 0.05 0.03 0.03 0.03 0.02 0.00 0.00 0.01 0.04 0.10 0.23 0.35 0.28 0.12 0.10 0.08 0.06 0.03 0.01 0.00 0.00 0.00 0.00 0.00 0.00 0.00 0.00 0.01 0.03 0.09 0.12 0.08 0.27 0.24 0.14 0.22 0.11 0.05 0.11 0.10
0.01 0.01 0.02 0.03 0.04 0.06 0.06 0.05 0.06 0.05 0.04 0.04 0.02 0.00 0.02 0.09 0.26 0.40 0.26 0.53 0.35 0.12 0.12 0.03 0.00 0.00 0.00 0.00 0.00 0.00 0.00 0.00 0.00 0.02 0.02 0.05 0.11 0.24 0.21 0.08 0.11 0.03 0.05 0.05 0.13 0.17 0.14
0.02 0.03 0.05 0.07 0.10 0.11 0.06 0.04 0.04 0.05 0.06 0.06 0.02 0.00 0.06 0.23 0.33 0.31 0.27 0.27 0.44 0.14 0.01 0.00 0.00 0.00 0.00 0.00 0.00 0.00 0.00 0.01 0.02 0.03 0.02 0.06 0.05 0.06 0.34 0.26 0.11 0.03 0.03 0.07 0.29 0.19 0.17
0.06 0.10 0.17 0.24 0.31 0.20 0.08 0.02 0.03 0.07 0.07 0.04 0.04 0.01 0.07 0.14 0.13 0.10 0.20 0.34 0.27 0.07 0.01 0.00 0.00 0.00 0.00 0.00 0.00 0.00 0.00 0.01 0.01 0.01 0.01 0.05 0.02 0.09 0.21 0.28 0.06 0.02 0.04 0.14 0.24 0.08 0.11
0.09 0.17 0.29 0.69 0.45 0.23 0.08 0.05 0.06 0.07 0.04 0.04 0.04 0.02 0.04 0.10 0.04 0.01 0.04 0.16 0.31 0.14 0.05 0.00 0.00 0.00 0.00 0.00 0.00 0.00 0.00 0.01 0.01 0.00 0.02 0.03 0.01 0.05 0.11 0.07 0.05 0.04 0.02 0.15 0.07 0.22 0.23
0.18 0.30 0.58 0.69 0.34 0.21 0.07 0.08 0.10 0.05 0.07 0.10 0.07 0.01 0.02 0.06 0.03 0.03 0.06 0.03 0.24 0.11 0.08 0.02 0.00 0.00 0.00 0.00 0.01 0.01 0.01 0.02 0.02 0.01 0.05 0.06 0.06 0.02 0.02 0.04 0.14 0.08 0.04 0.14 0.03 0.15 0.39
0.34 0.44 0.71 0.43 0.28 0.09 0.06 0.10 0.08 0.08 0.13 0.13 0.06 0.03 0.07 0.10 0.05 0.14 0.17 0.11 0.09 0.14 0.09 0.03 0.01 0.01 0.01 0.00 0.01 0.01 0.03 0.10 0.07 0.10 0.15 0.04 0.13 0.23 0.21 0.13 0.06 0.05 0.07 0.04 0.01 0.13 0.20
0.45 0.56 0.48 0.30 0.10 0.04 0.11 0.11 0.10 0.12 0.15 0.11 0.06 0.10 0.11 0.14 0.05 0.23 0.33 0.26 0.20 0.13 0.06 0.01 0.01 0.01 0.00 0.01 0.01 0.01 0.04 0.06 0.20 0.18 0.27 0.33 0.57 0.62 0.32 0.12 0.05 0.05 0.20 0.21 0.11 0.16 0.10
0.49 0.45 0.31 0.13 0.04 0.11 0.12 0.11 0.10 0.14 0.12 0.11 0.16 0.15 0.10 0.03 0.04 0.14 0.46 0.41 0.22 0.11 0.02 0.00 0.00 0.00 0.01 0.01 0.00 0.00 0.03 0.27 0.33 0.31 0.30 0.32 0.31 0.28 0.18 0.06 0.11 0.16 0.15 0.20 0.14 0.06 0.05
0.41 0.29 0.18 0.05 0.05 0.10 0.12 0.10 0.12 0.11 0.13 0.22 0.32 0.33 0.24 0.03 0.03 0.15 0.42 0.32 0.22 0.06 0.02 0.01 0.00 0.00 0.00 0.00 0.00 0.01 0.05 0.11 0.04 0.01 0.06 0.05 0.12 0.08 0.05 0.02 0.02 0.02 0.00 0.00 0.01 0.01 0.02
0.26 0.21 0.10 0.03 0.04 0.09 0.10 0.11 0.12 0.12 0.18 0.35 0.53 0.63 0.37 0.04 0.04 0.23 0.42 0.27 0.04 0.03 0.02 0.00 0.00 0.00 0.00 0.00 0.02 0.02 0.06 0.01 0.02 0.00 0.00 0.01 0.06 0.04 0.01 0.02 0.02 0.00 0.00 0.00 0.00 0.02 0.01
0.15 0.16 0.04 0.01 0.05 0.07 0.09 0.12 0.11 0.11 0.17 0.23 0.22 0.61 0.60 0.17 0.22 0.39 0.25 0.16 0.09 0.03 0.01 0.00 0.00 0.00 0.00 0.00 0.01 0.01 0.01 0.00 0.00 0.00 0.00 0.00 0.02 0.02 0.03 0.03 0.01 0.00 0.00 0.00 0.00 0.00 0.00
0.14 0.05 0.00 0.02 0.05 0.07 0.10 0.12 0.09 0.09 0.16 0.10 0.16 0.50 0.93 0.48 0.35 0.28 0.11 0.03 0.04 0.07 0.00 0.00 0.00 0.00 0.00 0.00 0.00 0.00 0.00 0.00 0.00 0.00 0.00 0.00 0.00 0.01 0.00 0.00 0.00 0.00 0.00 0.00 0.00 0.00 0.00
0.05 0.00 0.00 0.03 0.05 0.08 0.11 0.10 0.07 0.10 0.17 0.07 0.15 0.46 0.78 0.42 0.16 0.09 0.04 0.02 0.06 0.08 0.02 0.01 0.01 0.00 0.00 0.00 0.00 0.00 0.00 0.00 0.00 0.00 0.00 0.00 0.00 0.01 0.00 0.00 0.00 0.00 0.00 0.00 0.00 0.00 0.00
0.01 0.00 0.01 0.03 0.05 0.10 0.11 0.08 0.05 0.08 0.12 0.09 0.09 0.29 0.53 0.40 0.12 0.02 0.05 0.12 0.15 0.04 0.02 0.00 0.01 0.00 0.00 0.00 0.00 0.00 0.00 0.00 0.00 0.00 0.00 0.00 0.00 0.00 0.00 0.00 0.00 0.00 0.00 0.00 0.00 0.00 0.00
0.00 0.00 0.01 0.05 0.07 0.08 0.09 0.05 0.04 0.07 0.17 0.09 0.05 0.15 0.19 0.12 0.08 0.02 0.05 0.12 0.09 0.06 0.02 0.01 0.01 0.00 0.00 0.00 0.00 0.00 0.00 0.00 0.00 0.00 0.00 0.00 0.00 0.00 0.00 0.00 0.00 0.00 0.00 0.00 0.00 0.00 0.00
0.00 0.00 0.02 0.09 0.09 0.07 0.04 0.03 0.03 0.07 0.07 0.03 0.03 0.04 0.05 0.01 0.02 0.04 0.10 0.08 0.05 0.03 0.02 0.02 0.02 0.00 0.00 0.00 0.00 0.00 0.00 0.00 0.00 0.00 0.00 0.00 0.00 0.00 0.00 0.00 0.00 0.00 0.00 0.00 0.00 0.00 0.00
0.00 0.00 0.04 0.09 0.08 0.06 0.04 0.05 0.03 0.06 0.05 0.09 0.13 0.06 0.08 0.12 0.08 0.11 0.07 0.02 0.01 0.01 0.01 0.00 0.01 0.01 0.00 0.00 0.00 0.00 0.00 0.00 0.00 0.00 0.00 0.00 0.00 0.00 0.00 0.00 0.00 0.00 0.00 0.00 0.00 0.00 0.00
0.00 0.02 0.05 0.05 0.04 0.03 0.03 0.05 0.03 0.03 0.07 0.14 0.09 0.06 0.03 0.03 0.03 0.02 0.00 0.00 0.00 0.01 0.01 0.00 0.00 0.01 0.00 0.00 0.00 0.00 0.00 0.00 0.00 0.00 0.00 0.00 0.00 0.00 0.00 0.00 0.00 0.00 0.00 0.00 0.00 0.00 0.00
0.00 0.04 0.04 0.03 0.03 0.02 0.04 0.05 0.03 0.04 0.06 0.04 0.03 0.02 0.04 0.04 0.01 0.00 0.00 0.00 0.00 0.01 0.00 0.00 0.00 0.00 0.00 0.00 0.00 0.00 0.00 0.00 0.00 0.00 0.00 0.00 0.00 0.00 0.00 0.00 0.00 0.00 0.00 0.00 0.00 0.00 0.00
0.01 0.02 0.02 0.02 0.03 0.04 0.06 0.03 0.02 0.06 0.02 0.01 0.01 0.00 0.00 0.00 0.00 0.00 0.00 0.00 0.01 0.03 0.01 0.00 0.00 0.00 0.00 0.00 0.00 0.00 0.00 0.00 0.00 0.00 0.00 0.00 0.00 0.00 0.00 0.00 0.00 0.00 0.00 0.00 0.00 0.00 0.00
0.01 0.01 0.02 0.02 0.02 0.04 0.02 0.03 0.03 0.13 0.03 0.01 0.00 0.00 0.00 0.00 0.00 0.00 0.00 0.00 0.00 0.03 0.00 0.00 0.00 0.00 0.00 0.00 0.00 0.00 0.00 0.00 0.00 0.00 0.00 0.00 0.00 0.00 0.00 0.00 0.00 0.00 0.00 0.00 0.00 0.00 0.00
0.01 0.01 0.01 0.01 0.01 0.01 0.03 0.02 0.01 0.04 0.02 0.01 0.00 0.00 0.00 0.00 0.00 0.00 0.00 0.00 0.00 0.00 0.00 0.00 0.01 0.01 0.00 0.02 0.00 0.00 0.00 0.00 0.00 0.00 0.00 0.00 0.00 0.00 0.00 0.00 0.00 0.00 0.00 0.00 0.00 0.00 0.00
0.01 0.01 0.00 0.00 0.00 0.01 0.02 0.00 0.01 0.01 0.00 0.00 0.00 0.00 0.00 0.00 0.00 0.00 0.00 0.00 0.00 0.00 0.00 0.00 0.01 0.00 0.00 0.01 0.00 0.00 0.00 0.00 0.00 0.00 0.00 0.00 0.00 0.00 0.00 0.00 0.00 0.00 0.00 0.00 0.00 0.00 0.00

GFSGBSN_prec_precacc12_099.txt.gz
Total_Precipitation_Accumulation
0.03 0.02 0.03 0.03 0.03 0.03 0.03 0.03 0.03 0.01 0.02 0.03 0.03 0.04 0.07 0.12 0.20 0.19 0.16 0.16 0.20 0.26 0.37 0.25 0.05 0.01 0.00 0.00 0.00 0.00 0.00 0.00 0.00 0.00 0.00 0.00 0.00 0.01 0.01 0.01 0.01 0.01 0.00 0.00 0.01 0.02 0.05
0.03 0.03 0.03 0.03 0.03 0.04 0.03 0.03 0.03 0.02 0.02 0.03 0.03 0.03 0.02 0.05 0.08 0.07 0.09 0.15 0.17 0.20 0.26 0.27 0.08 0.03 0.00 0.00 0.00 0.00 0.00 0.00 0.00 0.00 0.00 0.00 0.00 0.01 0.03 0.02 0.03 0.01 0.01 0.01 0.03 0.02 0.04
0.03 0.03 0.04 0.03 0.03 0.04 0.03 0.03 0.03 0.02 0.02 0.03 0.02 0.02 0.01 0.01 0.02 0.02 0.05 0.10 0.14 0.14 0.20 0.17 0.15 0.06 0.02 0.00 0.00 0.00 0.00 0.00 0.00 0.00 0.00 0.00 0.00 0.01 0.02 0.03 0.02 0.04 0.06 0.04 0.03 0.04 0.04
0.02 0.03 0.03 0.02 0.03 0.03 0.02 0.03 0.03 0.02 0.02 0.02 0.02 0.01 0.01 0.01 0.02 0.04 0.05 0.05 0.09 0.17 0.16 0.12 0.13 0.07 0.02 0.00 0.00 0.00 0.00 0.00 0.01 0.00 0.00 0.00 0.00 0.03 0.04 0.09 0.05 0.07 0.09 0.12 0.09 0.03 0.05
0.05 0.05 0.04 0.04 0.05 0.04 0.07 0.08 0.05 0.03 0.03 0.03 0.01 0.00 0.00 0.01 0.04 0.07 0.08 0.13 0.18 0.13 0.09 0.12 0.18 0.08 0.00 0.00 0.00 0.00 0.00 0.00 0.00 0.01 0.01 0.01 0.06 0.06 0.11 0.29 0.18 0.16 0.05 0.02 0.07 0.06 0.06
0.06 0.07 0.08 0.12 0.19 0.24 0.30 0.22 0.10 0.04 0.03 0.03 0.01 0.00 0.00 0.01 0.06 0.22 0.35 0.41 0.38 0.14 0.14 0.11 0.06 0.02 0.00 0.00 0.00 0.00 0.00 0.00 0.00 0.00 0.02 0.03 0.07 0.07 0.06 0.16 0.14 0.12 0.20 0.10 0.05 0.09 0.11
0.07 0.10 0.14 0.20 0.35 0.59 0.50 0.32 0.16 0.05 0.05 0.04 0.02 0.00 0.00 0.04 0.24 0.39 0.27 0.58 0.66 0.21 0.20 0.09 0.04 0.00 0.00 0.00 0.00 0.00 0.00 0.00 0.00 0.01 0.02 0.05 0.08 0.08 0.04 0.03 0.03 0.02 0.03 0.05 0.11 0.15 0.14
0.10 0.14 0.21 0.36 0.54 0.65 0.41 0.30 0.11 0.09 0.07 0.07 0.03 0.00 0.00 0.07 0.27 0.30 0.29 0.37 0.79 0.43 0.10 0.11 0.08 0.01 0.00 0.00 0.00 0.00 0.00 0.01 0.02 0.02 0.02 0.07 0.05 0.03 0.16 0.14 0.07 0.04 0.05 0.07 0.27 0.15 0.09
0.11 0.17 0.36 0.48 0.77 0.46 0.34 0.14 0.11 0.10 0.07 0.05 0.05 0.03 0.02 0.01 0.07 0.09 0.21 0.50 0.58 0.38 0.13 0.06 0.07 0.00 0.00 0.00 0.00 0.00 0.00 0.01 0.02 0.01 0.01 0.04 0.02 0.07 0.16 0.17 0.06 0.02 0.05 0.14 0.24 0.06 0.05
0.15 0.27 0.45 0.79 0.55 0.37 0.18 0.10 0.12 0.10 0.06 0.07 0.05 0.03 0.03 0.00 0.01 0.01 0.05 0.18 0.41 0.34 0.13 0.03 0.04 0.01 0.00 0.00 0.00 0.00 0.00 0.01 0.01 0.00 0.01 0.02 0.01 0.04 0.11 0.07 0.04 0.04 0.03 0.16 0.08 0.32 0.24
0.25 0.36 0.63 0.72 0.38 0.24 0.09 0.14 0.14 0.08 0.08 0.11 0.08 0.02 0.05 0.03 0.03 0.03 0.06 0.03 0.35 0.23 0.16 0.07 0.01 0.00 0.00 0.00 0.01 0.01 0.00 0.01 0.01 0.01 0.06 0.07 0.06 0.02 0.03 0.04 0.06 0.09 0.05 0.15 0.05 0.33 0.54
0.38 0.46 0.71 0.43 0.29 0.10 0.08 0.12 0.10 0.11 0.16 0.17 0.08 0.06 0.06 0.01 0.03 0.12 0.17 0.11 0.16 0.22 0.20 0.08 0.01 0.02 0.01 0.01 0.03 0.02 0.02 0.05 0.03 0.08 0.04 0.02 0.10 0.20 0.19 0.11 0.05 0.04 0.08 0.06 0.02 0.18 0.32
0.48 0.56 0.47 0.29 0.10 0.05 0.11 0.12 0.12 0.17 0.19 0.13 0.08 0.13 0.10 0.02 0.01 0.18 0.32 0.26 0.21 0.22 0.16 0.04 0.02 0.01 0.00 0.01 0.02 0.01 0.04 0.05 0.11 0.13 0.16 0.25 0.45 0.51 0.31 0.11 0.02 0.05 0.26 0.34 0.18 0.25 0.14
0.50 0.44 0.30 0.12 0.04 0.10 0.10 0.09 0.12 0.19 0.16 0.14 0.18 0.16 0.11 0.02 0.02 0.08 0.42 0.40 0.31 0.22 0.07 0.01 0.00 0.01 0.03 0.01 0.01 0.01 0.05 0.28 0.28 0.21 0.27 0.42 0.31 0.25 0.16 0.06 0.08 0.16 0.21 0.37 0.31 0.18 0.11
0.40 0.29 0.17 0.04 0.04 0.07 0.07 0.08 0.14 0.17 0.17 0.21 0.26 0.27 0.21 0.03 0.02 0.08 0.35 0.34 0.42 0.13 0.04 0.01 0.00 0.01 0.01 0.01 0.00 0.02 0.08 0.17 0.06 0.01 0.07 0.14 0.10 0.05 0.04 0.01 0.02 0.02 0.04 0.04 0.08 0.10 0.09
0.25 0.19 0.09 0.02 0.03 0.05 0.05 0.08 0.12 0.16 0.17 0.23 0.31 0.47 0.30 0.04 0.02 0.13 0.32 0.38 0.15 0.08 0.03 0.00 0.00 0.00 0.01 0.00 0.04 0.10 0.11 0.04 0.05 0.00 0.00 0.04 0.07 0.02 0.01 0.01 0.01 0.00 0.00 0.00 0.02 0.10 0.15
0.14 0.16 0.03 0.01 0.03 0.03 0.05 0.08 0.09 0.09 0.11 0.10 0.11 0.36 0.42 0.08 0.08 0.21 0.20 0.21 0.11 0.03 0.01 0.00 0.00 0.00 0.00 0.00 0.02 0.02 0.01 0.00 0.00 0.00 0.00 0.06 0.05 0.02 0.01 0.01 0.00 0.00 0.00 0.00 0.00 0.00 0.04
0.14 0.05 0.00 0.01 0.02 0.03 0.05 0.08 0.06 0.07 0.08 0.04 0.11 0.33 0.63 0.27 0.16 0.19 0.10 0.03 0.05 0.06 0.00 0.00 0.00 0.00 0.00 0.00 0.00 0.00 0.00 0.00 0.00 0.00 0.00 0.00 0.01 0.01 0.00 0.00 0.00 0.00 0.00 0.00 0.00 0.00 0.00
0.05 0.00 0.00 0.01 0.01 0.03 0.06 0.06 0.04 0.06 0.09 0.03 0.10 0.38 0.44 0.23 0.09 0.07 0.04 0.01 0.05 0.07 0.02 0.01 0.01 0.00 0.00 0.00 0.00 0.00 0.00 0.00 0.00 0.00 0.00 0.00 0.00 0.01 0.00 0.00 0.00 0.00 0.00 0.00 0.00 0.00 0.00
0.01 0.00 0.00 0.00 0.02 0.05 0.06 0.04 0.03 0.04 0.05 0.01 0.02 0.20 0.26 0.18 0.04 0.02 0.03 0.07 0.12 0.03 0.02 0.00 0.01 0.00 0.00 0.00 0.00 0.00 0.00 0.00 0.00 0.00 0.00 0.00 0.00 0.00 0.00 0.00 0.00 0.00 0.00 0.00 0.00 0.00 0.00
0.00 0.00 0.00 0.01 0.03 0.04 0.05 0.03 0.02 0.03 0.05 0.00 0.00 0.07 0.12 0.08 0.03 0.01 0.02 0.09 0.08 0.05 0.02 0.01 0.01 0.00 0.00 0.00 0.00 0.00 0.00 0.00 0.00 0.00 0.00 0.00 0.00 0.00 0.00 0.00 0.00 0.00 0.00 0.00 0.00 0.00 0.00
0.00 0.00 0.00 0.03 0.04 0.03 0.02 0.02 0.01 0.02 0.02 0.00 0.01 0.02 0.02 0.01 0.01 0.02 0.05 0.07 0.05 0.02 0.02 0.02 0.02 0.00 0.00 0.00 0.00 0.00 0.00 0.00 0.00 0.00 0.00 0.00 0.00 0.00 0.00 0.00 0.00 0.00 0.00 0.00 0.00 0.00 0.00
0.00 0.00 0.00 0.03 0.02 0.02 0.01 0.03 0.01 0.02 0.01 0.01 0.03 0.04 0.04 0.05 0.04 0.05 0.04 0.02 0.01 0.01 0.01 0.00 0.01 0.01 0.00 0.00 0.00 0.00 0.00 0.00 0.00 0.00 0.00 0.00 0.00 0.00 0.00 0.00 0.00 0.00 0.00 0.00 0.00 0.00 0.00
0.00 0.00 0.01 0.01 0.01 0.01 0.01 0.04 0.02 0.02 0.03 0.03 0.02 0.03 0.02 0.00 0.01 0.01 0.00 0.00 0.00 0.01 0.01 0.00 0.00 0.01 0.00 0.00 0.00 0.00 0.00 0.00 0.00 0.00 0.00 0.00 0.00 0.00 0.00 0.00 0.00 0.00 0.00 0.00 0.00 0.00 0.00
0.00 0.01 0.01 0.00 0.01 0.01 0.03 0.03 0.02 0.03 0.03 0.02 0.01 0.01 0.01 0.01 0.00 0.00 0.00 0.00 0.00 0.00 0.00 0.00 0.00 0.00 0.00 0.00 0.00 0.00 0.00 0.00 0.00 0.00 0.00 0.00 0.00 0.00 0.00 0.00 0.00 0.00 0.00 0.00 0.00 0.00 0.00
0.00 0.01 0.01 0.01 0.01 0.02 0.02 0.01 0.02 0.02 0.01 0.00 0.00 0.00 0.00 0.00 0.00 0.00 0.00 0.00 0.00 0.02 0.01 0.00 0.00 0.00 0.00 0.00 0.00 0.00 0.00 0.00 0.00 0.00 0.00 0.00 0.00 0.00 0.00 0.00 0.00 0.00 0.00 0.00 0.00 0.00 0.00
0.00 0.01 0.01 0.00 0.00 0.02 0.00 0.00 0.01 0.01 0.00 0.00 0.00 0.00 0.00 0.00 0.00 0.00 0.00 0.00 0.00 0.02 0.00 0.00 0.00 0.00 0.00 0.00 0.00 0.00 0.00 0.00 0.00 0.00 0.00 0.00 0.00 0.00 0.00 0.00 0.00 0.00 0.00 0.00 0.00 0.00 0.00
0.00 0.00 0.00 0.00 0.00 0.01 0.01 0.00 0.00 0.00 0.00 0.00 0.00 0.00 0.00 0.00 0.00 0.00 0.00 0.00 0.00 0.00 0.00 0.00 0.01 0.00 0.00 0.01 0.00 0.00 0.00 0.00 0.00 0.00 0.00 0.00 0.00 0.00 0.00 0.00 0.00 0.00 0.00 0.00 0.00 0.00 0.00
0.00 0.00 0.00 0.00 0.00 0.01 0.01 0.00 0.00 0.00 0.00 0.00 0.00 0.00 0.00 0.00 0.00 0.00 0.00 0.00 0.00 0.00 0.00 0.00 0.01 0.00 0.00 0.01 0.00 0.00 0.00 0.00 0.00 0.00 0.00 0.00 0.00 0.00 0.00 0.00 0.00 0.00 0.00 0.00 0.00 0.00 0.00

GFSGBSN_prec_precacc12_105.txt.gz
Total_Precipitation_Accumulation
0.08 0.09 0.09 0.12 0.14 0.17 0.24 0.29 0.25 0.24 0.19 0.14 0.10 0.04 0.02 0.01 0.01 0.01 0.00 0.07 0.18 0.26 0.37 0.51 0.61 0.55 0.22 0.09 0.02 0.00 0.00 0.00 0.00 0.00 0.00 0.00 0.00 0.00 0.00 0.00 0.00 0.00 0.00 0.00 0.00 0.00 0.00
0.10 0.09 0.09 0.14 0.17 0.20 0.24 0.25 0.28 0.31 0.36 0.31 0.16 0.05 0.02 0.01 0.01 0.01 0.00 0.03 0.14 0.20 0.26 0.34 0.66 0.46 0.28 0.20 0.07 0.01 0.00 0.00 0.00 0.00 0.00 0.00 0.00 0.00 0.00 0.00 0.00 0.00 0.00 0.00 0.00 0.00 0.00
0.09 0.09 0.12 0.15 0.16 0.18 0.21 0.26 0.34 0.63 0.84 0.63 0.34 0.10 0.01 0.01 0.01 0.00 0.00 0.01 0.10 0.12 0.20 0.24 0.43 0.25 0.24 0.24 0.04 0.05 0.01 0.00 0.00 0.00 0.00 0.00 0.00 0.00 0.00 0.00 0.00 0.00 0.00 0.00 0.00 0.00 0.00
0.08 0.10 0.12 0.14 0.15 0.19 0.24 0.36 0.85 0.95 0.70 0.50 0.31 0.14 0.02 0.02 0.01 0.00 0.00 0.00 0.07 0.16 0.17 0.22 0.28 0.17 0.18 0.09 0.09 0.10 0.02 0.00 0.00 0.00 0.00 0.00 0.00 0.00 0.00 0.00 0.00 0.01 0.01 0.01 0.00 0.00 0.00
0.09 0.11 0.11 0.12 0.16 0.23 0.41 0.79 0.83 0.52 0.47 0.30 0.18 0.07 0.03 0.02 0.01 0.01 0.03 0.07 0.12 0.14 0.20 0.29 0.29 0.15 0.16 0.08 0.05 0.03 0.00 0.00 0.00 0.00 0.00 0.00 0.01 0.01 0.01 0.03 0.03 0.02 0.01 0.00 0.00 0.00 0.00
0.10 0.11 0.12 0.15 0.22 0.36 0.63 0.65 0.53 0.33 0.17 0.10 0.06 0.02 0.01 0.01 0.01 0.08 0.19 0.34 0.48 0.35 0.32 0.25 0.17 0.17 0.08 0.05 0.06 0.01 0.00 0.00 0.00 0.00 0.01 0.01 0.01 0.01 0.01 0.03 0.03 0.05 0.14 0.04 0.01 0.00 0.01
0.11 0.12 0.15 0.21 0.35 0.61 0.56 0.49 0.38 0.16 0.10 0.05 0.04 0.02 0.01 0.03 0.01 0.03 0.15 0.51 0.94 0.61 0.42 0.30 0.17 0.07 0.02 0.01 0.00 0.00 0.00 0.00 0.00 0.00 0.00 0.01 0.02 0.01 0.00 0.00 0.00 0.01 0.02 0.01 0.01 0.02 0.04
0.11 0.14 0.20 0.36 0.53 0.64 0.45 0.38 0.20 0.16 0.10 0.06 0.04 0.02 0.02 0.03 0.01 0.00 0.06 0.29 1.08 0.83 0.38 0.26 0.30 0.07 0.03 0.00 0.00 0.00 0.00 0.00 0.00 0.00 0.00 0.03 0.03 0.00 0.01 0.01 0.03 0.03 0.05 0.01 0.10 0.04 0.04
0.11 0.17 0.35 0.47 0.75 0.46 0.37 0.18 0.16 0.11 0.06 0.04 0.03 0.03 0.04 0.01 0.00 0.01 0.09 0.39 0.62 0.61 0.28 0.30 0.42 0.13 0.02 0.01 0.00 0.00 0.00 0.00 0.01 0.01 0.01 0.01 0.00 0.00 0.01 0.01 0.03 0.02 0.03 0.05 0.17 0.04 0.03
0.15 0.26 0.43 0.77 0.53 0.37 0.21 0.16 0.16 0.10 0.07 0.06 0.03 0.02 0.03 0.00 0.00 0.00 0.05 0.18 0.46 0.51 0.33 0.50 0.54 0.22 0.03 0.01 0.01 0.00 0.00 0.02 0.02 0.01 0.01 0.01 0.00 0.02 0.02 0.01 0.03 0.03 0.01 0.10 0.07 0.31 0.22
0.22 0.31 0.58 0.67 0.35 0.24 0.12 0.18 0.15 0.10 0.07 0.06 0.05 0.01 0.04 0.02 0.00 0.00 0.03 0.05 0.50 0.37 0.42 0.51 0.33 0.14 0.05 0.01 0.02 0.01 0.00 0.02 0.02 0.01 0.04 0.04 0.04 0.03 0.03 0.02 0.04 0.04 0.04 0.07 0.04 0.34 0.52
0.27 0.34 0.58 0.32 0.24 0.09 0.09 0.13 0.12 0.13 0.15 0.09 0.05 0.04 0.04 0.00 0.01 0.01 0.01 0.08 0.22 0.18 0.34 0.22 0.14 0.07 0.02 0.02 0.05 0.03 0.01 0.01 0.01 0.01 0.01 0.00 0.02 0.01 0.00 0.00 0.00 0.01 0.04 0.03 0.02 0.22 0.45
0.29 0.27 0.24 0.16 0.07 0.04 0.09 0.13 0.15 0.15 0.12 0.08 0.04 0.05 0.06 0.01 0.00 0.02 0.04 0.09 0.07 0.20 0.21 0.06 0.05 0.01 0.00 0.03 0.04 0.01 0.02 0.01 0.03 0.07 0.05 0.08 0.22 0.17 0.03 0.01 0.00 0.01 0.21 0.33 0.21 0.37 0.25
0.16 0.09 0.05 0.03 0.03 0.07 0.07 0.10 0.12 0.12 0.09 0.08 0.08 0.06 0.03 0.01 0.01 0.00 0.09 0.16 0.34 0.32 0.10 0.04 0.00 0.01 0.03 0.02 0.01 0.01 0.08 0.10 0.06 0.03 0.08 0.25 0.20 0.11 0.05 0.02 0.05 0.12 0.27 0.55 0.42 0.38 0.29
0.07 0.03 0.01 0.01 0.02 0.03 0.05 0.08 0.10 0.12 0.12 0.13 0.14 0.11 0.03 0.01 0.01 0.01 0.03 0.21 0.46 0.17 0.06 0.01 0.02 0.03 0.02 0.01 0.03 0.04 0.14 0.23 0.05 0.01 0.05 0.20 0.06 0.02 0.01 0.00 0.02 0.06 0.16 0.16 0.24 0.31 0.26
0.02 0.01 0.00 0.00 0.01 0.02 0.02 0.04 0.05 0.10 0.12 0.11 0.10 0.06 0.03 0.00 0.00 0.01 0.05 0.30 0.16 0.09 0.03 0.00 0.00 0.00 0.01 0.00 0.07 0.13 0.15 0.08 0.05 0.00 0.05 0.06 0.05 0.00 0.00 0.01 0.00 0.01 0.07 0.10 0.09 0.17 0.32
0.00 0.00 0.00 0.00 0.01 0.01 0.01 0.02 0.01 0.03 0.04 0.01 0.01 0.04 0.04 0.00 0.00 0.00 0.05 0.16 0.10 0.02 0.00 0.00 0.00 0.00 0.00 0.01 0.02 0.02 0.01 0.00 0.00 0.00 0.01 0.07 0.05 0.01 0.01 0.00 0.00 0.00 0.05 0.05 0.02 0.02 0.11
0.00 0.00 0.00 0.00 0.00 0.00 0.01 0.00 0.00 0.01 0.01 0.00 0.00 0.02 0.02 0.01 0.01 0.01 0.04 0.03 0.03 0.01 0.00 0.00 0.00 0.00 0.00 0.00 0.00 0.00 0.00 0.00 0.00 0.00 0.00 0.00 0.01 0.01 0.00 0.00 0.00 0.00 0.00 0.01 0.01 0.00 0.00
0.00 0.00 0.00 0.00 0.00 0.00 0.00 0.00 0.00 0.00 0.01 0.00 0.00 0.01 0.01 0.00 0.01 0.00 0.01 0.00 0.00 0.00 0.00 0.00 0.00 0.00 0.00 0.00 0.00 0.00 0.00 0.00 0.00 0.00 0.00 0.00 0.00 0.01 0.00 0.00 0.00 0.00 0.00 0.00 0.00 0.00 0.00
0.00 0.00 0.00 0.00 0.00 0.00 0.00 0.00 0.00 0.00 0.00 0.00 0.00 0.01 0.00 0.00 0.00 0.00 0.00 0.00 0.00 0.00 0.00 0.00 0.00 0.00 0.00 0.00 0.00 0.00 0.00 0.00 0.00 0.00 0.00 0.00 0.00 0.00 0.00 0.00 0.00 0.00 0.00 0.00 0.00 0.00 0.00
0.00 0.00 0.00 0.00 0.00 0.00 0.00 0.01 0.00 0.00 0.00 0.00 0.00 0.00 0.00 0.00 0.00 0.00 0.00 0.00 0.00 0.00 0.00 0.00 0.00 0.00 0.00 0.00 0.00 0.00 0.00 0.00 0.00 0.00 0.00 0.00 0.00 0.00 0.00 0.00 0.00 0.00 0.00 0.00 0.00 0.00 0.00
0.00 0.00 0.00 0.00 0.00 0.00 0.01 0.01 0.00 0.00 0.00 0.00 0.00 0.00 0.00 0.00 0.00 0.00 0.00 0.00 0.00 0.00 0.00 0.00 0.00 0.00 0.00 0.00 0.00 0.00 0.00 0.00 0.00 0.00 0.00 0.00 0.00 0.00 0.00 0.00 0.00 0.00 0.00 0.00 0.00 0.00 0.00
0.00 0.00 0.00 0.00 0.00 0.00 0.01 0.02 0.01 0.00 0.00 0.00 0.00 0.00 0.00 0.00 0.00 0.00 0.00 0.00 0.00 0.00 0.00 0.00 0.00 0.00 0.00 0.00 0.00 0.00 0.00 0.00 0.00 0.00 0.00 0.00 0.00 0.00 0.00 0.00 0.00 0.00 0.00 0.00 0.00 0.00 0.00
0.00 0.00 0.00 0.00 0.00 0.00 0.01 0.01 0.01 0.00 0.00 0.00 0.00 0.00 0.00 0.00 0.00 0.00 0.00 0.00 0.00 0.00 0.00 0.00 0.00 0.00 0.00 0.00 0.00 0.00 0.00 0.00 0.00 0.00 0.00 0.00 0.00 0.00 0.00 0.00 0.00 0.00 0.00 0.00 0.00 0.00 0.00
0.00 0.00 0.00 0.00 0.00 0.00 0.01 0.01 0.01 0.00 0.00 0.00 0.00 0.00 0.00 0.00 0.00 0.00 0.00 0.00 0.00 0.00 0.00 0.00 0.00 0.00 0.00 0.00 0.00 0.00 0.00 0.00 0.00 0.00 0.00 0.00 0.00 0.00 0.00 0.00 0.00 0.00 0.00 0.00 0.00 0.00 0.00
0.00 0.00 0.00 0.00 0.00 0.00 0.00 0.00 0.01 0.00 0.00 0.00 0.00 0.00 0.00 0.00 0.00 0.00 0.00 0.00 0.00 0.00 0.00 0.00 0.00 0.00 0.00 0.00 0.00 0.00 0.00 0.00 0.00 0.00 0.00 0.00 0.00 0.00 0.00 0.00 0.00 0.00 0.00 0.00 0.00 0.00 0.00
0.00 0.00 0.00 0.00 0.00 0.00 0.00 0.00 0.00 0.00 0.00 0.00 0.00 0.00 0.00 0.00 0.00 0.00 0.00 0.00 0.00 0.00 0.00 0.00 0.00 0.00 0.00 0.00 0.00 0.00 0.00 0.00 0.00 0.00 0.00 0.00 0.00 0.00 0.00 0.00 0.00 0.00 0.00 0.00 0.00 0.00 0.00
0.00 0.00 0.00 0.00 0.00 0.00 0.00 0.00 0.00 0.00 0.00 0.00 0.00 0.00 0.00 0.00 0.00 0.00 0.00 0.00 0.00 0.00 0.00 0.00 0.00 0.00 0.00 0.00 0.00 0.00 0.00 0.00 0.00 0.00 0.00 0.00 0.00 0.00 0.00 0.00 0.00 0.00 0.00 0.00 0.00 0.00 0.00
0.00 0.00 0.00 0.00 0.00 0.01 0.01 0.00 0.00 0.00 0.00 0.00 0.00 0.00 0.00 0.00 0.00 0.00 0.00 0.00 0.00 0.00 0.00 0.00 0.00 0.00 0.00 0.00 0.00 0.00 0.00 0.00 0.00 0.00 0.00 0.00 0.00 0.00 0.00 0.00 0.00 0.00 0.00 0.00 0.00 0.00 0.00

GFSGBSN_prec_precacc12_108.txt.gz
Total_Precipitation_Accumulation
0.10 0.09 0.08 0.12 0.13 0.17 0.23 0.30 0.26 0.27 0.31 0.38 0.50 0.54 0.18 0.02 0.01 0.01 0.00 0.00 0.01 0.11 0.33 0.51 0.62 0.62 0.30 0.34 0.22 0.00 0.00 0.03 0.01 0.00 0.00 0.00 0.00 0.00 0.00 0.00 0.00 0.00 0.00 0.00 0.00 0.00 0.00
0.09 0.09 0.09 0.14 0.17 0.19 0.24 0.26 0.30 0.40 0.68 1.19 0.94 0.55 0.12 0.00 0.01 0.01 0.00 0.00 0.00 0.03 0.20 0.34 0.69 0.50 0.32 0.37 0.22 0.12 0.05 0.02 0.00 0.00 0.00 0.00 0.00 0.00 0.00 0.00 0.00 0.00 0.00 0.00 0.00 0.00 0.00
0.08 0.08 0.11 0.15 0.16 0.18 0.21 0.27 0.36 0.78 1.32 1.22 0.81 0.47 0.05 0.01 0.01 0.00 0.00 0.00 0.00 0.01 0.10 0.20 0.57 0.31 0.28 0.31 0.13 0.27 0.12 0.01 0.00 0.00 0.00 0.00 0.00 0.00 0.00 0.00 0.00 0.00 0.00 0.00 0.00 0.00 0.00
0.07 0.09 0.12 0.14 0.15 0.19 0.24 0.37 0.86 1.00 0.81 0.66 0.49 0.26 0.03 0.02 0.01 0.00 0.00 0.00 0.00 0.03 0.12 0.22 0.34 0.27 0.37 0.19 0.15 0.22 0.11 0.01 0.00 0.00 0.00 0.00 0.00 0.00 0.00 0.00 0.00 0.00 0.00 0.00 0.00 0.00 0.00
0.08 0.10 0.11 0.13 0.15 0.23 0.40 0.78 0.83 0.54 0.49 0.33 0.20 0.08 0.03 0.02 0.01 0.00 0.00 0.03 0.07 0.11 0.20 0.31 0.32 0.16 0.22 0.12 0.07 0.07 0.04 0.00 0.00 0.00 0.00 0.00 0.00 0.01 0.00 0.01 0.00 0.00 0.00 0.00 0.00 0.00 0.00
0.10 0.11 0.11 0.15 0.22 0.35 0.63 0.64 0.53 0.34 0.17 0.10 0.07 0.02 0.01 0.01 0.01 0.00 0.00 0.13 0.42 0.30 0.30 0.25 0.18 0.19 0.10 0.08 0.09 0.03 0.00 0.00 0.00 0.00 0.01 0.01 0.01 0.01 0.00 0.00 0.00 0.00 0.02 0.00 0.01 0.00 0.01
0.10 0.11 0.14 0.20 0.34 0.59 0.54 0.49 0.38 0.16 0.09 0.04 0.03 0.02 0.01 0.03 0.01 0.00 0.01 0.08 0.63 0.55 0.36 0.29 0.19 0.09 0.02 0.01 0.01 0.01 0.00 0.00 0.00 0.00 0.00 0.01 0.01 0.00 0.00 0.00 0.00 0.00 0.00 0.01 0.00 0.00 0.02
0.09 0.12 0.18 0.31 0.47 0.59 0.42 0.38 0.19 0.15 0.09 0.05 0.03 0.03 0.02 0.03 0.01 0.00 0.02 0.14 0.68 0.73 0.46 0.26 0.30 0.07 0.03 0.00 0.00 0.00 0.00 0.00 0.00 0.00 0.00 0.01 0.01 0.00 0.00 0.00 0.01 0.02 0.04 0.01 0.00 0.00 0.01
0.05 0.08 0.20 0.25 0.47 0.29 0.32 0.18 0.14 0.09 0.05 0.03 0.02 0.03 0.04 0.01 0.00 0.00 0.02 0.21 0.45 0.57 0.31 0.32 0.44 0.15 0.02 0.02 0.01 0.00 0.00 0.00 0.01 0.00 0.00 0.00 0.00 0.00 0.00 0.01 0.02 0.02 0.03 0.00 0.01 0.02 0.01
0.07 0.10 0.17 0.12 0.12 0.17 0.16 0.14 0.13 0.07 0.06 0.05 0.01 0.01 0.02 0.00 0.00 0.00 0.02 0.05 0.19 0.37 0.30 0.62 0.63 0.31 0.04 0.01 0.01 0.00 0.00 0.02 0.02 0.01 0.01 0.00 0.00 0.01 0.01 0.01 0.02 0.03 0.01 0.02 0.03 0.16 0.12
0.07 0.06 0.06 0.04 0.06 0.07 0.07 0.14 0.11 0.08 0.04 0.01 0.01 0.01 0.04 0.02 0.00 0.00 0.01 0.04 0.27 0.28 0.41 0.60 0.41 0.18 0.07 0.04 0.03 0.01 0.00 0.02 0.03 0.01 0.03 0.01 0.02 0.02 0.03 0.01 0.02 0.02 0.01 0.01 0.03 0.21 0.25
0.04 0.02 0.01 0.01 0.03 0.05 0.07 0.10 0.10 0.09 0.08 0.05 0.03 0.03 0.02 0.00 0.00 0.00 0.00 0.08 0.19 0.15 0.35 0.28 0.21 0.13 0.08 0.04 0.05 0.02 0.01 0.01 0.01 0.01 0.00 0.00 0.01 0.00 0.00 0.00 0.00 0.00 0.01 0.02 0.01 0.11 0.32
0.03 0.00 0.00 0.01 0.02 0.04 0.07 0.09 0.11 0.10 0.07 0.04 0.03 0.03 0.02 0.00 0.00 0.00 0.00 0.02 0.02 0.15 0.20 0.11 0.12 0.04 0.02 0.05 0.04 0.01 0.01 0.01 0.01 0.05 0.03 0.03 0.03 0.01 0.00 0.00 0.00 0.00 0.09 0.20 0.15 0.27 0.22
0.01 0.00 0.00 0.01 0.02 0.03 0.06 0.08 0.09 0.08 0.05 0.03 0.03 0.01 0.00 0.00 0.00 0.00 0.00 0.02 0.22 0.26 0.10 0.05 0.00 0.01 0.03 0.01 0.02 0.01 0.07 0.06 0.03 0.03 0.09 0.18 0.08 0.02 0.01 0.01 0.01 0.02 0.18 0.46 0.33 0.34 0.29
0.00 0.00 0.00 0.00 0.01 0.02 0.04 0.06 0.07 0.09 0.07 0.04 0.02 0.01 0.00 0.00 0.00 0.00 0.00 0.10 0.30 0.13 0.05 0.01 0.02 0.03 0.02 0.04 0.05 0.05 0.15 0.17 0.03 0.01 0.05 0.18 0.04 0.00 0.00 0.00 0.01 0.05 0.18 0.19 0.29 0.34 0.31
0.00 0.00 0.00 0.00 0.01 0.01 0.02 0.03 0.03 0.07 0.04 0.01 0.00 0.00 0.00 0.00 0.00 0.00 0.01 0.15 0.13 0.07 0.01 0.00 0.00 0.00 0.00 0.01 0.06 0.12 0.11 0.08 0.04 0.01 0.05 0.06 0.04 0.00 0.00 0.00 0.00 0.02 0.09 0.16 0.15 0.19 0.35
0.00 0.00 0.00 0.00 0.00 0.00 0.01 0.01 0.01 0.01 0.00 0.00 0.00 0.00 0.00 0.00 0.00 0.00 0.02 0.05 0.02 0.00 0.00 0.00 0.00 0.00 0.00 0.01 0.01 0.01 0.01 0.00 0.00 0.00 0.01 0.07 0.03 0.00 0.00 0.00 0.00 0.00 0.07 0.10 0.11 0.11 0.18
0.00 0.00 0.00 0.00 0.00 0.00 0.00 0.01 0.00 0.00 0.00 0.00 0.00 0.00 0.00 0.00 0.00 0.00 0.00 0.01 0.00 0.00 0.00 0.00 0.00 0.00 0.00 0.00 0.00 0.00 0.00 0.00 0.00 0.00 0.00 0.00 0.00 0.00 0.00 0.00 0.00 0.00 0.00 0.03 0.08 0.08 0.04
0.00 0.00 0.00 0.00 0.00 0.00 0.00 0.00 0.00 0.00 0.00 0.00 0.00 0.00 0.00 0.00 0.00 0.00 0.00 0.00 0.00 0.00 0.00 0.00 0.00 0.00 0.00 0.00 0.00 0.00 0.00 0.00 0.00 0.00 0.00 0.00 0.00 0.00 0.00 0.00 0.00 0.00 0.00 0.00 0.00 0.01 0.00
0.00 0.00 0.00 0.00 0.00 0.00 0.00 0.00 0.00 0.00 0.00 0.00 0.00 0.00 0.00 0.00 0.00 0.00 0.00 0.00 0.00 0.00 0.00 0.00 0.00 0.00 0.00 0.00 0.00 0.00 0.00 0.00 0.00 0.00 0.00 0.00 0.00 0.00 0.00 0.00 0.00 0.00 0.00 0.00 0.00 0.00 0.00
0.00 0.00 0.00 0.00 0.00 0.00 0.00 0.01 0.00 0.00 0.00 0.00 0.00 0.00 0.00 0.00 0.00 0.00 0.00 0.00 0.00 0.00 0.00 0.00 0.00 0.00 0.00 0.00 0.00 0.00 0.00 0.00 0.00 0.00 0.00 0.00 0.00 0.00 0.00 0.00 0.00 0.00 0.00 0.00 0.00 0.00 0.00
0.00 0.00 0.00 0.00 0.00 0.00 0.01 0.01 0.01 0.00 0.00 0.00 0.00 0.00 0.00 0.00 0.00 0.00 0.00 0.00 0.00 0.00 0.00 0.00 0.00 0.00 0.00 0.00 0.00 0.00 0.00 0.00 0.00 0.00 0.00 0.00 0.00 0.00 0.00 0.00 0.00 0.00 0.00 0.00 0.00 0.00 0.00
0.00 0.00 0.00 0.00 0.00 0.00 0.01 0.01 0.01 0.00 0.00 0.00 0.00 0.00 0.00 0.00 0.00 0.00 0.00 0.00 0.00 0.00 0.00 0.00 0.00 0.00 0.00 0.00 0.00 0.00 0.00 0.00 0.00 0.00 0.00 0.00 0.00 0.00 0.00 0.00 0.00 0.00 0.00 0.00 0.00 0.00 0.00
0.00 0.00 0.00 0.00 0.00 0.00 0.01 0.01 0.01 0.00 0.00 0.00 0.00 0.00 0.00 0.00 0.00 0.00 0.00 0.00 0.00 0.00 0.00 0.00 0.00 0.00 0.00 0.00 0.00 0.00 0.00 0.00 0.00 0.00 0.00 0.00 0.00 0.00 0.00 0.00 0.00 0.00 0.00 0.00 0.00 0.00 0.00
0.01 0.00 0.00 0.00 0.00 0.00 0.00 0.00 0.00 0.00 0.00 0.00 0.00 0.00 0.00 0.00 0.00 0.00 0.00 0.00 0.00 0.00 0.00 0.00 0.00 0.00 0.00 0.00 0.00 0.00 0.00 0.00 0.00 0.00 0.00 0.00 0.00 0.00 0.00 0.00 0.00 0.00 0.00 0.00 0.00 0.00 0.00
0.01 0.00 0.00 0.00 0.00 0.00 0.00 0.00 0.00 0.00 0.00 0.00 0.00 0.00 0.00 0.00 0.00 0.00 0.00 0.00 0.00 0.00 0.00 0.00 0.00 0.00 0.00 0.00 0.00 0.00 0.00 0.00 0.00 0.00 0.00 0.00 0.00 0.00 0.00 0.00 0.00 0.00 0.00 0.00 0.00 0.00 0.00
0.01 0.00 0.00 0.00 0.00 0.00 0.00 0.00 0.00 0.00 0.00 0.00 0.00 0.00 0.00 0.00 0.00 0.00 0.00 0.00 0.00 0.00 0.00 0.00 0.00 0.00 0.00 0.00 0.00 0.00 0.00 0.00 0.00 0.00 0.00 0.00 0.00 0.00 0.00 0.00 0.00 0.00 0.00 0.00 0.00 0.00 0.00
0.00 0.00 0.00 0.00 0.00 0.00 0.00 0.00 0.00 0.00 0.00 0.00 0.00 0.00 0.00 0.00 0.00 0.00 0.00 0.00 0.00 0.00 0.00 0.00 0.00 0.00 0.00 0.00 0.00 0.00 0.00 0.00 0.00 0.00 0.00 0.00 0.00 0.00 0.00 0.00 0.00 0.00 0.00 0.00 0.00 0.00 0.00
0.00 0.00 0.00 0.00 0.00 0.00 0.00 0.00 0.00 0.00 0.00 0.00 0.00 0.00 0.00 0.00 0.00 0.00 0.00 0.00 0.00 0.00 0.00 0.00 0.00 0.00 0.00 0.00 0.00 0.00 0.00 0.00 0.00 0.00 0.00 0.00 0.00 0.00 0.00 0.00 0.00 0.00 0.00 0.00 0.00 0.00 0.00

GFSGBSN_prec_precacc12_114.txt.gz
Total_Precipitation_Accumulation
0.06 0.06 0.08 0.12 0.15 0.19 0.25 0.29 0.27 0.33 0.48 0.82 1.08 1.47 0.95 0.32 0.04 0.01 0.00 0.00 0.00 0.00 0.00 0.00 0.09 0.36 0.39 0.44 0.38 0.06 0.05 0.14 0.04 0.00 0.00 0.00 0.00 0.00 0.00 0.00 0.00 0.00 0.00 0.00 0.00 0.00 0.00
0.04 0.05 0.06 0.10 0.15 0.16 0.21 0.25 0.28 0.42 0.77 1.59 1.38 0.91 0.31 0.03 0.01 0.01 0.00 0.00 0.00 0.00 0.00 0.01 0.35 0.27 0.32 0.52 0.42 0.23 0.15 0.12 0.01 0.00 0.00 0.00 0.00 0.00 0.00 0.00 0.00 0.00 0.00 0.00 0.00 0.00 0.00
0.03 0.04 0.05 0.07 0.07 0.06 0.07 0.12 0.28 0.70 1.26 1.22 0.87 0.54 0.09 0.01 0.00 0.00 0.00 0.00 0.00 0.00 0.00 0.01 0.39 0.15 0.29 0.44 0.33 0.42 0.36 0.24 0.01 0.00 0.00 0.00 0.00 0.00 0.00 0.00 0.00 0.00 0.00 0.00 0.00 0.00 0.00
0.02 0.02 0.03 0.04 0.04 0.04 0.05 0.09 0.45 0.69 0.62 0.61 0.47 0.26 0.03 0.00 0.00 0.00 0.00 0.00 0.00 0.00 0.00 0.09 0.30 0.18 0.57 0.42 0.39 0.41 0.21 0.03 0.00 0.00 0.00 0.00 0.00 0.00 0.00 0.00 0.00 0.00 0.00 0.00 0.00 0.00 0.00
0.00 0.01 0.02 0.04 0.04 0.04 0.05 0.09 0.21 0.25 0.30 0.25 0.16 0.08 0.02 0.00 0.00 0.00 0.02 0.04 0.04 0.07 0.25 0.29 0.26 0.27 0.86 0.73 0.47 0.15 0.08 0.03 0.00 0.00 0.00 0.00 0.00 0.00 0.00 0.00 0.00 0.00 0.00 0.00 0.00 0.00 0.00
0.00 0.01 0.02 0.03 0.05 0.05 0.04 0.04 0.08 0.09 0.07 0.06 0.04 0.01 0.00 0.00 0.00 0.00 0.00 0.01 0.03 0.15 0.30 0.28 0.26 0.31 0.44 0.47 0.23 0.04 0.00 0.00 0.00 0.00 0.00 0.00 0.00 0.00 0.00 0.00 0.00 0.00 0.00 0.00 0.00 0.00 0.00
0.00 0.00 0.01 0.03 0.05 0.05 0.04 0.03 0.04 0.04 0.04 0.03 0.01 0.00 0.00 0.00 0.00 0.00 0.00 0.00 0.06 0.18 0.20 0.12 0.12 0.09 0.09 0.07 0.03 0.02 0.00 0.00 0.00 0.00 0.00 0.00 0.00 0.00 0.00 0.00 0.00 0.00 0.00 0.00 0.00 0.00 0.00
0.00 0.00 0.01 0.02 0.05 0.06 0.04 0.03 0.03 0.03 0.03 0.02 0.01 0.01 0.01 0.00 0.00 0.00 0.00 0.00 0.09 0.20 0.27 0.06 0.03 0.05 0.04 0.01 0.01 0.00 0.00 0.00 0.00 0.00 0.00 0.00 0.00 0.00 0.00 0.00 0.00 0.00 0.00 0.00 0.00 0.00 0.00
0.00 0.00 0.01 0.01 0.04 0.06 0.05 0.03 0.02 0.02 0.02 0.01 0.00 0.01 0.00 0.00 0.00 0.00 0.00 0.01 0.05 0.11 0.11 0.18 0.21 0.16 0.04 0.03 0.01 0.00 0.00 0.00 0.00 0.00 0.00 0.00 0.00 0.00 0.00 0.00 0.00 0.00 0.00 0.00 0.00 0.00 0.00
0.00 0.00 0.01 0.01 0.03 0.05 0.05 0.06 0.04 0.02 0.02 0.00 0.00 0.00 0.00 0.00 0.00 0.00 0.00 0.01 0.03 0.06 0.08 0.32 0.26 0.25 0.06 0.03 0.01 0.00 0.00 0.01 0.01 0.00 0.00 0.00 0.00 0.00 0.00 0.00 0.00 0.01 0.00 0.00 0.00 0.03 0.02
0.00 0.00 0.01 0.01 0.03 0.04 0.04 0.06 0.04 0.02 0.01 0.00 0.00 0.00 0.00 0.00 0.00 0.00 0.00 0.03 0.06 0.10 0.23 0.52 0.36 0.15 0.07 0.04 0.03 0.01 0.00 0.02 0.03 0.01 0.01 0.00 0.00 0.01 0.01 0.00 0.00 0.00 0.00 0.00 0.00 0.02 0.09
0.00 0.00 0.00 0.01 0.03 0.03 0.04 0.04 0.03 0.01 0.00 0.00 0.00 0.00 0.00 0.00 0.00 0.00 0.00 0.07 0.09 0.02 0.16 0.20 0.22 0.16 0.12 0.05 0.02 0.01 0.00 0.00 0.01 0.01 0.00 0.00 0.00 0.00 0.00 0.00 0.00 0.00 0.00 0.00 0.00 0.05 0.12
0.00 0.00 0.00 0.01 0.02 0.03 0.03 0.03 0.03 0.01 0.01 0.00 0.00 0.00 0.00 0.00 0.00 0.00 0.00 0.01 0.00 0.04 0.07 0.09 0.11 0.05 0.03 0.04 0.01 0.01 0.01 0.00 0.00 0.02 0.01 0.00 0.00 0.00 0.00 0.00 0.00 0.00 0.04 0.04 0.01 0.07 0.06
0.00 0.00 0.00 0.00 0.01 0.02 0.02 0.03 0.03 0.02 0.01 0.00 0.00 0.00 0.00 0.00 0.00 0.00 0.00 0.00 0.06 0.10 0.05 0.03 0.00 0.00 0.01 0.01 0.01 0.01 0.03 0.03 0.01 0.02 0.04 0.02 0.00 0.00 0.00 0.00 0.00 0.04 0.11 0.20 0.11 0.09 0.12
0.00 0.00 0.00 0.00 0.00 0.01 0.02 0.03 0.02 0.02 0.01 0.00 0.00 0.00 0.00 0.00 0.00 0.00 0.00 0.01 0.04 0.02 0.01 0.00 0.00 0.00 0.01 0.06 0.05 0.04 0.09 0.04 0.01 0.01 0.02 0.05 0.00 0.00 0.00 0.00 0.01 0.05 0.13 0.13 0.23 0.13 0.21
0.00 0.00 0.00 0.00 0.00 0.00 0.01 0.02 0.02 0.01 0.00 0.00 0.00 0.00 0.00 0.00 0.00 0.00 0.00 0.01 0.00 0.00 0.00 0.00 0.00 0.00 0.00 0.00 0.01 0.02 0.04 0.01 0.02 0.02 0.03 0.02 0.01 0.00 0.00 0.00 0.00 0.04 0.11 0.19 0.19 0.12 0.16
0.01 0.00 0.00 0.00 0.00 0.00 0.01 0.01 0.01 0.00 0.00 0.00 0.00 0.00 0.00 0.00 0.00 0.00 0.00 0.00 0.00 0.00 0.00 0.00 0.00 0.00 0.00 0.00 0.00 0.00 0.00 0.00 0.00 0.00 0.00 0.00 0.01 0.00 0.00 0.00 0.01 0.02 0.11 0.16 0.17 0.15 0.17
0.00 0.00 0.00 0.00 0.00 0.00 0.01 0.01 0.01 0.00 0.00 0.00 0.00 0.00 0.00 0.00 0.00 0.00 0.00 0.00 0.00 0.00 0.00 0.00 0.00 0.00 0.00 0.00 0.00 0.00 0.00 0.00 0.00 0.00 0.00 0.00 0.00 0.00 0.00 0.00 0.00 0.00 0.01 0.09 0.14 0.10 0.06
0.00 0.00 0.00 0.00 0.00 0.00 0.01 0.01 0.01 0.00 0.00 0.00 0.00 0.00 0.00 0.00 0.00 0.00 0.00 0.00 0.00 0.00 0.00 0.00 0.00 0.00 0.00 0.00 0.00 0.00 0.00 0.00 0.00 0.00 0.00 0.00 0.00 0.00 0.00 0.00 0.00 0.00 0.01 0.01 0.03 0.01 0.01
0.01 0.00 0.00 0.00 0.00 0.00 0.01 0.01 0.01 0.00 0.00 0.00 0.00 0.00 0.00 0.00 0.00 0.00 0.00 0.00 0.00 0.00 0.00 0.00 0.00 0.00 0.00 0.00 0.00 0.00 0.00 0.00 0.00 0.00 0.00 0.00 0.00 0.00 0.00 0.00 0.00 0.00 0.00 0.00 0.00 0.00 0.00
0.00 0.00 0.00 0.00 0.00 0.00 0.01 0.01 0.00 0.00 0.00 0.00 0.00 0.00 0.00 0.00 0.00 0.00 0.00 0.00 0.00 0.00 0.00 0.00 0.00 0.00 0.00 0.00 0.00 0.00 0.00 0.00 0.00 0.00 0.00 0.00 0.00 0.00 0.00 0.00 0.00 0.00 0.00 0.00 0.00 0.00 0.00
0.00 0.00 0.00 0.00 0.00 0.00 0.01 0.01 0.01 0.00 0.00 0.00 0.00 0.00 0.00 0.00 0.00 0.00 0.00 0.00 0.00 0.00 0.00 0.00 0.00 0.00 0.00 0.00 0.00 0.00 0.00 0.00 0.00 0.00 0.00 0.00 0.00 0.00 0.00 0.00 0.00 0.00 0.00 0.00 0.00 0.00 0.00
0.01 0.00 0.00 0.00 0.00 0.00 0.01 0.01 0.00 0.00 0.00 0.00 0.00 0.00 0.00 0.00 0.00 0.00 0.00 0.00 0.00 0.00 0.00 0.00 0.00 0.00 0.00 0.00 0.00 0.00 0.00 0.00 0.00 0.00 0.00 0.00 0.00 0.00 0.00 0.00 0.00 0.00 0.00 0.00 0.00 0.00 0.00
0.01 0.01 0.00 0.00 0.00 0.00 0.00 0.00 0.00 0.00 0.00 0.00 0.00 0.00 0.00 0.00 0.00 0.00 0.00 0.00 0.00 0.00 0.00 0.00 0.00 0.00 0.00 0.00 0.00 0.00 0.00 0.00 0.00 0.00 0.00 0.00 0.00 0.00 0.00 0.00 0.00 0.00 0.00 0.00 0.00 0.00 0.00
0.01 0.00 0.00 0.00 0.00 0.00 0.00 0.00 0.00 0.00 0.00 0.00 0.00 0.00 0.00 0.00 0.00 0.00 0.00 0.00 0.00 0.00 0.00 0.00 0.00 0.00 0.00 0.00 0.00 0.00 0.00 0.00 0.00 0.00 0.00 0.00 0.00 0.00 0.00 0.00 0.00 0.00 0.00 0.00 0.00 0.00 0.00
0.01 0.00 0.00 0.00 0.00 0.00 0.00 0.00 0.00 0.00 0.00 0.00 0.00 0.00 0.00 0.00 0.00 0.00 0.00 0.00 0.00 0.00 0.00 0.00 0.00 0.00 0.00 0.00 0.00 0.00 0.00 0.00 0.00 0.00 0.00 0.00 0.00 0.00 0.00 0.00 0.00 0.00 0.00 0.00 0.00 0.00 0.00
0.01 0.00 0.00 0.00 0.00 0.00 0.00 0.00 0.00 0.00 0.00 0.00 0.00 0.00 0.00 0.00 0.00 0.00 0.00 0.00 0.00 0.00 0.00 0.00 0.00 0.00 0.00 0.00 0.00 0.00 0.00 0.00 0.00 0.00 0.00 0.00 0.00 0.00 0.00 0.00 0.00 0.00 0.00 0.00 0.00 0.00 0.00
0.01 0.00 0.00 0.00 0.00 0.00 0.00 0.00 0.00 0.00 0.00 0.00 0.00 0.00 0.00 0.00 0.00 0.00 0.00 0.00 0.00 0.00 0.00 0.00 0.00 0.00 0.00 0.00 0.00 0.00 0.00 0.00 0.00 0.00 0.00 0.00 0.00 0.00 0.00 0.00 0.00 0.00 0.00 0.00 0.00 0.00 0.00
0.01 0.01 0.00 0.00 0.00 0.00 0.00 0.00 0.00 0.00 0.00 0.00 0.00 0.00 0.00 0.00 0.00 0.00 0.00 0.00 0.00 0.00 0.00 0.00 0.00 0.00 0.00 0.00 0.00 0.00 0.00 0.00 0.00 0.00 0.00 0.00 0.00 0.00 0.00 0.00 0.00 0.00 0.00 0.00 0.00 0.00 0.00

GFSGBSN_prec_precacc12_117.txt.gz
Total_Precipitation_Accumulation
0.02 0.01 0.02 0.03 0.05 0.05 0.05 0.04 0.05 0.10 0.30 0.71 1.04 1.48 0.95 0.33 0.05 0.00 0.00 0.00 0.00 0.00 0.00 0.00 0.01 0.18 0.42 0.60 0.50 0.08 0.10 0.26 0.04 0.00 0.00 0.00 0.00 0.00 0.00 0.00 0.00 0.00 0.00 0.00 0.00 0.00 0.00
0.00 0.01 0.02 0.04 0.05 0.05 0.05 0.04 0.06 0.14 0.43 1.32 1.25 0.90 0.32 0.03 0.01 0.00 0.00 0.00 0.00 0.00 0.00 0.00 0.04 0.13 0.32 0.55 0.46 0.25 0.20 0.24 0.02 0.00 0.00 0.00 0.00 0.00 0.00 0.00 0.00 0.00 0.00 0.00 0.00 0.00 0.00
0.00 0.01 0.02 0.05 0.04 0.04 0.05 0.05 0.07 0.18 0.51 0.65 0.57 0.45 0.08 0.01 0.00 0.00 0.00 0.00 0.00 0.00 0.00 0.01 0.23 0.19 0.43 0.50 0.32 0.38 0.39 0.28 0.02 0.00 0.00 0.00 0.00 0.00 0.00 0.00 0.00 0.00 0.00 0.00 0.00 0.00 0.00
0.00 0.01 0.02 0.05 0.04 0.03 0.04 0.04 0.06 0.07 0.13 0.20 0.22 0.13 0.01 0.00 0.00 0.01 0.01 0.01 0.01 0.01 0.01 0.12 0.28 0.24 0.80 0.57 0.35 0.31 0.19 0.04 0.00 0.00 0.00 0.00 0.00 0.00 0.00 0.00 0.00 0.00 0.00 0.00 0.00 0.00 0.00
0.01 0.01 0.02 0.04 0.05 0.04 0.03 0.03 0.04 0.05 0.03 0.04 0.03 0.01 0.00 0.00 0.03 0.04 0.05 0.07 0.20 0.38 0.37 0.30 0.21 0.28 1.05 0.87 0.53 0.16 0.09 0.03 0.00 0.00 0.00 0.00 0.00 0.00 0.00 0.00 0.00 0.00 0.00 0.00 0.00 0.00 0.00
0.00 0.01 0.02 0.03 0.06 0.04 0.03 0.02 0.03 0.04 0.02 0.02 0.01 0.00 0.00 0.00 0.01 0.02 0.06 0.05 0.07 0.17 0.34 0.31 0.28 0.41 0.63 0.63 0.25 0.04 0.01 0.00 0.00 0.00 0.00 0.00 0.00 0.00 0.00 0.00 0.00 0.00 0.00 0.00 0.00 0.00 0.00
0.00 0.01 0.02 0.03 0.05 0.05 0.03 0.02 0.03 0.02 0.02 0.02 0.00 0.00 0.00 0.00 0.00 0.00 0.00 0.00 0.01 0.07 0.18 0.24 0.28 0.21 0.28 0.14 0.07 0.03 0.00 0.00 0.00 0.00 0.00 0.00 0.00 0.00 0.00 0.00 0.00 0.00 0.00 0.00 0.00 0.00 0.00
0.00 0.01 0.02 0.02 0.05 0.05 0.03 0.02 0.02 0.02 0.01 0.01 0.00 0.01 0.01 0.00 0.00 0.00 0.00 0.00 0.01 0.08 0.12 0.04 0.04 0.04 0.03 0.02 0.03 0.00 0.00 0.00 0.00 0.00 0.00 0.00 0.00 0.00 0.00 0.00 0.00 0.00 0.00 0.00 0.00 0.00 0.00
0.00 0.00 0.02 0.02 0.04 0.05 0.03 0.02 0.01 0.02 0.01 0.00 0.00 0.01 0.00 0.00 0.00 0.00 0.00 0.00 0.01 0.02 0.05 0.05 0.05 0.06 0.02 0.02 0.01 0.00 0.00 0.00 0.00 0.00 0.00 0.00 0.00 0.00 0.00 0.00 0.00 0.00 0.00 0.00 0.00 0.00 0.00
0.00 0.00 0.01 0.02 0.04 0.05 0.03 0.01 0.01 0.00 0.01 0.00 0.00 0.00 0.00 0.00 0.00 0.00 0.00 0.00 0.00 0.00 0.02 0.15 0.11 0.12 0.03 0.02 0.01 0.00 0.00 0.00 0.00 0.00 0.00 0.00 0.00 0.00 0.00 0.00 0.00 0.01 0.00 0.00 0.00 0.01 0.01
0.01 0.00 0.00 0.01 0.03 0.04 0.03 0.02 0.01 0.01 0.00 0.00 0.00 0.00 0.00 0.00 0.00 0.00 0.00 0.00 0.00 0.00 0.05 0.22 0.15 0.06 0.03 0.03 0.03 0.00 0.00 0.01 0.02 0.01 0.00 0.00 0.00 0.00 0.00 0.00 0.00 0.00 0.00 0.00 0.00 0.02 0.05
0.01 0.01 0.00 0.01 0.02 0.04 0.03 0.02 0.02 0.01 0.00 0.00 0.00 0.00 0.00 0.00 0.00 0.00 0.00 0.04 0.02 0.00 0.09 0.10 0.10 0.12 0.11 0.04 0.01 0.00 0.00 0.00 0.00 0.00 0.00 0.00 0.00 0.00 0.00 0.00 0.00 0.00 0.00 0.00 0.00 0.02 0.05
0.00 0.01 0.01 0.00 0.02 0.02 0.03 0.02 0.02 0.01 0.01 0.00 0.00 0.00 0.00 0.00 0.00 0.00 0.00 0.00 0.00 0.03 0.06 0.08 0.10 0.05 0.03 0.03 0.00 0.01 0.00 0.00 0.00 0.01 0.00 0.00 0.00 0.00 0.00 0.00 0.00 0.00 0.03 0.03 0.01 0.03 0.02
0.00 0.00 0.01 0.00 0.00 0.01 0.02 0.03 0.03 0.02 0.01 0.00 0.00 0.00 0.00 0.00 0.00 0.00 0.00 0.00 0.03 0.07 0.03 0.01 0.00 0.00 0.01 0.01 0.00 0.00 0.01 0.01 0.00 0.01 0.02 0.00 0.00 0.00 0.00 0.00 0.00 0.04 0.07 0.12 0.06 0.01 0.03
0.00 0.01 0.00 0.00 0.00 0.01 0.02 0.03 0.02 0.02 0.01 0.00 0.00 0.00 0.00 0.00 0.00 0.00 0.00 0.00 0.02 0.01 0.00 0.00 0.00 0.00 0.01 0.06 0.03 0.03 0.04 0.02 0.01 0.00 0.01 0.03 0.00 0.00 0.00 0.00 0.01 0.05 0.08 0.08 0.16 0.06 0.12
0.01 0.00 0.00 0.00 0.00 0.00 0.01 0.03 0.02 0.01 0.00 0.00 0.00 0.00 0.00 0.00 0.00 0.00 0.00 0.00 0.00 0.00 0.00 0.00 0.00 0.00 0.00 0.00 0.01 0.01 0.03 0.01 0.02 0.02 0.01 0.01 0.01 0.00 0.00 0.00 0.00 0.03 0.08 0.17 0.17 0.10 0.10
0.01 0.00 0.00 0.00 0.00 0.00 0.01 0.02 0.02 0.01 0.00 0.00 0.00 0.00 0.00 0.00 0.00 0.00 0.00 0.00 0.00 0.00 0.00 0.00 0.00 0.00 0.00 0.00 0.00 0.00 0.00 0.00 0.00 0.00 0.00 0.00 0.01 0.00 0.00 0.00 0.01 0.02 0.09 0.14 0.16 0.14 0.14
0.00 0.01 0.00 0.00 0.00 0.00 0.00 0.01 0.01 0.00 0.00 0.00 0.00 0.00 0.00 0.00 0.00 0.00 0.00 0.00 0.00 0.00 0.00 0.00 0.00 0.00 0.00 0.00 0.00 0.00 0.00 0.00 0.00 0.00 0.00 0.00 0.00 0.00 0.00 0.00 0.00 0.00 0.01 0.09 0.14 0.11 0.05
0.00 0.00 0.00 0.00 0.00 0.00 0.00 0.01 0.01 0.00 0.00 0.00 0.00 0.00 0.00 0.00 0.00 0.00 0.00 0.00 0.00 0.00 0.00 0.00 0.00 0.00 0.00 0.00 0.00 0.00 0.00 0.00 0.00 0.00 0.00 0.00 0.00 0.00 0.00 0.00 0.00 0.00 0.01 0.02 0.03 0.02 0.01
0.01 0.00 0.00 0.00 0.00 0.00 0.01 0.01 0.01 0.00 0.00 0.00 0.00 0.00 0.00 0.00 0.00 0.00 0.00 0.00 0.00 0.00 0.00 0.00 0.00 0.00 0.00 0.00 0.00 0.00 0.00 0.00 0.00 0.00 0.00 0.00 0.00 0.00 0.00 0.00 0.00 0.00 0.00 0.00 0.00 0.01 0.00
0.00 0.00 0.00 0.00 0.00 0.00 0.00 0.01 0.00 0.00 0.00 0.00 0.00 0.00 0.00 0.00 0.00 0.00 0.00 0.00 0.00 0.00 0.00 0.00 0.00 0.00 0.00 0.00 0.00 0.00 0.00 0.00 0.00 0.00 0.00 0.00 0.00 0.00 0.00 0.00 0.00 0.00 0.00 0.00 0.00 0.00 0.00
0.00 0.00 0.00 0.00 0.00 0.00 0.01 0.00 0.00 0.00 0.00 0.00 0.00 0.00 0.00 0.00 0.00 0.00 0.00 0.00 0.00 0.00 0.00 0.00 0.00 0.00 0.00 0.00 0.00 0.00 0.00 0.00 0.00 0.00 0.00 0.00 0.00 0.00 0.00 0.00 0.00 0.00 0.00 0.00 0.00 0.00 0.00
0.01 0.00 0.00 0.00 0.00 0.00 0.00 0.00 0.00 0.00 0.00 0.00 0.00 0.00 0.00 0.00 0.00 0.00 0.00 0.00 0.00 0.00 0.00 0.00 0.00 0.00 0.00 0.00 0.00 0.00 0.00 0.00 0.00 0.00 0.00 0.00 0.00 0.00 0.00 0.00 0.00 0.00 0.00 0.00 0.00 0.00 0.00
0.01 0.01 0.00 0.00 0.00 0.00 0.00 0.00 0.00 0.00 0.00 0.00 0.00 0.00 0.00 0.00 0.00 0.00 0.00 0.00 0.00 0.00 0.00 0.00 0.00 0.00 0.00 0.00 0.00 0.00 0.00 0.00 0.00 0.00 0.00 0.00 0.00 0.00 0.00 0.00 0.00 0.00 0.00 0.00 0.00 0.00 0.00
0.01 0.01 0.00 0.00 0.00 0.00 0.00 0.00 0.00 0.00 0.00 0.00 0.00 0.00 0.00 0.00 0.00 0.00 0.00 0.00 0.00 0.00 0.00 0.00 0.00 0.00 0.00 0.00 0.00 0.00 0.00 0.00 0.00 0.00 0.00 0.00 0.00 0.00 0.00 0.00 0.00 0.00 0.00 0.00 0.00 0.00 0.00
0.01 0.01 0.00 0.00 0.00 0.00 0.00 0.00 0.00 0.00 0.00 0.00 0.00 0.00 0.00 0.00 0.00 0.00 0.00 0.00 0.00 0.00 0.00 0.00 0.00 0.00 0.00 0.00 0.00 0.00 0.00 0.00 0.00 0.00 0.00 0.00 0.00 0.00 0.00 0.00 0.00 0.00 0.00 0.00 0.00 0.00 0.00
0.01 0.00 0.00 0.00 0.00 0.00 0.00 0.00 0.00 0.00 0.00 0.00 0.00 0.00 0.00 0.00 0.00 0.00 0.00 0.00 0.00 0.00 0.00 0.00 0.00 0.00 0.00 0.00 0.00 0.00 0.00 0.00 0.00 0.00 0.00 0.00 0.00 0.00 0.00 0.00 0.00 0.00 0.00 0.00 0.00 0.00 0.00
0.01 0.00 0.00 0.00 0.00 0.00 0.00 0.00 0.00 0.00 0.00 0.00 0.00 0.00 0.00 0.00 0.00 0.00 0.00 0.00 0.00 0.00 0.00 0.00 0.00 0.00 0.00 0.00 0.00 0.00 0.00 0.00 0.00 0.00 0.00 0.00 0.00 0.00 0.00 0.00 0.00 0.00 0.00 0.00 0.00 0.00 0.00
0.01 0.01 0.00 0.00 0.00 0.00 0.00 0.00 0.00 0.00 0.00 0.00 0.00 0.00 0.00 0.00 0.00 0.00 0.00 0.00 0.00 0.00 0.00 0.00 0.00 0.00 0.00 0.00 0.00 0.00 0.00 0.00 0.00 0.00 0.00 0.00 0.00 0.00 0.00 0.00 0.00 0.00 0.00 0.00 0.00 0.00 0.00

GFSGBSN_prec_precacc12_120.txt.gz
Total_Precipitation_Accumulation
0.01 0.01 0.03 0.05 0.05 0.05 0.05 0.04 0.07 0.07 0.20 0.47 0.63 0.98 0.79 0.32 0.05 0.01 0.00 0.00 0.00 0.00 0.00 0.00 0.02 0.28 0.41 0.43 0.37 0.13 0.13 0.26 0.03 0.00 0.00 0.00 0.00 0.00 0.00 0.00 0.00 0.00 0.00 0.00 0.00 0.00 0.00
0.01 0.01 0.03 0.06 0.05 0.05 0.05 0.04 0.06 0.06 0.12 0.44 0.47 0.39 0.21 0.03 0.01 0.00 0.00 0.00 0.00 0.00 0.00 0.00 0.08 0.43 0.36 0.54 0.43 0.16 0.23 0.24 0.02 0.00 0.00 0.00 0.00 0.00 0.00 0.00 0.00 0.00 0.00 0.00 0.00 0.00 0.00
0.01 0.02 0.03 0.06 0.05 0.05 0.05 0.04 0.06 0.03 0.04 0.05 0.10 0.08 0.04 0.01 0.00 0.00 0.00 0.00 0.00 0.00 0.00 0.02 0.19 0.30 0.52 0.65 0.40 0.26 0.42 0.36 0.02 0.00 0.00 0.00 0.00 0.00 0.00 0.00 0.00 0.00 0.00 0.00 0.00 0.00 0.00
0.01 0.02 0.03 0.05 0.06 0.05 0.04 0.03 0.05 0.02 0.01 0.04 0.03 0.01 0.00 0.00 0.01 0.02 0.03 0.03 0.01 0.01 0.03 0.17 0.36 0.26 0.81 0.67 0.41 0.31 0.23 0.09 0.00 0.00 0.00 0.00 0.00 0.00 0.00 0.00 0.00 0.00 0.00 0.00 0.00 0.00 0.00
0.01 0.02 0.02 0.04 0.06 0.05 0.04 0.03 0.04 0.04 0.01 0.02 0.02 0.00 0.00 0.01 0.05 0.08 0.10 0.27 0.40 0.43 0.43 0.35 0.30 0.33 1.20 1.04 0.62 0.15 0.07 0.04 0.00 0.00 0.00 0.00 0.00 0.00 0.00 0.00 0.00 0.00 0.00 0.00 0.00 0.00 0.00
0.00 0.01 0.02 0.03 0.06 0.05 0.04 0.02 0.02 0.03 0.01 0.01 0.00 0.00 0.00 0.00 0.01 0.04 0.10 0.14 0.17 0.23 0.38 0.31 0.28 0.40 0.68 0.69 0.28 0.03 0.01 0.00 0.00 0.00 0.00 0.00 0.00 0.00 0.00 0.00 0.00 0.00 0.00 0.00 0.00 0.00 0.00
0.00 0.01 0.02 0.03 0.05 0.05 0.03 0.02 0.02 0.02 0.02 0.01 0.00 0.00 0.00 0.00 0.00 0.00 0.00 0.01 0.02 0.15 0.26 0.34 0.37 0.25 0.35 0.16 0.07 0.02 0.00 0.00 0.00 0.00 0.00 0.00 0.00 0.00 0.00 0.00 0.00 0.00 0.00 0.00 0.00 0.00 0.00
0.00 0.00 0.02 0.02 0.05 0.05 0.02 0.02 0.02 0.01 0.01 0.01 0.00 0.00 0.00 0.00 0.00 0.00 0.00 0.00 0.01 0.07 0.08 0.06 0.07 0.04 0.04 0.02 0.03 0.00 0.00 0.00 0.00 0.00 0.00 0.00 0.00 0.00 0.00 0.00 0.00 0.00 0.00 0.00 0.00 0.00 0.00
0.01 0.00 0.01 0.01 0.04 0.04 0.02 0.01 0.01 0.01 0.00 0.00 0.00 0.00 0.00 0.00 0.00 0.00 0.00 0.00 0.00 0.00 0.01 0.02 0.03 0.04 0.02 0.02 0.00 0.00 0.00 0.00 0.00 0.00 0.00 0.00 0.00 0.00 0.00 0.00 0.00 0.00 0.00 0.00 0.00 0.00 0.00
0.01 0.01 0.01 0.01 0.03 0.04 0.03 0.01 0.01 0.01 0.00 0.00 0.00 0.00 0.00 0.00 0.00 0.00 0.00 0.00 0.00 0.00 0.00 0.03 0.01 0.04 0.02 0.02 0.00 0.00 0.00 0.00 0.00 0.00 0.00 0.00 0.00 0.00 0.00 0.00 0.00 0.00 0.00 0.00 0.00 0.00 0.00
0.01 0.01 0.00 0.01 0.02 0.03 0.03 0.02 0.01 0.01 0.00 0.00 0.00 0.00 0.00 0.00 0.00 0.00 0.00 0.00 0.00 0.00 0.02 0.13 0.06 0.02 0.00 0.01 0.01 0.00 0.00 0.00 0.01 0.00 0.00 0.00 0.00 0.00 0.00 0.00 0.00 0.00 0.00 0.00 0.00 0.01 0.04
0.01 0.01 0.00 0.00 0.01 0.02 0.02 0.02 0.02 0.01 0.00 0.00 0.00 0.00 0.00 0.00 0.00 0.00 0.00 0.00 0.00 0.00 0.03 0.03 0.02 0.05 0.04 0.01 0.00 0.00 0.00 0.00 0.00 0.00 0.00 0.00 0.00 0.00 0.00 0.00 0.00 0.00 0.00 0.00 0.00 0.02 0.03
0.01 0.01 0.01 0.00 0.01 0.01 0.02 0.02 0.02 0.02 0.01 0.00 0.00 0.00 0.00 0.00 0.00 0.00 0.00 0.00 0.00 0.02 0.02 0.03 0.02 0.02 0.01 0.01 0.00 0.00 0.00 0.00 0.00 0.00 0.00 0.00 0.00 0.00 0.00 0.00 0.00 0.00 0.02 0.02 0.01 0.02 0.01
0.01 0.01 0.01 0.00 0.00 0.01 0.02 0.02 0.02 0.02 0.01 0.00 0.00 0.00 0.00 0.00 0.00 0.00 0.00 0.00 0.02 0.04 0.01 0.00 0.00 0.00 0.00 0.00 0.00 0.00 0.00 0.00 0.00 0.00 0.00 0.00 0.00 0.00 0.00 0.00 0.01 0.03 0.05 0.07 0.03 0.01 0.01
0.01 0.01 0.01 0.00 0.00 0.00 0.01 0.02 0.02 0.01 0.01 0.00 0.00 0.00 0.00 0.00 0.00 0.00 0.00 0.00 0.01 0.00 0.00 0.00 0.00 0.00 0.01 0.03 0.01 0.00 0.00 0.00 0.00 0.00 0.00 0.01 0.00 0.00 0.00 0.00 0.01 0.04 0.06 0.05 0.10 0.03 0.05
0.01 0.01 0.01 0.00 0.00 0.00 0.01 0.02 0.02 0.01 0.00 0.00 0.00 0.00 0.00 0.00 0.00 0.00 0.00 0.00 0.00 0.00 0.00 0.00 0.01 0.00 0.00 0.00 0.00 0.00 0.01 0.00 0.01 0.01 0.00 0.01 0.01 0.00 0.00 0.00 0.00 0.03 0.06 0.12 0.13 0.06 0.06
0.01 0.01 0.00 0.00 0.00 0.00 0.01 0.01 0.02 0.01 0.00 0.00 0.00 0.00 0.00 0.00 0.00 0.00 0.00 0.00 0.00 0.00 0.00 0.00 0.00 0.00 0.00 0.00 0.00 0.00 0.00 0.00 0.00 0.00 0.00 0.00 0.01 0.00 0.00 0.00 0.02 0.03 0.08 0.09 0.08 0.05 0.07
0.00 0.01 0.00 0.00 0.00 0.00 0.01 0.01 0.01 0.00 0.00 0.00 0.00 0.00 0.00 0.00 0.00 0.00 0.00 0.00 0.00 0.00 0.00 0.00 0.00 0.00 0.00 0.00 0.00 0.00 0.00 0.00 0.00 0.00 0.00 0.00 0.00 0.00 0.00 0.00 0.00 0.00 0.02 0.07 0.08 0.04 0.02
0.00 0.01 0.00 0.00 0.00 0.00 0.00 0.01 0.01 0.00 0.00 0.00 0.00 0.00 0.00 0.00 0.00 0.00 0.00 0.00 0.00 0.00 0.00 0.00 0.00 0.00 0.00 0.00 0.00 0.00 0.00 0.00 0.00 0.00 0.00 0.00 0.00 0.00 0.00 0.00 0.00 0.00 0.01 0.02 0.02 0.01 0.01
0.01 0.00 0.00 0.00 0.00 0.00 0.00 0.00 0.01 0.00 0.00 0.00 0.00 0.00 0.00 0.00 0.00 0.00 0.00 0.00 0.00 0.00 0.00 0.00 0.00 0.00 0.00 0.00 0.00 0.00 0.00 0.00 0.00 0.00 0.00 0.00 0.00 0.00 0.00 0.00 0.00 0.00 0.00 0.00 0.00 0.01 0.00
0.00 0.00 0.00 0.00 0.00 0.00 0.00 0.00 0.00 0.00 0.00 0.00 0.00 0.00 0.00 0.00 0.00 0.00 0.00 0.00 0.00 0.00 0.00 0.00 0.00 0.00 0.00 0.00 0.00 0.00 0.00 0.00 0.00 0.00 0.00 0.00 0.00 0.00 0.00 0.00 0.00 0.00 0.00 0.00 0.00 0.00 0.00
0.00 0.00 0.00 0.00 0.00 0.00 0.00 0.00 0.00 0.00 0.00 0.00 0.00 0.00 0.00 0.00 0.00 0.00 0.00 0.00 0.00 0.00 0.00 0.00 0.00 0.00 0.00 0.00 0.00 0.00 0.00 0.00 0.00 0.00 0.00 0.00 0.00 0.00 0.00 0.00 0.00 0.00 0.00 0.00 0.00 0.00 0.00
0.01 0.00 0.00 0.00 0.00 0.00 0.00 0.00 0.00 0.00 0.00 0.00 0.00 0.00 0.00 0.00 0.00 0.00 0.00 0.00 0.00 0.00 0.00 0.00 0.00 0.00 0.00 0.00 0.00 0.00 0.00 0.00 0.00 0.00 0.00 0.00 0.00 0.00 0.00 0.00 0.00 0.00 0.00 0.00 0.00 0.00 0.00
0.01 0.01 0.00 0.00 0.00 0.00 0.00 0.00 0.00 0.00 0.00 0.00 0.00 0.00 0.00 0.00 0.00 0.00 0.00 0.00 0.00 0.00 0.00 0.00 0.00 0.00 0.00 0.00 0.00 0.00 0.00 0.00 0.00 0.00 0.00 0.00 0.00 0.00 0.00 0.00 0.00 0.00 0.00 0.00 0.00 0.00 0.00
0.01 0.01 0.00 0.00 0.00 0.00 0.00 0.00 0.00 0.00 0.00 0.00 0.00 0.00 0.00 0.00 0.00 0.00 0.00 0.00 0.00 0.00 0.00 0.00 0.00 0.00 0.00 0.00 0.00 0.00 0.00 0.00 0.00 0.00 0.00 0.00 0.00 0.00 0.00 0.00 0.00 0.00 0.00 0.00 0.00 0.00 0.00
0.01 0.01 0.00 0.00 0.00 0.00 0.00 0.00 0.00 0.00 0.00 0.00 0.00 0.00 0.00 0.00 0.00 0.00 0.00 0.00 0.00 0.00 0.00 0.00 0.00 0.00 0.00 0.00 0.00 0.00 0.00 0.00 0.00 0.00 0.00 0.00 0.00 0.00 0.00 0.00 0.00 0.00 0.00 0.00 0.00 0.00 0.00
0.00 0.00 0.00 0.00 0.00 0.00 0.00 0.00 0.00 0.00 0.00 0.00 0.00 0.00 0.00 0.00 0.00 0.00 0.00 0.00 0.00 0.00 0.00 0.00 0.00 0.00 0.00 0.00 0.00 0.00 0.00 0.00 0.00 0.00 0.00 0.00 0.00 0.00 0.00 0.00 0.00 0.00 0.00 0.00 0.00 0.00 0.00
0.01 0.00 0.00 0.00 0.00 0.00 0.00 0.00 0.00 0.00 0.00 0.00 0.00 0.00 0.00 0.00 0.00 0.00 0.00 0.00 0.00 0.00 0.00 0.00 0.00 0.00 0.00 0.00 0.00 0.00 0.00 0.00 0.00 0.00 0.00 0.00 0.00 0.00 0.00 0.00 0.00 0.00 0.00 0.00 0.00 0.00 0.00
0.00 0.01 0.00 0.00 0.00 0.00 0.00 0.00 0.00 0.00 0.00 0.00 0.00 0.00 0.00 0.00 0.00 0.00 0.00 0.00 0.00 0.00 0.00 0.00 0.00 0.00 0.00 0.00 0.00 0.00 0.00 0.00 0.00 0.00 0.00 0.00 0.00 0.00 0.00 0.00 0.00 0.00 0.00 0.00 0.00 0.00 0.00

GFSGBSN_prec_precacc12_123.txt.gz
Total_Precipitation_Accumulation
0.01 0.01 0.03 0.06 0.05 0.05 0.06 0.04 0.06 0.01 0.04 0.07 0.07 0.13 0.11 0.08 0.03 0.00 0.00 0.00 0.00 0.00 0.00 0.01 0.13 0.65 0.74 0.64 0.43 0.21 0.13 0.23 0.02 0.00 0.00 0.00 0.00 0.00 0.00 0.00 0.00 0.00 0.00 0.00 0.00 0.00 0.00
0.02 0.02 0.03 0.06 0.05 0.05 0.05 0.04 0.06 0.03 0.02 0.04 0.04 0.03 0.02 0.01 0.01 0.00 0.00 0.00 0.00 0.00 0.01 0.04 0.24 0.55 0.43 0.54 0.41 0.20 0.22 0.18 0.01 0.00 0.00 0.00 0.00 0.00 0.00 0.00 0.00 0.00 0.00 0.00 0.00 0.00 0.00
0.02 0.02 0.03 0.05 0.05 0.05 0.04 0.04 0.06 0.03 0.02 0.02 0.03 0.01 0.02 0.01 0.01 0.00 0.00 0.00 0.00 0.00 0.03 0.04 0.18 0.34 0.39 0.68 0.37 0.29 0.30 0.22 0.02 0.00 0.00 0.00 0.00 0.00 0.00 0.00 0.00 0.00 0.00 0.00 0.00 0.00 0.00
0.01 0.02 0.03 0.04 0.05 0.04 0.03 0.03 0.05 0.02 0.00 0.03 0.03 0.01 0.01 0.04 0.02 0.02 0.04 0.04 0.02 0.04 0.08 0.21 0.34 0.24 0.66 0.65 0.28 0.24 0.21 0.09 0.00 0.00 0.00 0.00 0.00 0.00 0.00 0.00 0.00 0.00 0.00 0.00 0.00 0.00 0.00
0.01 0.02 0.02 0.04 0.05 0.04 0.04 0.03 0.03 0.03 0.00 0.02 0.02 0.00 0.00 0.02 0.08 0.10 0.11 0.27 0.39 0.45 0.47 0.34 0.25 0.19 0.87 0.79 0.42 0.16 0.08 0.04 0.00 0.00 0.00 0.00 0.00 0.00 0.00 0.00 0.00 0.00 0.00 0.00 0.00 0.00 0.00
0.00 0.01 0.02 0.03 0.05 0.03 0.03 0.02 0.02 0.03 0.01 0.01 0.00 0.00 0.00 0.00 0.01 0.05 0.11 0.14 0.17 0.22 0.38 0.30 0.26 0.36 0.63 0.65 0.25 0.04 0.01 0.00 0.00 0.00 0.00 0.00 0.00 0.00 0.00 0.00 0.00 0.00 0.00 0.00 0.00 0.00 0.00
0.00 0.01 0.01 0.02 0.03 0.03 0.02 0.02 0.03 0.02 0.02 0.01 0.00 0.00 0.00 0.00 0.00 0.00 0.00 0.01 0.03 0.17 0.26 0.33 0.35 0.24 0.35 0.15 0.06 0.02 0.00 0.00 0.00 0.00 0.00 0.00 0.00 0.00 0.00 0.00 0.00 0.00 0.00 0.00 0.00 0.00 0.00
0.01 0.00 0.01 0.01 0.02 0.03 0.02 0.02 0.02 0.01 0.01 0.01 0.00 0.00 0.00 0.00 0.00 0.00 0.00 0.00 0.01 0.06 0.07 0.06 0.07 0.04 0.04 0.02 0.03 0.00 0.00 0.00 0.00 0.00 0.00 0.00 0.00 0.00 0.00 0.00 0.00 0.00 0.00 0.00 0.00 0.00 0.00
0.01 0.00 0.01 0.01 0.01 0.02 0.02 0.02 0.01 0.01 0.00 0.00 0.00 0.00 0.00 0.00 0.00 0.00 0.00 0.00 0.00 0.00 0.00 0.01 0.01 0.02 0.02 0.01 0.00 0.00 0.00 0.00 0.00 0.00 0.00 0.00 0.00 0.00 0.00 0.00 0.00 0.00 0.00 0.00 0.00 0.00 0.00
0.01 0.01 0.01 0.01 0.01 0.02 0.02 0.02 0.01 0.01 0.00 0.00 0.00 0.00 0.00 0.00 0.00 0.00 0.00 0.00 0.00 0.00 0.00 0.01 0.00 0.01 0.00 0.00 0.00 0.00 0.00 0.00 0.00 0.00 0.00 0.00 0.00 0.00 0.00 0.00 0.00 0.00 0.00 0.00 0.00 0.00 0.00
0.02 0.01 0.01 0.01 0.01 0.01 0.02 0.02 0.01 0.01 0.00 0.00 0.00 0.00 0.00 0.00 0.00 0.00 0.00 0.00 0.00 0.00 0.01 0.01 0.00 0.00 0.00 0.00 0.00 0.00 0.00 0.00 0.00 0.00 0.00 0.00 0.00 0.00 0.00 0.00 0.00 0.00 0.00 0.00 0.00 0.00 0.01
0.02 0.01 0.01 0.00 0.01 0.01 0.02 0.02 0.02 0.01 0.00 0.00 0.00 0.00 0.00 0.00 0.00 0.00 0.00 0.00 0.00 0.00 0.02 0.01 0.01 0.00 0.01 0.01 0.00 0.00 0.00 0.00 0.00 0.00 0.00 0.00 0.00 0.00 0.00 0.00 0.00 0.00 0.00 0.00 0.00 0.01 0.01
0.01 0.01 0.01 0.00 0.00 0.01 0.02 0.02 0.02 0.01 0.00 0.00 0.00 0.00 0.00 0.00 0.00 0.00 0.00 0.00 0.00 0.02 0.01 0.01 0.00 0.00 0.00 0.00 0.00 0.00 0.00 0.00 0.00 0.00 0.00 0.00 0.00 0.00 0.00 0.00 0.00 0.00 0.00 0.00 0.01 0.01 0.00
0.01 0.01 0.01 0.00 0.00 0.01 0.02 0.02 0.02 0.01 0.00 0.00 0.00 0.00 0.00 0.00 0.00 0.00 0.00 0.00 0.01 0.03 0.00 0.00 0.00 0.00 0.00 0.00 0.00 0.00 0.00 0.00 0.00 0.00 0.00 0.00 0.00 0.00 0.00 0.00 0.01 0.00 0.01 0.03 0.02 0.01 0.01
0.01 0.01 0.01 0.00 0.00 0.00 0.01 0.02 0.01 0.01 0.00 0.00 0.00 0.00 0.00 0.00 0.00 0.00 0.00 0.00 0.00 0.00 0.00 0.00 0.00 0.00 0.00 0.01 0.00 0.00 0.00 0.00 0.00 0.00 0.00 0.00 0.00 0.00 0.00 0.00 0.00 0.02 0.03 0.02 0.05 0.02 0.03
0.01 0.01 0.01 0.00 0.00 0.00 0.01 0.02 0.01 0.01 0.00 0.00 0.00 0.00 0.00 0.00 0.00 0.00 0.00 0.00 0.00 0.00 0.00 0.00 0.01 0.00 0.00 0.00 0.00 0.00 0.00 0.00 0.00 0.00 0.00 0.00 0.00 0.00 0.00 0.00 0.00 0.02 0.04 0.09 0.08 0.04 0.03
0.01 0.01 0.00 0.00 0.00 0.00 0.01 0.01 0.01 0.00 0.00 0.00 0.00 0.00 0.00 0.00 0.00 0.00 0.00 0.00 0.00 0.00 0.00 0.00 0.00 0.00 0.00 0.00 0.00 0.00 0.00 0.00 0.00 0.00 0.00 0.00 0.00 0.00 0.00 0.00 0.01 0.01 0.04 0.05 0.03 0.02 0.02
0.00 0.01 0.00 0.00 0.00 0.00 0.00 0.01 0.01 0.00 0.00 0.00 0.00 0.00 0.00 0.00 0.00 0.00 0.00 0.00 0.00 0.00 0.00 0.00 0.00 0.00 0.00 0.00 0.00 0.00 0.00 0.00 0.00 0.00 0.00 0.00 0.00 0.00 0.00 0.00 0.00 0.00 0.01 0.04 0.03 0.03 0.01
0.00 0.00 0.00 0.00 0.00 0.00 0.00 0.00 0.00 0.00 0.00 0.00 0.00 0.00 0.00 0.00 0.00 0.00 0.00 0.00 0.00 0.00 0.00 0.00 0.00 0.00 0.00 0.00 0.00 0.00 0.00 0.00 0.00 0.00 0.00 0.00 0.00 0.00 0.00 0.00 0.00 0.00 0.00 0.01 0.00 0.01 0.01
0.00 0.00 0.00 0.00 0.00 0.00 0.00 0.00 0.00 0.00 0.00 0.00 0.00 0.00 0.00 0.00 0.00 0.00 0.00 0.00 0.00 0.00 0.00 0.00 0.00 0.00 0.00 0.00 0.00 0.00 0.00 0.00 0.00 0.00 0.00 0.00 0.00 0.00 0.00 0.00 0.00 0.00 0.00 0.00 0.00 0.01 0.00
0.00 0.00 0.00 0.00 0.00 0.00 0.00 0.00 0.00 0.00 0.00 0.00 0.00 0.00 0.00 0.00 0.00 0.00 0.00 0.00 0.00 0.00 0.00 0.00 0.00 0.00 0.00 0.00 0.00 0.00 0.00 0.00 0.00 0.00 0.00 0.00 0.00 0.00 0.00 0.00 0.00 0.00 0.00 0.00 0.00 0.00 0.00
0.00 0.00 0.00 0.00 0.00 0.00 0.00 0.00 0.00 0.00 0.00 0.00 0.00 0.00 0.00 0.00 0.00 0.00 0.00 0.00 0.00 0.00 0.00 0.00 0.00 0.00 0.00 0.00 0.00 0.00 0.00 0.00 0.00 0.00 0.00 0.00 0.00 0.00 0.00 0.00 0.00 0.00 0.00 0.00 0.00 0.00 0.00
0.00 0.00 0.00 0.00 0.00 0.00 0.00 0.00 0.00 0.00 0.00 0.00 0.00 0.00 0.00 0.00 0.00 0.00 0.00 0.00 0.00 0.00 0.00 0.00 0.00 0.00 0.00 0.00 0.00 0.00 0.00 0.00 0.00 0.00 0.00 0.00 0.00 0.00 0.00 0.00 0.00 0.00 0.00 0.00 0.00 0.00 0.00
0.00 0.00 0.00 0.00 0.00 0.00 0.00 0.00 0.00 0.00 0.00 0.00 0.00 0.00 0.00 0.00 0.00 0.00 0.00 0.00 0.00 0.00 0.00 0.00 0.00 0.00 0.00 0.00 0.00 0.00 0.00 0.00 0.00 0.00 0.00 0.00 0.00 0.00 0.00 0.00 0.00 0.00 0.00 0.00 0.00 0.00 0.00
0.00 0.00 0.00 0.00 0.00 0.00 0.00 0.00 0.00 0.00 0.00 0.00 0.00 0.00 0.00 0.00 0.00 0.00 0.00 0.00 0.00 0.00 0.00 0.00 0.00 0.00 0.00 0.00 0.00 0.00 0.00 0.00 0.00 0.00 0.00 0.00 0.00 0.00 0.00 0.00 0.00 0.00 0.00 0.00 0.00 0.00 0.00
0.01 0.01 0.00 0.00 0.00 0.00 0.00 0.00 0.00 0.00 0.00 0.00 0.00 0.00 0.00 0.00 0.00 0.00 0.00 0.00 0.00 0.00 0.00 0.00 0.00 0.00 0.00 0.00 0.00 0.00 0.00 0.00 0.00 0.00 0.00 0.00 0.00 0.00 0.00 0.00 0.00 0.00 0.00 0.00 0.00 0.00 0.00
0.00 0.00 0.00 0.00 0.00 0.00 0.00 0.00 0.00 0.00 0.00 0.00 0.00 0.00 0.00 0.00 0.00 0.00 0.00 0.00 0.00 0.00 0.00 0.00 0.00 0.00 0.00 0.00 0.00 0.00 0.00 0.00 0.00 0.00 0.00 0.00 0.00 0.00 0.00 0.00 0.00 0.00 0.00 0.00 0.00 0.00 0.00
0.00 0.00 0.00 0.00 0.00 0.00 0.00 0.00 0.00 0.00 0.00 0.00 0.00 0.00 0.00 0.00 0.00 0.00 0.00 0.00 0.00 0.00 0.00 0.00 0.00 0.00 0.00 0.00 0.00 0.00 0.00 0.00 0.00 0.00 0.00 0.00 0.00 0.00 0.00 0.00 0.00 0.00 0.00 0.00 0.00 0.00 0.00
0.00 0.00 0.00 0.00 0.00 0.00 0.00 0.00 0.00 0.00 0.00 0.00 0.00 0.00 0.00 0.00 0.00 0.00 0.00 0.00 0.00 0.00 0.00 0.00 0.00 0.00 0.00 0.00 0.00 0.00 0.00 0.00 0.00 0.00 0.00 0.00 0.00 0.00 0.00 0.00 0.00 0.00 0.00 0.00 0.00 0.00 0.00

GFSGBSN_prec_precacc12_126.txt.gz
Total_Precipitation_Accumulation
0.02 0.02 0.03 0.05 0.04 0.03 0.03 0.03 0.06 0.01 0.02 0.03 0.07 0.07 0.02 0.02 0.01 0.00 0.00 0.00 0.01 0.03 0.07 0.23 0.36 0.96 1.02 0.84 0.71 0.37 0.11 0.15 0.00 0.00 0.00 0.00 0.00 0.00 0.00 0.00 0.00 0.00 0.00 0.00 0.00 0.00 0.00
0.02 0.02 0.03 0.05 0.04 0.03 0.03 0.02 0.06 0.03 0.02 0.03 0.05 0.05 0.04 0.04 0.01 0.00 0.00 0.00 0.02 0.02 0.04 0.12 0.32 0.66 0.53 0.74 0.67 0.31 0.20 0.14 0.00 0.00 0.00 0.00 0.00 0.00 0.00 0.00 0.00 0.00 0.00 0.00 0.00 0.00 0.00
0.02 0.02 0.02 0.04 0.03 0.03 0.02 0.02 0.04 0.02 0.02 0.02 0.03 0.02 0.04 0.05 0.05 0.02 0.02 0.03 0.03 0.03 0.04 0.05 0.19 0.34 0.44 0.87 0.53 0.34 0.23 0.13 0.00 0.00 0.00 0.00 0.00 0.00 0.00 0.00 0.00 0.00 0.00 0.00 0.00 0.00 0.00
0.01 0.02 0.03 0.03 0.04 0.03 0.02 0.01 0.03 0.01 0.00 0.03 0.02 0.01 0.01 0.07 0.05 0.04 0.04 0.06 0.04 0.05 0.08 0.17 0.26 0.22 0.65 0.69 0.32 0.20 0.18 0.08 0.00 0.00 0.00 0.00 0.00 0.00 0.00 0.00 0.00 0.00 0.00 0.00 0.00 0.00 0.00
0.01 0.01 0.02 0.03 0.03 0.03 0.03 0.02 0.02 0.01 0.00 0.01 0.01 0.00 0.00 0.02 0.09 0.11 0.10 0.24 0.39 0.41 0.28 0.21 0.17 0.13 0.57 0.47 0.32 0.12 0.06 0.03 0.00 0.00 0.00 0.00 0.00 0.00 0.00 0.00 0.00 0.00 0.00 0.00 0.00 0.00 0.00
0.01 0.01 0.01 0.02 0.03 0.03 0.03 0.02 0.01 0.01 0.00 0.00 0.00 0.00 0.00 0.00 0.01 0.05 0.11 0.13 0.15 0.17 0.22 0.12 0.09 0.17 0.38 0.35 0.18 0.04 0.01 0.00 0.00 0.00 0.00 0.00 0.00 0.00 0.00 0.00 0.00 0.00 0.00 0.00 0.00 0.00 0.00
0.01 0.01 0.01 0.01 0.02 0.02 0.03 0.02 0.02 0.01 0.00 0.00 0.00 0.00 0.00 0.00 0.00 0.00 0.00 0.01 0.03 0.15 0.23 0.30 0.31 0.21 0.28 0.10 0.05 0.00 0.00 0.00 0.00 0.00 0.00 0.00 0.00 0.00 0.00 0.00 0.00 0.00 0.00 0.00 0.00 0.00 0.00
0.02 0.01 0.01 0.01 0.01 0.02 0.02 0.02 0.02 0.01 0.00 0.00 0.00 0.00 0.00 0.00 0.00 0.00 0.00 0.00 0.00 0.04 0.06 0.06 0.06 0.03 0.03 0.02 0.02 0.00 0.00 0.00 0.00 0.00 0.00 0.00 0.00 0.00 0.00 0.00 0.00 0.00 0.00 0.00 0.00 0.00 0.00
0.02 0.01 0.01 0.01 0.01 0.01 0.02 0.02 0.01 0.01 0.00 0.00 0.00 0.00 0.00 0.00 0.00 0.00 0.00 0.00 0.00 0.00 0.00 0.00 0.00 0.01 0.01 0.01 0.00 0.00 0.00 0.00 0.00 0.00 0.00 0.00 0.00 0.00 0.00 0.00 0.00 0.00 0.00 0.00 0.00 0.00 0.00
0.02 0.02 0.01 0.01 0.01 0.02 0.02 0.01 0.01 0.01 0.00 0.00 0.00 0.00 0.00 0.00 0.00 0.00 0.00 0.00 0.00 0.00 0.00 0.00 0.00 0.00 0.00 0.00 0.00 0.00 0.00 0.00 0.00 0.00 0.00 0.00 0.00 0.00 0.00 0.00 0.00 0.00 0.00 0.00 0.00 0.00 0.00
0.02 0.02 0.01 0.00 0.01 0.02 0.02 0.02 0.01 0.00 0.00 0.00 0.00 0.00 0.00 0.00 0.00 0.00 0.00 0.00 0.00 0.00 0.01 0.00 0.00 0.00 0.00 0.00 0.00 0.00 0.00 0.00 0.00 0.00 0.00 0.00 0.00 0.00 0.00 0.00 0.00 0.00 0.00 0.00 0.00 0.00 0.00
0.02 0.02 0.01 0.00 0.00 0.01 0.01 0.02 0.01 0.00 0.00 0.00 0.00 0.00 0.00 0.00 0.00 0.00 0.00 0.00 0.00 0.00 0.02 0.00 0.00 0.00 0.00 0.00 0.00 0.00 0.00 0.00 0.00 0.00 0.00 0.00 0.00 0.00 0.00 0.00 0.00 0.00 0.00 0.00 0.00 0.00 0.00
0.01 0.01 0.02 0.00 0.00 0.01 0.01 0.01 0.01 0.00 0.00 0.00 0.00 0.00 0.00 0.00 0.00 0.00 0.00 0.00 0.00 0.01 0.01 0.00 0.00 0.00 0.00 0.00 0.00 0.00 0.00 0.00 0.00 0.00 0.00 0.00 0.00 0.00 0.00 0.00 0.00 0.00 0.00 0.00 0.01 0.01 0.00
0.01 0.01 0.01 0.01 0.00 0.00 0.01 0.01 0.01 0.00 0.00 0.00 0.00 0.00 0.00 0.00 0.00 0.00 0.00 0.00 0.00 0.02 0.00 0.00 0.00 0.00 0.00 0.00 0.00 0.00 0.00 0.00 0.00 0.00 0.00 0.00 0.00 0.00 0.00 0.00 0.00 0.00 0.00 0.01 0.01 0.01 0.01
0.00 0.01 0.01 0.00 0.00 0.00 0.00 0.00 0.00 0.00 0.00 0.00 0.00 0.00 0.00 0.00 0.00 0.00 0.00 0.00 0.00 0.00 0.00 0.00 0.00 0.00 0.00 0.00 0.00 0.00 0.00 0.00 0.00 0.00 0.00 0.00 0.00 0.00 0.00 0.00 0.00 0.01 0.02 0.01 0.01 0.01 0.01
0.01 0.01 0.01 0.00 0.00 0.00 0.00 0.00 0.00 0.00 0.00 0.00 0.00 0.00 0.00 0.00 0.00 0.00 0.00 0.00 0.00 0.00 0.00 0.00 0.01 0.00 0.00 0.00 0.00 0.00 0.00 0.00 0.00 0.00 0.00 0.00 0.00 0.00 0.00 0.00 0.00 0.00 0.01 0.03 0.04 0.02 0.02
0.00 0.00 0.00 0.00 0.00 0.00 0.00 0.00 0.00 0.00 0.00 0.00 0.00 0.00 0.00 0.00 0.00 0.00 0.00 0.00 0.00 0.00 0.00 0.00 0.00 0.00 0.00 0.00 0.00 0.00 0.00 0.00 0.00 0.00 0.00 0.00 0.00 0.00 0.00 0.00 0.00 0.01 0.01 0.01 0.01 0.01 0.01
0.00 0.00 0.00 0.00 0.00 0.00 0.00 0.00 0.00 0.00 0.00 0.00 0.00 0.00 0.00 0.00 0.00 0.00 0.00 0.00 0.00 0.00 0.00 0.00 0.00 0.00 0.00 0.00 0.00 0.00 0.00 0.00 0.00 0.00 0.00 0.00 0.00 0.00 0.00 0.00 0.00 0.00 0.00 0.01 0.02 0.02 0.00
0.00 0.00 0.00 0.00 0.00 0.00 0.00 0.00 0.00 0.00 0.00 0.00 0.00 0.00 0.00 0.00 0.00 0.00 0.00 0.00 0.00 0.00 0.00 0.00 0.00 0.00 0.00 0.00 0.00 0.00 0.00 0.00 0.00 0.00 0.00 0.00 0.00 0.00 0.00 0.00 0.00 0.00 0.00 0.00 0.00 0.01 0.01
0.00 0.00 0.00 0.00 0.00 0.00 0.00 0.00 0.00 0.00 0.00 0.00 0.00 0.00 0.00 0.00 0.00 0.00 0.00 0.00 0.00 0.00 0.00 0.00 0.00 0.00 0.00 0.00 0.00 0.00 0.00 0.00 0.00 0.00 0.00 0.00 0.00 0.00 0.00 0.00 0.00 0.00 0.00 0.00 0.00 0.01 0.00
0.00 0.00 0.00 0.00 0.00 0.00 0.00 0.00 0.00 0.00 0.00 0.00 0.00 0.00 0.00 0.00 0.00 0.00 0.00 0.00 0.00 0.00 0.00 0.00 0.00 0.00 0.00 0.00 0.00 0.00 0.00 0.00 0.00 0.00 0.00 0.00 0.00 0.00 0.00 0.00 0.00 0.00 0.00 0.00 0.00 0.00 0.00
0.00 0.00 0.00 0.00 0.00 0.00 0.00 0.00 0.00 0.00 0.00 0.00 0.00 0.00 0.00 0.00 0.00 0.00 0.00 0.00 0.00 0.00 0.00 0.00 0.00 0.00 0.00 0.00 0.00 0.00 0.00 0.00 0.00 0.00 0.00 0.00 0.00 0.00 0.00 0.00 0.00 0.00 0.00 0.00 0.00 0.00 0.00
0.00 0.00 0.00 0.00 0.00 0.00 0.00 0.00 0.00 0.00 0.00 0.00 0.00 0.00 0.00 0.00 0.00 0.00 0.00 0.00 0.00 0.00 0.00 0.00 0.00 0.00 0.00 0.00 0.00 0.00 0.00 0.00 0.00 0.00 0.00 0.00 0.00 0.00 0.00 0.00 0.00 0.00 0.00 0.00 0.00 0.00 0.00
0.01 0.00 0.00 0.00 0.00 0.00 0.00 0.00 0.00 0.00 0.00 0.00 0.00 0.00 0.00 0.00 0.00 0.00 0.00 0.00 0.00 0.00 0.00 0.00 0.00 0.00 0.00 0.00 0.00 0.00 0.00 0.00 0.00 0.00 0.00 0.00 0.00 0.00 0.00 0.00 0.00 0.00 0.00 0.00 0.00 0.00 0.00
0.01 0.00 0.00 0.00 0.00 0.00 0.00 0.00 0.00 0.00 0.00 0.00 0.00 0.00 0.00 0.00 0.00 0.00 0.00 0.00 0.00 0.00 0.00 0.00 0.00 0.00 0.00 0.00 0.00 0.00 0.00 0.00 0.00 0.00 0.00 0.00 0.00 0.00 0.00 0.00 0.00 0.00 0.00 0.00 0.00 0.00 0.00
0.00 0.01 0.01 0.00 0.00 0.00 0.00 0.00 0.00 0.00 0.00 0.00 0.00 0.00 0.00 0.00 0.00 0.00 0.00 0.00 0.00 0.00 0.00 0.00 0.00 0.00 0.00 0.00 0.00 0.00 0.00 0.00 0.00 0.00 0.00 0.00 0.00 0.00 0.00 0.00 0.00 0.00 0.00 0.00 0.00 0.00 0.00
0.00 0.00 0.00 0.00 0.00 0.00 0.00 0.00 0.00 0.00 0.00 0.00 0.00 0.00 0.00 0.00 0.00 0.00 0.00 0.00 0.00 0.00 0.00 0.00 0.00 0.00 0.00 0.00 0.00 0.00 0.00 0.00 0.00 0.00 0.00 0.00 0.00 0.00 0.00 0.00 0.00 0.00 0.00 0.00 0.00 0.00 0.00
0.00 0.00 0.00 0.00 0.00 0.00 0.00 0.00 0.00 0.00 0.00 0.00 0.00 0.00 0.00 0.00 0.00 0.00 0.00 0.00 0.00 0.00 0.00 0.00 0.00 0.00 0.00 0.00 0.00 0.00 0.00 0.00 0.00 0.00 0.00 0.00 0.00 0.00 0.00 0.00 0.00 0.00 0.00 0.00 0.00 0.00 0.00
0.00 0.00 0.00 0.00 0.00 0.00 0.00 0.00 0.00 0.00 0.00 0.00 0.00 0.00 0.00 0.00 0.00 0.00 0.00 0.00 0.00 0.00 0.00 0.00 0.00 0.00 0.00 0.00 0.00 0.00 0.00 0.00 0.00 0.00 0.00 0.00 0.00 0.00 0.00 0.00 0.00 0.00 0.00 0.00 0.00 0.00 0.00

GFSGBSN_prec_precacc12_129.txt.gz
Total_Precipitation_Accumulation
0.03 0.02 0.03 0.05 0.04 0.02 0.01 0.02 0.05 0.01 0.02 0.04 0.07 0.07 0.06 0.03 0.01 0.00 0.02 0.08 0.23 0.25 0.19 0.33 0.51 1.23 1.17 1.12 0.93 0.38 0.07 0.03 0.00 0.00 0.00 0.00 0.00 0.00 0.00 0.00 0.00 0.00 0.00 0.00 0.00 0.00 0.00
0.02 0.02 0.02 0.04 0.03 0.02 0.02 0.01 0.03 0.02 0.01 0.01 0.04 0.06 0.05 0.07 0.04 0.05 0.05 0.09 0.16 0.13 0.14 0.28 0.46 0.96 0.54 0.82 0.69 0.29 0.15 0.02 0.00 0.00 0.00 0.00 0.00 0.00 0.00 0.00 0.00 0.00 0.00 0.00 0.00 0.00 0.00
0.01 0.02 0.02 0.03 0.03 0.03 0.02 0.01 0.01 0.02 0.01 0.00 0.00 0.02 0.04 0.07 0.10 0.10 0.08 0.09 0.15 0.11 0.10 0.17 0.31 0.45 0.37 0.87 0.54 0.32 0.18 0.09 0.00 0.00 0.00 0.00 0.00 0.00 0.00 0.00 0.00 0.00 0.00 0.00 0.00 0.00 0.00
0.01 0.02 0.02 0.02 0.03 0.03 0.02 0.01 0.01 0.00 0.00 0.00 0.00 0.00 0.01 0.07 0.06 0.07 0.09 0.08 0.04 0.05 0.10 0.18 0.29 0.25 0.53 0.54 0.27 0.20 0.17 0.07 0.00 0.00 0.00 0.00 0.00 0.00 0.00 0.00 0.00 0.00 0.00 0.00 0.00 0.00 0.00
0.00 0.01 0.01 0.02 0.03 0.03 0.03 0.01 0.01 0.00 0.00 0.00 0.00 0.00 0.00 0.02 0.06 0.08 0.08 0.21 0.22 0.10 0.13 0.11 0.16 0.11 0.41 0.33 0.21 0.08 0.04 0.03 0.00 0.00 0.00 0.00 0.00 0.00 0.00 0.00 0.00 0.00 0.00 0.00 0.00 0.00 0.00
0.01 0.00 0.01 0.02 0.02 0.03 0.03 0.02 0.01 0.00 0.00 0.00 0.00 0.00 0.00 0.00 0.00 0.02 0.05 0.09 0.10 0.08 0.07 0.02 0.03 0.05 0.20 0.18 0.10 0.03 0.01 0.00 0.00 0.00 0.00 0.00 0.00 0.00 0.00 0.00 0.00 0.00 0.00 0.00 0.00 0.00 0.00
0.02 0.01 0.01 0.01 0.02 0.02 0.02 0.02 0.01 0.00 0.00 0.00 0.00 0.00 0.00 0.00 0.00 0.00 0.00 0.01 0.02 0.13 0.13 0.13 0.13 0.06 0.09 0.03 0.00 0.00 0.00 0.00 0.00 0.00 0.00 0.00 0.00 0.00 0.00 0.00 0.00 0.00 0.00 0.00 0.00 0.00 0.00
0.02 0.01 0.01 0.01 0.02 0.02 0.02 0.02 0.01 0.01 0.00 0.00 0.00 0.00 0.00 0.00 0.00 0.00 0.00 0.00 0.00 0.03 0.05 0.04 0.03 0.01 0.01 0.01 0.00 0.00 0.00 0.00 0.00 0.00 0.00 0.00 0.00 0.00 0.00 0.00 0.00 0.00 0.00 0.00 0.00 0.00 0.00
0.02 0.02 0.01 0.00 0.01 0.01 0.02 0.01 0.01 0.01 0.00 0.00 0.00 0.00 0.00 0.00 0.00 0.00 0.00 0.00 0.00 0.00 0.00 0.00 0.00 0.00 0.01 0.01 0.00 0.00 0.00 0.00 0.00 0.00 0.00 0.00 0.00 0.00 0.00 0.00 0.00 0.00 0.00 0.00 0.00 0.00 0.00
0.03 0.02 0.01 0.00 0.01 0.01 0.02 0.01 0.01 0.00 0.00 0.00 0.00 0.00 0.00 0.00 0.00 0.00 0.00 0.00 0.00 0.00 0.00 0.00 0.00 0.00 0.00 0.00 0.00 0.00 0.00 0.00 0.00 0.00 0.00 0.00 0.00 0.00 0.00 0.00 0.00 0.00 0.00 0.00 0.00 0.00 0.00
0.02 0.03 0.01 0.00 0.00 0.01 0.01 0.02 0.01 0.00 0.00 0.00 0.00 0.00 0.00 0.00 0.00 0.00 0.00 0.00 0.00 0.00 0.01 0.00 0.00 0.00 0.00 0.00 0.00 0.00 0.00 0.00 0.00 0.00 0.00 0.00 0.00 0.00 0.00 0.00 0.00 0.00 0.00 0.00 0.00 0.00 0.00
0.01 0.01 0.01 0.00 0.00 0.01 0.01 0.01 0.01 0.00 0.00 0.00 0.00 0.00 0.00 0.00 0.00 0.00 0.00 0.00 0.00 0.00 0.01 0.00 0.00 0.00 0.00 0.00 0.00 0.00 0.00 0.00 0.00 0.00 0.00 0.00 0.00 0.00 0.00 0.00 0.00 0.00 0.00 0.00 0.00 0.00 0.00
0.01 0.01 0.01 0.00 0.00 0.01 0.01 0.00 0.01 0.00 0.00 0.00 0.00 0.00 0.00 0.00 0.00 0.00 0.00 0.00 0.00 0.01 0.00 0.00 0.00 0.00 0.00 0.00 0.00 0.00 0.00 0.00 0.00 0.00 0.00 0.00 0.00 0.00 0.00 0.00 0.00 0.00 0.00 0.00 0.00 0.00 0.00
0.01 0.01 0.01 0.00 0.00 0.00 0.01 0.00 0.00 0.00 0.00 0.00 0.00 0.00 0.00 0.00 0.00 0.00 0.00 0.00 0.00 0.01 0.00 0.00 0.00 0.00 0.00 0.00 0.00 0.00 0.00 0.00 0.00 0.00 0.00 0.00 0.00 0.00 0.00 0.00 0.00 0.00 0.00 0.00 0.00 0.00 0.00
0.00 0.01 0.00 0.00 0.00 0.00 0.00 0.00 0.00 0.00 0.00 0.00 0.00 0.00 0.00 0.00 0.00 0.00 0.00 0.00 0.00 0.00 0.00 0.00 0.00 0.00 0.00 0.00 0.00 0.00 0.00 0.00 0.00 0.00 0.00 0.00 0.00 0.00 0.00 0.00 0.00 0.00 0.00 0.00 0.00 0.00 0.00
0.00 0.01 0.01 0.00 0.00 0.00 0.00 0.00 0.00 0.00 0.00 0.00 0.00 0.00 0.00 0.00 0.00 0.00 0.00 0.00 0.00 0.00 0.00 0.00 0.00 0.00 0.00 0.00 0.00 0.00 0.00 0.00 0.00 0.00 0.00 0.00 0.00 0.00 0.00 0.00 0.00 0.00 0.00 0.01 0.02 0.01 0.01
0.00 0.00 0.00 0.00 0.00 0.00 0.00 0.00 0.00 0.00 0.00 0.00 0.00 0.00 0.00 0.00 0.00 0.00 0.00 0.00 0.00 0.00 0.00 0.00 0.00 0.00 0.00 0.00 0.00 0.00 0.00 0.00 0.00 0.00 0.00 0.00 0.00 0.00 0.00 0.00 0.00 0.00 0.00 0.00 0.01 0.00 0.00
0.00 0.00 0.00 0.00 0.00 0.00 0.00 0.00 0.00 0.00 0.00 0.00 0.00 0.00 0.00 0.00 0.00 0.00 0.00 0.00 0.00 0.00 0.00 0.00 0.00 0.00 0.00 0.00 0.00 0.00 0.00 0.00 0.00 0.00 0.00 0.00 0.00 0.00 0.00 0.00 0.00 0.00 0.00 0.00 0.01 0.01 0.00
0.01 0.00 0.00 0.00 0.00 0.00 0.00 0.00 0.00 0.00 0.00 0.00 0.00 0.00 0.00 0.00 0.00 0.00 0.00 0.00 0.00 0.00 0.00 0.00 0.00 0.00 0.00 0.00 0.00 0.00 0.00 0.00 0.00 0.00 0.00 0.00 0.00 0.00 0.00 0.00 0.00 0.00 0.00 0.00 0.00 0.00 0.00
0.01 0.01 0.00 0.00 0.00 0.00 0.00 0.00 0.00 0.00 0.00 0.00 0.00 0.00 0.00 0.00 0.00 0.00 0.00 0.00 0.00 0.00 0.00 0.00 0.00 0.00 0.00 0.00 0.00 0.00 0.00 0.00 0.00 0.00 0.00 0.00 0.00 0.00 0.00 0.00 0.00 0.00 0.00 0.00 0.00 0.00 0.00
0.01 0.01 0.00 0.00 0.00 0.00 0.00 0.00 0.00 0.00 0.00 0.00 0.00 0.00 0.00 0.00 0.00 0.00 0.00 0.00 0.00 0.00 0.00 0.00 0.00 0.00 0.00 0.00 0.00 0.00 0.00 0.00 0.00 0.00 0.00 0.00 0.00 0.00 0.00 0.00 0.00 0.00 0.00 0.00 0.00 0.00 0.00
0.01 0.00 0.00 0.00 0.00 0.00 0.00 0.00 0.00 0.00 0.00 0.00 0.00 0.00 0.00 0.00 0.00 0.00 0.00 0.00 0.00 0.00 0.00 0.00 0.00 0.00 0.00 0.00 0.00 0.00 0.00 0.00 0.00 0.00 0.00 0.00 0.00 0.00 0.00 0.00 0.00 0.00 0.00 0.00 0.00 0.00 0.00
0.01 0.01 0.00 0.00 0.00 0.00 0.00 0.00 0.00 0.00 0.00 0.00 0.00 0.00 0.00 0.00 0.00 0.00 0.00 0.00 0.00 0.00 0.00 0.00 0.00 0.00 0.00 0.00 0.00 0.00 0.00 0.00 0.00 0.00 0.00 0.00 0.00 0.00 0.00 0.00 0.00 0.00 0.00 0.00 0.00 0.00 0.00
0.01 0.01 0.01 0.00 0.00 0.00 0.00 0.00 0.00 0.00 0.00 0.00 0.00 0.00 0.00 0.00 0.00 0.00 0.00 0.00 0.00 0.00 0.00 0.00 0.00 0.00 0.00 0.00 0.00 0.00 0.00 0.00 0.00 0.00 0.00 0.00 0.00 0.00 0.00 0.00 0.00 0.00 0.00 0.00 0.00 0.00 0.00
0.00 0.00 0.01 0.01 0.01 0.00 0.00 0.00 0.00 0.00 0.00 0.00 0.00 0.00 0.00 0.00 0.00 0.00 0.00 0.00 0.00 0.00 0.00 0.00 0.00 0.00 0.00 0.00 0.00 0.00 0.00 0.00 0.00 0.00 0.00 0.00 0.00 0.00 0.00 0.00 0.00 0.00 0.00 0.00 0.00 0.00 0.00
0.00 0.00 0.01 0.02 0.01 0.00 0.00 0.00 0.00 0.00 0.00 0.00 0.00 0.00 0.00 0.00 0.00 0.00 0.00 0.00 0.00 0.00 0.00 0.00 0.00 0.00 0.00 0.00 0.00 0.00 0.00 0.00 0.00 0.00 0.00 0.00 0.00 0.00 0.00 0.00 0.00 0.00 0.00 0.00 0.00 0.00 0.00
0.00 0.00 0.00 0.01 0.01 0.00 0.00 0.00 0.00 0.00 0.00 0.00 0.00 0.00 0.00 0.00 0.00 0.00 0.00 0.00 0.00 0.00 0.00 0.00 0.00 0.00 0.00 0.00 0.00 0.00 0.00 0.00 0.00 0.00 0.00 0.00 0.00 0.00 0.00 0.00 0.00 0.00 0.00 0.00 0.00 0.00 0.00
0.01 0.00 0.00 0.00 0.00 0.00 0.00 0.00 0.00 0.00 0.00 0.00 0.00 0.00 0.00 0.00 0.00 0.00 0.00 0.00 0.00 0.00 0.00 0.00 0.00 0.00 0.00 0.00 0.00 0.00 0.00 0.00 0.00 0.00 0.00 0.00 0.00 0.00 0.00 0.00 0.00 0.00 0.00 0.00 0.00 0.00 0.00
0.00 0.01 0.00 0.00 0.00 0.00 0.00 0.00 0.00 0.00 0.00 0.00 0.00 0.00 0.00 0.00 0.00 0.00 0.00 0.00 0.00 0.00 0.00 0.00 0.00 0.00 0.00 0.00 0.00 0.00 0.00 0.00 0.00 0.00 0.00 0.00 0.00 0.00 0.00 0.00 0.00 0.00 0.00 0.00 0.00 0.00 0.00

GFSGBSN_prec_precacc12_132.txt.gz
Total_Precipitation_Accumulation
0.02 0.02 0.03 0.04 0.04 0.02 0.01 0.01 0.01 0.00 0.01 0.04 0.07 0.06 0.07 0.06 0.07 0.12 0.28 0.42 0.55 0.45 0.26 0.38 0.56 1.10 1.26 1.25 1.00 0.32 0.04 0.00 0.00 0.00 0.00 0.00 0.00 0.00 0.00 0.00 0.00 0.00 0.00 0.00 0.00 0.00 0.00
0.02 0.02 0.02 0.03 0.04 0.03 0.02 0.00 0.00 0.00 0.00 0.01 0.04 0.06 0.05 0.08 0.10 0.23 0.46 0.39 0.36 0.30 0.24 0.34 0.42 0.66 0.53 0.80 0.62 0.27 0.07 0.00 0.00 0.00 0.00 0.00 0.00 0.00 0.00 0.00 0.00 0.00 0.00 0.00 0.00 0.00 0.00
0.01 0.02 0.02 0.02 0.03 0.04 0.02 0.01 0.00 0.00 0.00 0.00 0.00 0.02 0.04 0.07 0.11 0.12 0.13 0.24 0.30 0.32 0.30 0.24 0.23 0.31 0.30 0.75 0.38 0.24 0.04 0.00 0.00 0.00 0.00 0.00 0.00 0.00 0.00 0.00 0.00 0.00 0.00 0.00 0.00 0.00 0.00
0.01 0.02 0.02 0.02 0.02 0.03 0.03 0.01 0.00 0.00 0.00 0.00 0.00 0.00 0.01 0.07 0.06 0.06 0.09 0.08 0.11 0.17 0.21 0.18 0.16 0.15 0.40 0.37 0.16 0.08 0.05 0.01 0.00 0.00 0.00 0.00 0.00 0.00 0.00 0.00 0.00 0.00 0.00 0.00 0.00 0.00 0.00
0.01 0.01 0.02 0.02 0.02 0.02 0.02 0.01 0.00 0.00 0.00 0.00 0.00 0.00 0.00 0.01 0.04 0.03 0.03 0.02 0.02 0.06 0.11 0.11 0.10 0.06 0.31 0.16 0.11 0.04 0.03 0.01 0.00 0.00 0.00 0.00 0.00 0.00 0.00 0.00 0.00 0.00 0.00 0.00 0.00 0.00 0.00
0.02 0.01 0.01 0.02 0.03 0.02 0.02 0.01 0.01 0.00 0.00 0.00 0.00 0.00 0.00 0.00 0.00 0.01 0.01 0.00 0.00 0.01 0.03 0.06 0.03 0.06 0.19 0.11 0.05 0.02 0.01 0.00 0.00 0.00 0.00 0.00 0.00 0.00 0.00 0.00 0.00 0.00 0.00 0.00 0.00 0.00 0.00
0.03 0.01 0.01 0.01 0.03 0.03 0.02 0.01 0.01 0.00 0.00 0.00 0.00 0.00 0.00 0.00 0.00 0.00 0.00 0.00 0.00 0.03 0.01 0.03 0.02 0.01 0.01 0.00 0.00 0.00 0.00 0.00 0.00 0.00 0.00 0.00 0.00 0.00 0.00 0.00 0.00 0.00 0.00 0.00 0.00 0.00 0.00
0.03 0.01 0.01 0.01 0.02 0.02 0.02 0.02 0.01 0.00 0.00 0.00 0.00 0.00 0.00 0.00 0.00 0.00 0.00 0.00 0.00 0.01 0.01 0.00 0.00 0.00 0.00 0.00 0.00 0.00 0.00 0.00 0.00 0.00 0.00 0.00 0.00 0.00 0.00 0.00 0.00 0.00 0.00 0.00 0.00 0.00 0.00
0.02 0.02 0.01 0.01 0.02 0.02 0.02 0.01 0.01 0.00 0.00 0.00 0.00 0.00 0.00 0.00 0.00 0.00 0.00 0.00 0.00 0.00 0.00 0.00 0.00 0.00 0.00 0.00 0.00 0.00 0.00 0.00 0.00 0.00 0.00 0.00 0.00 0.00 0.00 0.00 0.00 0.00 0.00 0.00 0.00 0.00 0.00
0.02 0.02 0.01 0.01 0.01 0.01 0.01 0.01 0.00 0.00 0.00 0.00 0.00 0.00 0.00 0.00 0.00 0.00 0.00 0.00 0.00 0.00 0.00 0.00 0.00 0.00 0.00 0.00 0.00 0.00 0.00 0.00 0.00 0.00 0.00 0.00 0.00 0.00 0.00 0.00 0.00 0.00 0.00 0.00 0.00 0.00 0.00
0.02 0.02 0.01 0.00 0.01 0.01 0.01 0.01 0.01 0.00 0.00 0.00 0.00 0.00 0.00 0.00 0.00 0.00 0.00 0.00 0.00 0.00 0.00 0.00 0.00 0.00 0.00 0.00 0.00 0.00 0.00 0.00 0.00 0.00 0.00 0.00 0.00 0.00 0.00 0.00 0.00 0.00 0.00 0.00 0.00 0.00 0.00
0.01 0.01 0.01 0.00 0.00 0.01 0.01 0.01 0.01 0.00 0.00 0.00 0.00 0.00 0.00 0.00 0.00 0.00 0.00 0.00 0.00 0.00 0.00 0.00 0.00 0.00 0.00 0.00 0.00 0.00 0.00 0.00 0.00 0.00 0.00 0.00 0.00 0.00 0.00 0.00 0.00 0.00 0.00 0.00 0.00 0.00 0.00
0.01 0.01 0.01 0.00 0.00 0.00 0.00 0.00 0.01 0.00 0.00 0.00 0.00 0.00 0.00 0.00 0.00 0.00 0.00 0.00 0.00 0.00 0.00 0.00 0.00 0.00 0.00 0.00 0.00 0.00 0.00 0.00 0.00 0.00 0.00 0.00 0.00 0.00 0.00 0.00 0.00 0.00 0.00 0.00 0.00 0.00 0.00
0.00 0.01 0.01 0.00 0.00 0.00 0.00 0.00 0.00 0.00 0.00 0.00 0.00 0.00 0.00 0.00 0.00 0.00 0.00 0.00 0.00 0.00 0.00 0.00 0.00 0.00 0.00 0.00 0.00 0.00 0.00 0.00 0.00 0.00 0.00 0.00 0.00 0.00 0.00 0.00 0.00 0.00 0.00 0.00 0.00 0.00 0.00
0.00 0.00 0.00 0.00 0.00 0.00 0.00 0.00 0.00 0.00 0.00 0.00 0.00 0.00 0.00 0.00 0.00 0.00 0.00 0.00 0.00 0.00 0.00 0.00 0.00 0.00 0.00 0.00 0.00 0.00 0.00 0.00 0.00 0.00 0.00 0.00 0.00 0.00 0.00 0.00 0.00 0.00 0.00 0.00 0.00 0.00 0.00
0.01 0.00 0.00 0.00 0.00 0.00 0.00 0.00 0.00 0.00 0.00 0.00 0.00 0.00 0.00 0.00 0.00 0.00 0.00 0.00 0.00 0.00 0.00 0.00 0.00 0.00 0.00 0.00 0.00 0.00 0.00 0.00 0.00 0.00 0.00 0.00 0.00 0.00 0.00 0.00 0.00 0.00 0.00 0.00 0.00 0.00 0.00
0.01 0.00 0.00 0.00 0.00 0.00 0.00 0.00 0.00 0.00 0.00 0.00 0.00 0.00 0.00 0.00 0.00 0.00 0.00 0.00 0.00 0.00 0.00 0.00 0.00 0.00 0.00 0.00 0.00 0.00 0.00 0.00 0.00 0.00 0.00 0.00 0.00 0.00 0.00 0.00 0.00 0.00 0.00 0.00 0.00 0.00 0.00
0.01 0.00 0.00 0.00 0.00 0.00 0.00 0.00 0.00 0.00 0.00 0.00 0.00 0.00 0.00 0.00 0.00 0.00 0.00 0.00 0.00 0.00 0.00 0.00 0.00 0.00 0.00 0.00 0.00 0.00 0.00 0.00 0.00 0.00 0.00 0.00 0.00 0.00 0.00 0.00 0.00 0.00 0.00 0.00 0.00 0.00 0.00
0.01 0.00 0.00 0.00 0.00 0.00 0.00 0.00 0.00 0.00 0.00 0.00 0.00 0.00 0.00 0.00 0.00 0.00 0.00 0.00 0.00 0.00 0.00 0.00 0.00 0.00 0.00 0.00 0.00 0.00 0.00 0.00 0.00 0.00 0.00 0.00 0.00 0.00 0.00 0.00 0.00 0.00 0.00 0.00 0.00 0.00 0.00
0.01 0.01 0.00 0.00 0.00 0.00 0.00 0.00 0.00 0.00 0.00 0.00 0.00 0.00 0.00 0.00 0.00 0.00 0.00 0.00 0.00 0.00 0.00 0.00 0.00 0.00 0.00 0.00 0.00 0.00 0.00 0.00 0.00 0.00 0.00 0.00 0.00 0.00 0.00 0.00 0.00 0.00 0.00 0.00 0.00 0.00 0.00
0.01 0.01 0.01 0.00 0.00 0.00 0.00 0.00 0.00 0.00 0.00 0.00 0.00 0.00 0.00 0.00 0.00 0.00 0.00 0.00 0.00 0.00 0.00 0.00 0.00 0.00 0.00 0.00 0.00 0.00 0.00 0.00 0.00 0.00 0.00 0.00 0.00 0.00 0.00 0.00 0.00 0.00 0.00 0.00 0.00 0.00 0.00
0.01 0.01 0.01 0.01 0.00 0.00 0.00 0.00 0.00 0.00 0.00 0.00 0.00 0.00 0.00 0.00 0.00 0.00 0.00 0.00 0.00 0.00 0.00 0.00 0.00 0.00 0.00 0.00 0.00 0.00 0.00 0.00 0.00 0.00 0.00 0.00 0.00 0.00 0.00 0.00 0.00 0.00 0.00 0.00 0.00 0.00 0.00
0.01 0.01 0.01 0.01 0.00 0.00 0.00 0.00 0.00 0.00 0.00 0.00 0.00 0.00 0.00 0.00 0.00 0.00 0.00 0.00 0.00 0.00 0.00 0.00 0.00 0.00 0.00 0.00 0.00 0.00 0.00 0.00 0.00 0.00 0.00 0.00 0.00 0.00 0.00 0.00 0.00 0.00 0.00 0.00 0.00 0.00 0.00
0.01 0.01 0.01 0.01 0.01 0.00 0.00 0.00 0.00 0.00 0.00 0.00 0.00 0.00 0.00 0.00 0.00 0.00 0.00 0.00 0.00 0.00 0.00 0.00 0.00 0.00 0.00 0.00 0.00 0.00 0.00 0.00 0.00 0.00 0.00 0.00 0.00 0.00 0.00 0.00 0.00 0.00 0.00 0.00 0.00 0.00 0.00
0.00 0.00 0.01 0.01 0.01 0.00 0.00 0.00 0.00 0.00 0.00 0.00 0.00 0.00 0.00 0.00 0.00 0.00 0.00 0.00 0.00 0.00 0.00 0.00 0.00 0.00 0.00 0.00 0.00 0.00 0.00 0.00 0.00 0.00 0.00 0.00 0.00 0.00 0.00 0.00 0.00 0.00 0.00 0.00 0.00 0.00 0.00
0.00 0.01 0.01 0.02 0.01 0.00 0.00 0.00 0.00 0.00 0.00 0.00 0.00 0.00 0.00 0.00 0.00 0.00 0.00 0.00 0.00 0.00 0.00 0.00 0.00 0.00 0.00 0.00 0.00 0.00 0.00 0.00 0.00 0.00 0.00 0.00 0.00 0.00 0.00 0.00 0.00 0.00 0.00 0.00 0.00 0.00 0.00
0.01 0.01 0.00 0.01 0.01 0.00 0.00 0.00 0.00 0.00 0.00 0.00 0.00 0.00 0.00 0.00 0.00 0.00 0.00 0.00 0.00 0.00 0.00 0.00 0.00 0.00 0.00 0.00 0.00 0.00 0.00 0.00 0.00 0.00 0.00 0.00 0.00 0.00 0.00 0.00 0.00 0.00 0.00 0.00 0.00 0.00 0.00
0.01 0.01 0.01 0.00 0.00 0.00 0.00 0.00 0.00 0.00 0.00 0.00 0.00 0.00 0.00 0.00 0.00 0.00 0.00 0.00 0.00 0.00 0.00 0.00 0.00 0.00 0.00 0.00 0.00 0.00 0.00 0.00 0.00 0.00 0.00 0.00 0.00 0.00 0.00 0.00 0.00 0.00 0.00 0.00 0.00 0.00 0.00
0.00 0.01 0.00 0.00 0.00 0.00 0.00 0.00 0.00 0.00 0.00 0.00 0.00 0.00 0.00 0.00 0.00 0.00 0.00 0.00 0.00 0.00 0.00 0.00 0.00 0.00 0.00 0.00 0.00 0.00 0.00 0.00 0.00 0.00 0.00 0.00 0.00 0.00 0.00 0.00 0.00 0.00 0.00 0.00 0.00 0.00 0.00